<?xml version="1.0" encoding="UTF-8"?>
<gpx version="1.1" creator="https://www.youtrack.es" xsi:schemaLocation="http://www.topografix.com/GPX/1/1 http://www.topografix.com/GPX/1/1/gpx.xsd http://www.garmin.com/xmlschemas/GpxExtensions/v3 http://www.garmin.com/xmlschemas/GpxExtensionsv3.xsd http://www.garmin.com/xmlschemas/TrackPointExtension/v1 http://www.garmin.com/xmlschemas/TrackPointExtensionv1.xsd" xmlns:gpxtpx="http://www.garmin.com/xmlschemas/TrackPointExtension/v1" xmlns:gpxx="http://www.garmin.com/xmlschemas/GpxExtensions/v3" xmlns:xsi="http://www.w3.org/2001/XMLSchema-instance">
  <metadata>
    <link href="https://www.youtrack.es">
      <text>YouTrack.es</text>
    </link>
    <time>2026-05-09T00:46:38Z</time>
  </metadata>
  <trk>
    <src>https://www.youtrack.es</src>
    <link href="https://www.youtrack.es/ruta/8876-chorimix">
      <text>YouTrack.es</text>
    </link>
    <trkseg>
      <trkpt lat="39.9355890" lon="-0.1096140">
        <ele>46.2</ele>
        <time>2019-10-12T05:53:06Z</time>
      </trkpt>
      <trkpt lat="39.9355070" lon="-0.1095990">
        <ele>46.2</ele>
        <time>2019-10-12T05:53:08Z</time>
      </trkpt>
      <trkpt lat="39.9354670" lon="-0.1095900">
        <ele>46.2</ele>
        <time>2019-10-12T05:53:09Z</time>
      </trkpt>
      <trkpt lat="39.9354280" lon="-0.1095790">
        <ele>46.2</ele>
        <time>2019-10-12T05:53:10Z</time>
      </trkpt>
      <trkpt lat="39.9353500" lon="-0.1095070">
        <ele>46.3</ele>
        <time>2019-10-12T05:53:13Z</time>
      </trkpt>
      <trkpt lat="39.9353430" lon="-0.1094800">
        <ele>46.3</ele>
        <time>2019-10-12T05:53:14Z</time>
      </trkpt>
      <trkpt lat="39.9353710" lon="-0.1093680">
        <ele>46.4</ele>
        <time>2019-10-12T05:53:17Z</time>
      </trkpt>
      <trkpt lat="39.9354820" lon="-0.1091110">
        <ele>46.5</ele>
        <time>2019-10-12T05:53:22Z</time>
      </trkpt>
      <trkpt lat="39.9356700" lon="-0.1088300">
        <ele>46.0</ele>
        <time>2019-10-12T05:53:28Z</time>
      </trkpt>
      <trkpt lat="39.9357820" lon="-0.1086590">
        <ele>45.7</ele>
        <time>2019-10-12T05:53:32Z</time>
      </trkpt>
      <trkpt lat="39.9358160" lon="-0.1086210">
        <ele>45.6</ele>
        <time>2019-10-12T05:53:33Z</time>
      </trkpt>
      <trkpt lat="39.9358810" lon="-0.1085170">
        <ele>45.5</ele>
        <time>2019-10-12T05:53:35Z</time>
      </trkpt>
      <trkpt lat="39.9359730" lon="-0.1083570">
        <ele>45.5</ele>
        <time>2019-10-12T05:53:38Z</time>
      </trkpt>
      <trkpt lat="39.9361680" lon="-0.1080630">
        <ele>46.0</ele>
        <time>2019-10-12T05:53:44Z</time>
      </trkpt>
      <trkpt lat="39.9363310" lon="-0.1078150">
        <ele>46.4</ele>
        <time>2019-10-12T05:53:49Z</time>
      </trkpt>
      <trkpt lat="39.9364330" lon="-0.1076800">
        <ele>46.7</ele>
        <time>2019-10-12T05:53:52Z</time>
      </trkpt>
      <trkpt lat="39.9365000" lon="-0.1075800">
        <ele>46.8</ele>
        <time>2019-10-12T05:53:54Z</time>
      </trkpt>
      <trkpt lat="39.9366870" lon="-0.1072700">
        <ele>46.6</ele>
        <time>2019-10-12T05:54:00Z</time>
      </trkpt>
      <trkpt lat="39.9368160" lon="-0.1070590">
        <ele>46.4</ele>
        <time>2019-10-12T05:54:04Z</time>
      </trkpt>
      <trkpt lat="39.9368890" lon="-0.1069540">
        <ele>46.3</ele>
        <time>2019-10-12T05:54:06Z</time>
      </trkpt>
      <trkpt lat="39.9371060" lon="-0.1066290">
        <ele>46.1</ele>
        <time>2019-10-12T05:54:12Z</time>
      </trkpt>
      <trkpt lat="39.9372510" lon="-0.1063940">
        <ele>45.8</ele>
        <time>2019-10-12T05:54:17Z</time>
      </trkpt>
      <trkpt lat="39.9372900" lon="-0.1063350">
        <ele>45.8</ele>
        <time>2019-10-12T05:54:19Z</time>
      </trkpt>
      <trkpt lat="39.9372940" lon="-0.1063170">
        <ele>45.8</ele>
        <time>2019-10-12T05:54:21Z</time>
      </trkpt>
      <trkpt lat="39.9372920" lon="-0.1063020">
        <ele>45.7</ele>
        <time>2019-10-12T05:54:22Z</time>
      </trkpt>
      <trkpt lat="39.9372610" lon="-0.1062560">
        <ele>45.7</ele>
        <time>2019-10-12T05:54:24Z</time>
      </trkpt>
      <trkpt lat="39.9370830" lon="-0.1060930">
        <ele>45.7</ele>
        <time>2019-10-12T05:54:30Z</time>
      </trkpt>
      <trkpt lat="39.9367530" lon="-0.1058860">
        <ele>46.2</ele>
        <time>2019-10-12T05:54:37Z</time>
      </trkpt>
      <trkpt lat="39.9364160" lon="-0.1056580">
        <ele>46.6</ele>
        <time>2019-10-12T05:54:44Z</time>
      </trkpt>
      <trkpt lat="39.9361820" lon="-0.1054760">
        <ele>46.9</ele>
        <time>2019-10-12T05:54:49Z</time>
      </trkpt>
      <trkpt lat="39.9357930" lon="-0.1051820">
        <ele>47.2</ele>
        <time>2019-10-12T05:54:57Z</time>
      </trkpt>
      <trkpt lat="39.9356900" lon="-0.1051080">
        <ele>47.3</ele>
        <time>2019-10-12T05:54:59Z</time>
      </trkpt>
      <trkpt lat="39.9354870" lon="-0.1049460">
        <ele>47.6</ele>
        <time>2019-10-12T05:55:03Z</time>
      </trkpt>
      <trkpt lat="39.9351940" lon="-0.1046950">
        <ele>47.9</ele>
        <time>2019-10-12T05:55:09Z</time>
      </trkpt>
      <trkpt lat="39.9349960" lon="-0.1045010">
        <ele>48.0</ele>
        <time>2019-10-12T05:55:14Z</time>
      </trkpt>
      <trkpt lat="39.9349290" lon="-0.1044200">
        <ele>48.0</ele>
        <time>2019-10-12T05:55:16Z</time>
      </trkpt>
      <trkpt lat="39.9349230" lon="-0.1043400">
        <ele>48.0</ele>
        <time>2019-10-12T05:55:17Z</time>
      </trkpt>
      <trkpt lat="39.9349300" lon="-0.1042730">
        <ele>48.1</ele>
        <time>2019-10-12T05:55:18Z</time>
      </trkpt>
      <trkpt lat="39.9349760" lon="-0.1041550">
        <ele>48.0</ele>
        <time>2019-10-12T05:55:20Z</time>
      </trkpt>
      <trkpt lat="39.9350970" lon="-0.1039510">
        <ele>47.9</ele>
        <time>2019-10-12T05:55:24Z</time>
      </trkpt>
      <trkpt lat="39.9351240" lon="-0.1039010">
        <ele>47.8</ele>
        <time>2019-10-12T05:55:25Z</time>
      </trkpt>
      <trkpt lat="39.9352620" lon="-0.1036840">
        <ele>47.2</ele>
        <time>2019-10-12T05:55:31Z</time>
      </trkpt>
      <trkpt lat="39.9352800" lon="-0.1036950">
        <ele>47.2</ele>
        <time>2019-10-12T05:55:33Z</time>
      </trkpt>
      <trkpt lat="39.9352960" lon="-0.1036820">
        <ele>47.1</ele>
        <time>2019-10-12T05:55:34Z</time>
      </trkpt>
      <trkpt lat="39.9353280" lon="-0.1036550">
        <ele>47.0</ele>
        <time>2019-10-12T05:55:35Z</time>
      </trkpt>
      <trkpt lat="39.9354050" lon="-0.1035620">
        <ele>46.7</ele>
        <time>2019-10-12T05:55:37Z</time>
      </trkpt>
      <trkpt lat="39.9355080" lon="-0.1034270">
        <ele>47.1</ele>
        <time>2019-10-12T05:55:40Z</time>
      </trkpt>
      <trkpt lat="39.9356150" lon="-0.1032740">
        <ele>47.6</ele>
        <time>2019-10-12T05:55:44Z</time>
      </trkpt>
      <trkpt lat="39.9357450" lon="-0.1031100">
        <ele>47.7</ele>
        <time>2019-10-12T05:55:49Z</time>
      </trkpt>
      <trkpt lat="39.9357860" lon="-0.1030420">
        <ele>47.7</ele>
        <time>2019-10-12T05:55:51Z</time>
      </trkpt>
      <trkpt lat="39.9358260" lon="-0.1029640">
        <ele>47.7</ele>
        <time>2019-10-12T05:55:53Z</time>
      </trkpt>
      <trkpt lat="39.9358570" lon="-0.1029240">
        <ele>47.8</ele>
        <time>2019-10-12T05:55:54Z</time>
      </trkpt>
      <trkpt lat="39.9359670" lon="-0.1027720">
        <ele>48.2</ele>
        <time>2019-10-12T05:55:58Z</time>
      </trkpt>
      <trkpt lat="39.9360770" lon="-0.1026090">
        <ele>48.5</ele>
        <time>2019-10-12T05:56:03Z</time>
      </trkpt>
      <trkpt lat="39.9361500" lon="-0.1024480">
        <ele>48.8</ele>
        <time>2019-10-12T05:56:07Z</time>
      </trkpt>
      <trkpt lat="39.9361560" lon="-0.1023950">
        <ele>48.8</ele>
        <time>2019-10-12T05:56:08Z</time>
      </trkpt>
      <trkpt lat="39.9361680" lon="-0.1023380">
        <ele>48.9</ele>
        <time>2019-10-12T05:56:09Z</time>
      </trkpt>
      <trkpt lat="39.9362250" lon="-0.1022470">
        <ele>48.9</ele>
        <time>2019-10-12T05:56:11Z</time>
      </trkpt>
      <trkpt lat="39.9362590" lon="-0.1022020">
        <ele>49.0</ele>
        <time>2019-10-12T05:56:12Z</time>
      </trkpt>
      <trkpt lat="39.9363320" lon="-0.1021190">
        <ele>49.0</ele>
        <time>2019-10-12T05:56:14Z</time>
      </trkpt>
      <trkpt lat="39.9363740" lon="-0.1020860">
        <ele>49.0</ele>
        <time>2019-10-12T05:56:15Z</time>
      </trkpt>
      <trkpt lat="39.9364120" lon="-0.1020440">
        <ele>49.0</ele>
        <time>2019-10-12T05:56:16Z</time>
      </trkpt>
      <trkpt lat="39.9365540" lon="-0.1018710">
        <ele>49.0</ele>
        <time>2019-10-12T05:56:20Z</time>
      </trkpt>
      <trkpt lat="39.9365870" lon="-0.1018260">
        <ele>48.9</ele>
        <time>2019-10-12T05:56:21Z</time>
      </trkpt>
      <trkpt lat="39.9366910" lon="-0.1016870">
        <ele>48.9</ele>
        <time>2019-10-12T05:56:24Z</time>
      </trkpt>
      <trkpt lat="39.9369100" lon="-0.1013920">
        <ele>49.7</ele>
        <time>2019-10-12T05:56:30Z</time>
      </trkpt>
      <trkpt lat="39.9370130" lon="-0.1012490">
        <ele>49.7</ele>
        <time>2019-10-12T05:56:33Z</time>
      </trkpt>
      <trkpt lat="39.9370700" lon="-0.1011540">
        <ele>49.7</ele>
        <time>2019-10-12T05:56:35Z</time>
      </trkpt>
      <trkpt lat="39.9371270" lon="-0.1010700">
        <ele>49.8</ele>
        <time>2019-10-12T05:56:37Z</time>
      </trkpt>
      <trkpt lat="39.9371930" lon="-0.1009910">
        <ele>50.0</ele>
        <time>2019-10-12T05:56:39Z</time>
      </trkpt>
      <trkpt lat="39.9374060" lon="-0.1007420">
        <ele>50.1</ele>
        <time>2019-10-12T05:56:45Z</time>
      </trkpt>
      <trkpt lat="39.9375610" lon="-0.1005400">
        <ele>49.9</ele>
        <time>2019-10-12T05:56:50Z</time>
      </trkpt>
      <trkpt lat="39.9376270" lon="-0.1004760">
        <ele>49.9</ele>
        <time>2019-10-12T05:56:52Z</time>
      </trkpt>
      <trkpt lat="39.9377490" lon="-0.1002870">
        <ele>49.9</ele>
        <time>2019-10-12T05:56:56Z</time>
      </trkpt>
      <trkpt lat="39.9378210" lon="-0.1002110">
        <ele>49.9</ele>
        <time>2019-10-12T05:56:58Z</time>
      </trkpt>
      <trkpt lat="39.9378730" lon="-0.1001450">
        <ele>49.9</ele>
        <time>2019-10-12T05:57:00Z</time>
      </trkpt>
      <trkpt lat="39.9378950" lon="-0.1001140">
        <ele>49.9</ele>
        <time>2019-10-12T05:57:02Z</time>
      </trkpt>
      <trkpt lat="39.9378820" lon="-0.1000970">
        <ele>49.9</ele>
        <time>2019-10-12T05:57:03Z</time>
      </trkpt>
      <trkpt lat="39.9377890" lon="-0.0999820">
        <ele>49.9</ele>
        <time>2019-10-12T05:57:06Z</time>
      </trkpt>
      <trkpt lat="39.9377300" lon="-0.0999170">
        <ele>49.8</ele>
        <time>2019-10-12T05:57:08Z</time>
      </trkpt>
      <trkpt lat="39.9376650" lon="-0.0998480">
        <ele>49.7</ele>
        <time>2019-10-12T05:57:10Z</time>
      </trkpt>
      <trkpt lat="39.9376080" lon="-0.0997670">
        <ele>49.6</ele>
        <time>2019-10-12T05:57:12Z</time>
      </trkpt>
      <trkpt lat="39.9375860" lon="-0.0997180">
        <ele>49.5</ele>
        <time>2019-10-12T05:57:13Z</time>
      </trkpt>
      <trkpt lat="39.9375560" lon="-0.0996940">
        <ele>49.5</ele>
        <time>2019-10-12T05:57:14Z</time>
      </trkpt>
      <trkpt lat="39.9375620" lon="-0.0996330">
        <ele>49.4</ele>
        <time>2019-10-12T05:57:16Z</time>
      </trkpt>
      <trkpt lat="39.9376540" lon="-0.0995190">
        <ele>49.5</ele>
        <time>2019-10-12T05:57:20Z</time>
      </trkpt>
      <trkpt lat="39.9377150" lon="-0.0994270">
        <ele>49.5</ele>
        <time>2019-10-12T05:57:23Z</time>
      </trkpt>
      <trkpt lat="39.9378280" lon="-0.0992620">
        <ele>49.6</ele>
        <time>2019-10-12T05:57:28Z</time>
      </trkpt>
      <trkpt lat="39.9379410" lon="-0.0991170">
        <ele>49.7</ele>
        <time>2019-10-12T05:57:33Z</time>
      </trkpt>
      <trkpt lat="39.9379990" lon="-0.0990210">
        <ele>49.7</ele>
        <time>2019-10-12T05:57:38Z</time>
      </trkpt>
      <trkpt lat="39.9379990" lon="-0.0990210">
        <ele>49.7</ele>
        <time>2019-10-12T05:57:50Z</time>
      </trkpt>
      <trkpt lat="39.9379930" lon="-0.0990170">
        <ele>49.7</ele>
        <time>2019-10-12T05:58:01Z</time>
      </trkpt>
      <trkpt lat="39.9379930" lon="-0.0990170">
        <ele>49.7</ele>
        <time>2019-10-12T05:58:02Z</time>
      </trkpt>
      <trkpt lat="39.9380760" lon="-0.0988360">
        <ele>49.6</ele>
        <time>2019-10-12T06:07:23Z</time>
      </trkpt>
      <trkpt lat="39.9380840" lon="-0.0988400">
        <ele>49.6</ele>
        <time>2019-10-12T06:07:24Z</time>
      </trkpt>
      <trkpt lat="39.9381920" lon="-0.0987690">
        <ele>49.8</ele>
        <time>2019-10-12T06:07:28Z</time>
      </trkpt>
      <trkpt lat="39.9382070" lon="-0.0987800">
        <ele>49.8</ele>
        <time>2019-10-12T06:07:29Z</time>
      </trkpt>
      <trkpt lat="39.9382680" lon="-0.0988450">
        <ele>50.0</ele>
        <time>2019-10-12T06:07:33Z</time>
      </trkpt>
      <trkpt lat="39.9383110" lon="-0.0988620">
        <ele>50.0</ele>
        <time>2019-10-12T06:07:35Z</time>
      </trkpt>
      <trkpt lat="39.9383600" lon="-0.0988660">
        <ele>50.1</ele>
        <time>2019-10-12T06:07:37Z</time>
      </trkpt>
      <trkpt lat="39.9384020" lon="-0.0988880">
        <ele>50.2</ele>
        <time>2019-10-12T06:07:39Z</time>
      </trkpt>
      <trkpt lat="39.9385420" lon="-0.0990220">
        <ele>50.4</ele>
        <time>2019-10-12T06:07:45Z</time>
      </trkpt>
      <trkpt lat="39.9385650" lon="-0.0990520">
        <ele>50.4</ele>
        <time>2019-10-12T06:07:46Z</time>
      </trkpt>
      <trkpt lat="39.9385950" lon="-0.0990710">
        <ele>50.5</ele>
        <time>2019-10-12T06:07:48Z</time>
      </trkpt>
      <trkpt lat="39.9386240" lon="-0.0990310">
        <ele>50.8</ele>
        <time>2019-10-12T06:07:50Z</time>
      </trkpt>
      <trkpt lat="39.9387260" lon="-0.0988970">
        <ele>50.8</ele>
        <time>2019-10-12T06:07:54Z</time>
      </trkpt>
      <trkpt lat="39.9387980" lon="-0.0988040">
        <ele>50.7</ele>
        <time>2019-10-12T06:07:56Z</time>
      </trkpt>
      <trkpt lat="39.9388590" lon="-0.0987420">
        <ele>50.6</ele>
        <time>2019-10-12T06:07:58Z</time>
      </trkpt>
      <trkpt lat="39.9389120" lon="-0.0986750">
        <ele>50.5</ele>
        <time>2019-10-12T06:08:00Z</time>
      </trkpt>
      <trkpt lat="39.9389710" lon="-0.0986020">
        <ele>50.4</ele>
        <time>2019-10-12T06:08:02Z</time>
      </trkpt>
      <trkpt lat="39.9390360" lon="-0.0985310">
        <ele>50.3</ele>
        <time>2019-10-12T06:08:04Z</time>
      </trkpt>
      <trkpt lat="39.9391320" lon="-0.0984110">
        <ele>50.2</ele>
        <time>2019-10-12T06:08:07Z</time>
      </trkpt>
      <trkpt lat="39.9392900" lon="-0.0981630">
        <ele>49.4</ele>
        <time>2019-10-12T06:08:11Z</time>
      </trkpt>
      <trkpt lat="39.9393220" lon="-0.0981180">
        <ele>49.2</ele>
        <time>2019-10-12T06:08:12Z</time>
      </trkpt>
      <trkpt lat="39.9393810" lon="-0.0980390">
        <ele>48.8</ele>
        <time>2019-10-12T06:08:14Z</time>
      </trkpt>
      <trkpt lat="39.9394450" lon="-0.0980140">
        <ele>48.5</ele>
        <time>2019-10-12T06:08:16Z</time>
      </trkpt>
      <trkpt lat="39.9395430" lon="-0.0980110">
        <ele>48.0</ele>
        <time>2019-10-12T06:08:18Z</time>
      </trkpt>
      <trkpt lat="39.9396390" lon="-0.0980070">
        <ele>47.9</ele>
        <time>2019-10-12T06:08:20Z</time>
      </trkpt>
      <trkpt lat="39.9396860" lon="-0.0980100">
        <ele>47.8</ele>
        <time>2019-10-12T06:08:21Z</time>
      </trkpt>
      <trkpt lat="39.9397310" lon="-0.0980100">
        <ele>47.7</ele>
        <time>2019-10-12T06:08:22Z</time>
      </trkpt>
      <trkpt lat="39.9397760" lon="-0.0980060">
        <ele>47.6</ele>
        <time>2019-10-12T06:08:23Z</time>
      </trkpt>
      <trkpt lat="39.9398210" lon="-0.0980040">
        <ele>47.6</ele>
        <time>2019-10-12T06:08:24Z</time>
      </trkpt>
      <trkpt lat="39.9399640" lon="-0.0980050">
        <ele>47.3</ele>
        <time>2019-10-12T06:08:27Z</time>
      </trkpt>
      <trkpt lat="39.9400150" lon="-0.0979940">
        <ele>47.2</ele>
        <time>2019-10-12T06:08:28Z</time>
      </trkpt>
      <trkpt lat="39.9401160" lon="-0.0979620">
        <ele>46.9</ele>
        <time>2019-10-12T06:08:30Z</time>
      </trkpt>
      <trkpt lat="39.9401680" lon="-0.0979380">
        <ele>46.9</ele>
        <time>2019-10-12T06:08:31Z</time>
      </trkpt>
      <trkpt lat="39.9403170" lon="-0.0978700">
        <ele>46.9</ele>
        <time>2019-10-12T06:08:34Z</time>
      </trkpt>
      <trkpt lat="39.9404260" lon="-0.0978230">
        <ele>47.0</ele>
        <time>2019-10-12T06:08:36Z</time>
      </trkpt>
      <trkpt lat="39.9406680" lon="-0.0977040">
        <ele>46.9</ele>
        <time>2019-10-12T06:08:41Z</time>
      </trkpt>
      <trkpt lat="39.9407080" lon="-0.0976850">
        <ele>46.9</ele>
        <time>2019-10-12T06:08:42Z</time>
      </trkpt>
      <trkpt lat="39.9407440" lon="-0.0976700">
        <ele>46.9</ele>
        <time>2019-10-12T06:08:43Z</time>
      </trkpt>
      <trkpt lat="39.9408580" lon="-0.0976530">
        <ele>46.9</ele>
        <time>2019-10-12T06:08:46Z</time>
      </trkpt>
      <trkpt lat="39.9408960" lon="-0.0976470">
        <ele>46.9</ele>
        <time>2019-10-12T06:08:47Z</time>
      </trkpt>
      <trkpt lat="39.9409810" lon="-0.0976300">
        <ele>46.9</ele>
        <time>2019-10-12T06:08:49Z</time>
      </trkpt>
      <trkpt lat="39.9410850" lon="-0.0976120">
        <ele>47.0</ele>
        <time>2019-10-12T06:08:51Z</time>
      </trkpt>
      <trkpt lat="39.9412280" lon="-0.0975850">
        <ele>47.1</ele>
        <time>2019-10-12T06:08:54Z</time>
      </trkpt>
      <trkpt lat="39.9413230" lon="-0.0975480">
        <ele>47.3</ele>
        <time>2019-10-12T06:08:56Z</time>
      </trkpt>
      <trkpt lat="39.9413700" lon="-0.0975390">
        <ele>47.4</ele>
        <time>2019-10-12T06:08:57Z</time>
      </trkpt>
      <trkpt lat="39.9414190" lon="-0.0975370">
        <ele>47.5</ele>
        <time>2019-10-12T06:08:58Z</time>
      </trkpt>
      <trkpt lat="39.9416200" lon="-0.0974720">
        <ele>47.8</ele>
        <time>2019-10-12T06:09:02Z</time>
      </trkpt>
      <trkpt lat="39.9417250" lon="-0.0974260">
        <ele>47.9</ele>
        <time>2019-10-12T06:09:04Z</time>
      </trkpt>
      <trkpt lat="39.9418630" lon="-0.0973990">
        <ele>47.9</ele>
        <time>2019-10-12T06:09:07Z</time>
      </trkpt>
      <trkpt lat="39.9419630" lon="-0.0973790">
        <ele>48.1</ele>
        <time>2019-10-12T06:09:09Z</time>
      </trkpt>
      <trkpt lat="39.9420600" lon="-0.0973620">
        <ele>48.1</ele>
        <time>2019-10-12T06:09:11Z</time>
      </trkpt>
      <trkpt lat="39.9421090" lon="-0.0973550">
        <ele>48.2</ele>
        <time>2019-10-12T06:09:12Z</time>
      </trkpt>
      <trkpt lat="39.9421640" lon="-0.0973300">
        <ele>48.2</ele>
        <time>2019-10-12T06:09:13Z</time>
      </trkpt>
      <trkpt lat="39.9423780" lon="-0.0972580">
        <ele>48.2</ele>
        <time>2019-10-12T06:09:17Z</time>
      </trkpt>
      <trkpt lat="39.9425410" lon="-0.0972200">
        <ele>48.2</ele>
        <time>2019-10-12T06:09:20Z</time>
      </trkpt>
      <trkpt lat="39.9428420" lon="-0.0971590">
        <ele>47.9</ele>
        <time>2019-10-12T06:09:26Z</time>
      </trkpt>
      <trkpt lat="39.9428910" lon="-0.0971550">
        <ele>47.9</ele>
        <time>2019-10-12T06:09:27Z</time>
      </trkpt>
      <trkpt lat="39.9429890" lon="-0.0971270">
        <ele>48.1</ele>
        <time>2019-10-12T06:09:29Z</time>
      </trkpt>
      <trkpt lat="39.9431960" lon="-0.0970600">
        <ele>48.4</ele>
        <time>2019-10-12T06:09:33Z</time>
      </trkpt>
      <trkpt lat="39.9432980" lon="-0.0970410">
        <ele>48.6</ele>
        <time>2019-10-12T06:09:35Z</time>
      </trkpt>
      <trkpt lat="39.9434430" lon="-0.0970110">
        <ele>48.7</ele>
        <time>2019-10-12T06:09:38Z</time>
      </trkpt>
      <trkpt lat="39.9435900" lon="-0.0969800">
        <ele>48.9</ele>
        <time>2019-10-12T06:09:41Z</time>
      </trkpt>
      <trkpt lat="39.9436830" lon="-0.0969700">
        <ele>49.1</ele>
        <time>2019-10-12T06:09:43Z</time>
      </trkpt>
      <trkpt lat="39.9437720" lon="-0.0969470">
        <ele>49.3</ele>
        <time>2019-10-12T06:09:45Z</time>
      </trkpt>
      <trkpt lat="39.9438710" lon="-0.0968960">
        <ele>49.6</ele>
        <time>2019-10-12T06:09:47Z</time>
      </trkpt>
      <trkpt lat="39.9439210" lon="-0.0968720">
        <ele>49.7</ele>
        <time>2019-10-12T06:09:48Z</time>
      </trkpt>
      <trkpt lat="39.9442070" lon="-0.0967820">
        <ele>49.9</ele>
        <time>2019-10-12T06:09:54Z</time>
      </trkpt>
      <trkpt lat="39.9442540" lon="-0.0967600">
        <ele>49.8</ele>
        <time>2019-10-12T06:09:55Z</time>
      </trkpt>
      <trkpt lat="39.9443010" lon="-0.0967490">
        <ele>49.7</ele>
        <time>2019-10-12T06:09:56Z</time>
      </trkpt>
      <trkpt lat="39.9443830" lon="-0.0967210">
        <ele>49.5</ele>
        <time>2019-10-12T06:09:58Z</time>
      </trkpt>
      <trkpt lat="39.9445240" lon="-0.0967020">
        <ele>49.3</ele>
        <time>2019-10-12T06:10:02Z</time>
      </trkpt>
      <trkpt lat="39.9445890" lon="-0.0966380">
        <ele>49.1</ele>
        <time>2019-10-12T06:10:04Z</time>
      </trkpt>
      <trkpt lat="39.9446570" lon="-0.0965040">
        <ele>49.2</ele>
        <time>2019-10-12T06:10:07Z</time>
      </trkpt>
      <trkpt lat="39.9446900" lon="-0.0964650">
        <ele>49.2</ele>
        <time>2019-10-12T06:10:08Z</time>
      </trkpt>
      <trkpt lat="39.9447270" lon="-0.0964250">
        <ele>49.1</ele>
        <time>2019-10-12T06:10:09Z</time>
      </trkpt>
      <trkpt lat="39.9448000" lon="-0.0963490">
        <ele>49.2</ele>
        <time>2019-10-12T06:10:11Z</time>
      </trkpt>
      <trkpt lat="39.9448250" lon="-0.0963030">
        <ele>49.2</ele>
        <time>2019-10-12T06:10:12Z</time>
      </trkpt>
      <trkpt lat="39.9448470" lon="-0.0962490">
        <ele>49.3</ele>
        <time>2019-10-12T06:10:13Z</time>
      </trkpt>
      <trkpt lat="39.9449330" lon="-0.0960730">
        <ele>49.5</ele>
        <time>2019-10-12T06:10:16Z</time>
      </trkpt>
      <trkpt lat="39.9449600" lon="-0.0960190">
        <ele>49.6</ele>
        <time>2019-10-12T06:10:17Z</time>
      </trkpt>
      <trkpt lat="39.9450090" lon="-0.0958990">
        <ele>49.2</ele>
        <time>2019-10-12T06:10:19Z</time>
      </trkpt>
      <trkpt lat="39.9450330" lon="-0.0958380">
        <ele>49.1</ele>
        <time>2019-10-12T06:10:20Z</time>
      </trkpt>
      <trkpt lat="39.9450820" lon="-0.0957290">
        <ele>48.9</ele>
        <time>2019-10-12T06:10:22Z</time>
      </trkpt>
      <trkpt lat="39.9451600" lon="-0.0955620">
        <ele>48.7</ele>
        <time>2019-10-12T06:10:25Z</time>
      </trkpt>
      <trkpt lat="39.9452510" lon="-0.0953770">
        <ele>48.3</ele>
        <time>2019-10-12T06:10:28Z</time>
      </trkpt>
      <trkpt lat="39.9453010" lon="-0.0952570">
        <ele>48.1</ele>
        <time>2019-10-12T06:10:30Z</time>
      </trkpt>
      <trkpt lat="39.9453510" lon="-0.0951310">
        <ele>47.9</ele>
        <time>2019-10-12T06:10:32Z</time>
      </trkpt>
      <trkpt lat="39.9455160" lon="-0.0947360">
        <ele>47.6</ele>
        <time>2019-10-12T06:10:38Z</time>
      </trkpt>
      <trkpt lat="39.9456730" lon="-0.0943530">
        <ele>47.6</ele>
        <time>2019-10-12T06:10:44Z</time>
      </trkpt>
      <trkpt lat="39.9457270" lon="-0.0942200">
        <ele>47.5</ele>
        <time>2019-10-12T06:10:46Z</time>
      </trkpt>
      <trkpt lat="39.9457860" lon="-0.0940910">
        <ele>47.3</ele>
        <time>2019-10-12T06:10:48Z</time>
      </trkpt>
      <trkpt lat="39.9458610" lon="-0.0938970">
        <ele>47.2</ele>
        <time>2019-10-12T06:10:51Z</time>
      </trkpt>
      <trkpt lat="39.9459970" lon="-0.0935560">
        <ele>47.1</ele>
        <time>2019-10-12T06:10:56Z</time>
      </trkpt>
      <trkpt lat="39.9460300" lon="-0.0934820">
        <ele>47.1</ele>
        <time>2019-10-12T06:10:57Z</time>
      </trkpt>
      <trkpt lat="39.9461320" lon="-0.0931840">
        <ele>47.1</ele>
        <time>2019-10-12T06:11:01Z</time>
      </trkpt>
      <trkpt lat="39.9461870" lon="-0.0930590">
        <ele>47.1</ele>
        <time>2019-10-12T06:11:03Z</time>
      </trkpt>
      <trkpt lat="39.9462400" lon="-0.0929310">
        <ele>47.1</ele>
        <time>2019-10-12T06:11:05Z</time>
      </trkpt>
      <trkpt lat="39.9463000" lon="-0.0928080">
        <ele>47.3</ele>
        <time>2019-10-12T06:11:07Z</time>
      </trkpt>
      <trkpt lat="39.9463850" lon="-0.0926170">
        <ele>47.7</ele>
        <time>2019-10-12T06:11:10Z</time>
      </trkpt>
      <trkpt lat="39.9464290" lon="-0.0924920">
        <ele>47.9</ele>
        <time>2019-10-12T06:11:12Z</time>
      </trkpt>
      <trkpt lat="39.9464200" lon="-0.0923510">
        <ele>48.0</ele>
        <time>2019-10-12T06:11:14Z</time>
      </trkpt>
      <trkpt lat="39.9464020" lon="-0.0922840">
        <ele>47.9</ele>
        <time>2019-10-12T06:11:15Z</time>
      </trkpt>
      <trkpt lat="39.9463930" lon="-0.0922130">
        <ele>47.6</ele>
        <time>2019-10-12T06:11:16Z</time>
      </trkpt>
      <trkpt lat="39.9464300" lon="-0.0920800">
        <ele>47.0</ele>
        <time>2019-10-12T06:11:18Z</time>
      </trkpt>
      <trkpt lat="39.9465240" lon="-0.0919990">
        <ele>47.2</ele>
        <time>2019-10-12T06:11:20Z</time>
      </trkpt>
      <trkpt lat="39.9466170" lon="-0.0920480">
        <ele>47.6</ele>
        <time>2019-10-12T06:11:22Z</time>
      </trkpt>
      <trkpt lat="39.9466340" lon="-0.0920970">
        <ele>47.7</ele>
        <time>2019-10-12T06:11:23Z</time>
      </trkpt>
      <trkpt lat="39.9466290" lon="-0.0922180">
        <ele>47.9</ele>
        <time>2019-10-12T06:11:25Z</time>
      </trkpt>
      <trkpt lat="39.9466580" lon="-0.0923240">
        <ele>48.1</ele>
        <time>2019-10-12T06:11:27Z</time>
      </trkpt>
      <trkpt lat="39.9466870" lon="-0.0923690">
        <ele>48.1</ele>
        <time>2019-10-12T06:11:28Z</time>
      </trkpt>
      <trkpt lat="39.9467480" lon="-0.0924680">
        <ele>48.2</ele>
        <time>2019-10-12T06:11:30Z</time>
      </trkpt>
      <trkpt lat="39.9468140" lon="-0.0925640">
        <ele>48.2</ele>
        <time>2019-10-12T06:11:32Z</time>
      </trkpt>
      <trkpt lat="39.9469210" lon="-0.0927130">
        <ele>48.2</ele>
        <time>2019-10-12T06:11:35Z</time>
      </trkpt>
      <trkpt lat="39.9469840" lon="-0.0928340">
        <ele>48.3</ele>
        <time>2019-10-12T06:11:37Z</time>
      </trkpt>
      <trkpt lat="39.9470510" lon="-0.0929340">
        <ele>48.3</ele>
        <time>2019-10-12T06:11:39Z</time>
      </trkpt>
      <trkpt lat="39.9470850" lon="-0.0929670">
        <ele>48.4</ele>
        <time>2019-10-12T06:11:40Z</time>
      </trkpt>
      <trkpt lat="39.9471210" lon="-0.0929800">
        <ele>48.4</ele>
        <time>2019-10-12T06:11:41Z</time>
      </trkpt>
      <trkpt lat="39.9471620" lon="-0.0929720">
        <ele>48.4</ele>
        <time>2019-10-12T06:11:42Z</time>
      </trkpt>
      <trkpt lat="39.9472020" lon="-0.0929430">
        <ele>48.3</ele>
        <time>2019-10-12T06:11:43Z</time>
      </trkpt>
      <trkpt lat="39.9472370" lon="-0.0929010">
        <ele>48.3</ele>
        <time>2019-10-12T06:11:44Z</time>
      </trkpt>
      <trkpt lat="39.9473520" lon="-0.0927790">
        <ele>48.3</ele>
        <time>2019-10-12T06:11:47Z</time>
      </trkpt>
      <trkpt lat="39.9474220" lon="-0.0926910">
        <ele>48.3</ele>
        <time>2019-10-12T06:11:49Z</time>
      </trkpt>
      <trkpt lat="39.9475300" lon="-0.0925620">
        <ele>48.3</ele>
        <time>2019-10-12T06:11:52Z</time>
      </trkpt>
      <trkpt lat="39.9476700" lon="-0.0923990">
        <ele>48.4</ele>
        <time>2019-10-12T06:11:56Z</time>
      </trkpt>
      <trkpt lat="39.9477050" lon="-0.0923600">
        <ele>48.4</ele>
        <time>2019-10-12T06:11:57Z</time>
      </trkpt>
      <trkpt lat="39.9478310" lon="-0.0922330">
        <ele>48.6</ele>
        <time>2019-10-12T06:12:00Z</time>
      </trkpt>
      <trkpt lat="39.9479110" lon="-0.0921490">
        <ele>48.7</ele>
        <time>2019-10-12T06:12:02Z</time>
      </trkpt>
      <trkpt lat="39.9479500" lon="-0.0921070">
        <ele>48.7</ele>
        <time>2019-10-12T06:12:03Z</time>
      </trkpt>
      <trkpt lat="39.9479940" lon="-0.0920620">
        <ele>48.8</ele>
        <time>2019-10-12T06:12:04Z</time>
      </trkpt>
      <trkpt lat="39.9480390" lon="-0.0920190">
        <ele>48.9</ele>
        <time>2019-10-12T06:12:05Z</time>
      </trkpt>
      <trkpt lat="39.9481220" lon="-0.0919270">
        <ele>49.0</ele>
        <time>2019-10-12T06:12:07Z</time>
      </trkpt>
      <trkpt lat="39.9482120" lon="-0.0918350">
        <ele>49.1</ele>
        <time>2019-10-12T06:12:09Z</time>
      </trkpt>
      <trkpt lat="39.9483070" lon="-0.0917400">
        <ele>49.1</ele>
        <time>2019-10-12T06:12:11Z</time>
      </trkpt>
      <trkpt lat="39.9484480" lon="-0.0915990">
        <ele>49.2</ele>
        <time>2019-10-12T06:12:14Z</time>
      </trkpt>
      <trkpt lat="39.9486700" lon="-0.0913470">
        <ele>49.3</ele>
        <time>2019-10-12T06:12:19Z</time>
      </trkpt>
      <trkpt lat="39.9489090" lon="-0.0910920">
        <ele>49.2</ele>
        <time>2019-10-12T06:12:24Z</time>
      </trkpt>
      <trkpt lat="39.9492030" lon="-0.0907270">
        <ele>49.1</ele>
        <time>2019-10-12T06:12:31Z</time>
      </trkpt>
      <trkpt lat="39.9492840" lon="-0.0906320">
        <ele>49.0</ele>
        <time>2019-10-12T06:12:33Z</time>
      </trkpt>
      <trkpt lat="39.9494360" lon="-0.0904440">
        <ele>48.8</ele>
        <time>2019-10-12T06:12:37Z</time>
      </trkpt>
      <trkpt lat="39.9495610" lon="-0.0903060">
        <ele>48.6</ele>
        <time>2019-10-12T06:12:40Z</time>
      </trkpt>
      <trkpt lat="39.9496580" lon="-0.0901960">
        <ele>48.4</ele>
        <time>2019-10-12T06:12:43Z</time>
      </trkpt>
      <trkpt lat="39.9497040" lon="-0.0901310">
        <ele>48.3</ele>
        <time>2019-10-12T06:12:45Z</time>
      </trkpt>
      <trkpt lat="39.9497440" lon="-0.0900710">
        <ele>48.0</ele>
        <time>2019-10-12T06:12:47Z</time>
      </trkpt>
      <trkpt lat="39.9497790" lon="-0.0900150">
        <ele>47.8</ele>
        <time>2019-10-12T06:12:49Z</time>
      </trkpt>
      <trkpt lat="39.9499200" lon="-0.0897790">
        <ele>47.4</ele>
        <time>2019-10-12T06:12:55Z</time>
      </trkpt>
      <trkpt lat="39.9500380" lon="-0.0896170">
        <ele>47.4</ele>
        <time>2019-10-12T06:12:59Z</time>
      </trkpt>
      <trkpt lat="39.9500720" lon="-0.0895820">
        <ele>47.4</ele>
        <time>2019-10-12T06:13:00Z</time>
      </trkpt>
      <trkpt lat="39.9501080" lon="-0.0895470">
        <ele>47.4</ele>
        <time>2019-10-12T06:13:01Z</time>
      </trkpt>
      <trkpt lat="39.9501440" lon="-0.0895120">
        <ele>47.4</ele>
        <time>2019-10-12T06:13:02Z</time>
      </trkpt>
      <trkpt lat="39.9501820" lon="-0.0894780">
        <ele>47.4</ele>
        <time>2019-10-12T06:13:03Z</time>
      </trkpt>
      <trkpt lat="39.9503810" lon="-0.0893270">
        <ele>47.3</ele>
        <time>2019-10-12T06:13:08Z</time>
      </trkpt>
      <trkpt lat="39.9504240" lon="-0.0893000">
        <ele>47.3</ele>
        <time>2019-10-12T06:13:09Z</time>
      </trkpt>
      <trkpt lat="39.9507480" lon="-0.0890920">
        <ele>47.3</ele>
        <time>2019-10-12T06:13:17Z</time>
      </trkpt>
      <trkpt lat="39.9509350" lon="-0.0889940">
        <ele>47.4</ele>
        <time>2019-10-12T06:13:23Z</time>
      </trkpt>
      <trkpt lat="39.9509970" lon="-0.0889970">
        <ele>47.4</ele>
        <time>2019-10-12T06:13:26Z</time>
      </trkpt>
      <trkpt lat="39.9509970" lon="-0.0889970">
        <ele>47.4</ele>
        <time>2019-10-12T06:24:43Z</time>
      </trkpt>
      <trkpt lat="39.9509970" lon="-0.0889970">
        <ele>47.4</ele>
        <time>2019-10-12T06:24:44Z</time>
      </trkpt>
      <trkpt lat="39.9561420" lon="-0.0899390">
        <ele>43.5</ele>
        <time>2019-10-12T06:24:45Z</time>
      </trkpt>
      <trkpt lat="39.9564390" lon="-0.0899580">
        <ele>42.1</ele>
        <time>2019-10-12T06:24:51Z</time>
      </trkpt>
      <trkpt lat="39.9606640" lon="-0.0858440">
        <ele>44.6</ele>
        <time>2019-10-12T06:24:53Z</time>
      </trkpt>
      <trkpt lat="39.9612350" lon="-0.0857760">
        <ele>45.2</ele>
        <time>2019-10-12T06:25:03Z</time>
      </trkpt>
      <trkpt lat="39.9616410" lon="-0.0857050">
        <ele>45.8</ele>
        <time>2019-10-12T06:25:10Z</time>
      </trkpt>
      <trkpt lat="39.9616970" lon="-0.0856900">
        <ele>45.9</ele>
        <time>2019-10-12T06:25:11Z</time>
      </trkpt>
      <trkpt lat="39.9619340" lon="-0.0856500">
        <ele>46.1</ele>
        <time>2019-10-12T06:25:15Z</time>
      </trkpt>
      <trkpt lat="39.9621170" lon="-0.0856120">
        <ele>46.5</ele>
        <time>2019-10-12T06:25:18Z</time>
      </trkpt>
      <trkpt lat="39.9621780" lon="-0.0855990">
        <ele>46.7</ele>
        <time>2019-10-12T06:25:19Z</time>
      </trkpt>
      <trkpt lat="39.9626780" lon="-0.0854910">
        <ele>48.9</ele>
        <time>2019-10-12T06:25:28Z</time>
      </trkpt>
      <trkpt lat="39.9632480" lon="-0.0853630">
        <ele>51.7</ele>
        <time>2019-10-12T06:25:38Z</time>
      </trkpt>
      <trkpt lat="39.9638230" lon="-0.0852430">
        <ele>52.9</ele>
        <time>2019-10-12T06:25:48Z</time>
      </trkpt>
      <trkpt lat="39.9643480" lon="-0.0851630">
        <ele>53.0</ele>
        <time>2019-10-12T06:25:57Z</time>
      </trkpt>
      <trkpt lat="39.9648360" lon="-0.0851120">
        <ele>53.0</ele>
        <time>2019-10-12T06:26:05Z</time>
      </trkpt>
      <trkpt lat="39.9654120" lon="-0.0850860">
        <ele>53.0</ele>
        <time>2019-10-12T06:26:14Z</time>
      </trkpt>
      <trkpt lat="39.9659600" lon="-0.0850810">
        <ele>53.0</ele>
        <time>2019-10-12T06:26:22Z</time>
      </trkpt>
      <trkpt lat="39.9662540" lon="-0.0850950">
        <ele>53.0</ele>
        <time>2019-10-12T06:26:26Z</time>
      </trkpt>
      <trkpt lat="39.9666180" lon="-0.0851150">
        <ele>53.0</ele>
        <time>2019-10-12T06:26:31Z</time>
      </trkpt>
      <trkpt lat="39.9669800" lon="-0.0851470">
        <ele>53.0</ele>
        <time>2019-10-12T06:26:36Z</time>
      </trkpt>
      <trkpt lat="39.9671890" lon="-0.0851690">
        <ele>53.0</ele>
        <time>2019-10-12T06:26:39Z</time>
      </trkpt>
      <trkpt lat="39.9674050" lon="-0.0851900">
        <ele>53.0</ele>
        <time>2019-10-12T06:26:42Z</time>
      </trkpt>
      <trkpt lat="39.9676180" lon="-0.0852080">
        <ele>53.4</ele>
        <time>2019-10-12T06:26:45Z</time>
      </trkpt>
      <trkpt lat="39.9676930" lon="-0.0852150">
        <ele>53.6</ele>
        <time>2019-10-12T06:26:46Z</time>
      </trkpt>
      <trkpt lat="39.9682200" lon="-0.0852650">
        <ele>55.0</ele>
        <time>2019-10-12T06:26:53Z</time>
      </trkpt>
      <trkpt lat="39.9682940" lon="-0.0852690">
        <ele>55.1</ele>
        <time>2019-10-12T06:26:54Z</time>
      </trkpt>
      <trkpt lat="39.9683660" lon="-0.0852770">
        <ele>55.3</ele>
        <time>2019-10-12T06:26:55Z</time>
      </trkpt>
      <trkpt lat="39.9688600" lon="-0.0853440">
        <ele>56.0</ele>
        <time>2019-10-12T06:27:02Z</time>
      </trkpt>
      <trkpt lat="39.9694290" lon="-0.0854010">
        <ele>57.3</ele>
        <time>2019-10-12T06:27:10Z</time>
      </trkpt>
      <trkpt lat="39.9694990" lon="-0.0854050">
        <ele>57.5</ele>
        <time>2019-10-12T06:27:11Z</time>
      </trkpt>
      <trkpt lat="39.9700590" lon="-0.0854620">
        <ele>57.0</ele>
        <time>2019-10-12T06:27:19Z</time>
      </trkpt>
      <trkpt lat="39.9706180" lon="-0.0855210">
        <ele>54.8</ele>
        <time>2019-10-12T06:27:27Z</time>
      </trkpt>
      <trkpt lat="39.9711580" lon="-0.0856000">
        <ele>54.8</ele>
        <time>2019-10-12T06:27:35Z</time>
      </trkpt>
      <trkpt lat="39.9716230" lon="-0.0856790">
        <ele>55.5</ele>
        <time>2019-10-12T06:27:42Z</time>
      </trkpt>
      <trkpt lat="39.9720190" lon="-0.0857540">
        <ele>55.7</ele>
        <time>2019-10-12T06:27:48Z</time>
      </trkpt>
      <trkpt lat="39.9722170" lon="-0.0857870">
        <ele>55.8</ele>
        <time>2019-10-12T06:27:51Z</time>
      </trkpt>
      <trkpt lat="39.9723990" lon="-0.0858300">
        <ele>56.0</ele>
        <time>2019-10-12T06:27:54Z</time>
      </trkpt>
      <trkpt lat="39.9726520" lon="-0.0858730">
        <ele>55.6</ele>
        <time>2019-10-12T06:27:58Z</time>
      </trkpt>
      <trkpt lat="39.9728510" lon="-0.0858860">
        <ele>55.1</ele>
        <time>2019-10-12T06:28:01Z</time>
      </trkpt>
      <trkpt lat="39.9730530" lon="-0.0859270">
        <ele>54.9</ele>
        <time>2019-10-12T06:28:04Z</time>
      </trkpt>
      <trkpt lat="39.9736600" lon="-0.0860450">
        <ele>55.5</ele>
        <time>2019-10-12T06:28:13Z</time>
      </trkpt>
      <trkpt lat="39.9741700" lon="-0.0861500">
        <ele>55.7</ele>
        <time>2019-10-12T06:28:21Z</time>
      </trkpt>
      <trkpt lat="39.9746580" lon="-0.0862630">
        <ele>56.6</ele>
        <time>2019-10-12T06:28:29Z</time>
      </trkpt>
      <trkpt lat="39.9748440" lon="-0.0863020">
        <ele>57.3</ele>
        <time>2019-10-12T06:28:32Z</time>
      </trkpt>
      <trkpt lat="39.9751550" lon="-0.0863640">
        <ele>58.2</ele>
        <time>2019-10-12T06:28:37Z</time>
      </trkpt>
      <trkpt lat="39.9755350" lon="-0.0864440">
        <ele>58.5</ele>
        <time>2019-10-12T06:28:43Z</time>
      </trkpt>
      <trkpt lat="39.9758580" lon="-0.0865040">
        <ele>58.5</ele>
        <time>2019-10-12T06:28:48Z</time>
      </trkpt>
      <trkpt lat="39.9764370" lon="-0.0866230">
        <ele>59.4</ele>
        <time>2019-10-12T06:28:57Z</time>
      </trkpt>
      <trkpt lat="39.9770020" lon="-0.0867350">
        <ele>59.8</ele>
        <time>2019-10-12T06:29:06Z</time>
      </trkpt>
      <trkpt lat="39.9770620" lon="-0.0867470">
        <ele>59.8</ele>
        <time>2019-10-12T06:29:07Z</time>
      </trkpt>
      <trkpt lat="39.9775050" lon="-0.0868330">
        <ele>60.6</ele>
        <time>2019-10-12T06:29:14Z</time>
      </trkpt>
      <trkpt lat="39.9780590" lon="-0.0869460">
        <ele>60.9</ele>
        <time>2019-10-12T06:29:23Z</time>
      </trkpt>
      <trkpt lat="39.9784190" lon="-0.0870190">
        <ele>61.5</ele>
        <time>2019-10-12T06:29:29Z</time>
      </trkpt>
      <trkpt lat="39.9785870" lon="-0.0870540">
        <ele>61.9</ele>
        <time>2019-10-12T06:29:32Z</time>
      </trkpt>
      <trkpt lat="39.9789380" lon="-0.0871260">
        <ele>62.6</ele>
        <time>2019-10-12T06:29:38Z</time>
      </trkpt>
      <trkpt lat="39.9791110" lon="-0.0871570">
        <ele>62.8</ele>
        <time>2019-10-12T06:29:41Z</time>
      </trkpt>
      <trkpt lat="39.9796800" lon="-0.0872680">
        <ele>64.1</ele>
        <time>2019-10-12T06:29:51Z</time>
      </trkpt>
      <trkpt lat="39.9800780" lon="-0.0873470">
        <ele>65.3</ele>
        <time>2019-10-12T06:29:58Z</time>
      </trkpt>
      <trkpt lat="39.9801900" lon="-0.0873650">
        <ele>65.5</ele>
        <time>2019-10-12T06:30:00Z</time>
      </trkpt>
      <trkpt lat="39.9804640" lon="-0.0874200">
        <ele>65.9</ele>
        <time>2019-10-12T06:30:05Z</time>
      </trkpt>
      <trkpt lat="39.9806320" lon="-0.0874570">
        <ele>66.2</ele>
        <time>2019-10-12T06:30:08Z</time>
      </trkpt>
      <trkpt lat="39.9808610" lon="-0.0875060">
        <ele>66.6</ele>
        <time>2019-10-12T06:30:12Z</time>
      </trkpt>
      <trkpt lat="39.9810980" lon="-0.0875590">
        <ele>66.9</ele>
        <time>2019-10-12T06:30:16Z</time>
      </trkpt>
      <trkpt lat="39.9814770" lon="-0.0876350">
        <ele>66.9</ele>
        <time>2019-10-12T06:30:23Z</time>
      </trkpt>
      <trkpt lat="39.9819720" lon="-0.0877240">
        <ele>66.2</ele>
        <time>2019-10-12T06:30:32Z</time>
      </trkpt>
      <trkpt lat="39.9822370" lon="-0.0877790">
        <ele>66.0</ele>
        <time>2019-10-12T06:30:37Z</time>
      </trkpt>
      <trkpt lat="39.9824560" lon="-0.0878210">
        <ele>66.0</ele>
        <time>2019-10-12T06:30:41Z</time>
      </trkpt>
      <trkpt lat="39.9827960" lon="-0.0878890">
        <ele>66.5</ele>
        <time>2019-10-12T06:30:47Z</time>
      </trkpt>
      <trkpt lat="39.9828540" lon="-0.0878990">
        <ele>66.7</ele>
        <time>2019-10-12T06:30:48Z</time>
      </trkpt>
      <trkpt lat="39.9832560" lon="-0.0879790">
        <ele>68.0</ele>
        <time>2019-10-12T06:30:55Z</time>
      </trkpt>
      <trkpt lat="39.9834910" lon="-0.0880220">
        <ele>68.5</ele>
        <time>2019-10-12T06:30:59Z</time>
      </trkpt>
      <trkpt lat="39.9839690" lon="-0.0881180">
        <ele>69.5</ele>
        <time>2019-10-12T06:31:07Z</time>
      </trkpt>
      <trkpt lat="39.9845200" lon="-0.0882280">
        <ele>69.8</ele>
        <time>2019-10-12T06:31:16Z</time>
      </trkpt>
      <trkpt lat="39.9850280" lon="-0.0883260">
        <ele>70.8</ele>
        <time>2019-10-12T06:31:24Z</time>
      </trkpt>
      <trkpt lat="39.9855330" lon="-0.0884260">
        <ele>70.9</ele>
        <time>2019-10-12T06:31:32Z</time>
      </trkpt>
      <trkpt lat="39.9861110" lon="-0.0885400">
        <ele>71.7</ele>
        <time>2019-10-12T06:31:41Z</time>
      </trkpt>
      <trkpt lat="39.9861770" lon="-0.0885520">
        <ele>71.8</ele>
        <time>2019-10-12T06:31:42Z</time>
      </trkpt>
      <trkpt lat="39.9867440" lon="-0.0886610">
        <ele>72.8</ele>
        <time>2019-10-12T06:31:51Z</time>
      </trkpt>
      <trkpt lat="39.9871600" lon="-0.0887420">
        <ele>73.7</ele>
        <time>2019-10-12T06:31:58Z</time>
      </trkpt>
      <trkpt lat="39.9872190" lon="-0.0887520">
        <ele>73.7</ele>
        <time>2019-10-12T06:31:59Z</time>
      </trkpt>
      <trkpt lat="39.9877930" lon="-0.0888550">
        <ele>74.8</ele>
        <time>2019-10-12T06:32:09Z</time>
      </trkpt>
      <trkpt lat="39.9878520" lon="-0.0888620">
        <ele>74.8</ele>
        <time>2019-10-12T06:32:10Z</time>
      </trkpt>
      <trkpt lat="39.9880880" lon="-0.0888890">
        <ele>75.3</ele>
        <time>2019-10-12T06:32:14Z</time>
      </trkpt>
      <trkpt lat="39.9883180" lon="-0.0889330">
        <ele>75.6</ele>
        <time>2019-10-12T06:32:18Z</time>
      </trkpt>
      <trkpt lat="39.9886030" lon="-0.0889890">
        <ele>76.1</ele>
        <time>2019-10-12T06:32:23Z</time>
      </trkpt>
      <trkpt lat="39.9888320" lon="-0.0890330">
        <ele>76.6</ele>
        <time>2019-10-12T06:32:27Z</time>
      </trkpt>
      <trkpt lat="39.9891610" lon="-0.0890990">
        <ele>77.0</ele>
        <time>2019-10-12T06:32:33Z</time>
      </trkpt>
      <trkpt lat="39.9896610" lon="-0.0892070">
        <ele>78.1</ele>
        <time>2019-10-12T06:32:42Z</time>
      </trkpt>
      <trkpt lat="39.9901720" lon="-0.0893200">
        <ele>80.1</ele>
        <time>2019-10-12T06:32:51Z</time>
      </trkpt>
      <trkpt lat="39.9905730" lon="-0.0893990">
        <ele>81.5</ele>
        <time>2019-10-12T06:32:58Z</time>
      </trkpt>
      <trkpt lat="39.9907530" lon="-0.0894440">
        <ele>82.0</ele>
        <time>2019-10-12T06:33:01Z</time>
      </trkpt>
      <trkpt lat="39.9912210" lon="-0.0895480">
        <ele>82.6</ele>
        <time>2019-10-12T06:33:09Z</time>
      </trkpt>
      <trkpt lat="39.9916220" lon="-0.0896260">
        <ele>83.7</ele>
        <time>2019-10-12T06:33:16Z</time>
      </trkpt>
      <trkpt lat="39.9920990" lon="-0.0897100">
        <ele>84.6</ele>
        <time>2019-10-12T06:33:24Z</time>
      </trkpt>
      <trkpt lat="39.9925800" lon="-0.0897560">
        <ele>85.3</ele>
        <time>2019-10-12T06:33:32Z</time>
      </trkpt>
      <trkpt lat="39.9931150" lon="-0.0897460">
        <ele>85.1</ele>
        <time>2019-10-12T06:33:41Z</time>
      </trkpt>
      <trkpt lat="39.9935480" lon="-0.0896750">
        <ele>84.6</ele>
        <time>2019-10-12T06:33:48Z</time>
      </trkpt>
      <trkpt lat="39.9940090" lon="-0.0895420">
        <ele>82.5</ele>
        <time>2019-10-12T06:33:55Z</time>
      </trkpt>
      <trkpt lat="39.9944880" lon="-0.0893610">
        <ele>80.2</ele>
        <time>2019-10-12T06:34:02Z</time>
      </trkpt>
      <trkpt lat="39.9945530" lon="-0.0893330">
        <ele>80.1</ele>
        <time>2019-10-12T06:34:03Z</time>
      </trkpt>
      <trkpt lat="39.9948090" lon="-0.0891970">
        <ele>80.3</ele>
        <time>2019-10-12T06:34:07Z</time>
      </trkpt>
      <trkpt lat="39.9950100" lon="-0.0890790">
        <ele>80.1</ele>
        <time>2019-10-12T06:34:10Z</time>
      </trkpt>
      <trkpt lat="39.9955600" lon="-0.0887200">
        <ele>79.5</ele>
        <time>2019-10-12T06:34:18Z</time>
      </trkpt>
      <trkpt lat="39.9956250" lon="-0.0886730">
        <ele>79.5</ele>
        <time>2019-10-12T06:34:19Z</time>
      </trkpt>
      <trkpt lat="39.9960960" lon="-0.0883650">
        <ele>81.4</ele>
        <time>2019-10-12T06:34:26Z</time>
      </trkpt>
      <trkpt lat="39.9966350" lon="-0.0880090">
        <ele>82.0</ele>
        <time>2019-10-12T06:34:34Z</time>
      </trkpt>
      <trkpt lat="39.9967040" lon="-0.0879610">
        <ele>82.0</ele>
        <time>2019-10-12T06:34:35Z</time>
      </trkpt>
      <trkpt lat="39.9969070" lon="-0.0878230">
        <ele>82.0</ele>
        <time>2019-10-12T06:34:38Z</time>
      </trkpt>
      <trkpt lat="39.9973130" lon="-0.0875420">
        <ele>81.6</ele>
        <time>2019-10-12T06:34:44Z</time>
      </trkpt>
      <trkpt lat="39.9974510" lon="-0.0874580">
        <ele>81.0</ele>
        <time>2019-10-12T06:34:46Z</time>
      </trkpt>
      <trkpt lat="39.9978550" lon="-0.0871800">
        <ele>80.6</ele>
        <time>2019-10-12T06:34:52Z</time>
      </trkpt>
      <trkpt lat="39.9979210" lon="-0.0871340">
        <ele>80.4</ele>
        <time>2019-10-12T06:34:53Z</time>
      </trkpt>
      <trkpt lat="39.9982540" lon="-0.0869200">
        <ele>81.0</ele>
        <time>2019-10-12T06:34:58Z</time>
      </trkpt>
      <trkpt lat="39.9984480" lon="-0.0867840">
        <ele>81.5</ele>
        <time>2019-10-12T06:35:01Z</time>
      </trkpt>
      <trkpt lat="39.9989280" lon="-0.0864620">
        <ele>82.8</ele>
        <time>2019-10-12T06:35:09Z</time>
      </trkpt>
      <trkpt lat="39.9991910" lon="-0.0862770">
        <ele>83.6</ele>
        <time>2019-10-12T06:35:14Z</time>
      </trkpt>
      <trkpt lat="39.9992930" lon="-0.0862050">
        <ele>83.9</ele>
        <time>2019-10-12T06:35:16Z</time>
      </trkpt>
      <trkpt lat="39.9995730" lon="-0.0859800">
        <ele>84.8</ele>
        <time>2019-10-12T06:35:22Z</time>
      </trkpt>
      <trkpt lat="39.9999500" lon="-0.0856510">
        <ele>86.0</ele>
        <time>2019-10-12T06:35:30Z</time>
      </trkpt>
      <trkpt lat="40.0003460" lon="-0.0852370">
        <ele>87.4</ele>
        <time>2019-10-12T06:35:39Z</time>
      </trkpt>
      <trkpt lat="40.0006670" lon="-0.0848500">
        <ele>88.7</ele>
        <time>2019-10-12T06:35:47Z</time>
      </trkpt>
      <trkpt lat="40.0008520" lon="-0.0845940">
        <ele>89.3</ele>
        <time>2019-10-12T06:35:52Z</time>
      </trkpt>
      <trkpt lat="40.0009290" lon="-0.0844940">
        <ele>89.5</ele>
        <time>2019-10-12T06:35:54Z</time>
      </trkpt>
      <trkpt lat="40.0010320" lon="-0.0843440">
        <ele>89.9</ele>
        <time>2019-10-12T06:35:57Z</time>
      </trkpt>
      <trkpt lat="40.0011320" lon="-0.0841850">
        <ele>90.4</ele>
        <time>2019-10-12T06:36:00Z</time>
      </trkpt>
      <trkpt lat="40.0014140" lon="-0.0837050">
        <ele>92.0</ele>
        <time>2019-10-12T06:36:09Z</time>
      </trkpt>
      <trkpt lat="40.0016450" lon="-0.0832520">
        <ele>93.2</ele>
        <time>2019-10-12T06:36:17Z</time>
      </trkpt>
      <trkpt lat="40.0018920" lon="-0.0826560">
        <ele>95.3</ele>
        <time>2019-10-12T06:36:27Z</time>
      </trkpt>
      <trkpt lat="40.0020670" lon="-0.0821690">
        <ele>96.6</ele>
        <time>2019-10-12T06:36:35Z</time>
      </trkpt>
      <trkpt lat="40.0022000" lon="-0.0817120">
        <ele>97.6</ele>
        <time>2019-10-12T06:36:42Z</time>
      </trkpt>
      <trkpt lat="40.0022330" lon="-0.0815740">
        <ele>97.9</ele>
        <time>2019-10-12T06:36:44Z</time>
      </trkpt>
      <trkpt lat="40.0023730" lon="-0.0809560">
        <ele>99.0</ele>
        <time>2019-10-12T06:36:52Z</time>
      </trkpt>
      <trkpt lat="40.0024960" lon="-0.0802560">
        <ele>98.8</ele>
        <time>2019-10-12T06:37:00Z</time>
      </trkpt>
      <trkpt lat="40.0025710" lon="-0.0797030">
        <ele>98.6</ele>
        <time>2019-10-12T06:37:06Z</time>
      </trkpt>
      <trkpt lat="40.0025930" lon="-0.0795110">
        <ele>98.7</ele>
        <time>2019-10-12T06:37:08Z</time>
      </trkpt>
      <trkpt lat="40.0026280" lon="-0.0790040">
        <ele>99.1</ele>
        <time>2019-10-12T06:37:13Z</time>
      </trkpt>
      <trkpt lat="40.0026460" lon="-0.0786870">
        <ele>98.8</ele>
        <time>2019-10-12T06:37:16Z</time>
      </trkpt>
      <trkpt lat="40.0026480" lon="-0.0785830">
        <ele>98.6</ele>
        <time>2019-10-12T06:37:17Z</time>
      </trkpt>
      <trkpt lat="40.0026590" lon="-0.0782560">
        <ele>97.9</ele>
        <time>2019-10-12T06:37:20Z</time>
      </trkpt>
      <trkpt lat="40.0026600" lon="-0.0777670">
        <ele>96.6</ele>
        <time>2019-10-12T06:37:24Z</time>
      </trkpt>
      <trkpt lat="40.0026620" lon="-0.0769710">
        <ele>94.3</ele>
        <time>2019-10-12T06:37:30Z</time>
      </trkpt>
      <trkpt lat="40.0026600" lon="-0.0766980">
        <ele>94.0</ele>
        <time>2019-10-12T06:37:32Z</time>
      </trkpt>
      <trkpt lat="40.0026590" lon="-0.0764280">
        <ele>93.0</ele>
        <time>2019-10-12T06:37:34Z</time>
      </trkpt>
      <trkpt lat="40.0026640" lon="-0.0761570">
        <ele>92.0</ele>
        <time>2019-10-12T06:37:36Z</time>
      </trkpt>
      <trkpt lat="40.0026750" lon="-0.0758930">
        <ele>91.5</ele>
        <time>2019-10-12T06:37:38Z</time>
      </trkpt>
      <trkpt lat="40.0026780" lon="-0.0757640">
        <ele>91.2</ele>
        <time>2019-10-12T06:37:39Z</time>
      </trkpt>
      <trkpt lat="40.0026810" lon="-0.0754890">
        <ele>90.7</ele>
        <time>2019-10-12T06:37:41Z</time>
      </trkpt>
      <trkpt lat="40.0026850" lon="-0.0750600">
        <ele>90.0</ele>
        <time>2019-10-12T06:37:44Z</time>
      </trkpt>
      <trkpt lat="40.0026880" lon="-0.0747720">
        <ele>89.5</ele>
        <time>2019-10-12T06:37:46Z</time>
      </trkpt>
      <trkpt lat="40.0026950" lon="-0.0744930">
        <ele>88.8</ele>
        <time>2019-10-12T06:37:48Z</time>
      </trkpt>
      <trkpt lat="40.0027000" lon="-0.0742210">
        <ele>88.1</ele>
        <time>2019-10-12T06:37:50Z</time>
      </trkpt>
      <trkpt lat="40.0026980" lon="-0.0738050">
        <ele>87.0</ele>
        <time>2019-10-12T06:37:53Z</time>
      </trkpt>
      <trkpt lat="40.0027020" lon="-0.0733770">
        <ele>85.8</ele>
        <time>2019-10-12T06:37:56Z</time>
      </trkpt>
      <trkpt lat="40.0027080" lon="-0.0730870">
        <ele>84.8</ele>
        <time>2019-10-12T06:37:58Z</time>
      </trkpt>
      <trkpt lat="40.0027080" lon="-0.0727960">
        <ele>84.0</ele>
        <time>2019-10-12T06:38:00Z</time>
      </trkpt>
      <trkpt lat="40.0027060" lon="-0.0725090">
        <ele>83.0</ele>
        <time>2019-10-12T06:38:02Z</time>
      </trkpt>
      <trkpt lat="40.0027000" lon="-0.0722280">
        <ele>82.0</ele>
        <time>2019-10-12T06:38:04Z</time>
      </trkpt>
      <trkpt lat="40.0026980" lon="-0.0719430">
        <ele>80.6</ele>
        <time>2019-10-12T06:38:06Z</time>
      </trkpt>
      <trkpt lat="40.0027050" lon="-0.0717980">
        <ele>80.3</ele>
        <time>2019-10-12T06:38:07Z</time>
      </trkpt>
      <trkpt lat="40.0027150" lon="-0.0716550">
        <ele>80.0</ele>
        <time>2019-10-12T06:38:08Z</time>
      </trkpt>
      <trkpt lat="40.0027840" lon="-0.0709560">
        <ele>78.5</ele>
        <time>2019-10-12T06:38:13Z</time>
      </trkpt>
      <trkpt lat="40.0029350" lon="-0.0701520">
        <ele>78.1</ele>
        <time>2019-10-12T06:38:19Z</time>
      </trkpt>
      <trkpt lat="40.0029950" lon="-0.0698980">
        <ele>77.8</ele>
        <time>2019-10-12T06:38:21Z</time>
      </trkpt>
      <trkpt lat="40.0032030" lon="-0.0691750">
        <ele>77.4</ele>
        <time>2019-10-12T06:38:27Z</time>
      </trkpt>
      <trkpt lat="40.0032360" lon="-0.0690610">
        <ele>77.3</ele>
        <time>2019-10-12T06:38:28Z</time>
      </trkpt>
      <trkpt lat="40.0034340" lon="-0.0684030">
        <ele>76.8</ele>
        <time>2019-10-12T06:38:34Z</time>
      </trkpt>
      <trkpt lat="40.0034690" lon="-0.0682970">
        <ele>76.7</ele>
        <time>2019-10-12T06:38:35Z</time>
      </trkpt>
      <trkpt lat="40.0035650" lon="-0.0679770">
        <ele>76.4</ele>
        <time>2019-10-12T06:38:38Z</time>
      </trkpt>
      <trkpt lat="40.0037540" lon="-0.0673460">
        <ele>75.6</ele>
        <time>2019-10-12T06:38:44Z</time>
      </trkpt>
      <trkpt lat="40.0038870" lon="-0.0669210">
        <ele>74.7</ele>
        <time>2019-10-12T06:38:48Z</time>
      </trkpt>
      <trkpt lat="40.0040500" lon="-0.0663740">
        <ele>73.7</ele>
        <time>2019-10-12T06:38:53Z</time>
      </trkpt>
      <trkpt lat="40.0042300" lon="-0.0656960">
        <ele>72.2</ele>
        <time>2019-10-12T06:38:59Z</time>
      </trkpt>
      <trkpt lat="40.0043500" lon="-0.0652250">
        <ele>71.2</ele>
        <time>2019-10-12T06:39:03Z</time>
      </trkpt>
      <trkpt lat="40.0045160" lon="-0.0644850">
        <ele>68.8</ele>
        <time>2019-10-12T06:39:09Z</time>
      </trkpt>
      <trkpt lat="40.0045410" lon="-0.0643620">
        <ele>68.4</ele>
        <time>2019-10-12T06:39:10Z</time>
      </trkpt>
      <trkpt lat="40.0047250" lon="-0.0635790">
        <ele>66.6</ele>
        <time>2019-10-12T06:39:16Z</time>
      </trkpt>
      <trkpt lat="40.0047850" lon="-0.0633170">
        <ele>66.1</ele>
        <time>2019-10-12T06:39:18Z</time>
      </trkpt>
      <trkpt lat="40.0048130" lon="-0.0631870">
        <ele>65.9</ele>
        <time>2019-10-12T06:39:19Z</time>
      </trkpt>
      <trkpt lat="40.0048430" lon="-0.0630570">
        <ele>65.5</ele>
        <time>2019-10-12T06:39:20Z</time>
      </trkpt>
      <trkpt lat="40.0049720" lon="-0.0625500">
        <ele>64.5</ele>
        <time>2019-10-12T06:39:24Z</time>
      </trkpt>
      <trkpt lat="40.0050370" lon="-0.0622950">
        <ele>64.3</ele>
        <time>2019-10-12T06:39:26Z</time>
      </trkpt>
      <trkpt lat="40.0051060" lon="-0.0620490">
        <ele>64.0</ele>
        <time>2019-10-12T06:39:28Z</time>
      </trkpt>
      <trkpt lat="40.0051830" lon="-0.0618110">
        <ele>63.6</ele>
        <time>2019-10-12T06:39:30Z</time>
      </trkpt>
      <trkpt lat="40.0053390" lon="-0.0613480">
        <ele>63.4</ele>
        <time>2019-10-12T06:39:34Z</time>
      </trkpt>
      <trkpt lat="40.0054650" lon="-0.0610060">
        <ele>63.4</ele>
        <time>2019-10-12T06:39:37Z</time>
      </trkpt>
      <trkpt lat="40.0055070" lon="-0.0608940">
        <ele>63.4</ele>
        <time>2019-10-12T06:39:38Z</time>
      </trkpt>
      <trkpt lat="40.0055510" lon="-0.0607850">
        <ele>63.4</ele>
        <time>2019-10-12T06:39:39Z</time>
      </trkpt>
      <trkpt lat="40.0056370" lon="-0.0605750">
        <ele>63.4</ele>
        <time>2019-10-12T06:39:41Z</time>
      </trkpt>
      <trkpt lat="40.0056800" lon="-0.0604710">
        <ele>63.4</ele>
        <time>2019-10-12T06:39:42Z</time>
      </trkpt>
      <trkpt lat="40.0057680" lon="-0.0602650">
        <ele>63.4</ele>
        <time>2019-10-12T06:39:44Z</time>
      </trkpt>
      <trkpt lat="40.0060270" lon="-0.0596720">
        <ele>63.4</ele>
        <time>2019-10-12T06:39:50Z</time>
      </trkpt>
      <trkpt lat="40.0061550" lon="-0.0593780">
        <ele>63.1</ele>
        <time>2019-10-12T06:39:53Z</time>
      </trkpt>
      <trkpt lat="40.0061980" lon="-0.0592780">
        <ele>63.0</ele>
        <time>2019-10-12T06:39:54Z</time>
      </trkpt>
      <trkpt lat="40.0063760" lon="-0.0588980">
        <ele>62.5</ele>
        <time>2019-10-12T06:39:58Z</time>
      </trkpt>
      <trkpt lat="40.0065490" lon="-0.0585140">
        <ele>62.5</ele>
        <time>2019-10-12T06:40:02Z</time>
      </trkpt>
      <trkpt lat="40.0066300" lon="-0.0583270">
        <ele>62.5</ele>
        <time>2019-10-12T06:40:04Z</time>
      </trkpt>
      <trkpt lat="40.0067160" lon="-0.0581380">
        <ele>62.5</ele>
        <time>2019-10-12T06:40:06Z</time>
      </trkpt>
      <trkpt lat="40.0068040" lon="-0.0579510">
        <ele>62.5</ele>
        <time>2019-10-12T06:40:08Z</time>
      </trkpt>
      <trkpt lat="40.0070940" lon="-0.0572960">
        <ele>62.2</ele>
        <time>2019-10-12T06:40:15Z</time>
      </trkpt>
      <trkpt lat="40.0071370" lon="-0.0572060">
        <ele>62.0</ele>
        <time>2019-10-12T06:40:16Z</time>
      </trkpt>
      <trkpt lat="40.0074340" lon="-0.0565500">
        <ele>61.5</ele>
        <time>2019-10-12T06:40:23Z</time>
      </trkpt>
      <trkpt lat="40.0074730" lon="-0.0564580">
        <ele>61.5</ele>
        <time>2019-10-12T06:40:24Z</time>
      </trkpt>
      <trkpt lat="40.0077250" lon="-0.0558930">
        <ele>61.1</ele>
        <time>2019-10-12T06:40:30Z</time>
      </trkpt>
      <trkpt lat="40.0078500" lon="-0.0556170">
        <ele>60.6</ele>
        <time>2019-10-12T06:40:33Z</time>
      </trkpt>
      <trkpt lat="40.0080610" lon="-0.0551560">
        <ele>60.4</ele>
        <time>2019-10-12T06:40:38Z</time>
      </trkpt>
      <trkpt lat="40.0081450" lon="-0.0549650">
        <ele>60.2</ele>
        <time>2019-10-12T06:40:40Z</time>
      </trkpt>
      <trkpt lat="40.0083200" lon="-0.0546100">
        <ele>59.6</ele>
        <time>2019-10-12T06:40:44Z</time>
      </trkpt>
      <trkpt lat="40.0084560" lon="-0.0543410">
        <ele>59.5</ele>
        <time>2019-10-12T06:40:47Z</time>
      </trkpt>
      <trkpt lat="40.0085970" lon="-0.0540740">
        <ele>59.5</ele>
        <time>2019-10-12T06:40:50Z</time>
      </trkpt>
      <trkpt lat="40.0088030" lon="-0.0537370">
        <ele>59.5</ele>
        <time>2019-10-12T06:40:54Z</time>
      </trkpt>
      <trkpt lat="40.0090760" lon="-0.0533460">
        <ele>58.7</ele>
        <time>2019-10-12T06:40:59Z</time>
      </trkpt>
      <trkpt lat="40.0091940" lon="-0.0531970">
        <ele>58.5</ele>
        <time>2019-10-12T06:41:01Z</time>
      </trkpt>
      <trkpt lat="40.0096430" lon="-0.0526910">
        <ele>57.2</ele>
        <time>2019-10-12T06:41:08Z</time>
      </trkpt>
      <trkpt lat="40.0097080" lon="-0.0526210">
        <ele>57.0</ele>
        <time>2019-10-12T06:41:09Z</time>
      </trkpt>
      <trkpt lat="40.0101150" lon="-0.0522000">
        <ele>56.6</ele>
        <time>2019-10-12T06:41:15Z</time>
      </trkpt>
      <trkpt lat="40.0103180" lon="-0.0519890">
        <ele>56.6</ele>
        <time>2019-10-12T06:41:18Z</time>
      </trkpt>
      <trkpt lat="40.0107230" lon="-0.0515740">
        <ele>56.5</ele>
        <time>2019-10-12T06:41:24Z</time>
      </trkpt>
      <trkpt lat="40.0112090" lon="-0.0510810">
        <ele>55.8</ele>
        <time>2019-10-12T06:41:31Z</time>
      </trkpt>
      <trkpt lat="40.0113470" lon="-0.0509410">
        <ele>55.6</ele>
        <time>2019-10-12T06:41:33Z</time>
      </trkpt>
      <trkpt lat="40.0118210" lon="-0.0504600">
        <ele>55.0</ele>
        <time>2019-10-12T06:41:40Z</time>
      </trkpt>
      <trkpt lat="40.0119490" lon="-0.0503220">
        <ele>54.7</ele>
        <time>2019-10-12T06:41:42Z</time>
      </trkpt>
      <trkpt lat="40.0124120" lon="-0.0498300">
        <ele>54.5</ele>
        <time>2019-10-12T06:41:49Z</time>
      </trkpt>
      <trkpt lat="40.0126040" lon="-0.0496200">
        <ele>54.2</ele>
        <time>2019-10-12T06:41:52Z</time>
      </trkpt>
      <trkpt lat="40.0130370" lon="-0.0491460">
        <ele>53.6</ele>
        <time>2019-10-12T06:41:59Z</time>
      </trkpt>
      <trkpt lat="40.0131600" lon="-0.0490070">
        <ele>53.8</ele>
        <time>2019-10-12T06:42:01Z</time>
      </trkpt>
      <trkpt lat="40.0135680" lon="-0.0485150">
        <ele>54.7</ele>
        <time>2019-10-12T06:42:08Z</time>
      </trkpt>
      <trkpt lat="40.0137270" lon="-0.0483140">
        <ele>55.1</ele>
        <time>2019-10-12T06:42:11Z</time>
      </trkpt>
      <trkpt lat="40.0141370" lon="-0.0477760">
        <ele>55.8</ele>
        <time>2019-10-12T06:42:19Z</time>
      </trkpt>
      <trkpt lat="40.0142330" lon="-0.0476410">
        <ele>56.0</ele>
        <time>2019-10-12T06:42:21Z</time>
      </trkpt>
      <trkpt lat="40.0144280" lon="-0.0473820">
        <ele>56.6</ele>
        <time>2019-10-12T06:42:25Z</time>
      </trkpt>
      <trkpt lat="40.0146100" lon="-0.0471330">
        <ele>57.0</ele>
        <time>2019-10-12T06:42:29Z</time>
      </trkpt>
      <trkpt lat="40.0147470" lon="-0.0469500">
        <ele>57.3</ele>
        <time>2019-10-12T06:42:32Z</time>
      </trkpt>
      <trkpt lat="40.0149630" lon="-0.0466520">
        <ele>57.6</ele>
        <time>2019-10-12T06:42:37Z</time>
      </trkpt>
      <trkpt lat="40.0151050" lon="-0.0464720">
        <ele>57.6</ele>
        <time>2019-10-12T06:42:40Z</time>
      </trkpt>
      <trkpt lat="40.0152510" lon="-0.0462860">
        <ele>57.6</ele>
        <time>2019-10-12T06:42:43Z</time>
      </trkpt>
      <trkpt lat="40.0153480" lon="-0.0461680">
        <ele>57.6</ele>
        <time>2019-10-12T06:42:45Z</time>
      </trkpt>
      <trkpt lat="40.0157340" lon="-0.0457070">
        <ele>57.6</ele>
        <time>2019-10-12T06:42:53Z</time>
      </trkpt>
      <trkpt lat="40.0159900" lon="-0.0454130">
        <ele>57.6</ele>
        <time>2019-10-12T06:42:58Z</time>
      </trkpt>
      <trkpt lat="40.0161590" lon="-0.0452300">
        <ele>57.6</ele>
        <time>2019-10-12T06:43:01Z</time>
      </trkpt>
      <trkpt lat="40.0162180" lon="-0.0451690">
        <ele>57.6</ele>
        <time>2019-10-12T06:43:02Z</time>
      </trkpt>
      <trkpt lat="40.0166950" lon="-0.0446750">
        <ele>56.7</ele>
        <time>2019-10-12T06:43:10Z</time>
      </trkpt>
      <trkpt lat="40.0170830" lon="-0.0442890">
        <ele>55.8</ele>
        <time>2019-10-12T06:43:16Z</time>
      </trkpt>
      <trkpt lat="40.0172200" lon="-0.0441570">
        <ele>55.7</ele>
        <time>2019-10-12T06:43:18Z</time>
      </trkpt>
      <trkpt lat="40.0173580" lon="-0.0440190">
        <ele>55.6</ele>
        <time>2019-10-12T06:43:19Z</time>
      </trkpt>
      <trkpt lat="40.0174270" lon="-0.0439500">
        <ele>55.5</ele>
        <time>2019-10-12T06:43:21Z</time>
      </trkpt>
      <trkpt lat="40.0176370" lon="-0.0437340">
        <ele>55.3</ele>
        <time>2019-10-12T06:43:24Z</time>
      </trkpt>
      <trkpt lat="40.0178480" lon="-0.0435290">
        <ele>54.7</ele>
        <time>2019-10-12T06:43:26Z</time>
      </trkpt>
      <trkpt lat="40.0179810" lon="-0.0433940">
        <ele>54.3</ele>
        <time>2019-10-12T06:43:28Z</time>
      </trkpt>
      <trkpt lat="40.0181870" lon="-0.0431940">
        <ele>53.8</ele>
        <time>2019-10-12T06:43:31Z</time>
      </trkpt>
      <trkpt lat="40.0184640" lon="-0.0429120">
        <ele>53.5</ele>
        <time>2019-10-12T06:43:35Z</time>
      </trkpt>
      <trkpt lat="40.0186700" lon="-0.0426960">
        <ele>52.8</ele>
        <time>2019-10-12T06:43:38Z</time>
      </trkpt>
      <trkpt lat="40.0190980" lon="-0.0422650">
        <ele>52.7</ele>
        <time>2019-10-12T06:43:44Z</time>
      </trkpt>
      <trkpt lat="40.0195770" lon="-0.0417880">
        <ele>51.7</ele>
        <time>2019-10-12T06:43:51Z</time>
      </trkpt>
      <trkpt lat="40.0196430" lon="-0.0417210">
        <ele>51.6</ele>
        <time>2019-10-12T06:43:52Z</time>
      </trkpt>
      <trkpt lat="40.0197700" lon="-0.0415820">
        <ele>51.2</ele>
        <time>2019-10-12T06:43:54Z</time>
      </trkpt>
      <trkpt lat="40.0201620" lon="-0.0411600">
        <ele>49.9</ele>
        <time>2019-10-12T06:44:00Z</time>
      </trkpt>
      <trkpt lat="40.0204110" lon="-0.0408790">
        <ele>49.7</ele>
        <time>2019-10-12T06:44:04Z</time>
      </trkpt>
      <trkpt lat="40.0207140" lon="-0.0405410">
        <ele>49.7</ele>
        <time>2019-10-12T06:44:09Z</time>
      </trkpt>
      <trkpt lat="40.0211260" lon="-0.0400790">
        <ele>49.3</ele>
        <time>2019-10-12T06:44:16Z</time>
      </trkpt>
      <trkpt lat="40.0212370" lon="-0.0399460">
        <ele>49.0</ele>
        <time>2019-10-12T06:44:18Z</time>
      </trkpt>
      <trkpt lat="40.0214730" lon="-0.0396810">
        <ele>48.8</ele>
        <time>2019-10-12T06:44:22Z</time>
      </trkpt>
      <trkpt lat="40.0218170" lon="-0.0392920">
        <ele>48.8</ele>
        <time>2019-10-12T06:44:28Z</time>
      </trkpt>
      <trkpt lat="40.0221440" lon="-0.0389270">
        <ele>48.9</ele>
        <time>2019-10-12T06:44:34Z</time>
      </trkpt>
      <trkpt lat="40.0221960" lon="-0.0388630">
        <ele>49.0</ele>
        <time>2019-10-12T06:44:35Z</time>
      </trkpt>
      <trkpt lat="40.0224260" lon="-0.0386100">
        <ele>49.6</ele>
        <time>2019-10-12T06:44:39Z</time>
      </trkpt>
      <trkpt lat="40.0225930" lon="-0.0384260">
        <ele>50.1</ele>
        <time>2019-10-12T06:44:42Z</time>
      </trkpt>
      <trkpt lat="40.0227960" lon="-0.0381990">
        <ele>50.8</ele>
        <time>2019-10-12T06:44:46Z</time>
      </trkpt>
      <trkpt lat="40.0229920" lon="-0.0379790">
        <ele>51.5</ele>
        <time>2019-10-12T06:44:50Z</time>
      </trkpt>
      <trkpt lat="40.0232840" lon="-0.0376510">
        <ele>52.1</ele>
        <time>2019-10-12T06:44:56Z</time>
      </trkpt>
      <trkpt lat="40.0234820" lon="-0.0374260">
        <ele>52.7</ele>
        <time>2019-10-12T06:45:00Z</time>
      </trkpt>
      <trkpt lat="40.0237580" lon="-0.0371100">
        <ele>53.7</ele>
        <time>2019-10-12T06:45:06Z</time>
      </trkpt>
      <trkpt lat="40.0241750" lon="-0.0366300">
        <ele>55.0</ele>
        <time>2019-10-12T06:45:15Z</time>
      </trkpt>
      <trkpt lat="40.0242730" lon="-0.0365270">
        <ele>55.2</ele>
        <time>2019-10-12T06:45:18Z</time>
      </trkpt>
      <trkpt lat="40.0244600" lon="-0.0363180">
        <ele>55.7</ele>
        <time>2019-10-12T06:45:21Z</time>
      </trkpt>
      <trkpt lat="40.0245060" lon="-0.0362680">
        <ele>55.8</ele>
        <time>2019-10-12T06:45:22Z</time>
      </trkpt>
      <trkpt lat="40.0245980" lon="-0.0361680">
        <ele>56.1</ele>
        <time>2019-10-12T06:45:25Z</time>
      </trkpt>
      <trkpt lat="40.0249210" lon="-0.0358180">
        <ele>57.0</ele>
        <time>2019-10-12T06:45:31Z</time>
      </trkpt>
      <trkpt lat="40.0249680" lon="-0.0357690">
        <ele>57.1</ele>
        <time>2019-10-12T06:45:32Z</time>
      </trkpt>
      <trkpt lat="40.0252820" lon="-0.0354130">
        <ele>57.7</ele>
        <time>2019-10-12T06:45:39Z</time>
      </trkpt>
      <trkpt lat="40.0256150" lon="-0.0350470">
        <ele>58.0</ele>
        <time>2019-10-12T06:45:46Z</time>
      </trkpt>
      <trkpt lat="40.0259210" lon="-0.0347020">
        <ele>58.6</ele>
        <time>2019-10-12T06:45:52Z</time>
      </trkpt>
      <trkpt lat="40.0260220" lon="-0.0345880">
        <ele>58.8</ele>
        <time>2019-10-12T06:45:54Z</time>
      </trkpt>
      <trkpt lat="40.0264690" lon="-0.0340730">
        <ele>58.8</ele>
        <time>2019-10-12T06:46:03Z</time>
      </trkpt>
      <trkpt lat="40.0265700" lon="-0.0339530">
        <ele>58.8</ele>
        <time>2019-10-12T06:46:05Z</time>
      </trkpt>
      <trkpt lat="40.0268200" lon="-0.0336440">
        <ele>58.8</ele>
        <time>2019-10-12T06:46:10Z</time>
      </trkpt>
      <trkpt lat="40.0270140" lon="-0.0333700">
        <ele>58.8</ele>
        <time>2019-10-12T06:46:14Z</time>
      </trkpt>
      <trkpt lat="40.0273770" lon="-0.0327810">
        <ele>58.8</ele>
        <time>2019-10-12T06:46:22Z</time>
      </trkpt>
      <trkpt lat="40.0276580" lon="-0.0322250">
        <ele>58.3</ele>
        <time>2019-10-12T06:46:29Z</time>
      </trkpt>
      <trkpt lat="40.0279100" lon="-0.0315800">
        <ele>57.3</ele>
        <time>2019-10-12T06:46:36Z</time>
      </trkpt>
      <trkpt lat="40.0281240" lon="-0.0308680">
        <ele>55.6</ele>
        <time>2019-10-12T06:46:43Z</time>
      </trkpt>
      <trkpt lat="40.0281470" lon="-0.0307670">
        <ele>55.3</ele>
        <time>2019-10-12T06:46:44Z</time>
      </trkpt>
      <trkpt lat="40.0282100" lon="-0.0304660">
        <ele>54.9</ele>
        <time>2019-10-12T06:46:47Z</time>
      </trkpt>
      <trkpt lat="40.0282870" lon="-0.0300470">
        <ele>54.8</ele>
        <time>2019-10-12T06:46:51Z</time>
      </trkpt>
      <trkpt lat="40.0283510" lon="-0.0294780">
        <ele>54.3</ele>
        <time>2019-10-12T06:46:56Z</time>
      </trkpt>
      <trkpt lat="40.0283580" lon="-0.0293600">
        <ele>54.1</ele>
        <time>2019-10-12T06:46:57Z</time>
      </trkpt>
      <trkpt lat="40.0283820" lon="-0.0286270">
        <ele>52.1</ele>
        <time>2019-10-12T06:47:03Z</time>
      </trkpt>
      <trkpt lat="40.0283800" lon="-0.0285020">
        <ele>51.7</ele>
        <time>2019-10-12T06:47:04Z</time>
      </trkpt>
      <trkpt lat="40.0283230" lon="-0.0277350">
        <ele>49.0</ele>
        <time>2019-10-12T06:47:10Z</time>
      </trkpt>
      <trkpt lat="40.0282920" lon="-0.0274810">
        <ele>48.1</ele>
        <time>2019-10-12T06:47:12Z</time>
      </trkpt>
      <trkpt lat="40.0282540" lon="-0.0272320">
        <ele>47.4</ele>
        <time>2019-10-12T06:47:14Z</time>
      </trkpt>
      <trkpt lat="40.0282060" lon="-0.0269880">
        <ele>46.7</ele>
        <time>2019-10-12T06:47:16Z</time>
      </trkpt>
      <trkpt lat="40.0281200" lon="-0.0266180">
        <ele>45.7</ele>
        <time>2019-10-12T06:47:19Z</time>
      </trkpt>
      <trkpt lat="40.0278910" lon="-0.0258520">
        <ele>43.5</ele>
        <time>2019-10-12T06:47:25Z</time>
      </trkpt>
      <trkpt lat="40.0275840" lon="-0.0250580">
        <ele>42.5</ele>
        <time>2019-10-12T06:47:31Z</time>
      </trkpt>
      <trkpt lat="40.0273030" lon="-0.0243740">
        <ele>41.0</ele>
        <time>2019-10-12T06:47:36Z</time>
      </trkpt>
      <trkpt lat="40.0270720" lon="-0.0238170">
        <ele>38.4</ele>
        <time>2019-10-12T06:47:40Z</time>
      </trkpt>
      <trkpt lat="40.0269510" lon="-0.0235360">
        <ele>38.0</ele>
        <time>2019-10-12T06:47:42Z</time>
      </trkpt>
      <trkpt lat="40.0268920" lon="-0.0233940">
        <ele>37.6</ele>
        <time>2019-10-12T06:47:43Z</time>
      </trkpt>
      <trkpt lat="40.0267260" lon="-0.0229880">
        <ele>36.1</ele>
        <time>2019-10-12T06:47:46Z</time>
      </trkpt>
      <trkpt lat="40.0266170" lon="-0.0227190">
        <ele>36.0</ele>
        <time>2019-10-12T06:47:48Z</time>
      </trkpt>
      <trkpt lat="40.0263310" lon="-0.0220350">
        <ele>33.8</ele>
        <time>2019-10-12T06:47:53Z</time>
      </trkpt>
      <trkpt lat="40.0261600" lon="-0.0216180">
        <ele>32.0</ele>
        <time>2019-10-12T06:47:56Z</time>
      </trkpt>
      <trkpt lat="40.0261060" lon="-0.0214900">
        <ele>31.8</ele>
        <time>2019-10-12T06:47:57Z</time>
      </trkpt>
      <trkpt lat="40.0258840" lon="-0.0209650">
        <ele>31.2</ele>
        <time>2019-10-12T06:48:01Z</time>
      </trkpt>
      <trkpt lat="40.0257740" lon="-0.0206960">
        <ele>31.1</ele>
        <time>2019-10-12T06:48:03Z</time>
      </trkpt>
      <trkpt lat="40.0256620" lon="-0.0204300">
        <ele>30.2</ele>
        <time>2019-10-12T06:48:05Z</time>
      </trkpt>
      <trkpt lat="40.0256080" lon="-0.0202990">
        <ele>29.7</ele>
        <time>2019-10-12T06:48:06Z</time>
      </trkpt>
      <trkpt lat="40.0253460" lon="-0.0196660">
        <ele>28.0</ele>
        <time>2019-10-12T06:48:11Z</time>
      </trkpt>
      <trkpt lat="40.0251450" lon="-0.0191750">
        <ele>27.0</ele>
        <time>2019-10-12T06:48:15Z</time>
      </trkpt>
      <trkpt lat="40.0248470" lon="-0.0184590">
        <ele>25.9</ele>
        <time>2019-10-12T06:48:21Z</time>
      </trkpt>
      <trkpt lat="40.0247020" lon="-0.0181040">
        <ele>25.3</ele>
        <time>2019-10-12T06:48:24Z</time>
      </trkpt>
      <trkpt lat="40.0246530" lon="-0.0179870">
        <ele>24.8</ele>
        <time>2019-10-12T06:48:25Z</time>
      </trkpt>
      <trkpt lat="40.0243700" lon="-0.0172980">
        <ele>22.9</ele>
        <time>2019-10-12T06:48:31Z</time>
      </trkpt>
      <trkpt lat="40.0243270" lon="-0.0171880">
        <ele>22.9</ele>
        <time>2019-10-12T06:48:32Z</time>
      </trkpt>
      <trkpt lat="40.0242480" lon="-0.0169750">
        <ele>22.8</ele>
        <time>2019-10-12T06:48:34Z</time>
      </trkpt>
      <trkpt lat="40.0240770" lon="-0.0165460">
        <ele>22.5</ele>
        <time>2019-10-12T06:48:38Z</time>
      </trkpt>
      <trkpt lat="40.0239910" lon="-0.0163300">
        <ele>22.0</ele>
        <time>2019-10-12T06:48:40Z</time>
      </trkpt>
      <trkpt lat="40.0239540" lon="-0.0162170">
        <ele>21.8</ele>
        <time>2019-10-12T06:48:41Z</time>
      </trkpt>
      <trkpt lat="40.0238940" lon="-0.0159810">
        <ele>21.7</ele>
        <time>2019-10-12T06:48:43Z</time>
      </trkpt>
      <trkpt lat="40.0238470" lon="-0.0157470">
        <ele>21.5</ele>
        <time>2019-10-12T06:48:45Z</time>
      </trkpt>
      <trkpt lat="40.0238260" lon="-0.0156330">
        <ele>21.3</ele>
        <time>2019-10-12T06:48:46Z</time>
      </trkpt>
      <trkpt lat="40.0237150" lon="-0.0149510">
        <ele>20.9</ele>
        <time>2019-10-12T06:48:52Z</time>
      </trkpt>
      <trkpt lat="40.0236860" lon="-0.0144930">
        <ele>21.1</ele>
        <time>2019-10-12T06:48:56Z</time>
      </trkpt>
      <trkpt lat="40.0236680" lon="-0.0141570">
        <ele>20.8</ele>
        <time>2019-10-12T06:48:59Z</time>
      </trkpt>
      <trkpt lat="40.0236760" lon="-0.0136360">
        <ele>20.8</ele>
        <time>2019-10-12T06:49:04Z</time>
      </trkpt>
      <trkpt lat="40.0236890" lon="-0.0133320">
        <ele>20.8</ele>
        <time>2019-10-12T06:49:07Z</time>
      </trkpt>
      <trkpt lat="40.0237650" lon="-0.0125300">
        <ele>21.6</ele>
        <time>2019-10-12T06:49:15Z</time>
      </trkpt>
      <trkpt lat="40.0237990" lon="-0.0123330">
        <ele>21.9</ele>
        <time>2019-10-12T06:49:17Z</time>
      </trkpt>
      <trkpt lat="40.0238350" lon="-0.0121440">
        <ele>22.0</ele>
        <time>2019-10-12T06:49:19Z</time>
      </trkpt>
      <trkpt lat="40.0239110" lon="-0.0117890">
        <ele>22.5</ele>
        <time>2019-10-12T06:49:23Z</time>
      </trkpt>
      <trkpt lat="40.0241000" lon="-0.0110930">
        <ele>23.0</ele>
        <time>2019-10-12T06:49:31Z</time>
      </trkpt>
      <trkpt lat="40.0241280" lon="-0.0110050">
        <ele>23.1</ele>
        <time>2019-10-12T06:49:32Z</time>
      </trkpt>
      <trkpt lat="40.0242420" lon="-0.0106700">
        <ele>23.7</ele>
        <time>2019-10-12T06:49:36Z</time>
      </trkpt>
      <trkpt lat="40.0243950" lon="-0.0102720">
        <ele>24.8</ele>
        <time>2019-10-12T06:49:41Z</time>
      </trkpt>
      <trkpt lat="40.0246780" lon="-0.0095870">
        <ele>25.7</ele>
        <time>2019-10-12T06:49:50Z</time>
      </trkpt>
      <trkpt lat="40.0249400" lon="-0.0089430">
        <ele>27.1</ele>
        <time>2019-10-12T06:49:58Z</time>
      </trkpt>
      <trkpt lat="40.0249740" lon="-0.0088580">
        <ele>27.2</ele>
        <time>2019-10-12T06:49:59Z</time>
      </trkpt>
      <trkpt lat="40.0252460" lon="-0.0081900">
        <ele>27.6</ele>
        <time>2019-10-12T06:50:07Z</time>
      </trkpt>
      <trkpt lat="40.0253840" lon="-0.0078580">
        <ele>27.6</ele>
        <time>2019-10-12T06:50:11Z</time>
      </trkpt>
      <trkpt lat="40.0256590" lon="-0.0071560">
        <ele>28.4</ele>
        <time>2019-10-12T06:50:19Z</time>
      </trkpt>
      <trkpt lat="40.0256960" lon="-0.0070650">
        <ele>28.4</ele>
        <time>2019-10-12T06:50:20Z</time>
      </trkpt>
      <trkpt lat="40.0259490" lon="-0.0064290">
        <ele>28.5</ele>
        <time>2019-10-12T06:50:27Z</time>
      </trkpt>
      <trkpt lat="40.0262180" lon="-0.0057650">
        <ele>29.3</ele>
        <time>2019-10-12T06:50:34Z</time>
      </trkpt>
      <trkpt lat="40.0263730" lon="-0.0053840">
        <ele>29.3</ele>
        <time>2019-10-12T06:50:38Z</time>
      </trkpt>
      <trkpt lat="40.0264930" lon="-0.0050970">
        <ele>29.3</ele>
        <time>2019-10-12T06:50:41Z</time>
      </trkpt>
      <trkpt lat="40.0266930" lon="-0.0045890">
        <ele>29.2</ele>
        <time>2019-10-12T06:50:46Z</time>
      </trkpt>
      <trkpt lat="40.0269000" lon="-0.0040520">
        <ele>29.2</ele>
        <time>2019-10-12T06:50:51Z</time>
      </trkpt>
      <trkpt lat="40.0270240" lon="-0.0037400">
        <ele>29.2</ele>
        <time>2019-10-12T06:50:54Z</time>
      </trkpt>
      <trkpt lat="40.0270990" lon="-0.0035340">
        <ele>29.2</ele>
        <time>2019-10-12T06:50:56Z</time>
      </trkpt>
      <trkpt lat="40.0271730" lon="-0.0033280">
        <ele>29.1</ele>
        <time>2019-10-12T06:50:58Z</time>
      </trkpt>
      <trkpt lat="40.0273660" lon="-0.0027740">
        <ele>29.1</ele>
        <time>2019-10-12T06:51:03Z</time>
      </trkpt>
      <trkpt lat="40.0274790" lon="-0.0024290">
        <ele>29.0</ele>
        <time>2019-10-12T06:51:06Z</time>
      </trkpt>
      <trkpt lat="40.0276890" lon="-0.0017460">
        <ele>27.3</ele>
        <time>2019-10-12T06:51:12Z</time>
      </trkpt>
      <trkpt lat="40.0278680" lon="-0.0010590">
        <ele>26.5</ele>
        <time>2019-10-12T06:51:18Z</time>
      </trkpt>
      <trkpt lat="40.0279540" lon="-0.0007190">
        <ele>26.5</ele>
        <time>2019-10-12T06:51:21Z</time>
      </trkpt>
      <trkpt lat="40.0280320" lon="-0.0003890">
        <ele>26.2</ele>
        <time>2019-10-12T06:51:24Z</time>
      </trkpt>
      <trkpt lat="40.0281280" lon="0.0000510">
        <ele>25.5</ele>
        <time>2019-10-12T06:51:28Z</time>
      </trkpt>
      <trkpt lat="40.0282580" lon="0.0005780">
        <ele>24.7</ele>
        <time>2019-10-12T06:51:33Z</time>
      </trkpt>
      <trkpt lat="40.0283130" lon="0.0007820">
        <ele>24.5</ele>
        <time>2019-10-12T06:51:35Z</time>
      </trkpt>
      <trkpt lat="40.0283580" lon="0.0009840">
        <ele>24.4</ele>
        <time>2019-10-12T06:51:37Z</time>
      </trkpt>
      <trkpt lat="40.0283600" lon="0.0011930">
        <ele>24.1</ele>
        <time>2019-10-12T06:51:39Z</time>
      </trkpt>
      <trkpt lat="40.0283370" lon="0.0012950">
        <ele>23.8</ele>
        <time>2019-10-12T06:51:40Z</time>
      </trkpt>
      <trkpt lat="40.0282950" lon="0.0013910">
        <ele>23.5</ele>
        <time>2019-10-12T06:51:41Z</time>
      </trkpt>
      <trkpt lat="40.0281590" lon="0.0015390">
        <ele>23.0</ele>
        <time>2019-10-12T06:51:43Z</time>
      </trkpt>
      <trkpt lat="40.0279840" lon="0.0016120">
        <ele>22.6</ele>
        <time>2019-10-12T06:51:45Z</time>
      </trkpt>
      <trkpt lat="40.0278900" lon="0.0016160">
        <ele>22.4</ele>
        <time>2019-10-12T06:51:46Z</time>
      </trkpt>
      <trkpt lat="40.0277950" lon="0.0016040">
        <ele>22.2</ele>
        <time>2019-10-12T06:51:47Z</time>
      </trkpt>
      <trkpt lat="40.0276160" lon="0.0015360">
        <ele>21.6</ele>
        <time>2019-10-12T06:51:49Z</time>
      </trkpt>
      <trkpt lat="40.0274530" lon="0.0014090">
        <ele>21.3</ele>
        <time>2019-10-12T06:51:51Z</time>
      </trkpt>
      <trkpt lat="40.0273800" lon="0.0013290">
        <ele>21.2</ele>
        <time>2019-10-12T06:51:52Z</time>
      </trkpt>
      <trkpt lat="40.0273140" lon="0.0012430">
        <ele>21.2</ele>
        <time>2019-10-12T06:51:53Z</time>
      </trkpt>
      <trkpt lat="40.0272060" lon="0.0010440">
        <ele>21.1</ele>
        <time>2019-10-12T06:51:55Z</time>
      </trkpt>
      <trkpt lat="40.0271640" lon="0.0009390">
        <ele>21.1</ele>
        <time>2019-10-12T06:51:56Z</time>
      </trkpt>
      <trkpt lat="40.0270650" lon="0.0004910">
        <ele>21.2</ele>
        <time>2019-10-12T06:52:00Z</time>
      </trkpt>
      <trkpt lat="40.0269830" lon="-0.0000220">
        <ele>21.8</ele>
        <time>2019-10-12T06:52:05Z</time>
      </trkpt>
      <trkpt lat="40.0269640" lon="-0.0001160">
        <ele>22.0</ele>
        <time>2019-10-12T06:52:06Z</time>
      </trkpt>
      <trkpt lat="40.0268650" lon="-0.0006400">
        <ele>22.7</ele>
        <time>2019-10-12T06:52:12Z</time>
      </trkpt>
      <trkpt lat="40.0268110" lon="-0.0009050">
        <ele>23.0</ele>
        <time>2019-10-12T06:52:15Z</time>
      </trkpt>
      <trkpt lat="40.0267510" lon="-0.0011510">
        <ele>24.0</ele>
        <time>2019-10-12T06:52:18Z</time>
      </trkpt>
      <trkpt lat="40.0267070" lon="-0.0013040">
        <ele>24.5</ele>
        <time>2019-10-12T06:52:20Z</time>
      </trkpt>
      <trkpt lat="40.0266160" lon="-0.0016210">
        <ele>25.0</ele>
        <time>2019-10-12T06:52:24Z</time>
      </trkpt>
      <trkpt lat="40.0265700" lon="-0.0017720">
        <ele>25.2</ele>
        <time>2019-10-12T06:52:26Z</time>
      </trkpt>
      <trkpt lat="40.0265500" lon="-0.0018460">
        <ele>25.4</ele>
        <time>2019-10-12T06:52:27Z</time>
      </trkpt>
      <trkpt lat="40.0265200" lon="-0.0020070">
        <ele>25.6</ele>
        <time>2019-10-12T06:52:29Z</time>
      </trkpt>
      <trkpt lat="40.0265300" lon="-0.0021790">
        <ele>25.9</ele>
        <time>2019-10-12T06:52:31Z</time>
      </trkpt>
      <trkpt lat="40.0265530" lon="-0.0023520">
        <ele>26.3</ele>
        <time>2019-10-12T06:52:33Z</time>
      </trkpt>
      <trkpt lat="40.0265290" lon="-0.0025190">
        <ele>26.6</ele>
        <time>2019-10-12T06:52:35Z</time>
      </trkpt>
      <trkpt lat="40.0264540" lon="-0.0026570">
        <ele>26.7</ele>
        <time>2019-10-12T06:52:37Z</time>
      </trkpt>
      <trkpt lat="40.0264020" lon="-0.0027140">
        <ele>26.7</ele>
        <time>2019-10-12T06:52:38Z</time>
      </trkpt>
      <trkpt lat="40.0263360" lon="-0.0027540">
        <ele>26.8</ele>
        <time>2019-10-12T06:52:39Z</time>
      </trkpt>
      <trkpt lat="40.0262070" lon="-0.0028300">
        <ele>26.8</ele>
        <time>2019-10-12T06:52:41Z</time>
      </trkpt>
      <trkpt lat="40.0261030" lon="-0.0029580">
        <ele>26.8</ele>
        <time>2019-10-12T06:52:43Z</time>
      </trkpt>
      <trkpt lat="40.0260610" lon="-0.0030410">
        <ele>26.7</ele>
        <time>2019-10-12T06:52:44Z</time>
      </trkpt>
      <trkpt lat="40.0259430" lon="-0.0032990">
        <ele>26.7</ele>
        <time>2019-10-12T06:52:47Z</time>
      </trkpt>
      <trkpt lat="40.0257200" lon="-0.0037260">
        <ele>26.5</ele>
        <time>2019-10-12T06:52:52Z</time>
      </trkpt>
      <trkpt lat="40.0256720" lon="-0.0038110">
        <ele>26.3</ele>
        <time>2019-10-12T06:52:53Z</time>
      </trkpt>
      <trkpt lat="40.0253610" lon="-0.0044220">
        <ele>25.2</ele>
        <time>2019-10-12T06:53:00Z</time>
      </trkpt>
      <trkpt lat="40.0252290" lon="-0.0049570">
        <ele>24.8</ele>
        <time>2019-10-12T06:53:05Z</time>
      </trkpt>
      <trkpt lat="40.0252350" lon="-0.0055200">
        <ele>24.9</ele>
        <time>2019-10-12T06:53:10Z</time>
      </trkpt>
      <trkpt lat="40.0252420" lon="-0.0057360">
        <ele>24.9</ele>
        <time>2019-10-12T06:53:12Z</time>
      </trkpt>
      <trkpt lat="40.0252500" lon="-0.0059480">
        <ele>25.2</ele>
        <time>2019-10-12T06:53:14Z</time>
      </trkpt>
      <trkpt lat="40.0252390" lon="-0.0063690">
        <ele>25.9</ele>
        <time>2019-10-12T06:53:18Z</time>
      </trkpt>
      <trkpt lat="40.0252360" lon="-0.0064740">
        <ele>26.1</ele>
        <time>2019-10-12T06:53:19Z</time>
      </trkpt>
      <trkpt lat="40.0252260" lon="-0.0066760">
        <ele>26.4</ele>
        <time>2019-10-12T06:53:21Z</time>
      </trkpt>
      <trkpt lat="40.0252080" lon="-0.0071610">
        <ele>26.5</ele>
        <time>2019-10-12T06:53:26Z</time>
      </trkpt>
      <trkpt lat="40.0252320" lon="-0.0073420">
        <ele>26.6</ele>
        <time>2019-10-12T06:53:28Z</time>
      </trkpt>
      <trkpt lat="40.0252500" lon="-0.0074260">
        <ele>26.6</ele>
        <time>2019-10-12T06:53:29Z</time>
      </trkpt>
      <trkpt lat="40.0252730" lon="-0.0075040">
        <ele>26.6</ele>
        <time>2019-10-12T06:53:30Z</time>
      </trkpt>
      <trkpt lat="40.0253640" lon="-0.0077080">
        <ele>27.0</ele>
        <time>2019-10-12T06:53:33Z</time>
      </trkpt>
      <trkpt lat="40.0254400" lon="-0.0078280">
        <ele>27.5</ele>
        <time>2019-10-12T06:53:35Z</time>
      </trkpt>
      <trkpt lat="40.0255360" lon="-0.0079090">
        <ele>27.8</ele>
        <time>2019-10-12T06:53:37Z</time>
      </trkpt>
      <trkpt lat="40.0256420" lon="-0.0079460">
        <ele>28.1</ele>
        <time>2019-10-12T06:53:39Z</time>
      </trkpt>
      <trkpt lat="40.0257520" lon="-0.0079390">
        <ele>28.3</ele>
        <time>2019-10-12T06:53:41Z</time>
      </trkpt>
      <trkpt lat="40.0258010" lon="-0.0079100">
        <ele>28.5</ele>
        <time>2019-10-12T06:53:42Z</time>
      </trkpt>
      <trkpt lat="40.0258500" lon="-0.0078700">
        <ele>28.7</ele>
        <time>2019-10-12T06:53:43Z</time>
      </trkpt>
      <trkpt lat="40.0259840" lon="-0.0077230">
        <ele>29.3</ele>
        <time>2019-10-12T06:53:46Z</time>
      </trkpt>
      <trkpt lat="40.0260840" lon="-0.0076620">
        <ele>29.6</ele>
        <time>2019-10-12T06:53:48Z</time>
      </trkpt>
      <trkpt lat="40.0261920" lon="-0.0076530">
        <ele>29.7</ele>
        <time>2019-10-12T06:53:50Z</time>
      </trkpt>
      <trkpt lat="40.0263000" lon="-0.0076900">
        <ele>29.8</ele>
        <time>2019-10-12T06:53:52Z</time>
      </trkpt>
      <trkpt lat="40.0263920" lon="-0.0077760">
        <ele>29.8</ele>
        <time>2019-10-12T06:53:54Z</time>
      </trkpt>
      <trkpt lat="40.0265000" lon="-0.0079250">
        <ele>30.1</ele>
        <time>2019-10-12T06:53:57Z</time>
      </trkpt>
      <trkpt lat="40.0265970" lon="-0.0079880">
        <ele>30.7</ele>
        <time>2019-10-12T06:53:59Z</time>
      </trkpt>
      <trkpt lat="40.0267660" lon="-0.0080220">
        <ele>31.3</ele>
        <time>2019-10-12T06:54:02Z</time>
      </trkpt>
      <trkpt lat="40.0268160" lon="-0.0080200">
        <ele>31.5</ele>
        <time>2019-10-12T06:54:03Z</time>
      </trkpt>
      <trkpt lat="40.0269010" lon="-0.0080210">
        <ele>31.8</ele>
        <time>2019-10-12T06:54:05Z</time>
      </trkpt>
      <trkpt lat="40.0270240" lon="-0.0080040">
        <ele>32.5</ele>
        <time>2019-10-12T06:54:08Z</time>
      </trkpt>
      <trkpt lat="40.0271990" lon="-0.0079520">
        <ele>33.0</ele>
        <time>2019-10-12T06:54:12Z</time>
      </trkpt>
      <trkpt lat="40.0272880" lon="-0.0079280">
        <ele>32.9</ele>
        <time>2019-10-12T06:54:14Z</time>
      </trkpt>
      <trkpt lat="40.0275500" lon="-0.0078540">
        <ele>33.0</ele>
        <time>2019-10-12T06:54:20Z</time>
      </trkpt>
      <trkpt lat="40.0278680" lon="-0.0077800">
        <ele>33.6</ele>
        <time>2019-10-12T06:54:27Z</time>
      </trkpt>
      <trkpt lat="40.0281990" lon="-0.0076940">
        <ele>34.9</ele>
        <time>2019-10-12T06:54:35Z</time>
      </trkpt>
      <trkpt lat="40.0286230" lon="-0.0075730">
        <ele>37.0</ele>
        <time>2019-10-12T06:54:45Z</time>
      </trkpt>
      <trkpt lat="40.0289460" lon="-0.0074920">
        <ele>38.5</ele>
        <time>2019-10-12T06:54:53Z</time>
      </trkpt>
      <trkpt lat="40.0291450" lon="-0.0074420">
        <ele>39.3</ele>
        <time>2019-10-12T06:54:58Z</time>
      </trkpt>
      <trkpt lat="40.0292240" lon="-0.0074230">
        <ele>39.7</ele>
        <time>2019-10-12T06:55:00Z</time>
      </trkpt>
      <trkpt lat="40.0293480" lon="-0.0073900">
        <ele>40.2</ele>
        <time>2019-10-12T06:55:03Z</time>
      </trkpt>
      <trkpt lat="40.0295200" lon="-0.0073400">
        <ele>41.0</ele>
        <time>2019-10-12T06:55:07Z</time>
      </trkpt>
      <trkpt lat="40.0298660" lon="-0.0072560">
        <ele>42.8</ele>
        <time>2019-10-12T06:55:15Z</time>
      </trkpt>
      <trkpt lat="40.0302810" lon="-0.0071420">
        <ele>44.1</ele>
        <time>2019-10-12T06:55:24Z</time>
      </trkpt>
      <trkpt lat="40.0306830" lon="-0.0070400">
        <ele>44.2</ele>
        <time>2019-10-12T06:55:31Z</time>
      </trkpt>
      <trkpt lat="40.0311440" lon="-0.0069190">
        <ele>44.6</ele>
        <time>2019-10-12T06:55:37Z</time>
      </trkpt>
      <trkpt lat="40.0316800" lon="-0.0067700">
        <ele>45.8</ele>
        <time>2019-10-12T06:55:43Z</time>
      </trkpt>
      <trkpt lat="40.0318610" lon="-0.0067200">
        <ele>46.2</ele>
        <time>2019-10-12T06:55:45Z</time>
      </trkpt>
      <trkpt lat="40.0324370" lon="-0.0065590">
        <ele>48.6</ele>
        <time>2019-10-12T06:55:52Z</time>
      </trkpt>
      <trkpt lat="40.0327170" lon="-0.0064780">
        <ele>49.9</ele>
        <time>2019-10-12T06:55:56Z</time>
      </trkpt>
      <trkpt lat="40.0327830" lon="-0.0064640">
        <ele>50.2</ele>
        <time>2019-10-12T06:55:57Z</time>
      </trkpt>
      <trkpt lat="40.0328510" lon="-0.0064540">
        <ele>50.5</ele>
        <time>2019-10-12T06:55:58Z</time>
      </trkpt>
      <trkpt lat="40.0329860" lon="-0.0064760">
        <ele>51.2</ele>
        <time>2019-10-12T06:56:00Z</time>
      </trkpt>
      <trkpt lat="40.0331240" lon="-0.0065450">
        <ele>51.9</ele>
        <time>2019-10-12T06:56:02Z</time>
      </trkpt>
      <trkpt lat="40.0332470" lon="-0.0066440">
        <ele>52.5</ele>
        <time>2019-10-12T06:56:04Z</time>
      </trkpt>
      <trkpt lat="40.0335740" lon="-0.0069260">
        <ele>54.7</ele>
        <time>2019-10-12T06:56:10Z</time>
      </trkpt>
      <trkpt lat="40.0336780" lon="-0.0070090">
        <ele>55.3</ele>
        <time>2019-10-12T06:56:12Z</time>
      </trkpt>
      <trkpt lat="40.0337860" lon="-0.0070860">
        <ele>55.9</ele>
        <time>2019-10-12T06:56:14Z</time>
      </trkpt>
      <trkpt lat="40.0338980" lon="-0.0071450">
        <ele>56.5</ele>
        <time>2019-10-12T06:56:16Z</time>
      </trkpt>
      <trkpt lat="40.0340190" lon="-0.0071710">
        <ele>57.3</ele>
        <time>2019-10-12T06:56:18Z</time>
      </trkpt>
      <trkpt lat="40.0341230" lon="-0.0071650">
        <ele>57.8</ele>
        <time>2019-10-12T06:56:20Z</time>
      </trkpt>
      <trkpt lat="40.0342340" lon="-0.0071330">
        <ele>58.4</ele>
        <time>2019-10-12T06:56:22Z</time>
      </trkpt>
      <trkpt lat="40.0346160" lon="-0.0070460">
        <ele>60.7</ele>
        <time>2019-10-12T06:56:29Z</time>
      </trkpt>
      <trkpt lat="40.0349820" lon="-0.0069610">
        <ele>61.5</ele>
        <time>2019-10-12T06:56:35Z</time>
      </trkpt>
      <trkpt lat="40.0352700" lon="-0.0068960">
        <ele>62.0</ele>
        <time>2019-10-12T06:56:40Z</time>
      </trkpt>
      <trkpt lat="40.0356280" lon="-0.0068060">
        <ele>63.1</ele>
        <time>2019-10-12T06:56:46Z</time>
      </trkpt>
      <trkpt lat="40.0359700" lon="-0.0067290">
        <ele>64.2</ele>
        <time>2019-10-12T06:56:52Z</time>
      </trkpt>
      <trkpt lat="40.0362710" lon="-0.0066500">
        <ele>65.0</ele>
        <time>2019-10-12T06:56:57Z</time>
      </trkpt>
      <trkpt lat="40.0365840" lon="-0.0065770">
        <ele>65.8</ele>
        <time>2019-10-12T06:57:02Z</time>
      </trkpt>
      <trkpt lat="40.0369690" lon="-0.0064690">
        <ele>67.0</ele>
        <time>2019-10-12T06:57:08Z</time>
      </trkpt>
      <trkpt lat="40.0370360" lon="-0.0064360">
        <ele>67.4</ele>
        <time>2019-10-12T06:57:09Z</time>
      </trkpt>
      <trkpt lat="40.0372700" lon="-0.0062870">
        <ele>68.7</ele>
        <time>2019-10-12T06:57:13Z</time>
      </trkpt>
      <trkpt lat="40.0376730" lon="-0.0060290">
        <ele>71.0</ele>
        <time>2019-10-12T06:57:20Z</time>
      </trkpt>
      <trkpt lat="40.0379510" lon="-0.0058470">
        <ele>72.6</ele>
        <time>2019-10-12T06:57:25Z</time>
      </trkpt>
      <trkpt lat="40.0380060" lon="-0.0058170">
        <ele>72.9</ele>
        <time>2019-10-12T06:57:26Z</time>
      </trkpt>
      <trkpt lat="40.0380600" lon="-0.0057830">
        <ele>73.2</ele>
        <time>2019-10-12T06:57:27Z</time>
      </trkpt>
      <trkpt lat="40.0381650" lon="-0.0057120">
        <ele>73.7</ele>
        <time>2019-10-12T06:57:29Z</time>
      </trkpt>
      <trkpt lat="40.0382160" lon="-0.0056790">
        <ele>73.9</ele>
        <time>2019-10-12T06:57:30Z</time>
      </trkpt>
      <trkpt lat="40.0383700" lon="-0.0055790">
        <ele>74.7</ele>
        <time>2019-10-12T06:57:33Z</time>
      </trkpt>
      <trkpt lat="40.0384210" lon="-0.0055480">
        <ele>75.0</ele>
        <time>2019-10-12T06:57:34Z</time>
      </trkpt>
      <trkpt lat="40.0384680" lon="-0.0055170">
        <ele>75.2</ele>
        <time>2019-10-12T06:57:35Z</time>
      </trkpt>
      <trkpt lat="40.0386010" lon="-0.0054240">
        <ele>75.9</ele>
        <time>2019-10-12T06:57:38Z</time>
      </trkpt>
      <trkpt lat="40.0386800" lon="-0.0053670">
        <ele>76.2</ele>
        <time>2019-10-12T06:57:40Z</time>
      </trkpt>
      <trkpt lat="40.0387670" lon="-0.0053050">
        <ele>76.6</ele>
        <time>2019-10-12T06:57:42Z</time>
      </trkpt>
      <trkpt lat="40.0390000" lon="-0.0051620">
        <ele>77.4</ele>
        <time>2019-10-12T06:57:47Z</time>
      </trkpt>
      <trkpt lat="40.0391620" lon="-0.0050530">
        <ele>78.1</ele>
        <time>2019-10-12T06:57:51Z</time>
      </trkpt>
      <trkpt lat="40.0392560" lon="-0.0049630">
        <ele>78.6</ele>
        <time>2019-10-12T06:57:54Z</time>
      </trkpt>
      <trkpt lat="40.0393000" lon="-0.0049260">
        <ele>78.7</ele>
        <time>2019-10-12T06:57:55Z</time>
      </trkpt>
      <trkpt lat="40.0394950" lon="-0.0047960">
        <ele>79.1</ele>
        <time>2019-10-12T06:57:59Z</time>
      </trkpt>
      <trkpt lat="40.0397870" lon="-0.0046350">
        <ele>79.6</ele>
        <time>2019-10-12T06:58:05Z</time>
      </trkpt>
      <trkpt lat="40.0398310" lon="-0.0046100">
        <ele>79.7</ele>
        <time>2019-10-12T06:58:06Z</time>
      </trkpt>
      <trkpt lat="40.0399510" lon="-0.0045090">
        <ele>79.7</ele>
        <time>2019-10-12T06:58:09Z</time>
      </trkpt>
      <trkpt lat="40.0401810" lon="-0.0043450">
        <ele>79.9</ele>
        <time>2019-10-12T06:58:14Z</time>
      </trkpt>
      <trkpt lat="40.0404620" lon="-0.0041680">
        <ele>80.5</ele>
        <time>2019-10-12T06:58:19Z</time>
      </trkpt>
      <trkpt lat="40.0406120" lon="-0.0040500">
        <ele>81.0</ele>
        <time>2019-10-12T06:58:22Z</time>
      </trkpt>
      <trkpt lat="40.0406670" lon="-0.0040140">
        <ele>81.2</ele>
        <time>2019-10-12T06:58:23Z</time>
      </trkpt>
      <trkpt lat="40.0409680" lon="-0.0038260">
        <ele>82.2</ele>
        <time>2019-10-12T06:58:28Z</time>
      </trkpt>
      <trkpt lat="40.0410250" lon="-0.0037860">
        <ele>82.4</ele>
        <time>2019-10-12T06:58:29Z</time>
      </trkpt>
      <trkpt lat="40.0414360" lon="-0.0035150">
        <ele>83.6</ele>
        <time>2019-10-12T06:58:36Z</time>
      </trkpt>
      <trkpt lat="40.0417880" lon="-0.0032670">
        <ele>84.6</ele>
        <time>2019-10-12T06:58:42Z</time>
      </trkpt>
      <trkpt lat="40.0420200" lon="-0.0031140">
        <ele>85.7</ele>
        <time>2019-10-12T06:58:46Z</time>
      </trkpt>
      <trkpt lat="40.0420800" lon="-0.0030700">
        <ele>86.0</ele>
        <time>2019-10-12T06:58:47Z</time>
      </trkpt>
      <trkpt lat="40.0423870" lon="-0.0028720">
        <ele>87.1</ele>
        <time>2019-10-12T06:58:52Z</time>
      </trkpt>
      <trkpt lat="40.0424890" lon="-0.0028050">
        <ele>87.4</ele>
        <time>2019-10-12T06:58:54Z</time>
      </trkpt>
      <trkpt lat="40.0426180" lon="-0.0027370">
        <ele>87.8</ele>
        <time>2019-10-12T06:58:56Z</time>
      </trkpt>
      <trkpt lat="40.0426790" lon="-0.0026990">
        <ele>87.9</ele>
        <time>2019-10-12T06:58:57Z</time>
      </trkpt>
      <trkpt lat="40.0428530" lon="-0.0025750">
        <ele>88.6</ele>
        <time>2019-10-12T06:59:00Z</time>
      </trkpt>
      <trkpt lat="40.0430970" lon="-0.0023990">
        <ele>89.6</ele>
        <time>2019-10-12T06:59:04Z</time>
      </trkpt>
      <trkpt lat="40.0434080" lon="-0.0021840">
        <ele>90.9</ele>
        <time>2019-10-12T06:59:09Z</time>
      </trkpt>
      <trkpt lat="40.0436850" lon="-0.0019950">
        <ele>91.4</ele>
        <time>2019-10-12T06:59:14Z</time>
      </trkpt>
      <trkpt lat="40.0438440" lon="-0.0018600">
        <ele>91.9</ele>
        <time>2019-10-12T06:59:17Z</time>
      </trkpt>
      <trkpt lat="40.0438950" lon="-0.0018110">
        <ele>92.1</ele>
        <time>2019-10-12T06:59:18Z</time>
      </trkpt>
      <trkpt lat="40.0439860" lon="-0.0016780">
        <ele>92.2</ele>
        <time>2019-10-12T06:59:20Z</time>
      </trkpt>
      <trkpt lat="40.0441930" lon="-0.0013530">
        <ele>93.4</ele>
        <time>2019-10-12T06:59:25Z</time>
      </trkpt>
      <trkpt lat="40.0442310" lon="-0.0012970">
        <ele>93.6</ele>
        <time>2019-10-12T06:59:26Z</time>
      </trkpt>
      <trkpt lat="40.0443420" lon="-0.0011160">
        <ele>94.4</ele>
        <time>2019-10-12T06:59:29Z</time>
      </trkpt>
      <trkpt lat="40.0443810" lon="-0.0010570">
        <ele>94.7</ele>
        <time>2019-10-12T06:59:30Z</time>
      </trkpt>
      <trkpt lat="40.0445480" lon="-0.0007640">
        <ele>96.5</ele>
        <time>2019-10-12T06:59:35Z</time>
      </trkpt>
      <trkpt lat="40.0445990" lon="-0.0006570">
        <ele>97.2</ele>
        <time>2019-10-12T06:59:37Z</time>
      </trkpt>
      <trkpt lat="40.0446290" lon="-0.0006050">
        <ele>97.7</ele>
        <time>2019-10-12T06:59:38Z</time>
      </trkpt>
      <trkpt lat="40.0448050" lon="-0.0003690">
        <ele>100.1</ele>
        <time>2019-10-12T06:59:43Z</time>
      </trkpt>
      <trkpt lat="40.0448470" lon="-0.0003320">
        <ele>100.5</ele>
        <time>2019-10-12T06:59:44Z</time>
      </trkpt>
      <trkpt lat="40.0449290" lon="-0.0002570">
        <ele>101.5</ele>
        <time>2019-10-12T06:59:46Z</time>
      </trkpt>
      <trkpt lat="40.0449690" lon="-0.0002220">
        <ele>101.9</ele>
        <time>2019-10-12T06:59:47Z</time>
      </trkpt>
      <trkpt lat="40.0450860" lon="-0.0001260">
        <ele>103.1</ele>
        <time>2019-10-12T06:59:50Z</time>
      </trkpt>
      <trkpt lat="40.0451240" lon="-0.0000950">
        <ele>103.4</ele>
        <time>2019-10-12T06:59:51Z</time>
      </trkpt>
      <trkpt lat="40.0452030" lon="-0.0000230">
        <ele>104.2</ele>
        <time>2019-10-12T06:59:53Z</time>
      </trkpt>
      <trkpt lat="40.0452950" lon="0.0000430">
        <ele>104.9</ele>
        <time>2019-10-12T06:59:55Z</time>
      </trkpt>
      <trkpt lat="40.0453850" lon="0.0000970">
        <ele>105.5</ele>
        <time>2019-10-12T06:59:57Z</time>
      </trkpt>
      <trkpt lat="40.0454660" lon="0.0001630">
        <ele>106.0</ele>
        <time>2019-10-12T06:59:59Z</time>
      </trkpt>
      <trkpt lat="40.0455120" lon="0.0001970">
        <ele>106.3</ele>
        <time>2019-10-12T07:00:00Z</time>
      </trkpt>
      <trkpt lat="40.0455610" lon="0.0002320">
        <ele>106.5</ele>
        <time>2019-10-12T07:00:01Z</time>
      </trkpt>
      <trkpt lat="40.0457330" lon="0.0003510">
        <ele>107.1</ele>
        <time>2019-10-12T07:00:05Z</time>
      </trkpt>
      <trkpt lat="40.0459960" lon="0.0005290">
        <ele>107.2</ele>
        <time>2019-10-12T07:00:10Z</time>
      </trkpt>
      <trkpt lat="40.0461590" lon="0.0006380">
        <ele>107.3</ele>
        <time>2019-10-12T07:00:13Z</time>
      </trkpt>
      <trkpt lat="40.0462840" lon="0.0007210">
        <ele>107.5</ele>
        <time>2019-10-12T07:00:15Z</time>
      </trkpt>
      <trkpt lat="40.0465990" lon="0.0009140">
        <ele>108.3</ele>
        <time>2019-10-12T07:00:20Z</time>
      </trkpt>
      <trkpt lat="40.0466640" lon="0.0009330">
        <ele>108.4</ele>
        <time>2019-10-12T07:00:21Z</time>
      </trkpt>
      <trkpt lat="40.0467290" lon="0.0009370">
        <ele>108.4</ele>
        <time>2019-10-12T07:00:22Z</time>
      </trkpt>
      <trkpt lat="40.0468670" lon="0.0009100">
        <ele>108.5</ele>
        <time>2019-10-12T07:00:24Z</time>
      </trkpt>
      <trkpt lat="40.0471540" lon="0.0008510">
        <ele>109.3</ele>
        <time>2019-10-12T07:00:28Z</time>
      </trkpt>
      <trkpt lat="40.0472830" lon="0.0008150">
        <ele>110.1</ele>
        <time>2019-10-12T07:00:30Z</time>
      </trkpt>
      <trkpt lat="40.0475880" lon="0.0007410">
        <ele>112.1</ele>
        <time>2019-10-12T07:00:35Z</time>
      </trkpt>
      <trkpt lat="40.0479940" lon="0.0006310">
        <ele>115.1</ele>
        <time>2019-10-12T07:00:42Z</time>
      </trkpt>
      <trkpt lat="40.0483780" lon="0.0005210">
        <ele>117.6</ele>
        <time>2019-10-12T07:00:49Z</time>
      </trkpt>
      <trkpt lat="40.0484250" lon="0.0004920">
        <ele>117.7</ele>
        <time>2019-10-12T07:00:50Z</time>
      </trkpt>
      <trkpt lat="40.0485130" lon="0.0004300">
        <ele>117.9</ele>
        <time>2019-10-12T07:00:52Z</time>
      </trkpt>
      <trkpt lat="40.0485540" lon="0.0003930">
        <ele>118.0</ele>
        <time>2019-10-12T07:00:53Z</time>
      </trkpt>
      <trkpt lat="40.0487460" lon="0.0002330">
        <ele>118.9</ele>
        <time>2019-10-12T07:00:58Z</time>
      </trkpt>
      <trkpt lat="40.0487880" lon="0.0002070">
        <ele>119.1</ele>
        <time>2019-10-12T07:00:59Z</time>
      </trkpt>
      <trkpt lat="40.0489080" lon="0.0001070">
        <ele>119.8</ele>
        <time>2019-10-12T07:01:02Z</time>
      </trkpt>
      <trkpt lat="40.0489800" lon="0.0000190">
        <ele>120.2</ele>
        <time>2019-10-12T07:01:04Z</time>
      </trkpt>
      <trkpt lat="40.0490140" lon="-0.0000270">
        <ele>120.4</ele>
        <time>2019-10-12T07:01:05Z</time>
      </trkpt>
      <trkpt lat="40.0490720" lon="-0.0001140">
        <ele>120.8</ele>
        <time>2019-10-12T07:01:07Z</time>
      </trkpt>
      <trkpt lat="40.0490980" lon="-0.0001480">
        <ele>121.0</ele>
        <time>2019-10-12T07:01:08Z</time>
      </trkpt>
      <trkpt lat="40.0491300" lon="-0.0001790">
        <ele>121.2</ele>
        <time>2019-10-12T07:01:09Z</time>
      </trkpt>
      <trkpt lat="40.0492410" lon="-0.0002760">
        <ele>121.6</ele>
        <time>2019-10-12T07:01:12Z</time>
      </trkpt>
      <trkpt lat="40.0492530" lon="-0.0003600">
        <ele>122.1</ele>
        <time>2019-10-12T07:01:13Z</time>
      </trkpt>
      <trkpt lat="40.0493040" lon="-0.0006830">
        <ele>123.8</ele>
        <time>2019-10-12T07:01:17Z</time>
      </trkpt>
      <trkpt lat="40.0493300" lon="-0.0007460">
        <ele>124.2</ele>
        <time>2019-10-12T07:01:18Z</time>
      </trkpt>
      <trkpt lat="40.0493950" lon="-0.0008590">
        <ele>124.9</ele>
        <time>2019-10-12T07:01:20Z</time>
      </trkpt>
      <trkpt lat="40.0494580" lon="-0.0009920">
        <ele>125.8</ele>
        <time>2019-10-12T07:01:22Z</time>
      </trkpt>
      <trkpt lat="40.0494940" lon="-0.0010460">
        <ele>126.2</ele>
        <time>2019-10-12T07:01:23Z</time>
      </trkpt>
      <trkpt lat="40.0495390" lon="-0.0010750">
        <ele>126.5</ele>
        <time>2019-10-12T07:01:24Z</time>
      </trkpt>
      <trkpt lat="40.0496350" lon="-0.0010800">
        <ele>127.3</ele>
        <time>2019-10-12T07:01:26Z</time>
      </trkpt>
      <trkpt lat="40.0496860" lon="-0.0010610">
        <ele>127.8</ele>
        <time>2019-10-12T07:01:27Z</time>
      </trkpt>
      <trkpt lat="40.0497340" lon="-0.0010330">
        <ele>128.1</ele>
        <time>2019-10-12T07:01:28Z</time>
      </trkpt>
      <trkpt lat="40.0499590" lon="-0.0008690">
        <ele>130.1</ele>
        <time>2019-10-12T07:01:33Z</time>
      </trkpt>
      <trkpt lat="40.0503160" lon="-0.0006060">
        <ele>132.7</ele>
        <time>2019-10-12T07:01:41Z</time>
      </trkpt>
      <trkpt lat="40.0504790" lon="-0.0004590">
        <ele>134.3</ele>
        <time>2019-10-12T07:01:45Z</time>
      </trkpt>
      <trkpt lat="40.0505190" lon="-0.0004060">
        <ele>134.7</ele>
        <time>2019-10-12T07:01:46Z</time>
      </trkpt>
      <trkpt lat="40.0505480" lon="-0.0003490">
        <ele>135.1</ele>
        <time>2019-10-12T07:01:47Z</time>
      </trkpt>
      <trkpt lat="40.0505960" lon="-0.0002240">
        <ele>135.9</ele>
        <time>2019-10-12T07:01:49Z</time>
      </trkpt>
      <trkpt lat="40.0506060" lon="-0.0001560">
        <ele>136.3</ele>
        <time>2019-10-12T07:01:50Z</time>
      </trkpt>
      <trkpt lat="40.0505980" lon="-0.0000880">
        <ele>136.7</ele>
        <time>2019-10-12T07:01:51Z</time>
      </trkpt>
      <trkpt lat="40.0505800" lon="-0.0000270">
        <ele>137.0</ele>
        <time>2019-10-12T07:01:52Z</time>
      </trkpt>
      <trkpt lat="40.0505610" lon="0.0000360">
        <ele>137.5</ele>
        <time>2019-10-12T07:01:53Z</time>
      </trkpt>
      <trkpt lat="40.0504940" lon="0.0001590">
        <ele>137.8</ele>
        <time>2019-10-12T07:01:55Z</time>
      </trkpt>
      <trkpt lat="40.0504080" lon="0.0002610">
        <ele>138.2</ele>
        <time>2019-10-12T07:01:57Z</time>
      </trkpt>
      <trkpt lat="40.0503560" lon="0.0002920">
        <ele>138.7</ele>
        <time>2019-10-12T07:01:58Z</time>
      </trkpt>
      <trkpt lat="40.0502960" lon="0.0003090">
        <ele>139.3</ele>
        <time>2019-10-12T07:01:59Z</time>
      </trkpt>
      <trkpt lat="40.0501860" lon="0.0003040">
        <ele>140.6</ele>
        <time>2019-10-12T07:02:01Z</time>
      </trkpt>
      <trkpt lat="40.0500850" lon="0.0003010">
        <ele>141.6</ele>
        <time>2019-10-12T07:02:03Z</time>
      </trkpt>
      <trkpt lat="40.0500400" lon="0.0002920">
        <ele>141.9</ele>
        <time>2019-10-12T07:02:04Z</time>
      </trkpt>
      <trkpt lat="40.0499990" lon="0.0002880">
        <ele>142.3</ele>
        <time>2019-10-12T07:02:05Z</time>
      </trkpt>
      <trkpt lat="40.0499120" lon="0.0002990">
        <ele>143.0</ele>
        <time>2019-10-12T07:02:07Z</time>
      </trkpt>
      <trkpt lat="40.0498260" lon="0.0003300">
        <ele>143.6</ele>
        <time>2019-10-12T07:02:09Z</time>
      </trkpt>
      <trkpt lat="40.0497530" lon="0.0003900">
        <ele>144.2</ele>
        <time>2019-10-12T07:02:11Z</time>
      </trkpt>
      <trkpt lat="40.0496840" lon="0.0004830">
        <ele>144.9</ele>
        <time>2019-10-12T07:02:13Z</time>
      </trkpt>
      <trkpt lat="40.0495790" lon="0.0006640">
        <ele>146.1</ele>
        <time>2019-10-12T07:02:17Z</time>
      </trkpt>
      <trkpt lat="40.0495590" lon="0.0007180">
        <ele>146.4</ele>
        <time>2019-10-12T07:02:18Z</time>
      </trkpt>
      <trkpt lat="40.0495440" lon="0.0007770">
        <ele>146.7</ele>
        <time>2019-10-12T07:02:19Z</time>
      </trkpt>
      <trkpt lat="40.0495260" lon="0.0009480">
        <ele>147.5</ele>
        <time>2019-10-12T07:02:22Z</time>
      </trkpt>
      <trkpt lat="40.0495200" lon="0.0010570">
        <ele>147.9</ele>
        <time>2019-10-12T07:02:24Z</time>
      </trkpt>
      <trkpt lat="40.0495380" lon="0.0012110">
        <ele>148.6</ele>
        <time>2019-10-12T07:02:27Z</time>
      </trkpt>
      <trkpt lat="40.0495550" lon="0.0013160">
        <ele>149.0</ele>
        <time>2019-10-12T07:02:29Z</time>
      </trkpt>
      <trkpt lat="40.0496130" lon="0.0014870">
        <ele>149.9</ele>
        <time>2019-10-12T07:02:32Z</time>
      </trkpt>
      <trkpt lat="40.0496580" lon="0.0015950">
        <ele>150.4</ele>
        <time>2019-10-12T07:02:34Z</time>
      </trkpt>
      <trkpt lat="40.0497020" lon="0.0017830">
        <ele>151.3</ele>
        <time>2019-10-12T07:02:37Z</time>
      </trkpt>
      <trkpt lat="40.0496930" lon="0.0018940">
        <ele>151.7</ele>
        <time>2019-10-12T07:02:39Z</time>
      </trkpt>
      <trkpt lat="40.0496570" lon="0.0019930">
        <ele>152.1</ele>
        <time>2019-10-12T07:02:41Z</time>
      </trkpt>
      <trkpt lat="40.0496050" lon="0.0021410">
        <ele>152.8</ele>
        <time>2019-10-12T07:02:44Z</time>
      </trkpt>
      <trkpt lat="40.0495820" lon="0.0022530">
        <ele>153.3</ele>
        <time>2019-10-12T07:02:46Z</time>
      </trkpt>
      <trkpt lat="40.0495650" lon="0.0023670">
        <ele>153.8</ele>
        <time>2019-10-12T07:02:48Z</time>
      </trkpt>
      <trkpt lat="40.0495630" lon="0.0025980">
        <ele>155.0</ele>
        <time>2019-10-12T07:02:52Z</time>
      </trkpt>
      <trkpt lat="40.0495610" lon="0.0027050">
        <ele>155.6</ele>
        <time>2019-10-12T07:02:54Z</time>
      </trkpt>
      <trkpt lat="40.0495580" lon="0.0028140">
        <ele>156.3</ele>
        <time>2019-10-12T07:02:56Z</time>
      </trkpt>
      <trkpt lat="40.0495590" lon="0.0028700">
        <ele>156.7</ele>
        <time>2019-10-12T07:02:57Z</time>
      </trkpt>
      <trkpt lat="40.0495680" lon="0.0029790">
        <ele>157.4</ele>
        <time>2019-10-12T07:02:59Z</time>
      </trkpt>
      <trkpt lat="40.0495820" lon="0.0030870">
        <ele>158.1</ele>
        <time>2019-10-12T07:03:01Z</time>
      </trkpt>
      <trkpt lat="40.0496050" lon="0.0032030">
        <ele>158.9</ele>
        <time>2019-10-12T07:03:03Z</time>
      </trkpt>
      <trkpt lat="40.0496230" lon="0.0034420">
        <ele>160.5</ele>
        <time>2019-10-12T07:03:07Z</time>
      </trkpt>
      <trkpt lat="40.0496380" lon="0.0036110">
        <ele>161.6</ele>
        <time>2019-10-12T07:03:10Z</time>
      </trkpt>
      <trkpt lat="40.0496520" lon="0.0037260">
        <ele>162.4</ele>
        <time>2019-10-12T07:03:12Z</time>
      </trkpt>
      <trkpt lat="40.0496590" lon="0.0037840">
        <ele>162.8</ele>
        <time>2019-10-12T07:03:13Z</time>
      </trkpt>
      <trkpt lat="40.0496810" lon="0.0039610">
        <ele>164.0</ele>
        <time>2019-10-12T07:03:16Z</time>
      </trkpt>
      <trkpt lat="40.0496860" lon="0.0040170">
        <ele>164.4</ele>
        <time>2019-10-12T07:03:17Z</time>
      </trkpt>
      <trkpt lat="40.0496950" lon="0.0040690">
        <ele>164.7</ele>
        <time>2019-10-12T07:03:18Z</time>
      </trkpt>
      <trkpt lat="40.0497360" lon="0.0041830">
        <ele>165.6</ele>
        <time>2019-10-12T07:03:20Z</time>
      </trkpt>
      <trkpt lat="40.0497770" lon="0.0042900">
        <ele>166.3</ele>
        <time>2019-10-12T07:03:22Z</time>
      </trkpt>
      <trkpt lat="40.0498080" lon="0.0043910">
        <ele>167.0</ele>
        <time>2019-10-12T07:03:24Z</time>
      </trkpt>
      <trkpt lat="40.0498430" lon="0.0044900">
        <ele>167.7</ele>
        <time>2019-10-12T07:03:26Z</time>
      </trkpt>
      <trkpt lat="40.0498840" lon="0.0045940">
        <ele>168.3</ele>
        <time>2019-10-12T07:03:28Z</time>
      </trkpt>
      <trkpt lat="40.0500130" lon="0.0049550">
        <ele>170.2</ele>
        <time>2019-10-12T07:03:35Z</time>
      </trkpt>
      <trkpt lat="40.0500980" lon="0.0052010">
        <ele>171.3</ele>
        <time>2019-10-12T07:03:40Z</time>
      </trkpt>
      <trkpt lat="40.0501280" lon="0.0052900">
        <ele>171.7</ele>
        <time>2019-10-12T07:03:42Z</time>
      </trkpt>
      <trkpt lat="40.0502320" lon="0.0055560">
        <ele>173.1</ele>
        <time>2019-10-12T07:03:48Z</time>
      </trkpt>
      <trkpt lat="40.0503380" lon="0.0057390">
        <ele>174.1</ele>
        <time>2019-10-12T07:03:53Z</time>
      </trkpt>
      <trkpt lat="40.0505220" lon="0.0058350">
        <ele>175.6</ele>
        <time>2019-10-12T07:03:58Z</time>
      </trkpt>
      <trkpt lat="40.0506810" lon="0.0058210">
        <ele>176.9</ele>
        <time>2019-10-12T07:04:02Z</time>
      </trkpt>
      <trkpt lat="40.0508420" lon="0.0057180">
        <ele>178.4</ele>
        <time>2019-10-12T07:04:07Z</time>
      </trkpt>
      <trkpt lat="40.0510200" lon="0.0055400">
        <ele>180.0</ele>
        <time>2019-10-12T07:04:13Z</time>
      </trkpt>
      <trkpt lat="40.0511960" lon="0.0054160">
        <ele>181.2</ele>
        <time>2019-10-12T07:04:18Z</time>
      </trkpt>
      <trkpt lat="40.0513260" lon="0.0053650">
        <ele>182.3</ele>
        <time>2019-10-12T07:04:22Z</time>
      </trkpt>
      <trkpt lat="40.0514790" lon="0.0054220">
        <ele>183.6</ele>
        <time>2019-10-12T07:04:26Z</time>
      </trkpt>
      <trkpt lat="40.0515900" lon="0.0054840">
        <ele>184.2</ele>
        <time>2019-10-12T07:04:30Z</time>
      </trkpt>
      <trkpt lat="40.0517580" lon="0.0056030">
        <ele>185.0</ele>
        <time>2019-10-12T07:04:35Z</time>
      </trkpt>
      <trkpt lat="40.0519760" lon="0.0057130">
        <ele>186.0</ele>
        <time>2019-10-12T07:04:41Z</time>
      </trkpt>
      <trkpt lat="40.0521420" lon="0.0057260">
        <ele>186.5</ele>
        <time>2019-10-12T07:04:45Z</time>
      </trkpt>
      <trkpt lat="40.0523410" lon="0.0057030">
        <ele>187.0</ele>
        <time>2019-10-12T07:04:50Z</time>
      </trkpt>
      <trkpt lat="40.0525980" lon="0.0056030">
        <ele>187.8</ele>
        <time>2019-10-12T07:04:57Z</time>
      </trkpt>
      <trkpt lat="40.0527530" lon="0.0054820">
        <ele>188.5</ele>
        <time>2019-10-12T07:05:02Z</time>
      </trkpt>
      <trkpt lat="40.0529770" lon="0.0052070">
        <ele>189.7</ele>
        <time>2019-10-12T07:05:10Z</time>
      </trkpt>
      <trkpt lat="40.0531280" lon="0.0050230">
        <ele>190.3</ele>
        <time>2019-10-12T07:05:15Z</time>
      </trkpt>
      <trkpt lat="40.0531610" lon="0.0049880">
        <ele>190.5</ele>
        <time>2019-10-12T07:05:16Z</time>
      </trkpt>
      <trkpt lat="40.0531890" lon="0.0049430">
        <ele>190.6</ele>
        <time>2019-10-12T07:05:17Z</time>
      </trkpt>
      <trkpt lat="40.0532390" lon="0.0048520">
        <ele>190.9</ele>
        <time>2019-10-12T07:05:19Z</time>
      </trkpt>
      <trkpt lat="40.0532710" lon="0.0048220">
        <ele>191.1</ele>
        <time>2019-10-12T07:05:20Z</time>
      </trkpt>
      <trkpt lat="40.0533070" lon="0.0048010">
        <ele>191.2</ele>
        <time>2019-10-12T07:05:21Z</time>
      </trkpt>
      <trkpt lat="40.0534730" lon="0.0047520">
        <ele>191.6</ele>
        <time>2019-10-12T07:05:25Z</time>
      </trkpt>
      <trkpt lat="40.0538180" lon="0.0046540">
        <ele>191.6</ele>
        <time>2019-10-12T07:05:33Z</time>
      </trkpt>
      <trkpt lat="40.0538660" lon="0.0046460">
        <ele>191.6</ele>
        <time>2019-10-12T07:05:34Z</time>
      </trkpt>
      <trkpt lat="40.0539970" lon="0.0046400">
        <ele>191.4</ele>
        <time>2019-10-12T07:05:37Z</time>
      </trkpt>
      <trkpt lat="40.0540310" lon="0.0046460">
        <ele>191.3</ele>
        <time>2019-10-12T07:05:38Z</time>
      </trkpt>
      <trkpt lat="40.0542110" lon="0.0047500">
        <ele>191.9</ele>
        <time>2019-10-12T07:05:43Z</time>
      </trkpt>
      <trkpt lat="40.0543020" lon="0.0048530">
        <ele>192.7</ele>
        <time>2019-10-12T07:05:46Z</time>
      </trkpt>
      <trkpt lat="40.0543640" lon="0.0049190">
        <ele>193.2</ele>
        <time>2019-10-12T07:05:48Z</time>
      </trkpt>
      <trkpt lat="40.0543970" lon="0.0049540">
        <ele>193.4</ele>
        <time>2019-10-12T07:05:49Z</time>
      </trkpt>
      <trkpt lat="40.0545220" lon="0.0050920">
        <ele>194.4</ele>
        <time>2019-10-12T07:05:53Z</time>
      </trkpt>
      <trkpt lat="40.0546520" lon="0.0052250">
        <ele>195.3</ele>
        <time>2019-10-12T07:05:57Z</time>
      </trkpt>
      <trkpt lat="40.0547020" lon="0.0052850">
        <ele>195.7</ele>
        <time>2019-10-12T07:05:59Z</time>
      </trkpt>
      <trkpt lat="40.0547510" lon="0.0053530">
        <ele>196.1</ele>
        <time>2019-10-12T07:06:01Z</time>
      </trkpt>
      <trkpt lat="40.0548090" lon="0.0054350">
        <ele>196.6</ele>
        <time>2019-10-12T07:06:03Z</time>
      </trkpt>
      <trkpt lat="40.0548850" lon="0.0055880">
        <ele>197.6</ele>
        <time>2019-10-12T07:06:06Z</time>
      </trkpt>
      <trkpt lat="40.0549640" lon="0.0059030">
        <ele>199.1</ele>
        <time>2019-10-12T07:06:12Z</time>
      </trkpt>
      <trkpt lat="40.0550090" lon="0.0060660">
        <ele>199.7</ele>
        <time>2019-10-12T07:06:15Z</time>
      </trkpt>
      <trkpt lat="40.0550210" lon="0.0061210">
        <ele>200.0</ele>
        <time>2019-10-12T07:06:16Z</time>
      </trkpt>
      <trkpt lat="40.0550510" lon="0.0062300">
        <ele>200.4</ele>
        <time>2019-10-12T07:06:18Z</time>
      </trkpt>
      <trkpt lat="40.0550690" lon="0.0063340">
        <ele>200.9</ele>
        <time>2019-10-12T07:06:20Z</time>
      </trkpt>
      <trkpt lat="40.0550830" lon="0.0063870">
        <ele>201.2</ele>
        <time>2019-10-12T07:06:21Z</time>
      </trkpt>
      <trkpt lat="40.0550980" lon="0.0064420">
        <ele>201.5</ele>
        <time>2019-10-12T07:06:22Z</time>
      </trkpt>
      <trkpt lat="40.0551170" lon="0.0066040">
        <ele>202.2</ele>
        <time>2019-10-12T07:06:25Z</time>
      </trkpt>
      <trkpt lat="40.0551270" lon="0.0066550">
        <ele>202.4</ele>
        <time>2019-10-12T07:06:26Z</time>
      </trkpt>
      <trkpt lat="40.0551460" lon="0.0068180">
        <ele>203.1</ele>
        <time>2019-10-12T07:06:29Z</time>
      </trkpt>
      <trkpt lat="40.0551510" lon="0.0069200">
        <ele>203.4</ele>
        <time>2019-10-12T07:06:31Z</time>
      </trkpt>
      <trkpt lat="40.0551610" lon="0.0070280">
        <ele>203.8</ele>
        <time>2019-10-12T07:06:33Z</time>
      </trkpt>
      <trkpt lat="40.0551700" lon="0.0071490">
        <ele>204.2</ele>
        <time>2019-10-12T07:06:35Z</time>
      </trkpt>
      <trkpt lat="40.0551720" lon="0.0072060">
        <ele>204.4</ele>
        <time>2019-10-12T07:06:36Z</time>
      </trkpt>
      <trkpt lat="40.0551890" lon="0.0074800">
        <ele>205.5</ele>
        <time>2019-10-12T07:06:41Z</time>
      </trkpt>
      <trkpt lat="40.0552010" lon="0.0075920">
        <ele>206.4</ele>
        <time>2019-10-12T07:06:43Z</time>
      </trkpt>
      <trkpt lat="40.0551990" lon="0.0077070">
        <ele>207.3</ele>
        <time>2019-10-12T07:06:45Z</time>
      </trkpt>
      <trkpt lat="40.0551740" lon="0.0078200">
        <ele>208.3</ele>
        <time>2019-10-12T07:06:47Z</time>
      </trkpt>
      <trkpt lat="40.0551550" lon="0.0078700">
        <ele>208.7</ele>
        <time>2019-10-12T07:06:48Z</time>
      </trkpt>
      <trkpt lat="40.0551270" lon="0.0079160">
        <ele>209.5</ele>
        <time>2019-10-12T07:06:49Z</time>
      </trkpt>
      <trkpt lat="40.0550640" lon="0.0079910">
        <ele>210.4</ele>
        <time>2019-10-12T07:06:51Z</time>
      </trkpt>
      <trkpt lat="40.0550010" lon="0.0080660">
        <ele>211.3</ele>
        <time>2019-10-12T07:06:53Z</time>
      </trkpt>
      <trkpt lat="40.0548020" lon="0.0082920">
        <ele>213.3</ele>
        <time>2019-10-12T07:06:59Z</time>
      </trkpt>
      <trkpt lat="40.0547650" lon="0.0083230">
        <ele>213.5</ele>
        <time>2019-10-12T07:07:00Z</time>
      </trkpt>
      <trkpt lat="40.0546490" lon="0.0084120">
        <ele>214.4</ele>
        <time>2019-10-12T07:07:03Z</time>
      </trkpt>
      <trkpt lat="40.0546110" lon="0.0084210">
        <ele>214.6</ele>
        <time>2019-10-12T07:07:04Z</time>
      </trkpt>
      <trkpt lat="40.0545320" lon="0.0084330">
        <ele>215.1</ele>
        <time>2019-10-12T07:07:06Z</time>
      </trkpt>
      <trkpt lat="40.0544100" lon="0.0084500">
        <ele>216.0</ele>
        <time>2019-10-12T07:07:09Z</time>
      </trkpt>
      <trkpt lat="40.0541820" lon="0.0084910">
        <ele>217.5</ele>
        <time>2019-10-12T07:07:15Z</time>
      </trkpt>
      <trkpt lat="40.0540140" lon="0.0085250">
        <ele>218.7</ele>
        <time>2019-10-12T07:07:20Z</time>
      </trkpt>
      <trkpt lat="40.0538520" lon="0.0086030">
        <ele>220.1</ele>
        <time>2019-10-12T07:07:25Z</time>
      </trkpt>
      <trkpt lat="40.0537000" lon="0.0087130">
        <ele>221.3</ele>
        <time>2019-10-12T07:07:30Z</time>
      </trkpt>
      <trkpt lat="40.0535580" lon="0.0089880">
        <ele>223.3</ele>
        <time>2019-10-12T07:07:37Z</time>
      </trkpt>
      <trkpt lat="40.0534930" lon="0.0093040">
        <ele>225.1</ele>
        <time>2019-10-12T07:07:44Z</time>
      </trkpt>
      <trkpt lat="40.0534290" lon="0.0096900">
        <ele>226.7</ele>
        <time>2019-10-12T07:07:52Z</time>
      </trkpt>
      <trkpt lat="40.0533470" lon="0.0099000">
        <ele>227.7</ele>
        <time>2019-10-12T07:07:57Z</time>
      </trkpt>
      <trkpt lat="40.0533300" lon="0.0099420">
        <ele>227.9</ele>
        <time>2019-10-12T07:07:58Z</time>
      </trkpt>
      <trkpt lat="40.0532400" lon="0.0101660">
        <ele>229.1</ele>
        <time>2019-10-12T07:08:03Z</time>
      </trkpt>
      <trkpt lat="40.0531850" lon="0.0103080">
        <ele>229.9</ele>
        <time>2019-10-12T07:08:06Z</time>
      </trkpt>
      <trkpt lat="40.0530860" lon="0.0105370">
        <ele>231.6</ele>
        <time>2019-10-12T07:08:11Z</time>
      </trkpt>
      <trkpt lat="40.0530220" lon="0.0107560">
        <ele>232.9</ele>
        <time>2019-10-12T07:08:16Z</time>
      </trkpt>
      <trkpt lat="40.0530800" lon="0.0109700">
        <ele>234.3</ele>
        <time>2019-10-12T07:08:21Z</time>
      </trkpt>
      <trkpt lat="40.0532260" lon="0.0111090">
        <ele>235.6</ele>
        <time>2019-10-12T07:08:26Z</time>
      </trkpt>
      <trkpt lat="40.0533580" lon="0.0111470">
        <ele>236.6</ele>
        <time>2019-10-12T07:08:30Z</time>
      </trkpt>
      <trkpt lat="40.0534970" lon="0.0111550">
        <ele>237.6</ele>
        <time>2019-10-12T07:08:35Z</time>
      </trkpt>
      <trkpt lat="40.0536510" lon="0.0111840">
        <ele>238.9</ele>
        <time>2019-10-12T07:08:39Z</time>
      </trkpt>
      <trkpt lat="40.0538660" lon="0.0112020">
        <ele>240.5</ele>
        <time>2019-10-12T07:08:44Z</time>
      </trkpt>
      <trkpt lat="40.0540870" lon="0.0111790">
        <ele>242.4</ele>
        <time>2019-10-12T07:08:50Z</time>
      </trkpt>
      <trkpt lat="40.0543080" lon="0.0111580">
        <ele>243.9</ele>
        <time>2019-10-12T07:08:57Z</time>
      </trkpt>
      <trkpt lat="40.0545270" lon="0.0111560">
        <ele>245.6</ele>
        <time>2019-10-12T07:09:03Z</time>
      </trkpt>
      <trkpt lat="40.0546080" lon="0.0111780">
        <ele>246.2</ele>
        <time>2019-10-12T07:09:05Z</time>
      </trkpt>
      <trkpt lat="40.0547520" lon="0.0112270">
        <ele>247.1</ele>
        <time>2019-10-12T07:09:10Z</time>
      </trkpt>
      <trkpt lat="40.0549360" lon="0.0113120">
        <ele>248.1</ele>
        <time>2019-10-12T07:09:16Z</time>
      </trkpt>
      <trkpt lat="40.0551850" lon="0.0114250">
        <ele>249.2</ele>
        <time>2019-10-12T07:09:23Z</time>
      </trkpt>
      <trkpt lat="40.0553460" lon="0.0114940">
        <ele>249.8</ele>
        <time>2019-10-12T07:09:27Z</time>
      </trkpt>
      <trkpt lat="40.0556010" lon="0.0116030">
        <ele>250.8</ele>
        <time>2019-10-12T07:09:34Z</time>
      </trkpt>
      <trkpt lat="40.0556400" lon="0.0116140">
        <ele>251.0</ele>
        <time>2019-10-12T07:09:35Z</time>
      </trkpt>
      <trkpt lat="40.0558260" lon="0.0116430">
        <ele>252.1</ele>
        <time>2019-10-12T07:09:40Z</time>
      </trkpt>
      <trkpt lat="40.0559480" lon="0.0116380">
        <ele>252.8</ele>
        <time>2019-10-12T07:09:43Z</time>
      </trkpt>
      <trkpt lat="40.0560710" lon="0.0116370">
        <ele>253.7</ele>
        <time>2019-10-12T07:09:46Z</time>
      </trkpt>
      <trkpt lat="40.0563950" lon="0.0116370">
        <ele>256.3</ele>
        <time>2019-10-12T07:09:54Z</time>
      </trkpt>
      <trkpt lat="40.0565850" lon="0.0116380">
        <ele>257.8</ele>
        <time>2019-10-12T07:10:00Z</time>
      </trkpt>
      <trkpt lat="40.0567960" lon="0.0116410">
        <ele>259.2</ele>
        <time>2019-10-12T07:10:06Z</time>
      </trkpt>
      <trkpt lat="40.0569710" lon="0.0116560">
        <ele>260.6</ele>
        <time>2019-10-12T07:10:11Z</time>
      </trkpt>
      <trkpt lat="40.0571430" lon="0.0116800">
        <ele>261.8</ele>
        <time>2019-10-12T07:10:16Z</time>
      </trkpt>
      <trkpt lat="40.0572420" lon="0.0117010">
        <ele>262.4</ele>
        <time>2019-10-12T07:10:19Z</time>
      </trkpt>
      <trkpt lat="40.0573380" lon="0.0117260">
        <ele>263.1</ele>
        <time>2019-10-12T07:10:22Z</time>
      </trkpt>
      <trkpt lat="40.0575480" lon="0.0117170">
        <ele>264.4</ele>
        <time>2019-10-12T07:10:28Z</time>
      </trkpt>
      <trkpt lat="40.0577500" lon="0.0116370">
        <ele>265.8</ele>
        <time>2019-10-12T07:10:34Z</time>
      </trkpt>
      <trkpt lat="40.0579470" lon="0.0115770">
        <ele>267.4</ele>
        <time>2019-10-12T07:10:40Z</time>
      </trkpt>
      <trkpt lat="40.0581420" lon="0.0115130">
        <ele>269.1</ele>
        <time>2019-10-12T07:10:46Z</time>
      </trkpt>
      <trkpt lat="40.0583500" lon="0.0114730">
        <ele>270.6</ele>
        <time>2019-10-12T07:10:52Z</time>
      </trkpt>
      <trkpt lat="40.0584800" lon="0.0115100">
        <ele>271.6</ele>
        <time>2019-10-12T07:10:56Z</time>
      </trkpt>
      <trkpt lat="40.0585300" lon="0.0115380">
        <ele>272.0</ele>
        <time>2019-10-12T07:10:58Z</time>
      </trkpt>
      <trkpt lat="40.0587380" lon="0.0116820">
        <ele>273.7</ele>
        <time>2019-10-12T07:11:04Z</time>
      </trkpt>
      <trkpt lat="40.0588880" lon="0.0117930">
        <ele>274.8</ele>
        <time>2019-10-12T07:11:09Z</time>
      </trkpt>
      <trkpt lat="40.0589510" lon="0.0118390">
        <ele>275.3</ele>
        <time>2019-10-12T07:11:12Z</time>
      </trkpt>
      <trkpt lat="40.0589850" lon="0.0118560">
        <ele>275.5</ele>
        <time>2019-10-12T07:11:13Z</time>
      </trkpt>
      <trkpt lat="40.0590640" lon="0.0119180">
        <ele>276.1</ele>
        <time>2019-10-12T07:11:15Z</time>
      </trkpt>
      <trkpt lat="40.0592500" lon="0.0120460">
        <ele>277.4</ele>
        <time>2019-10-12T07:11:20Z</time>
      </trkpt>
      <trkpt lat="40.0593950" lon="0.0121510">
        <ele>278.3</ele>
        <time>2019-10-12T07:11:24Z</time>
      </trkpt>
      <trkpt lat="40.0594650" lon="0.0122150">
        <ele>278.7</ele>
        <time>2019-10-12T07:11:26Z</time>
      </trkpt>
      <trkpt lat="40.0595190" lon="0.0123020">
        <ele>279.1</ele>
        <time>2019-10-12T07:11:28Z</time>
      </trkpt>
      <trkpt lat="40.0595510" lon="0.0123370">
        <ele>279.3</ele>
        <time>2019-10-12T07:11:29Z</time>
      </trkpt>
      <trkpt lat="40.0597090" lon="0.0125210">
        <ele>280.2</ele>
        <time>2019-10-12T07:11:34Z</time>
      </trkpt>
      <trkpt lat="40.0597380" lon="0.0125610">
        <ele>280.2</ele>
        <time>2019-10-12T07:11:35Z</time>
      </trkpt>
      <trkpt lat="40.0598510" lon="0.0127150">
        <ele>280.3</ele>
        <time>2019-10-12T07:11:39Z</time>
      </trkpt>
      <trkpt lat="40.0598710" lon="0.0127570">
        <ele>280.3</ele>
        <time>2019-10-12T07:11:40Z</time>
      </trkpt>
      <trkpt lat="40.0599200" lon="0.0128320">
        <ele>280.3</ele>
        <time>2019-10-12T07:11:42Z</time>
      </trkpt>
      <trkpt lat="40.0599490" lon="0.0128770">
        <ele>280.3</ele>
        <time>2019-10-12T07:11:43Z</time>
      </trkpt>
      <trkpt lat="40.0599770" lon="0.0129200">
        <ele>280.3</ele>
        <time>2019-10-12T07:11:44Z</time>
      </trkpt>
      <trkpt lat="40.0601000" lon="0.0130460">
        <ele>279.6</ele>
        <time>2019-10-12T07:11:47Z</time>
      </trkpt>
      <trkpt lat="40.0601300" lon="0.0130890">
        <ele>279.5</ele>
        <time>2019-10-12T07:11:48Z</time>
      </trkpt>
      <trkpt lat="40.0601570" lon="0.0131250">
        <ele>279.3</ele>
        <time>2019-10-12T07:11:49Z</time>
      </trkpt>
      <trkpt lat="40.0601990" lon="0.0131660">
        <ele>279.0</ele>
        <time>2019-10-12T07:11:50Z</time>
      </trkpt>
      <trkpt lat="40.0602870" lon="0.0132570">
        <ele>278.5</ele>
        <time>2019-10-12T07:11:52Z</time>
      </trkpt>
      <trkpt lat="40.0604090" lon="0.0134080">
        <ele>277.7</ele>
        <time>2019-10-12T07:11:55Z</time>
      </trkpt>
      <trkpt lat="40.0604530" lon="0.0134540">
        <ele>277.4</ele>
        <time>2019-10-12T07:11:56Z</time>
      </trkpt>
      <trkpt lat="40.0605730" lon="0.0135890">
        <ele>278.2</ele>
        <time>2019-10-12T07:11:59Z</time>
      </trkpt>
      <trkpt lat="40.0606610" lon="0.0136450">
        <ele>279.2</ele>
        <time>2019-10-12T07:12:01Z</time>
      </trkpt>
      <trkpt lat="40.0607090" lon="0.0136580">
        <ele>279.7</ele>
        <time>2019-10-12T07:12:02Z</time>
      </trkpt>
      <trkpt lat="40.0608060" lon="0.0136550">
        <ele>280.8</ele>
        <time>2019-10-12T07:12:04Z</time>
      </trkpt>
      <trkpt lat="40.0608920" lon="0.0136290">
        <ele>281.7</ele>
        <time>2019-10-12T07:12:06Z</time>
      </trkpt>
      <trkpt lat="40.0609750" lon="0.0135870">
        <ele>282.6</ele>
        <time>2019-10-12T07:12:08Z</time>
      </trkpt>
      <trkpt lat="40.0610750" lon="0.0135450">
        <ele>283.8</ele>
        <time>2019-10-12T07:12:10Z</time>
      </trkpt>
      <trkpt lat="40.0612110" lon="0.0134810">
        <ele>285.4</ele>
        <time>2019-10-12T07:12:13Z</time>
      </trkpt>
      <trkpt lat="40.0613910" lon="0.0134360">
        <ele>287.6</ele>
        <time>2019-10-12T07:12:17Z</time>
      </trkpt>
      <trkpt lat="40.0614310" lon="0.0134390">
        <ele>288.1</ele>
        <time>2019-10-12T07:12:18Z</time>
      </trkpt>
      <trkpt lat="40.0616490" lon="0.0134790">
        <ele>290.8</ele>
        <time>2019-10-12T07:12:24Z</time>
      </trkpt>
      <trkpt lat="40.0617430" lon="0.0135290">
        <ele>292.1</ele>
        <time>2019-10-12T07:12:27Z</time>
      </trkpt>
      <trkpt lat="40.0618030" lon="0.0135680">
        <ele>292.9</ele>
        <time>2019-10-12T07:12:29Z</time>
      </trkpt>
      <trkpt lat="40.0619170" lon="0.0136880">
        <ele>294.6</ele>
        <time>2019-10-12T07:12:33Z</time>
      </trkpt>
      <trkpt lat="40.0619470" lon="0.0137640">
        <ele>295.4</ele>
        <time>2019-10-12T07:12:35Z</time>
      </trkpt>
      <trkpt lat="40.0619850" lon="0.0139480">
        <ele>297.0</ele>
        <time>2019-10-12T07:12:39Z</time>
      </trkpt>
      <trkpt lat="40.0620610" lon="0.0141860">
        <ele>298.9</ele>
        <time>2019-10-12T07:12:44Z</time>
      </trkpt>
      <trkpt lat="40.0620740" lon="0.0142310">
        <ele>299.3</ele>
        <time>2019-10-12T07:12:45Z</time>
      </trkpt>
      <trkpt lat="40.0621280" lon="0.0143710">
        <ele>299.2</ele>
        <time>2019-10-12T07:12:48Z</time>
      </trkpt>
      <trkpt lat="40.0621780" lon="0.0144610">
        <ele>298.9</ele>
        <time>2019-10-12T07:12:50Z</time>
      </trkpt>
      <trkpt lat="40.0622080" lon="0.0145000">
        <ele>298.7</ele>
        <time>2019-10-12T07:12:51Z</time>
      </trkpt>
      <trkpt lat="40.0622450" lon="0.0145410">
        <ele>298.5</ele>
        <time>2019-10-12T07:12:52Z</time>
      </trkpt>
      <trkpt lat="40.0623500" lon="0.0146510">
        <ele>297.8</ele>
        <time>2019-10-12T07:12:55Z</time>
      </trkpt>
      <trkpt lat="40.0624280" lon="0.0147200">
        <ele>297.2</ele>
        <time>2019-10-12T07:12:57Z</time>
      </trkpt>
      <trkpt lat="40.0625520" lon="0.0148170">
        <ele>296.0</ele>
        <time>2019-10-12T07:13:00Z</time>
      </trkpt>
      <trkpt lat="40.0626350" lon="0.0148820">
        <ele>295.2</ele>
        <time>2019-10-12T07:13:02Z</time>
      </trkpt>
      <trkpt lat="40.0627050" lon="0.0149460">
        <ele>294.4</ele>
        <time>2019-10-12T07:13:04Z</time>
      </trkpt>
      <trkpt lat="40.0627630" lon="0.0150150">
        <ele>293.5</ele>
        <time>2019-10-12T07:13:06Z</time>
      </trkpt>
      <trkpt lat="40.0628200" lon="0.0151130">
        <ele>292.5</ele>
        <time>2019-10-12T07:13:08Z</time>
      </trkpt>
      <trkpt lat="40.0628640" lon="0.0152210">
        <ele>291.9</ele>
        <time>2019-10-12T07:13:10Z</time>
      </trkpt>
      <trkpt lat="40.0629050" lon="0.0153460">
        <ele>291.4</ele>
        <time>2019-10-12T07:13:12Z</time>
      </trkpt>
      <trkpt lat="40.0629260" lon="0.0156680">
        <ele>291.3</ele>
        <time>2019-10-12T07:13:17Z</time>
      </trkpt>
      <trkpt lat="40.0629500" lon="0.0157220">
        <ele>291.4</ele>
        <time>2019-10-12T07:13:18Z</time>
      </trkpt>
      <trkpt lat="40.0629770" lon="0.0157740">
        <ele>291.5</ele>
        <time>2019-10-12T07:13:19Z</time>
      </trkpt>
      <trkpt lat="40.0630510" lon="0.0158910">
        <ele>292.2</ele>
        <time>2019-10-12T07:13:22Z</time>
      </trkpt>
      <trkpt lat="40.0631950" lon="0.0159600">
        <ele>293.2</ele>
        <time>2019-10-12T07:13:26Z</time>
      </trkpt>
      <trkpt lat="40.0633550" lon="0.0159940">
        <ele>294.4</ele>
        <time>2019-10-12T07:13:30Z</time>
      </trkpt>
      <trkpt lat="40.0633990" lon="0.0159810">
        <ele>294.8</ele>
        <time>2019-10-12T07:13:32Z</time>
      </trkpt>
      <trkpt lat="40.0634160" lon="0.0159650">
        <ele>295.0</ele>
        <time>2019-10-12T07:13:33Z</time>
      </trkpt>
      <trkpt lat="40.0634360" lon="0.0159480">
        <ele>295.2</ele>
        <time>2019-10-12T07:13:34Z</time>
      </trkpt>
      <trkpt lat="40.0634800" lon="0.0159010">
        <ele>295.7</ele>
        <time>2019-10-12T07:13:36Z</time>
      </trkpt>
      <trkpt lat="40.0636110" lon="0.0157570">
        <ele>297.0</ele>
        <time>2019-10-12T07:13:41Z</time>
      </trkpt>
      <trkpt lat="40.0636390" lon="0.0157290">
        <ele>297.3</ele>
        <time>2019-10-12T07:13:42Z</time>
      </trkpt>
      <trkpt lat="40.0637140" lon="0.0156110">
        <ele>298.0</ele>
        <time>2019-10-12T07:13:46Z</time>
      </trkpt>
      <trkpt lat="40.0637390" lon="0.0155470">
        <ele>298.4</ele>
        <time>2019-10-12T07:13:48Z</time>
      </trkpt>
      <trkpt lat="40.0637700" lon="0.0154880">
        <ele>298.8</ele>
        <time>2019-10-12T07:13:50Z</time>
      </trkpt>
      <trkpt lat="40.0637770" lon="0.0154540">
        <ele>299.0</ele>
        <time>2019-10-12T07:13:51Z</time>
      </trkpt>
      <trkpt lat="40.0638310" lon="0.0154110">
        <ele>299.4</ele>
        <time>2019-10-12T07:13:53Z</time>
      </trkpt>
      <trkpt lat="40.0639960" lon="0.0153640">
        <ele>300.7</ele>
        <time>2019-10-12T07:13:57Z</time>
      </trkpt>
      <trkpt lat="40.0641420" lon="0.0153050">
        <ele>302.1</ele>
        <time>2019-10-12T07:14:01Z</time>
      </trkpt>
      <trkpt lat="40.0643870" lon="0.0152340">
        <ele>303.9</ele>
        <time>2019-10-12T07:14:07Z</time>
      </trkpt>
      <trkpt lat="40.0645840" lon="0.0152110">
        <ele>305.2</ele>
        <time>2019-10-12T07:14:12Z</time>
      </trkpt>
      <trkpt lat="40.0647180" lon="0.0151620">
        <ele>306.5</ele>
        <time>2019-10-12T07:14:16Z</time>
      </trkpt>
      <trkpt lat="40.0648260" lon="0.0151090">
        <ele>307.6</ele>
        <time>2019-10-12T07:14:19Z</time>
      </trkpt>
      <trkpt lat="40.0649310" lon="0.0150910">
        <ele>308.3</ele>
        <time>2019-10-12T07:14:24Z</time>
      </trkpt>
      <trkpt lat="40.0649740" lon="0.0150780">
        <ele>308.6</ele>
        <time>2019-10-12T07:14:26Z</time>
      </trkpt>
      <trkpt lat="40.0650290" lon="0.0150740">
        <ele>309.0</ele>
        <time>2019-10-12T07:14:28Z</time>
      </trkpt>
      <trkpt lat="40.0651540" lon="0.0150450">
        <ele>309.9</ele>
        <time>2019-10-12T07:14:32Z</time>
      </trkpt>
      <trkpt lat="40.0651700" lon="0.0150380">
        <ele>310.0</ele>
        <time>2019-10-12T07:14:33Z</time>
      </trkpt>
      <trkpt lat="40.0652180" lon="0.0150230">
        <ele>310.3</ele>
        <time>2019-10-12T07:14:35Z</time>
      </trkpt>
      <trkpt lat="40.0652820" lon="0.0150100">
        <ele>310.8</ele>
        <time>2019-10-12T07:14:38Z</time>
      </trkpt>
      <trkpt lat="40.0655130" lon="0.0150120">
        <ele>312.3</ele>
        <time>2019-10-12T07:14:42Z</time>
      </trkpt>
      <trkpt lat="40.0657970" lon="0.0150000">
        <ele>314.4</ele>
        <time>2019-10-12T07:14:49Z</time>
      </trkpt>
      <trkpt lat="40.0659280" lon="0.0149810">
        <ele>315.1</ele>
        <time>2019-10-12T07:14:53Z</time>
      </trkpt>
      <trkpt lat="40.0660710" lon="0.0149600">
        <ele>316.0</ele>
        <time>2019-10-12T07:14:57Z</time>
      </trkpt>
      <trkpt lat="40.0661610" lon="0.0149270">
        <ele>316.7</ele>
        <time>2019-10-12T07:14:59Z</time>
      </trkpt>
      <trkpt lat="40.0662430" lon="0.0148420">
        <ele>317.4</ele>
        <time>2019-10-12T07:15:02Z</time>
      </trkpt>
      <trkpt lat="40.0663070" lon="0.0147950">
        <ele>317.9</ele>
        <time>2019-10-12T07:15:04Z</time>
      </trkpt>
      <trkpt lat="40.0663290" lon="0.0147590">
        <ele>318.1</ele>
        <time>2019-10-12T07:15:05Z</time>
      </trkpt>
      <trkpt lat="40.0664290" lon="0.0146130">
        <ele>319.2</ele>
        <time>2019-10-12T07:15:09Z</time>
      </trkpt>
      <trkpt lat="40.0664580" lon="0.0145290">
        <ele>319.6</ele>
        <time>2019-10-12T07:15:11Z</time>
      </trkpt>
      <trkpt lat="40.0664720" lon="0.0144870">
        <ele>319.9</ele>
        <time>2019-10-12T07:15:12Z</time>
      </trkpt>
      <trkpt lat="40.0665660" lon="0.0143690">
        <ele>320.6</ele>
        <time>2019-10-12T07:15:15Z</time>
      </trkpt>
      <trkpt lat="40.0666280" lon="0.0143140">
        <ele>321.1</ele>
        <time>2019-10-12T07:15:17Z</time>
      </trkpt>
      <trkpt lat="40.0666600" lon="0.0142870">
        <ele>321.3</ele>
        <time>2019-10-12T07:15:18Z</time>
      </trkpt>
      <trkpt lat="40.0667060" lon="0.0142410">
        <ele>321.6</ele>
        <time>2019-10-12T07:15:20Z</time>
      </trkpt>
      <trkpt lat="40.0667340" lon="0.0142360">
        <ele>321.8</ele>
        <time>2019-10-12T07:15:21Z</time>
      </trkpt>
      <trkpt lat="40.0667710" lon="0.0142460">
        <ele>322.0</ele>
        <time>2019-10-12T07:15:22Z</time>
      </trkpt>
      <trkpt lat="40.0668560" lon="0.0142920">
        <ele>322.4</ele>
        <time>2019-10-12T07:15:24Z</time>
      </trkpt>
      <trkpt lat="40.0668900" lon="0.0143290">
        <ele>322.5</ele>
        <time>2019-10-12T07:15:25Z</time>
      </trkpt>
      <trkpt lat="40.0669190" lon="0.0143720">
        <ele>322.7</ele>
        <time>2019-10-12T07:15:26Z</time>
      </trkpt>
      <trkpt lat="40.0669680" lon="0.0144710">
        <ele>323.1</ele>
        <time>2019-10-12T07:15:28Z</time>
      </trkpt>
      <trkpt lat="40.0670030" lon="0.0145300">
        <ele>323.3</ele>
        <time>2019-10-12T07:15:29Z</time>
      </trkpt>
      <trkpt lat="40.0670190" lon="0.0145860">
        <ele>323.4</ele>
        <time>2019-10-12T07:15:30Z</time>
      </trkpt>
      <trkpt lat="40.0670210" lon="0.0146950">
        <ele>323.8</ele>
        <time>2019-10-12T07:15:32Z</time>
      </trkpt>
      <trkpt lat="40.0670180" lon="0.0147380">
        <ele>323.9</ele>
        <time>2019-10-12T07:15:33Z</time>
      </trkpt>
      <trkpt lat="40.0670050" lon="0.0147860">
        <ele>324.1</ele>
        <time>2019-10-12T07:15:34Z</time>
      </trkpt>
      <trkpt lat="40.0669230" lon="0.0150120">
        <ele>324.7</ele>
        <time>2019-10-12T07:15:38Z</time>
      </trkpt>
      <trkpt lat="40.0667610" lon="0.0153550">
        <ele>325.4</ele>
        <time>2019-10-12T07:15:44Z</time>
      </trkpt>
      <trkpt lat="40.0666450" lon="0.0157450">
        <ele>326.2</ele>
        <time>2019-10-12T07:15:50Z</time>
      </trkpt>
      <trkpt lat="40.0665570" lon="0.0163550">
        <ele>327.4</ele>
        <time>2019-10-12T07:15:58Z</time>
      </trkpt>
      <trkpt lat="40.0665520" lon="0.0165890">
        <ele>327.9</ele>
        <time>2019-10-12T07:16:01Z</time>
      </trkpt>
      <trkpt lat="40.0665750" lon="0.0167510">
        <ele>328.3</ele>
        <time>2019-10-12T07:16:03Z</time>
      </trkpt>
      <trkpt lat="40.0666500" lon="0.0171720">
        <ele>329.3</ele>
        <time>2019-10-12T07:16:09Z</time>
      </trkpt>
      <trkpt lat="40.0666690" lon="0.0173040">
        <ele>329.4</ele>
        <time>2019-10-12T07:16:11Z</time>
      </trkpt>
      <trkpt lat="40.0666950" lon="0.0174470">
        <ele>329.6</ele>
        <time>2019-10-12T07:16:13Z</time>
      </trkpt>
      <trkpt lat="40.0666890" lon="0.0176480">
        <ele>330.0</ele>
        <time>2019-10-12T07:16:16Z</time>
      </trkpt>
      <trkpt lat="40.0666290" lon="0.0179960">
        <ele>330.8</ele>
        <time>2019-10-12T07:16:21Z</time>
      </trkpt>
      <trkpt lat="40.0666160" lon="0.0180630">
        <ele>330.9</ele>
        <time>2019-10-12T07:16:22Z</time>
      </trkpt>
      <trkpt lat="40.0665910" lon="0.0182280">
        <ele>331.2</ele>
        <time>2019-10-12T07:16:25Z</time>
      </trkpt>
      <trkpt lat="40.0666000" lon="0.0184740">
        <ele>331.4</ele>
        <time>2019-10-12T07:16:29Z</time>
      </trkpt>
      <trkpt lat="40.0666100" lon="0.0185380">
        <ele>331.3</ele>
        <time>2019-10-12T07:16:30Z</time>
      </trkpt>
      <trkpt lat="40.0666250" lon="0.0186000">
        <ele>331.3</ele>
        <time>2019-10-12T07:16:31Z</time>
      </trkpt>
      <trkpt lat="40.0666760" lon="0.0187130">
        <ele>331.3</ele>
        <time>2019-10-12T07:16:33Z</time>
      </trkpt>
      <trkpt lat="40.0667100" lon="0.0187660">
        <ele>331.4</ele>
        <time>2019-10-12T07:16:34Z</time>
      </trkpt>
      <trkpt lat="40.0667500" lon="0.0188180">
        <ele>331.5</ele>
        <time>2019-10-12T07:16:35Z</time>
      </trkpt>
      <trkpt lat="40.0668410" lon="0.0189050">
        <ele>331.8</ele>
        <time>2019-10-12T07:16:37Z</time>
      </trkpt>
      <trkpt lat="40.0668910" lon="0.0189370">
        <ele>331.9</ele>
        <time>2019-10-12T07:16:38Z</time>
      </trkpt>
      <trkpt lat="40.0671350" lon="0.0190910">
        <ele>332.5</ele>
        <time>2019-10-12T07:16:43Z</time>
      </trkpt>
      <trkpt lat="40.0673470" lon="0.0191920">
        <ele>332.5</ele>
        <time>2019-10-12T07:16:48Z</time>
      </trkpt>
      <trkpt lat="40.0673880" lon="0.0192160">
        <ele>332.5</ele>
        <time>2019-10-12T07:16:49Z</time>
      </trkpt>
      <trkpt lat="40.0674680" lon="0.0192740">
        <ele>332.6</ele>
        <time>2019-10-12T07:16:51Z</time>
      </trkpt>
      <trkpt lat="40.0675150" lon="0.0193520">
        <ele>332.9</ele>
        <time>2019-10-12T07:16:53Z</time>
      </trkpt>
      <trkpt lat="40.0675320" lon="0.0194490">
        <ele>333.3</ele>
        <time>2019-10-12T07:16:55Z</time>
      </trkpt>
      <trkpt lat="40.0675280" lon="0.0195000">
        <ele>333.6</ele>
        <time>2019-10-12T07:16:56Z</time>
      </trkpt>
      <trkpt lat="40.0675380" lon="0.0195520">
        <ele>334.0</ele>
        <time>2019-10-12T07:16:57Z</time>
      </trkpt>
      <trkpt lat="40.0675660" lon="0.0196730">
        <ele>334.7</ele>
        <time>2019-10-12T07:16:59Z</time>
      </trkpt>
      <trkpt lat="40.0675580" lon="0.0197790">
        <ele>335.3</ele>
        <time>2019-10-12T07:17:01Z</time>
      </trkpt>
      <trkpt lat="40.0674600" lon="0.0200780">
        <ele>336.5</ele>
        <time>2019-10-12T07:17:07Z</time>
      </trkpt>
      <trkpt lat="40.0673350" lon="0.0203890">
        <ele>337.0</ele>
        <time>2019-10-12T07:17:13Z</time>
      </trkpt>
      <trkpt lat="40.0672910" lon="0.0204960">
        <ele>337.2</ele>
        <time>2019-10-12T07:17:15Z</time>
      </trkpt>
      <trkpt lat="40.0672690" lon="0.0205490">
        <ele>337.2</ele>
        <time>2019-10-12T07:17:16Z</time>
      </trkpt>
      <trkpt lat="40.0671920" lon="0.0207310">
        <ele>337.5</ele>
        <time>2019-10-12T07:17:20Z</time>
      </trkpt>
      <trkpt lat="40.0671390" lon="0.0208930">
        <ele>337.8</ele>
        <time>2019-10-12T07:17:24Z</time>
      </trkpt>
      <trkpt lat="40.0671370" lon="0.0209360">
        <ele>337.9</ele>
        <time>2019-10-12T07:17:25Z</time>
      </trkpt>
      <trkpt lat="40.0671390" lon="0.0210240">
        <ele>338.9</ele>
        <time>2019-10-12T07:17:27Z</time>
      </trkpt>
      <trkpt lat="40.0671790" lon="0.0211610">
        <ele>340.8</ele>
        <time>2019-10-12T07:17:30Z</time>
      </trkpt>
      <trkpt lat="40.0672030" lon="0.0212040">
        <ele>341.5</ele>
        <time>2019-10-12T07:17:31Z</time>
      </trkpt>
      <trkpt lat="40.0672860" lon="0.0213150">
        <ele>343.4</ele>
        <time>2019-10-12T07:17:34Z</time>
      </trkpt>
      <trkpt lat="40.0674640" lon="0.0214270">
        <ele>346.9</ele>
        <time>2019-10-12T07:17:39Z</time>
      </trkpt>
      <trkpt lat="40.0675500" lon="0.0214900">
        <ele>348.6</ele>
        <time>2019-10-12T07:17:42Z</time>
      </trkpt>
      <trkpt lat="40.0676490" lon="0.0215680">
        <ele>350.4</ele>
        <time>2019-10-12T07:17:45Z</time>
      </trkpt>
      <trkpt lat="40.0677180" lon="0.0216490">
        <ele>351.0</ele>
        <time>2019-10-12T07:17:48Z</time>
      </trkpt>
      <trkpt lat="40.0677660" lon="0.0217730">
        <ele>351.5</ele>
        <time>2019-10-12T07:17:52Z</time>
      </trkpt>
      <trkpt lat="40.0677950" lon="0.0218530">
        <ele>351.7</ele>
        <time>2019-10-12T07:17:54Z</time>
      </trkpt>
      <trkpt lat="40.0678230" lon="0.0219580">
        <ele>352.0</ele>
        <time>2019-10-12T07:17:57Z</time>
      </trkpt>
      <trkpt lat="40.0679240" lon="0.0221260">
        <ele>352.4</ele>
        <time>2019-10-12T07:18:02Z</time>
      </trkpt>
      <trkpt lat="40.0680960" lon="0.0222850">
        <ele>353.9</ele>
        <time>2019-10-12T07:18:08Z</time>
      </trkpt>
      <trkpt lat="40.0682880" lon="0.0223180">
        <ele>355.6</ele>
        <time>2019-10-12T07:18:14Z</time>
      </trkpt>
      <trkpt lat="40.0684770" lon="0.0222770">
        <ele>357.5</ele>
        <time>2019-10-12T07:18:20Z</time>
      </trkpt>
      <trkpt lat="40.0685350" lon="0.0222550">
        <ele>358.2</ele>
        <time>2019-10-12T07:18:22Z</time>
      </trkpt>
      <trkpt lat="40.0685930" lon="0.0222220">
        <ele>359.0</ele>
        <time>2019-10-12T07:18:24Z</time>
      </trkpt>
      <trkpt lat="40.0687850" lon="0.0221250">
        <ele>361.0</ele>
        <time>2019-10-12T07:18:30Z</time>
      </trkpt>
      <trkpt lat="40.0689580" lon="0.0220660">
        <ele>362.8</ele>
        <time>2019-10-12T07:18:36Z</time>
      </trkpt>
      <trkpt lat="40.0690990" lon="0.0221080">
        <ele>365.2</ele>
        <time>2019-10-12T07:18:40Z</time>
      </trkpt>
      <trkpt lat="40.0692650" lon="0.0222090">
        <ele>368.1</ele>
        <time>2019-10-12T07:18:45Z</time>
      </trkpt>
      <trkpt lat="40.0695080" lon="0.0223290">
        <ele>373.4</ele>
        <time>2019-10-12T07:18:51Z</time>
      </trkpt>
      <trkpt lat="40.0697000" lon="0.0223890">
        <ele>377.6</ele>
        <time>2019-10-12T07:18:56Z</time>
      </trkpt>
      <trkpt lat="40.0699230" lon="0.0223570">
        <ele>378.7</ele>
        <time>2019-10-12T07:19:02Z</time>
      </trkpt>
      <trkpt lat="40.0701170" lon="0.0222880">
        <ele>379.8</ele>
        <time>2019-10-12T07:19:07Z</time>
      </trkpt>
      <trkpt lat="40.0701590" lon="0.0222730">
        <ele>380.0</ele>
        <time>2019-10-12T07:19:08Z</time>
      </trkpt>
      <trkpt lat="40.0701990" lon="0.0222560">
        <ele>380.2</ele>
        <time>2019-10-12T07:19:09Z</time>
      </trkpt>
      <trkpt lat="40.0703270" lon="0.0222190">
        <ele>380.8</ele>
        <time>2019-10-12T07:19:12Z</time>
      </trkpt>
      <trkpt lat="40.0704170" lon="0.0222220">
        <ele>381.2</ele>
        <time>2019-10-12T07:19:14Z</time>
      </trkpt>
      <trkpt lat="40.0704950" lon="0.0222570">
        <ele>381.6</ele>
        <time>2019-10-12T07:19:16Z</time>
      </trkpt>
      <trkpt lat="40.0707080" lon="0.0224330">
        <ele>382.8</ele>
        <time>2019-10-12T07:19:23Z</time>
      </trkpt>
      <trkpt lat="40.0708650" lon="0.0225650">
        <ele>383.8</ele>
        <time>2019-10-12T07:19:28Z</time>
      </trkpt>
      <trkpt lat="40.0710120" lon="0.0227250">
        <ele>384.6</ele>
        <time>2019-10-12T07:19:33Z</time>
      </trkpt>
      <trkpt lat="40.0710420" lon="0.0227600">
        <ele>384.9</ele>
        <time>2019-10-12T07:19:34Z</time>
      </trkpt>
      <trkpt lat="40.0712100" lon="0.0230230">
        <ele>386.3</ele>
        <time>2019-10-12T07:19:41Z</time>
      </trkpt>
      <trkpt lat="40.0713200" lon="0.0232200">
        <ele>388.1</ele>
        <time>2019-10-12T07:19:46Z</time>
      </trkpt>
      <trkpt lat="40.0713330" lon="0.0232630">
        <ele>388.5</ele>
        <time>2019-10-12T07:19:47Z</time>
      </trkpt>
      <trkpt lat="40.0713570" lon="0.0233390">
        <ele>389.2</ele>
        <time>2019-10-12T07:19:49Z</time>
      </trkpt>
      <trkpt lat="40.0713590" lon="0.0233690">
        <ele>389.5</ele>
        <time>2019-10-12T07:19:50Z</time>
      </trkpt>
      <trkpt lat="40.0714260" lon="0.0235140">
        <ele>390.6</ele>
        <time>2019-10-12T07:19:54Z</time>
      </trkpt>
      <trkpt lat="40.0714450" lon="0.0235470">
        <ele>390.8</ele>
        <time>2019-10-12T07:19:55Z</time>
      </trkpt>
      <trkpt lat="40.0714640" lon="0.0235750">
        <ele>391.0</ele>
        <time>2019-10-12T07:19:56Z</time>
      </trkpt>
      <trkpt lat="40.0715220" lon="0.0236380">
        <ele>391.6</ele>
        <time>2019-10-12T07:19:58Z</time>
      </trkpt>
      <trkpt lat="40.0716030" lon="0.0237930">
        <ele>392.7</ele>
        <time>2019-10-12T07:20:02Z</time>
      </trkpt>
      <trkpt lat="40.0716060" lon="0.0239700">
        <ele>393.8</ele>
        <time>2019-10-12T07:20:06Z</time>
      </trkpt>
      <trkpt lat="40.0715890" lon="0.0240090">
        <ele>394.0</ele>
        <time>2019-10-12T07:20:07Z</time>
      </trkpt>
      <trkpt lat="40.0715670" lon="0.0240830">
        <ele>394.4</ele>
        <time>2019-10-12T07:20:09Z</time>
      </trkpt>
      <trkpt lat="40.0715340" lon="0.0242550">
        <ele>395.0</ele>
        <time>2019-10-12T07:20:13Z</time>
      </trkpt>
      <trkpt lat="40.0714550" lon="0.0245990">
        <ele>396.1</ele>
        <time>2019-10-12T07:20:20Z</time>
      </trkpt>
      <trkpt lat="40.0714910" lon="0.0249080">
        <ele>397.0</ele>
        <time>2019-10-12T07:20:27Z</time>
      </trkpt>
      <trkpt lat="40.0715770" lon="0.0251010">
        <ele>397.6</ele>
        <time>2019-10-12T07:20:32Z</time>
      </trkpt>
      <trkpt lat="40.0716900" lon="0.0254050">
        <ele>398.3</ele>
        <time>2019-10-12T07:20:39Z</time>
      </trkpt>
      <trkpt lat="40.0716470" lon="0.0256470">
        <ele>399.0</ele>
        <time>2019-10-12T07:20:44Z</time>
      </trkpt>
      <trkpt lat="40.0715080" lon="0.0258250">
        <ele>399.8</ele>
        <time>2019-10-12T07:20:49Z</time>
      </trkpt>
      <trkpt lat="40.0713460" lon="0.0259700">
        <ele>400.3</ele>
        <time>2019-10-12T07:20:54Z</time>
      </trkpt>
      <trkpt lat="40.0712290" lon="0.0260110">
        <ele>400.7</ele>
        <time>2019-10-12T07:20:57Z</time>
      </trkpt>
      <trkpt lat="40.0711500" lon="0.0260230">
        <ele>400.9</ele>
        <time>2019-10-12T07:20:59Z</time>
      </trkpt>
      <trkpt lat="40.0709880" lon="0.0261290">
        <ele>401.4</ele>
        <time>2019-10-12T07:21:04Z</time>
      </trkpt>
      <trkpt lat="40.0709140" lon="0.0262870">
        <ele>401.9</ele>
        <time>2019-10-12T07:21:08Z</time>
      </trkpt>
      <trkpt lat="40.0708990" lon="0.0263890">
        <ele>402.0</ele>
        <time>2019-10-12T07:21:10Z</time>
      </trkpt>
      <trkpt lat="40.0709080" lon="0.0265510">
        <ele>402.3</ele>
        <time>2019-10-12T07:21:13Z</time>
      </trkpt>
      <trkpt lat="40.0709420" lon="0.0268430">
        <ele>402.8</ele>
        <time>2019-10-12T07:21:18Z</time>
      </trkpt>
      <trkpt lat="40.0709230" lon="0.0270970">
        <ele>403.3</ele>
        <time>2019-10-12T07:21:22Z</time>
      </trkpt>
      <trkpt lat="40.0708880" lon="0.0272170">
        <ele>403.6</ele>
        <time>2019-10-12T07:21:24Z</time>
      </trkpt>
      <trkpt lat="40.0707460" lon="0.0276490">
        <ele>404.3</ele>
        <time>2019-10-12T07:21:31Z</time>
      </trkpt>
      <trkpt lat="40.0707220" lon="0.0277730">
        <ele>404.5</ele>
        <time>2019-10-12T07:21:33Z</time>
      </trkpt>
      <trkpt lat="40.0707260" lon="0.0279010">
        <ele>404.8</ele>
        <time>2019-10-12T07:21:35Z</time>
      </trkpt>
      <trkpt lat="40.0707410" lon="0.0279590">
        <ele>404.9</ele>
        <time>2019-10-12T07:21:36Z</time>
      </trkpt>
      <trkpt lat="40.0707610" lon="0.0280110">
        <ele>405.1</ele>
        <time>2019-10-12T07:21:37Z</time>
      </trkpt>
      <trkpt lat="40.0708070" lon="0.0281010">
        <ele>405.4</ele>
        <time>2019-10-12T07:21:39Z</time>
      </trkpt>
      <trkpt lat="40.0708400" lon="0.0281390">
        <ele>405.4</ele>
        <time>2019-10-12T07:21:40Z</time>
      </trkpt>
      <trkpt lat="40.0708780" lon="0.0281730">
        <ele>405.4</ele>
        <time>2019-10-12T07:21:41Z</time>
      </trkpt>
      <trkpt lat="40.0709600" lon="0.0282250">
        <ele>405.4</ele>
        <time>2019-10-12T07:21:43Z</time>
      </trkpt>
      <trkpt lat="40.0710420" lon="0.0282470">
        <ele>405.3</ele>
        <time>2019-10-12T07:21:45Z</time>
      </trkpt>
      <trkpt lat="40.0712630" lon="0.0282540">
        <ele>404.6</ele>
        <time>2019-10-12T07:21:51Z</time>
      </trkpt>
      <trkpt lat="40.0714820" lon="0.0282430">
        <ele>406.2</ele>
        <time>2019-10-12T07:21:57Z</time>
      </trkpt>
      <trkpt lat="40.0716670" lon="0.0282090">
        <ele>408.1</ele>
        <time>2019-10-12T07:22:02Z</time>
      </trkpt>
      <trkpt lat="40.0718270" lon="0.0280730">
        <ele>410.0</ele>
        <time>2019-10-12T07:22:07Z</time>
      </trkpt>
      <trkpt lat="40.0719890" lon="0.0278360">
        <ele>412.6</ele>
        <time>2019-10-12T07:22:13Z</time>
      </trkpt>
      <trkpt lat="40.0721970" lon="0.0275120">
        <ele>416.0</ele>
        <time>2019-10-12T07:22:20Z</time>
      </trkpt>
      <trkpt lat="40.0723450" lon="0.0273200">
        <ele>418.0</ele>
        <time>2019-10-12T07:22:24Z</time>
      </trkpt>
      <trkpt lat="40.0724400" lon="0.0272630">
        <ele>419.1</ele>
        <time>2019-10-12T07:22:26Z</time>
      </trkpt>
      <trkpt lat="40.0725480" lon="0.0272680">
        <ele>420.4</ele>
        <time>2019-10-12T07:22:28Z</time>
      </trkpt>
      <trkpt lat="40.0725970" lon="0.0272980">
        <ele>421.1</ele>
        <time>2019-10-12T07:22:29Z</time>
      </trkpt>
      <trkpt lat="40.0727280" lon="0.0274280">
        <ele>423.1</ele>
        <time>2019-10-12T07:22:32Z</time>
      </trkpt>
      <trkpt lat="40.0728300" lon="0.0275020">
        <ele>424.6</ele>
        <time>2019-10-12T07:22:34Z</time>
      </trkpt>
      <trkpt lat="40.0729520" lon="0.0275250">
        <ele>425.8</ele>
        <time>2019-10-12T07:22:36Z</time>
      </trkpt>
      <trkpt lat="40.0730150" lon="0.0275190">
        <ele>426.3</ele>
        <time>2019-10-12T07:22:37Z</time>
      </trkpt>
      <trkpt lat="40.0731530" lon="0.0274810">
        <ele>427.0</ele>
        <time>2019-10-12T07:22:39Z</time>
      </trkpt>
      <trkpt lat="40.0732980" lon="0.0274110">
        <ele>427.8</ele>
        <time>2019-10-12T07:22:41Z</time>
      </trkpt>
      <trkpt lat="40.0736930" lon="0.0271970">
        <ele>429.4</ele>
        <time>2019-10-12T07:22:46Z</time>
      </trkpt>
      <trkpt lat="40.0739660" lon="0.0270400">
        <ele>431.0</ele>
        <time>2019-10-12T07:22:50Z</time>
      </trkpt>
      <trkpt lat="40.0740250" lon="0.0270160">
        <ele>431.5</ele>
        <time>2019-10-12T07:22:51Z</time>
      </trkpt>
      <trkpt lat="40.0741810" lon="0.0269710">
        <ele>432.8</ele>
        <time>2019-10-12T07:22:54Z</time>
      </trkpt>
      <trkpt lat="40.0742170" lon="0.0269560">
        <ele>432.2</ele>
        <time>2019-10-12T07:22:55Z</time>
      </trkpt>
      <trkpt lat="40.0742400" lon="0.0269360">
        <ele>431.7</ele>
        <time>2019-10-12T07:22:56Z</time>
      </trkpt>
      <trkpt lat="40.0741490" lon="0.0268970">
        <ele>432.6</ele>
        <time>2019-10-12T07:46:18Z</time>
      </trkpt>
      <trkpt lat="40.0741450" lon="0.0269060">
        <ele>432.5</ele>
        <time>2019-10-12T07:46:19Z</time>
      </trkpt>
      <trkpt lat="40.0741290" lon="0.0269230">
        <ele>432.3</ele>
        <time>2019-10-12T07:46:21Z</time>
      </trkpt>
      <trkpt lat="40.0741190" lon="0.0269300">
        <ele>432.3</ele>
        <time>2019-10-12T07:46:22Z</time>
      </trkpt>
      <trkpt lat="40.0741060" lon="0.0269340">
        <ele>432.1</ele>
        <time>2019-10-12T07:46:23Z</time>
      </trkpt>
      <trkpt lat="40.0740570" lon="0.0269510">
        <ele>431.7</ele>
        <time>2019-10-12T07:46:26Z</time>
      </trkpt>
      <trkpt lat="40.0739670" lon="0.0270270">
        <ele>431.0</ele>
        <time>2019-10-12T07:46:30Z</time>
      </trkpt>
      <trkpt lat="40.0739340" lon="0.0270440">
        <ele>430.7</ele>
        <time>2019-10-12T07:46:31Z</time>
      </trkpt>
      <trkpt lat="40.0738980" lon="0.0270620">
        <ele>430.5</ele>
        <time>2019-10-12T07:46:32Z</time>
      </trkpt>
      <trkpt lat="40.0737810" lon="0.0271110">
        <ele>429.9</ele>
        <time>2019-10-12T07:46:35Z</time>
      </trkpt>
      <trkpt lat="40.0735150" lon="0.0272960">
        <ele>428.7</ele>
        <time>2019-10-12T07:46:41Z</time>
      </trkpt>
      <trkpt lat="40.0733690" lon="0.0273620">
        <ele>428.1</ele>
        <time>2019-10-12T07:46:44Z</time>
      </trkpt>
      <trkpt lat="40.0732750" lon="0.0274100">
        <ele>427.7</ele>
        <time>2019-10-12T07:46:46Z</time>
      </trkpt>
      <trkpt lat="40.0731740" lon="0.0274500">
        <ele>427.2</ele>
        <time>2019-10-12T07:46:48Z</time>
      </trkpt>
      <trkpt lat="40.0730770" lon="0.0274860">
        <ele>426.7</ele>
        <time>2019-10-12T07:46:50Z</time>
      </trkpt>
      <trkpt lat="40.0729750" lon="0.0275120">
        <ele>426.1</ele>
        <time>2019-10-12T07:46:52Z</time>
      </trkpt>
      <trkpt lat="40.0729230" lon="0.0275120">
        <ele>425.7</ele>
        <time>2019-10-12T07:46:53Z</time>
      </trkpt>
      <trkpt lat="40.0728210" lon="0.0274700">
        <ele>424.5</ele>
        <time>2019-10-12T07:46:55Z</time>
      </trkpt>
      <trkpt lat="40.0727270" lon="0.0273900">
        <ele>423.1</ele>
        <time>2019-10-12T07:46:57Z</time>
      </trkpt>
      <trkpt lat="40.0726310" lon="0.0272910">
        <ele>421.7</ele>
        <time>2019-10-12T07:46:59Z</time>
      </trkpt>
      <trkpt lat="40.0725140" lon="0.0272270">
        <ele>420.1</ele>
        <time>2019-10-12T07:47:01Z</time>
      </trkpt>
      <trkpt lat="40.0724480" lon="0.0272210">
        <ele>419.3</ele>
        <time>2019-10-12T07:47:02Z</time>
      </trkpt>
      <trkpt lat="40.0723820" lon="0.0272460">
        <ele>418.6</ele>
        <time>2019-10-12T07:47:03Z</time>
      </trkpt>
      <trkpt lat="40.0723210" lon="0.0273070">
        <ele>417.8</ele>
        <time>2019-10-12T07:47:04Z</time>
      </trkpt>
      <trkpt lat="40.0720620" lon="0.0276850">
        <ele>413.9</ele>
        <time>2019-10-12T07:47:08Z</time>
      </trkpt>
      <trkpt lat="40.0717860" lon="0.0280960">
        <ele>409.4</ele>
        <time>2019-10-12T07:47:12Z</time>
      </trkpt>
      <trkpt lat="40.0716920" lon="0.0281640">
        <ele>408.4</ele>
        <time>2019-10-12T07:47:13Z</time>
      </trkpt>
      <trkpt lat="40.0715890" lon="0.0282100">
        <ele>407.3</ele>
        <time>2019-10-12T07:47:14Z</time>
      </trkpt>
      <trkpt lat="40.0713700" lon="0.0282360">
        <ele>405.2</ele>
        <time>2019-10-12T07:47:16Z</time>
      </trkpt>
      <trkpt lat="40.0709500" lon="0.0282070">
        <ele>405.4</ele>
        <time>2019-10-12T07:47:20Z</time>
      </trkpt>
      <trkpt lat="40.0707950" lon="0.0280670">
        <ele>405.4</ele>
        <time>2019-10-12T07:47:22Z</time>
      </trkpt>
      <trkpt lat="40.0707290" lon="0.0278230">
        <ele>404.6</ele>
        <time>2019-10-12T07:47:24Z</time>
      </trkpt>
      <trkpt lat="40.0707670" lon="0.0275520">
        <ele>404.2</ele>
        <time>2019-10-12T07:47:26Z</time>
      </trkpt>
      <trkpt lat="40.0708610" lon="0.0273030">
        <ele>403.8</ele>
        <time>2019-10-12T07:47:28Z</time>
      </trkpt>
      <trkpt lat="40.0709060" lon="0.0271760">
        <ele>403.5</ele>
        <time>2019-10-12T07:47:29Z</time>
      </trkpt>
      <trkpt lat="40.0709390" lon="0.0270430">
        <ele>403.2</ele>
        <time>2019-10-12T07:47:30Z</time>
      </trkpt>
      <trkpt lat="40.0709570" lon="0.0269070">
        <ele>403.0</ele>
        <time>2019-10-12T07:47:31Z</time>
      </trkpt>
      <trkpt lat="40.0709520" lon="0.0266230">
        <ele>402.4</ele>
        <time>2019-10-12T07:47:33Z</time>
      </trkpt>
      <trkpt lat="40.0709330" lon="0.0263330">
        <ele>402.0</ele>
        <time>2019-10-12T07:47:35Z</time>
      </trkpt>
      <trkpt lat="40.0709550" lon="0.0261910">
        <ele>401.7</ele>
        <time>2019-10-12T07:47:36Z</time>
      </trkpt>
      <trkpt lat="40.0710150" lon="0.0260730">
        <ele>401.4</ele>
        <time>2019-10-12T07:47:37Z</time>
      </trkpt>
      <trkpt lat="40.0711050" lon="0.0260030">
        <ele>401.1</ele>
        <time>2019-10-12T07:47:38Z</time>
      </trkpt>
      <trkpt lat="40.0712170" lon="0.0259870">
        <ele>400.7</ele>
        <time>2019-10-12T07:47:39Z</time>
      </trkpt>
      <trkpt lat="40.0713340" lon="0.0259640">
        <ele>400.4</ele>
        <time>2019-10-12T07:47:40Z</time>
      </trkpt>
      <trkpt lat="40.0714430" lon="0.0259040">
        <ele>400.1</ele>
        <time>2019-10-12T07:47:41Z</time>
      </trkpt>
      <trkpt lat="40.0715420" lon="0.0258160">
        <ele>399.7</ele>
        <time>2019-10-12T07:47:42Z</time>
      </trkpt>
      <trkpt lat="40.0716270" lon="0.0257100">
        <ele>399.3</ele>
        <time>2019-10-12T07:47:43Z</time>
      </trkpt>
      <trkpt lat="40.0716840" lon="0.0255750">
        <ele>398.8</ele>
        <time>2019-10-12T07:47:44Z</time>
      </trkpt>
      <trkpt lat="40.0716990" lon="0.0254110">
        <ele>398.4</ele>
        <time>2019-10-12T07:47:45Z</time>
      </trkpt>
      <trkpt lat="40.0716670" lon="0.0252510">
        <ele>398.0</ele>
        <time>2019-10-12T07:47:46Z</time>
      </trkpt>
      <trkpt lat="40.0715960" lon="0.0251060">
        <ele>397.7</ele>
        <time>2019-10-12T07:47:47Z</time>
      </trkpt>
      <trkpt lat="40.0715210" lon="0.0249660">
        <ele>397.2</ele>
        <time>2019-10-12T07:47:48Z</time>
      </trkpt>
      <trkpt lat="40.0714660" lon="0.0248110">
        <ele>396.7</ele>
        <time>2019-10-12T07:47:49Z</time>
      </trkpt>
      <trkpt lat="40.0714370" lon="0.0246400">
        <ele>396.2</ele>
        <time>2019-10-12T07:47:50Z</time>
      </trkpt>
      <trkpt lat="40.0714480" lon="0.0244680">
        <ele>395.7</ele>
        <time>2019-10-12T07:47:51Z</time>
      </trkpt>
      <trkpt lat="40.0714870" lon="0.0243020">
        <ele>395.2</ele>
        <time>2019-10-12T07:47:52Z</time>
      </trkpt>
      <trkpt lat="40.0715990" lon="0.0238010">
        <ele>392.8</ele>
        <time>2019-10-12T07:47:55Z</time>
      </trkpt>
      <trkpt lat="40.0715770" lon="0.0236380">
        <ele>391.8</ele>
        <time>2019-10-12T07:47:56Z</time>
      </trkpt>
      <trkpt lat="40.0715110" lon="0.0234850">
        <ele>390.8</ele>
        <time>2019-10-12T07:47:57Z</time>
      </trkpt>
      <trkpt lat="40.0713560" lon="0.0231980">
        <ele>388.2</ele>
        <time>2019-10-12T07:47:59Z</time>
      </trkpt>
      <trkpt lat="40.0711970" lon="0.0229200">
        <ele>386.0</ele>
        <time>2019-10-12T07:48:01Z</time>
      </trkpt>
      <trkpt lat="40.0711100" lon="0.0227910">
        <ele>385.3</ele>
        <time>2019-10-12T07:48:02Z</time>
      </trkpt>
      <trkpt lat="40.0710160" lon="0.0226680">
        <ele>384.5</ele>
        <time>2019-10-12T07:48:03Z</time>
      </trkpt>
      <trkpt lat="40.0709150" lon="0.0225580">
        <ele>383.9</ele>
        <time>2019-10-12T07:48:04Z</time>
      </trkpt>
      <trkpt lat="40.0707020" lon="0.0223670">
        <ele>382.7</ele>
        <time>2019-10-12T07:48:06Z</time>
      </trkpt>
      <trkpt lat="40.0705160" lon="0.0222180">
        <ele>381.7</ele>
        <time>2019-10-12T07:48:08Z</time>
      </trkpt>
      <trkpt lat="40.0703220" lon="0.0221630">
        <ele>380.7</ele>
        <time>2019-10-12T07:48:10Z</time>
      </trkpt>
      <trkpt lat="40.0700160" lon="0.0222740">
        <ele>379.3</ele>
        <time>2019-10-12T07:48:13Z</time>
      </trkpt>
      <trkpt lat="40.0698220" lon="0.0223520">
        <ele>378.2</ele>
        <time>2019-10-12T07:48:15Z</time>
      </trkpt>
      <trkpt lat="40.0697240" lon="0.0223640">
        <ele>377.7</ele>
        <time>2019-10-12T07:48:16Z</time>
      </trkpt>
      <trkpt lat="40.0696240" lon="0.0223530">
        <ele>376.1</ele>
        <time>2019-10-12T07:48:17Z</time>
      </trkpt>
      <trkpt lat="40.0694200" lon="0.0222800">
        <ele>371.4</ele>
        <time>2019-10-12T07:48:19Z</time>
      </trkpt>
      <trkpt lat="40.0691260" lon="0.0220970">
        <ele>365.6</ele>
        <time>2019-10-12T07:48:22Z</time>
      </trkpt>
      <trkpt lat="40.0690210" lon="0.0220520">
        <ele>363.9</ele>
        <time>2019-10-12T07:48:23Z</time>
      </trkpt>
      <trkpt lat="40.0689110" lon="0.0220390">
        <ele>362.1</ele>
        <time>2019-10-12T07:48:24Z</time>
      </trkpt>
      <trkpt lat="40.0688010" lon="0.0220600">
        <ele>361.2</ele>
        <time>2019-10-12T07:48:25Z</time>
      </trkpt>
      <trkpt lat="40.0686970" lon="0.0221020">
        <ele>360.2</ele>
        <time>2019-10-12T07:48:26Z</time>
      </trkpt>
      <trkpt lat="40.0684770" lon="0.0222320">
        <ele>357.5</ele>
        <time>2019-10-12T07:48:28Z</time>
      </trkpt>
      <trkpt lat="40.0682330" lon="0.0223030">
        <ele>355.1</ele>
        <time>2019-10-12T07:48:30Z</time>
      </trkpt>
      <trkpt lat="40.0681060" lon="0.0222820">
        <ele>354.0</ele>
        <time>2019-10-12T07:48:31Z</time>
      </trkpt>
      <trkpt lat="40.0678990" lon="0.0221410">
        <ele>352.4</ele>
        <time>2019-10-12T07:48:33Z</time>
      </trkpt>
      <trkpt lat="40.0678380" lon="0.0220100">
        <ele>352.1</ele>
        <time>2019-10-12T07:48:34Z</time>
      </trkpt>
      <trkpt lat="40.0677190" lon="0.0217350">
        <ele>351.3</ele>
        <time>2019-10-12T07:48:36Z</time>
      </trkpt>
      <trkpt lat="40.0674480" lon="0.0214430">
        <ele>346.7</ele>
        <time>2019-10-12T07:48:39Z</time>
      </trkpt>
      <trkpt lat="40.0672580" lon="0.0213190">
        <ele>343.0</ele>
        <time>2019-10-12T07:48:41Z</time>
      </trkpt>
      <trkpt lat="40.0671850" lon="0.0212390">
        <ele>341.6</ele>
        <time>2019-10-12T07:48:42Z</time>
      </trkpt>
      <trkpt lat="40.0671270" lon="0.0211390">
        <ele>340.3</ele>
        <time>2019-10-12T07:48:43Z</time>
      </trkpt>
      <trkpt lat="40.0670730" lon="0.0209070">
        <ele>337.9</ele>
        <time>2019-10-12T07:48:45Z</time>
      </trkpt>
      <trkpt lat="40.0670790" lon="0.0206730">
        <ele>337.5</ele>
        <time>2019-10-12T07:48:47Z</time>
      </trkpt>
      <trkpt lat="40.0671000" lon="0.0205650">
        <ele>337.3</ele>
        <time>2019-10-12T07:48:48Z</time>
      </trkpt>
      <trkpt lat="40.0671490" lon="0.0204650">
        <ele>337.2</ele>
        <time>2019-10-12T07:48:49Z</time>
      </trkpt>
      <trkpt lat="40.0672430" lon="0.0203560">
        <ele>337.0</ele>
        <time>2019-10-12T07:48:50Z</time>
      </trkpt>
      <trkpt lat="40.0675630" lon="0.0198050">
        <ele>335.3</ele>
        <time>2019-10-12T07:48:55Z</time>
      </trkpt>
      <trkpt lat="40.0676060" lon="0.0196970">
        <ele>334.7</ele>
        <time>2019-10-12T07:48:56Z</time>
      </trkpt>
      <trkpt lat="40.0676010" lon="0.0194550">
        <ele>333.3</ele>
        <time>2019-10-12T07:48:58Z</time>
      </trkpt>
      <trkpt lat="40.0674720" lon="0.0192670">
        <ele>332.5</ele>
        <time>2019-10-12T07:49:00Z</time>
      </trkpt>
      <trkpt lat="40.0672840" lon="0.0191520">
        <ele>332.5</ele>
        <time>2019-10-12T07:49:02Z</time>
      </trkpt>
      <trkpt lat="40.0671810" lon="0.0191000">
        <ele>332.5</ele>
        <time>2019-10-12T07:49:03Z</time>
      </trkpt>
      <trkpt lat="40.0669710" lon="0.0189850">
        <ele>332.1</ele>
        <time>2019-10-12T07:49:05Z</time>
      </trkpt>
      <trkpt lat="40.0668700" lon="0.0189150">
        <ele>331.8</ele>
        <time>2019-10-12T07:49:06Z</time>
      </trkpt>
      <trkpt lat="40.0667800" lon="0.0188270">
        <ele>331.5</ele>
        <time>2019-10-12T07:49:07Z</time>
      </trkpt>
      <trkpt lat="40.0667020" lon="0.0187190">
        <ele>331.3</ele>
        <time>2019-10-12T07:49:08Z</time>
      </trkpt>
      <trkpt lat="40.0666150" lon="0.0184610">
        <ele>331.4</ele>
        <time>2019-10-12T07:49:10Z</time>
      </trkpt>
      <trkpt lat="40.0665980" lon="0.0183120">
        <ele>331.3</ele>
        <time>2019-10-12T07:49:11Z</time>
      </trkpt>
      <trkpt lat="40.0665940" lon="0.0181590">
        <ele>331.1</ele>
        <time>2019-10-12T07:49:12Z</time>
      </trkpt>
      <trkpt lat="40.0666000" lon="0.0180110">
        <ele>330.8</ele>
        <time>2019-10-12T07:49:13Z</time>
      </trkpt>
      <trkpt lat="40.0666180" lon="0.0178700">
        <ele>330.6</ele>
        <time>2019-10-12T07:49:14Z</time>
      </trkpt>
      <trkpt lat="40.0667250" lon="0.0174510">
        <ele>329.7</ele>
        <time>2019-10-12T07:49:17Z</time>
      </trkpt>
      <trkpt lat="40.0667340" lon="0.0173090">
        <ele>329.5</ele>
        <time>2019-10-12T07:49:18Z</time>
      </trkpt>
      <trkpt lat="40.0667100" lon="0.0171620">
        <ele>329.3</ele>
        <time>2019-10-12T07:49:19Z</time>
      </trkpt>
      <trkpt lat="40.0666670" lon="0.0170160">
        <ele>329.1</ele>
        <time>2019-10-12T07:49:20Z</time>
      </trkpt>
      <trkpt lat="40.0665970" lon="0.0167210">
        <ele>328.4</ele>
        <time>2019-10-12T07:49:22Z</time>
      </trkpt>
      <trkpt lat="40.0665840" lon="0.0165710">
        <ele>328.0</ele>
        <time>2019-10-12T07:49:23Z</time>
      </trkpt>
      <trkpt lat="40.0665930" lon="0.0162560">
        <ele>327.4</ele>
        <time>2019-10-12T07:49:25Z</time>
      </trkpt>
      <trkpt lat="40.0666330" lon="0.0159470">
        <ele>326.8</ele>
        <time>2019-10-12T07:49:27Z</time>
      </trkpt>
      <trkpt lat="40.0666860" lon="0.0156420">
        <ele>326.2</ele>
        <time>2019-10-12T07:49:29Z</time>
      </trkpt>
      <trkpt lat="40.0667730" lon="0.0153570">
        <ele>325.5</ele>
        <time>2019-10-12T07:49:31Z</time>
      </trkpt>
      <trkpt lat="40.0669660" lon="0.0149940">
        <ele>325.0</ele>
        <time>2019-10-12T07:49:34Z</time>
      </trkpt>
      <trkpt lat="40.0670850" lon="0.0147730">
        <ele>324.4</ele>
        <time>2019-10-12T07:49:36Z</time>
      </trkpt>
      <trkpt lat="40.0671200" lon="0.0146560">
        <ele>324.0</ele>
        <time>2019-10-12T07:49:37Z</time>
      </trkpt>
      <trkpt lat="40.0671340" lon="0.0145310">
        <ele>323.7</ele>
        <time>2019-10-12T07:49:38Z</time>
      </trkpt>
      <trkpt lat="40.0671070" lon="0.0144020">
        <ele>323.3</ele>
        <time>2019-10-12T07:49:39Z</time>
      </trkpt>
      <trkpt lat="40.0670310" lon="0.0142130">
        <ele>322.7</ele>
        <time>2019-10-12T07:49:41Z</time>
      </trkpt>
      <trkpt lat="40.0668610" lon="0.0141370">
        <ele>322.0</ele>
        <time>2019-10-12T07:49:43Z</time>
      </trkpt>
      <trkpt lat="40.0666410" lon="0.0143010">
        <ele>320.6</ele>
        <time>2019-10-12T07:49:45Z</time>
      </trkpt>
      <trkpt lat="40.0665410" lon="0.0144060">
        <ele>319.9</ele>
        <time>2019-10-12T07:49:46Z</time>
      </trkpt>
      <trkpt lat="40.0663530" lon="0.0146350">
        <ele>318.2</ele>
        <time>2019-10-12T07:49:48Z</time>
      </trkpt>
      <trkpt lat="40.0661620" lon="0.0148380">
        <ele>316.7</ele>
        <time>2019-10-12T07:49:50Z</time>
      </trkpt>
      <trkpt lat="40.0660600" lon="0.0149060">
        <ele>315.9</ele>
        <time>2019-10-12T07:49:51Z</time>
      </trkpt>
      <trkpt lat="40.0659500" lon="0.0149460">
        <ele>315.2</ele>
        <time>2019-10-12T07:49:52Z</time>
      </trkpt>
      <trkpt lat="40.0656980" lon="0.0149790">
        <ele>313.7</ele>
        <time>2019-10-12T07:49:54Z</time>
      </trkpt>
      <trkpt lat="40.0654130" lon="0.0150160">
        <ele>311.6</ele>
        <time>2019-10-12T07:49:56Z</time>
      </trkpt>
      <trkpt lat="40.0651280" lon="0.0150750">
        <ele>309.6</ele>
        <time>2019-10-12T07:49:58Z</time>
      </trkpt>
      <trkpt lat="40.0649880" lon="0.0151210">
        <ele>308.6</ele>
        <time>2019-10-12T07:49:59Z</time>
      </trkpt>
      <trkpt lat="40.0646860" lon="0.0152080">
        <ele>306.0</ele>
        <time>2019-10-12T07:50:01Z</time>
      </trkpt>
      <trkpt lat="40.0645200" lon="0.0152410">
        <ele>304.6</ele>
        <time>2019-10-12T07:50:02Z</time>
      </trkpt>
      <trkpt lat="40.0641760" lon="0.0153150">
        <ele>302.1</ele>
        <time>2019-10-12T07:50:04Z</time>
      </trkpt>
      <trkpt lat="40.0638660" lon="0.0154470">
        <ele>299.4</ele>
        <time>2019-10-12T07:50:06Z</time>
      </trkpt>
      <trkpt lat="40.0636250" lon="0.0156800">
        <ele>297.3</ele>
        <time>2019-10-12T07:50:08Z</time>
      </trkpt>
      <trkpt lat="40.0633380" lon="0.0159400">
        <ele>294.3</ele>
        <time>2019-10-12T07:50:11Z</time>
      </trkpt>
      <trkpt lat="40.0631480" lon="0.0159440">
        <ele>293.0</ele>
        <time>2019-10-12T07:50:13Z</time>
      </trkpt>
      <trkpt lat="40.0630110" lon="0.0157580">
        <ele>291.5</ele>
        <time>2019-10-12T07:50:15Z</time>
      </trkpt>
      <trkpt lat="40.0629810" lon="0.0154950">
        <ele>291.2</ele>
        <time>2019-10-12T07:50:17Z</time>
      </trkpt>
      <trkpt lat="40.0629710" lon="0.0152530">
        <ele>291.6</ele>
        <time>2019-10-12T07:50:19Z</time>
      </trkpt>
      <trkpt lat="40.0629220" lon="0.0151330">
        <ele>292.1</ele>
        <time>2019-10-12T07:50:20Z</time>
      </trkpt>
      <trkpt lat="40.0628500" lon="0.0150240">
        <ele>293.1</ele>
        <time>2019-10-12T07:50:21Z</time>
      </trkpt>
      <trkpt lat="40.0626660" lon="0.0148470">
        <ele>295.4</ele>
        <time>2019-10-12T07:50:23Z</time>
      </trkpt>
      <trkpt lat="40.0622830" lon="0.0144950">
        <ele>298.6</ele>
        <time>2019-10-12T07:50:27Z</time>
      </trkpt>
      <trkpt lat="40.0622120" lon="0.0143790">
        <ele>299.0</ele>
        <time>2019-10-12T07:50:28Z</time>
      </trkpt>
      <trkpt lat="40.0621590" lon="0.0142440">
        <ele>299.4</ele>
        <time>2019-10-12T07:50:29Z</time>
      </trkpt>
      <trkpt lat="40.0620280" lon="0.0138260">
        <ele>296.3</ele>
        <time>2019-10-12T07:50:32Z</time>
      </trkpt>
      <trkpt lat="40.0619620" lon="0.0136890">
        <ele>294.9</ele>
        <time>2019-10-12T07:50:33Z</time>
      </trkpt>
      <trkpt lat="40.0618710" lon="0.0135790">
        <ele>293.4</ele>
        <time>2019-10-12T07:50:34Z</time>
      </trkpt>
      <trkpt lat="40.0617590" lon="0.0135090">
        <ele>291.9</ele>
        <time>2019-10-12T07:50:35Z</time>
      </trkpt>
      <trkpt lat="40.0616360" lon="0.0134700">
        <ele>290.4</ele>
        <time>2019-10-12T07:50:36Z</time>
      </trkpt>
      <trkpt lat="40.0615030" lon="0.0134520">
        <ele>288.7</ele>
        <time>2019-10-12T07:50:37Z</time>
      </trkpt>
      <trkpt lat="40.0613700" lon="0.0134660">
        <ele>287.0</ele>
        <time>2019-10-12T07:50:38Z</time>
      </trkpt>
      <trkpt lat="40.0612330" lon="0.0134810">
        <ele>285.4</ele>
        <time>2019-10-12T07:50:39Z</time>
      </trkpt>
      <trkpt lat="40.0609810" lon="0.0135670">
        <ele>282.5</ele>
        <time>2019-10-12T07:50:41Z</time>
      </trkpt>
      <trkpt lat="40.0607360" lon="0.0136320">
        <ele>279.9</ele>
        <time>2019-10-12T07:50:43Z</time>
      </trkpt>
      <trkpt lat="40.0606240" lon="0.0135940">
        <ele>278.7</ele>
        <time>2019-10-12T07:50:44Z</time>
      </trkpt>
      <trkpt lat="40.0605230" lon="0.0135120">
        <ele>277.3</ele>
        <time>2019-10-12T07:50:45Z</time>
      </trkpt>
      <trkpt lat="40.0604310" lon="0.0134030">
        <ele>277.7</ele>
        <time>2019-10-12T07:50:46Z</time>
      </trkpt>
      <trkpt lat="40.0600740" lon="0.0129260">
        <ele>279.9</ele>
        <time>2019-10-12T07:50:50Z</time>
      </trkpt>
      <trkpt lat="40.0598820" lon="0.0126830">
        <ele>280.3</ele>
        <time>2019-10-12T07:50:52Z</time>
      </trkpt>
      <trkpt lat="40.0594950" lon="0.0122040">
        <ele>278.7</ele>
        <time>2019-10-12T07:50:56Z</time>
      </trkpt>
      <trkpt lat="40.0593920" lon="0.0120960">
        <ele>278.1</ele>
        <time>2019-10-12T07:50:57Z</time>
      </trkpt>
      <trkpt lat="40.0591600" lon="0.0119190">
        <ele>276.5</ele>
        <time>2019-10-12T07:50:59Z</time>
      </trkpt>
      <trkpt lat="40.0587800" lon="0.0116730">
        <ele>273.8</ele>
        <time>2019-10-12T07:51:02Z</time>
      </trkpt>
      <trkpt lat="40.0585150" lon="0.0115010">
        <ele>271.7</ele>
        <time>2019-10-12T07:51:04Z</time>
      </trkpt>
      <trkpt lat="40.0582220" lon="0.0114420">
        <ele>269.6</ele>
        <time>2019-10-12T07:51:06Z</time>
      </trkpt>
      <trkpt lat="40.0577900" lon="0.0116050">
        <ele>266.0</ele>
        <time>2019-10-12T07:51:09Z</time>
      </trkpt>
      <trkpt lat="40.0574930" lon="0.0117070">
        <ele>264.0</ele>
        <time>2019-10-12T07:51:11Z</time>
      </trkpt>
      <trkpt lat="40.0573400" lon="0.0117200">
        <ele>263.0</ele>
        <time>2019-10-12T07:51:12Z</time>
      </trkpt>
      <trkpt lat="40.0571880" lon="0.0117060">
        <ele>262.0</ele>
        <time>2019-10-12T07:51:13Z</time>
      </trkpt>
      <trkpt lat="40.0567310" lon="0.0116290">
        <ele>258.7</ele>
        <time>2019-10-12T07:51:16Z</time>
      </trkpt>
      <trkpt lat="40.0562770" lon="0.0116150">
        <ele>255.3</ele>
        <time>2019-10-12T07:51:19Z</time>
      </trkpt>
      <trkpt lat="40.0561220" lon="0.0116180">
        <ele>254.1</ele>
        <time>2019-10-12T07:51:20Z</time>
      </trkpt>
      <trkpt lat="40.0558130" lon="0.0116220">
        <ele>252.0</ele>
        <time>2019-10-12T07:51:22Z</time>
      </trkpt>
      <trkpt lat="40.0556590" lon="0.0116070">
        <ele>251.1</ele>
        <time>2019-10-12T07:51:23Z</time>
      </trkpt>
      <trkpt lat="40.0555080" lon="0.0115680">
        <ele>250.5</ele>
        <time>2019-10-12T07:51:24Z</time>
      </trkpt>
      <trkpt lat="40.0550760" lon="0.0113710">
        <ele>248.8</ele>
        <time>2019-10-12T07:51:27Z</time>
      </trkpt>
      <trkpt lat="40.0549370" lon="0.0113050">
        <ele>248.2</ele>
        <time>2019-10-12T07:51:28Z</time>
      </trkpt>
      <trkpt lat="40.0546690" lon="0.0111750">
        <ele>246.6</ele>
        <time>2019-10-12T07:51:30Z</time>
      </trkpt>
      <trkpt lat="40.0545400" lon="0.0111260">
        <ele>245.8</ele>
        <time>2019-10-12T07:51:31Z</time>
      </trkpt>
      <trkpt lat="40.0544090" lon="0.0111040">
        <ele>244.8</ele>
        <time>2019-10-12T07:51:32Z</time>
      </trkpt>
      <trkpt lat="40.0542750" lon="0.0111030">
        <ele>243.7</ele>
        <time>2019-10-12T07:51:33Z</time>
      </trkpt>
      <trkpt lat="40.0541420" lon="0.0111180">
        <ele>242.8</ele>
        <time>2019-10-12T07:51:34Z</time>
      </trkpt>
      <trkpt lat="40.0540070" lon="0.0111380">
        <ele>241.7</ele>
        <time>2019-10-12T07:51:35Z</time>
      </trkpt>
      <trkpt lat="40.0537280" lon="0.0111570">
        <ele>239.6</ele>
        <time>2019-10-12T07:51:37Z</time>
      </trkpt>
      <trkpt lat="40.0534410" lon="0.0111300">
        <ele>237.3</ele>
        <time>2019-10-12T07:51:39Z</time>
      </trkpt>
      <trkpt lat="40.0532080" lon="0.0110630">
        <ele>235.6</ele>
        <time>2019-10-12T07:51:41Z</time>
      </trkpt>
      <trkpt lat="40.0530610" lon="0.0109000">
        <ele>234.2</ele>
        <time>2019-10-12T07:51:43Z</time>
      </trkpt>
      <trkpt lat="40.0530190" lon="0.0107900">
        <ele>233.5</ele>
        <time>2019-10-12T07:51:44Z</time>
      </trkpt>
      <trkpt lat="40.0529910" lon="0.0106650">
        <ele>232.7</ele>
        <time>2019-10-12T07:51:45Z</time>
      </trkpt>
      <trkpt lat="40.0529860" lon="0.0105030">
        <ele>231.8</ele>
        <time>2019-10-12T07:51:46Z</time>
      </trkpt>
      <trkpt lat="40.0529970" lon="0.0103400">
        <ele>230.7</ele>
        <time>2019-10-12T07:51:47Z</time>
      </trkpt>
      <trkpt lat="40.0530470" lon="0.0101810">
        <ele>229.8</ele>
        <time>2019-10-12T07:51:48Z</time>
      </trkpt>
      <trkpt lat="40.0531150" lon="0.0100280">
        <ele>228.9</ele>
        <time>2019-10-12T07:51:49Z</time>
      </trkpt>
      <trkpt lat="40.0531850" lon="0.0098740">
        <ele>227.9</ele>
        <time>2019-10-12T07:51:50Z</time>
      </trkpt>
      <trkpt lat="40.0532940" lon="0.0097310">
        <ele>227.1</ele>
        <time>2019-10-12T07:51:51Z</time>
      </trkpt>
      <trkpt lat="40.0534180" lon="0.0094110">
        <ele>225.8</ele>
        <time>2019-10-12T07:51:53Z</time>
      </trkpt>
      <trkpt lat="40.0534730" lon="0.0092490">
        <ele>224.9</ele>
        <time>2019-10-12T07:51:54Z</time>
      </trkpt>
      <trkpt lat="40.0535040" lon="0.0090830">
        <ele>224.0</ele>
        <time>2019-10-12T07:51:55Z</time>
      </trkpt>
      <trkpt lat="40.0536140" lon="0.0087730">
        <ele>222.1</ele>
        <time>2019-10-12T07:51:57Z</time>
      </trkpt>
      <trkpt lat="40.0538070" lon="0.0085610">
        <ele>220.1</ele>
        <time>2019-10-12T07:51:59Z</time>
      </trkpt>
      <trkpt lat="40.0540630" lon="0.0084830">
        <ele>218.2</ele>
        <time>2019-10-12T07:52:01Z</time>
      </trkpt>
      <trkpt lat="40.0544620" lon="0.0084420">
        <ele>215.5</ele>
        <time>2019-10-12T07:52:04Z</time>
      </trkpt>
      <trkpt lat="40.0545850" lon="0.0084200">
        <ele>214.7</ele>
        <time>2019-10-12T07:52:05Z</time>
      </trkpt>
      <trkpt lat="40.0548090" lon="0.0083010">
        <ele>213.2</ele>
        <time>2019-10-12T07:52:07Z</time>
      </trkpt>
      <trkpt lat="40.0549090" lon="0.0082070">
        <ele>212.3</ele>
        <time>2019-10-12T07:52:08Z</time>
      </trkpt>
      <trkpt lat="40.0551620" lon="0.0078970">
        <ele>209.1</ele>
        <time>2019-10-12T07:52:11Z</time>
      </trkpt>
      <trkpt lat="40.0552220" lon="0.0077650">
        <ele>207.9</ele>
        <time>2019-10-12T07:52:12Z</time>
      </trkpt>
      <trkpt lat="40.0552400" lon="0.0076150">
        <ele>206.7</ele>
        <time>2019-10-12T07:52:13Z</time>
      </trkpt>
      <trkpt lat="40.0552250" lon="0.0074610">
        <ele>205.4</ele>
        <time>2019-10-12T07:52:14Z</time>
      </trkpt>
      <trkpt lat="40.0551840" lon="0.0071300">
        <ele>204.2</ele>
        <time>2019-10-12T07:52:16Z</time>
      </trkpt>
      <trkpt lat="40.0551540" lon="0.0067840">
        <ele>203.0</ele>
        <time>2019-10-12T07:52:18Z</time>
      </trkpt>
      <trkpt lat="40.0551090" lon="0.0064220">
        <ele>201.4</ele>
        <time>2019-10-12T07:52:20Z</time>
      </trkpt>
      <trkpt lat="40.0550760" lon="0.0062410">
        <ele>200.6</ele>
        <time>2019-10-12T07:52:21Z</time>
      </trkpt>
      <trkpt lat="40.0550320" lon="0.0060640">
        <ele>199.8</ele>
        <time>2019-10-12T07:52:22Z</time>
      </trkpt>
      <trkpt lat="40.0549430" lon="0.0057200">
        <ele>198.3</ele>
        <time>2019-10-12T07:52:24Z</time>
      </trkpt>
      <trkpt lat="40.0548320" lon="0.0053950">
        <ele>196.6</ele>
        <time>2019-10-12T07:52:26Z</time>
      </trkpt>
      <trkpt lat="40.0546310" lon="0.0051380">
        <ele>194.9</ele>
        <time>2019-10-12T07:52:28Z</time>
      </trkpt>
      <trkpt lat="40.0541630" lon="0.0046800">
        <ele>191.4</ele>
        <time>2019-10-12T07:52:32Z</time>
      </trkpt>
      <trkpt lat="40.0540440" lon="0.0046030">
        <ele>191.3</ele>
        <time>2019-10-12T07:52:33Z</time>
      </trkpt>
      <trkpt lat="40.0537880" lon="0.0045810">
        <ele>191.7</ele>
        <time>2019-10-12T07:52:35Z</time>
      </trkpt>
      <trkpt lat="40.0532630" lon="0.0047620">
        <ele>191.0</ele>
        <time>2019-10-12T07:52:39Z</time>
      </trkpt>
      <trkpt lat="40.0530400" lon="0.0049860">
        <ele>190.1</ele>
        <time>2019-10-12T07:52:41Z</time>
      </trkpt>
      <trkpt lat="40.0527800" lon="0.0054120">
        <ele>188.6</ele>
        <time>2019-10-12T07:52:44Z</time>
      </trkpt>
      <trkpt lat="40.0525620" lon="0.0056080">
        <ele>187.7</ele>
        <time>2019-10-12T07:52:46Z</time>
      </trkpt>
      <trkpt lat="40.0524370" lon="0.0056710">
        <ele>187.3</ele>
        <time>2019-10-12T07:52:47Z</time>
      </trkpt>
      <trkpt lat="40.0523030" lon="0.0057170">
        <ele>186.9</ele>
        <time>2019-10-12T07:52:48Z</time>
      </trkpt>
      <trkpt lat="40.0521700" lon="0.0057490">
        <ele>186.5</ele>
        <time>2019-10-12T07:52:49Z</time>
      </trkpt>
      <trkpt lat="40.0520360" lon="0.0057370">
        <ele>186.1</ele>
        <time>2019-10-12T07:52:50Z</time>
      </trkpt>
      <trkpt lat="40.0519090" lon="0.0056790">
        <ele>185.7</ele>
        <time>2019-10-12T07:52:51Z</time>
      </trkpt>
      <trkpt lat="40.0517890" lon="0.0055940">
        <ele>185.1</ele>
        <time>2019-10-12T07:52:52Z</time>
      </trkpt>
      <trkpt lat="40.0515530" lon="0.0054230">
        <ele>183.9</ele>
        <time>2019-10-12T07:52:54Z</time>
      </trkpt>
      <trkpt lat="40.0513030" lon="0.0053320">
        <ele>182.1</ele>
        <time>2019-10-12T07:52:56Z</time>
      </trkpt>
      <trkpt lat="40.0511800" lon="0.0053650">
        <ele>181.1</ele>
        <time>2019-10-12T07:52:57Z</time>
      </trkpt>
      <trkpt lat="40.0510680" lon="0.0054470">
        <ele>180.4</ele>
        <time>2019-10-12T07:52:58Z</time>
      </trkpt>
      <trkpt lat="40.0507300" lon="0.0057490">
        <ele>177.4</ele>
        <time>2019-10-12T07:53:01Z</time>
      </trkpt>
      <trkpt lat="40.0506010" lon="0.0057900">
        <ele>176.3</ele>
        <time>2019-10-12T07:53:02Z</time>
      </trkpt>
      <trkpt lat="40.0504800" lon="0.0057780">
        <ele>175.3</ele>
        <time>2019-10-12T07:53:03Z</time>
      </trkpt>
      <trkpt lat="40.0503760" lon="0.0057220">
        <ele>174.5</ele>
        <time>2019-10-12T07:53:04Z</time>
      </trkpt>
      <trkpt lat="40.0502950" lon="0.0056180">
        <ele>173.8</ele>
        <time>2019-10-12T07:53:05Z</time>
      </trkpt>
      <trkpt lat="40.0502330" lon="0.0054780">
        <ele>173.0</ele>
        <time>2019-10-12T07:53:06Z</time>
      </trkpt>
      <trkpt lat="40.0500750" lon="0.0050020">
        <ele>170.8</ele>
        <time>2019-10-12T07:53:09Z</time>
      </trkpt>
      <trkpt lat="40.0500180" lon="0.0048410">
        <ele>170.0</ele>
        <time>2019-10-12T07:53:10Z</time>
      </trkpt>
      <trkpt lat="40.0499600" lon="0.0046790">
        <ele>169.2</ele>
        <time>2019-10-12T07:53:11Z</time>
      </trkpt>
      <trkpt lat="40.0498430" lon="0.0043580">
        <ele>167.3</ele>
        <time>2019-10-12T07:53:13Z</time>
      </trkpt>
      <trkpt lat="40.0497440" lon="0.0040210">
        <ele>165.0</ele>
        <time>2019-10-12T07:53:15Z</time>
      </trkpt>
      <trkpt lat="40.0497120" lon="0.0038360">
        <ele>163.7</ele>
        <time>2019-10-12T07:53:16Z</time>
      </trkpt>
      <trkpt lat="40.0496280" lon="0.0030940">
        <ele>158.7</ele>
        <time>2019-10-12T07:53:20Z</time>
      </trkpt>
      <trkpt lat="40.0496120" lon="0.0029080">
        <ele>157.5</ele>
        <time>2019-10-12T07:53:21Z</time>
      </trkpt>
      <trkpt lat="40.0495730" lon="0.0023740">
        <ele>154.2</ele>
        <time>2019-10-12T07:53:24Z</time>
      </trkpt>
      <trkpt lat="40.0495890" lon="0.0022090">
        <ele>153.4</ele>
        <time>2019-10-12T07:53:25Z</time>
      </trkpt>
      <trkpt lat="40.0496340" lon="0.0020530">
        <ele>152.7</ele>
        <time>2019-10-12T07:53:26Z</time>
      </trkpt>
      <trkpt lat="40.0496850" lon="0.0019040">
        <ele>152.1</ele>
        <time>2019-10-12T07:53:27Z</time>
      </trkpt>
      <trkpt lat="40.0497100" lon="0.0017490">
        <ele>151.5</ele>
        <time>2019-10-12T07:53:28Z</time>
      </trkpt>
      <trkpt lat="40.0496940" lon="0.0015910">
        <ele>150.8</ele>
        <time>2019-10-12T07:53:29Z</time>
      </trkpt>
      <trkpt lat="40.0496470" lon="0.0014420">
        <ele>150.1</ele>
        <time>2019-10-12T07:53:30Z</time>
      </trkpt>
      <trkpt lat="40.0495520" lon="0.0011560">
        <ele>148.7</ele>
        <time>2019-10-12T07:53:32Z</time>
      </trkpt>
      <trkpt lat="40.0495220" lon="0.0008460">
        <ele>147.4</ele>
        <time>2019-10-12T07:53:34Z</time>
      </trkpt>
      <trkpt lat="40.0495400" lon="0.0006850">
        <ele>146.6</ele>
        <time>2019-10-12T07:53:35Z</time>
      </trkpt>
      <trkpt lat="40.0495870" lon="0.0005420">
        <ele>145.9</ele>
        <time>2019-10-12T07:53:36Z</time>
      </trkpt>
      <trkpt lat="40.0496570" lon="0.0004150">
        <ele>145.1</ele>
        <time>2019-10-12T07:53:37Z</time>
      </trkpt>
      <trkpt lat="40.0497470" lon="0.0003240">
        <ele>144.3</ele>
        <time>2019-10-12T07:53:38Z</time>
      </trkpt>
      <trkpt lat="40.0498510" lon="0.0002780">
        <ele>143.5</ele>
        <time>2019-10-12T07:53:39Z</time>
      </trkpt>
      <trkpt lat="40.0499650" lon="0.0002740">
        <ele>142.6</ele>
        <time>2019-10-12T07:53:40Z</time>
      </trkpt>
      <trkpt lat="40.0502040" lon="0.0003310">
        <ele>140.5</ele>
        <time>2019-10-12T07:53:42Z</time>
      </trkpt>
      <trkpt lat="40.0504260" lon="0.0002810">
        <ele>138.1</ele>
        <time>2019-10-12T07:53:44Z</time>
      </trkpt>
      <trkpt lat="40.0505870" lon="0.0000900">
        <ele>137.6</ele>
        <time>2019-10-12T07:53:46Z</time>
      </trkpt>
      <trkpt lat="40.0506310" lon="-0.0001960">
        <ele>136.0</ele>
        <time>2019-10-12T07:53:48Z</time>
      </trkpt>
      <trkpt lat="40.0505350" lon="-0.0004630">
        <ele>134.4</ele>
        <time>2019-10-12T07:53:50Z</time>
      </trkpt>
      <trkpt lat="40.0503440" lon="-0.0006490">
        <ele>132.7</ele>
        <time>2019-10-12T07:53:52Z</time>
      </trkpt>
      <trkpt lat="40.0502310" lon="-0.0007260">
        <ele>132.0</ele>
        <time>2019-10-12T07:53:53Z</time>
      </trkpt>
      <trkpt lat="40.0501150" lon="-0.0008070">
        <ele>131.2</ele>
        <time>2019-10-12T07:53:54Z</time>
      </trkpt>
      <trkpt lat="40.0498930" lon="-0.0009660">
        <ele>129.5</ele>
        <time>2019-10-12T07:53:56Z</time>
      </trkpt>
      <trkpt lat="40.0497890" lon="-0.0010400">
        <ele>128.7</ele>
        <time>2019-10-12T07:53:57Z</time>
      </trkpt>
      <trkpt lat="40.0496850" lon="-0.0010970">
        <ele>128.0</ele>
        <time>2019-10-12T07:53:58Z</time>
      </trkpt>
      <trkpt lat="40.0495720" lon="-0.0011190">
        <ele>127.1</ele>
        <time>2019-10-12T07:53:59Z</time>
      </trkpt>
      <trkpt lat="40.0494610" lon="-0.0010890">
        <ele>126.3</ele>
        <time>2019-10-12T07:54:00Z</time>
      </trkpt>
      <trkpt lat="40.0493600" lon="-0.0010140">
        <ele>125.5</ele>
        <time>2019-10-12T07:54:01Z</time>
      </trkpt>
      <trkpt lat="40.0492780" lon="-0.0009070">
        <ele>124.8</ele>
        <time>2019-10-12T07:54:02Z</time>
      </trkpt>
      <trkpt lat="40.0492200" lon="-0.0007780">
        <ele>124.0</ele>
        <time>2019-10-12T07:54:03Z</time>
      </trkpt>
      <trkpt lat="40.0491870" lon="-0.0006210">
        <ele>123.2</ele>
        <time>2019-10-12T07:54:04Z</time>
      </trkpt>
      <trkpt lat="40.0491190" lon="-0.0002830">
        <ele>121.5</ele>
        <time>2019-10-12T07:54:06Z</time>
      </trkpt>
      <trkpt lat="40.0490090" lon="0.0000290">
        <ele>120.3</ele>
        <time>2019-10-12T07:54:08Z</time>
      </trkpt>
      <trkpt lat="40.0489050" lon="0.0001450">
        <ele>119.7</ele>
        <time>2019-10-12T07:54:09Z</time>
      </trkpt>
      <trkpt lat="40.0486720" lon="0.0003310">
        <ele>118.4</ele>
        <time>2019-10-12T07:54:11Z</time>
      </trkpt>
      <trkpt lat="40.0484230" lon="0.0004920">
        <ele>117.7</ele>
        <time>2019-10-12T07:54:13Z</time>
      </trkpt>
      <trkpt lat="40.0482950" lon="0.0005490">
        <ele>117.3</ele>
        <time>2019-10-12T07:54:14Z</time>
      </trkpt>
      <trkpt lat="40.0480230" lon="0.0006220">
        <ele>115.3</ele>
        <time>2019-10-12T07:54:16Z</time>
      </trkpt>
      <trkpt lat="40.0474740" lon="0.0007600">
        <ele>111.2</ele>
        <time>2019-10-12T07:54:20Z</time>
      </trkpt>
      <trkpt lat="40.0472010" lon="0.0008290">
        <ele>109.6</ele>
        <time>2019-10-12T07:54:22Z</time>
      </trkpt>
      <trkpt lat="40.0467880" lon="0.0009140">
        <ele>108.5</ele>
        <time>2019-10-12T07:54:25Z</time>
      </trkpt>
      <trkpt lat="40.0466600" lon="0.0008970">
        <ele>108.4</ele>
        <time>2019-10-12T07:54:26Z</time>
      </trkpt>
      <trkpt lat="40.0465390" lon="0.0008460">
        <ele>108.2</ele>
        <time>2019-10-12T07:54:27Z</time>
      </trkpt>
      <trkpt lat="40.0463060" lon="0.0006900">
        <ele>107.5</ele>
        <time>2019-10-12T07:54:29Z</time>
      </trkpt>
      <trkpt lat="40.0459770" lon="0.0004480">
        <ele>107.2</ele>
        <time>2019-10-12T07:54:32Z</time>
      </trkpt>
      <trkpt lat="40.0456480" lon="0.0002160">
        <ele>106.8</ele>
        <time>2019-10-12T07:54:35Z</time>
      </trkpt>
      <trkpt lat="40.0453030" lon="-0.0000190">
        <ele>104.8</ele>
        <time>2019-10-12T07:54:38Z</time>
      </trkpt>
      <trkpt lat="40.0450640" lon="-0.0001960">
        <ele>102.7</ele>
        <time>2019-10-12T07:54:40Z</time>
      </trkpt>
      <trkpt lat="40.0448410" lon="-0.0004060">
        <ele>100.2</ele>
        <time>2019-10-12T07:54:42Z</time>
      </trkpt>
      <trkpt lat="40.0446320" lon="-0.0006520">
        <ele>97.5</ele>
        <time>2019-10-12T07:54:44Z</time>
      </trkpt>
      <trkpt lat="40.0445450" lon="-0.0007870">
        <ele>96.4</ele>
        <time>2019-10-12T07:54:45Z</time>
      </trkpt>
      <trkpt lat="40.0442940" lon="-0.0012320">
        <ele>94.0</ele>
        <time>2019-10-12T07:54:48Z</time>
      </trkpt>
      <trkpt lat="40.0439600" lon="-0.0017950">
        <ele>92.1</ele>
        <time>2019-10-12T07:54:52Z</time>
      </trkpt>
      <trkpt lat="40.0438570" lon="-0.0019160">
        <ele>91.9</ele>
        <time>2019-10-12T07:54:53Z</time>
      </trkpt>
      <trkpt lat="40.0437440" lon="-0.0020190">
        <ele>91.6</ele>
        <time>2019-10-12T07:54:54Z</time>
      </trkpt>
      <trkpt lat="40.0435060" lon="-0.0021760">
        <ele>91.1</ele>
        <time>2019-10-12T07:54:56Z</time>
      </trkpt>
      <trkpt lat="40.0429530" lon="-0.0025360">
        <ele>89.0</ele>
        <time>2019-10-12T07:55:01Z</time>
      </trkpt>
      <trkpt lat="40.0428490" lon="-0.0026050">
        <ele>88.5</ele>
        <time>2019-10-12T07:55:02Z</time>
      </trkpt>
      <trkpt lat="40.0423220" lon="-0.0029550">
        <ele>86.8</ele>
        <time>2019-10-12T07:55:07Z</time>
      </trkpt>
      <trkpt lat="40.0417910" lon="-0.0033040">
        <ele>84.6</ele>
        <time>2019-10-12T07:55:12Z</time>
      </trkpt>
      <trkpt lat="40.0415800" lon="-0.0034480">
        <ele>83.9</ele>
        <time>2019-10-12T07:55:14Z</time>
      </trkpt>
      <trkpt lat="40.0410620" lon="-0.0037960">
        <ele>82.5</ele>
        <time>2019-10-12T07:55:19Z</time>
      </trkpt>
      <trkpt lat="40.0408650" lon="-0.0039240">
        <ele>81.8</ele>
        <time>2019-10-12T07:55:21Z</time>
      </trkpt>
      <trkpt lat="40.0403930" lon="-0.0042390">
        <ele>80.3</ele>
        <time>2019-10-12T07:55:26Z</time>
      </trkpt>
      <trkpt lat="40.0402980" lon="-0.0042990">
        <ele>80.0</ele>
        <time>2019-10-12T07:55:27Z</time>
      </trkpt>
      <trkpt lat="40.0400260" lon="-0.0044830">
        <ele>79.8</ele>
        <time>2019-10-12T07:55:30Z</time>
      </trkpt>
      <trkpt lat="40.0395310" lon="-0.0048130">
        <ele>79.2</ele>
        <time>2019-10-12T07:55:35Z</time>
      </trkpt>
      <trkpt lat="40.0390150" lon="-0.0051760">
        <ele>77.5</ele>
        <time>2019-10-12T07:55:40Z</time>
      </trkpt>
      <trkpt lat="40.0385790" lon="-0.0054700">
        <ele>75.7</ele>
        <time>2019-10-12T07:55:44Z</time>
      </trkpt>
      <trkpt lat="40.0383530" lon="-0.0056170">
        <ele>74.6</ele>
        <time>2019-10-12T07:55:46Z</time>
      </trkpt>
      <trkpt lat="40.0377950" lon="-0.0059860">
        <ele>71.6</ele>
        <time>2019-10-12T07:55:51Z</time>
      </trkpt>
      <trkpt lat="40.0376830" lon="-0.0060600">
        <ele>71.0</ele>
        <time>2019-10-12T07:55:52Z</time>
      </trkpt>
      <trkpt lat="40.0371420" lon="-0.0064160">
        <ele>68.0</ele>
        <time>2019-10-12T07:55:57Z</time>
      </trkpt>
      <trkpt lat="40.0369170" lon="-0.0065270">
        <ele>66.7</ele>
        <time>2019-10-12T07:55:59Z</time>
      </trkpt>
      <trkpt lat="40.0363490" lon="-0.0066690">
        <ele>65.2</ele>
        <time>2019-10-12T07:56:04Z</time>
      </trkpt>
      <trkpt lat="40.0357960" lon="-0.0067970">
        <ele>63.6</ele>
        <time>2019-10-12T07:56:09Z</time>
      </trkpt>
      <trkpt lat="40.0354790" lon="-0.0068730">
        <ele>62.6</ele>
        <time>2019-10-12T07:56:12Z</time>
      </trkpt>
      <trkpt lat="40.0352720" lon="-0.0069210">
        <ele>62.0</ele>
        <time>2019-10-12T07:56:14Z</time>
      </trkpt>
      <trkpt lat="40.0349590" lon="-0.0069870">
        <ele>61.5</ele>
        <time>2019-10-12T07:56:17Z</time>
      </trkpt>
      <trkpt lat="40.0346540" lon="-0.0070580">
        <ele>61.0</ele>
        <time>2019-10-12T07:56:20Z</time>
      </trkpt>
      <trkpt lat="40.0344580" lon="-0.0071100">
        <ele>59.6</ele>
        <time>2019-10-12T07:56:22Z</time>
      </trkpt>
      <trkpt lat="40.0341610" lon="-0.0071850">
        <ele>58.0</ele>
        <time>2019-10-12T07:56:25Z</time>
      </trkpt>
      <trkpt lat="40.0340570" lon="-0.0071990">
        <ele>57.5</ele>
        <time>2019-10-12T07:56:26Z</time>
      </trkpt>
      <trkpt lat="40.0339480" lon="-0.0071970">
        <ele>56.8</ele>
        <time>2019-10-12T07:56:27Z</time>
      </trkpt>
      <trkpt lat="40.0338420" lon="-0.0071690">
        <ele>56.2</ele>
        <time>2019-10-12T07:56:28Z</time>
      </trkpt>
      <trkpt lat="40.0336610" lon="-0.0070430">
        <ele>55.3</ele>
        <time>2019-10-12T07:56:30Z</time>
      </trkpt>
      <trkpt lat="40.0332680" lon="-0.0067100">
        <ele>52.8</ele>
        <time>2019-10-12T07:56:35Z</time>
      </trkpt>
      <trkpt lat="40.0330990" lon="-0.0065760">
        <ele>51.9</ele>
        <time>2019-10-12T07:56:37Z</time>
      </trkpt>
      <trkpt lat="40.0329160" lon="-0.0064980">
        <ele>50.8</ele>
        <time>2019-10-12T07:56:39Z</time>
      </trkpt>
      <trkpt lat="40.0325040" lon="-0.0065650">
        <ele>49.0</ele>
        <time>2019-10-12T07:56:43Z</time>
      </trkpt>
      <trkpt lat="40.0323060" lon="-0.0066210">
        <ele>47.9</ele>
        <time>2019-10-12T07:56:45Z</time>
      </trkpt>
      <trkpt lat="40.0321150" lon="-0.0066770">
        <ele>47.0</ele>
        <time>2019-10-12T07:56:47Z</time>
      </trkpt>
      <trkpt lat="40.0318440" lon="-0.0067410">
        <ele>46.2</ele>
        <time>2019-10-12T07:56:50Z</time>
      </trkpt>
      <trkpt lat="40.0316480" lon="-0.0067950">
        <ele>45.7</ele>
        <time>2019-10-12T07:56:53Z</time>
      </trkpt>
      <trkpt lat="40.0315330" lon="-0.0068310">
        <ele>45.5</ele>
        <time>2019-10-12T07:56:55Z</time>
      </trkpt>
      <trkpt lat="40.0314890" lon="-0.0068450">
        <ele>45.4</ele>
        <time>2019-10-12T07:56:56Z</time>
      </trkpt>
      <trkpt lat="40.0314000" lon="-0.0068700">
        <ele>45.2</ele>
        <time>2019-10-12T07:56:58Z</time>
      </trkpt>
      <trkpt lat="40.0313280" lon="-0.0068840">
        <ele>45.1</ele>
        <time>2019-10-12T07:57:00Z</time>
      </trkpt>
      <trkpt lat="40.0312990" lon="-0.0068870">
        <ele>45.1</ele>
        <time>2019-10-12T07:57:01Z</time>
      </trkpt>
      <trkpt lat="40.0312750" lon="-0.0068860">
        <ele>45.1</ele>
        <time>2019-10-12T07:57:02Z</time>
      </trkpt>
      <trkpt lat="40.0312420" lon="-0.0068630">
        <ele>45.2</ele>
        <time>2019-10-12T07:57:04Z</time>
      </trkpt>
      <trkpt lat="40.0312390" lon="-0.0068400">
        <ele>45.2</ele>
        <time>2019-10-12T07:57:05Z</time>
      </trkpt>
      <trkpt lat="40.0313360" lon="-0.0068170">
        <ele>45.3</ele>
        <time>2019-10-12T07:57:08Z</time>
      </trkpt>
      <trkpt lat="40.0314290" lon="-0.0068000">
        <ele>45.5</ele>
        <time>2019-10-12T07:57:10Z</time>
      </trkpt>
      <trkpt lat="40.0316270" lon="-0.0067580">
        <ele>45.8</ele>
        <time>2019-10-12T07:57:14Z</time>
      </trkpt>
      <trkpt lat="40.0317240" lon="-0.0067420">
        <ele>45.9</ele>
        <time>2019-10-12T07:57:16Z</time>
      </trkpt>
      <trkpt lat="40.0319110" lon="-0.0066900">
        <ele>46.4</ele>
        <time>2019-10-12T07:57:20Z</time>
      </trkpt>
      <trkpt lat="40.0319600" lon="-0.0066670">
        <ele>46.5</ele>
        <time>2019-10-12T07:57:21Z</time>
      </trkpt>
      <trkpt lat="40.0321200" lon="-0.0066180">
        <ele>47.0</ele>
        <time>2019-10-12T07:57:24Z</time>
      </trkpt>
      <trkpt lat="40.0322310" lon="-0.0065920">
        <ele>47.5</ele>
        <time>2019-10-12T07:57:26Z</time>
      </trkpt>
      <trkpt lat="40.0322830" lon="-0.0065770">
        <ele>47.7</ele>
        <time>2019-10-12T07:57:27Z</time>
      </trkpt>
      <trkpt lat="40.0323760" lon="-0.0065540">
        <ele>48.2</ele>
        <time>2019-10-12T07:57:29Z</time>
      </trkpt>
      <trkpt lat="40.0325200" lon="-0.0065230">
        <ele>48.9</ele>
        <time>2019-10-12T07:57:32Z</time>
      </trkpt>
      <trkpt lat="40.0326130" lon="-0.0065000">
        <ele>49.3</ele>
        <time>2019-10-12T07:57:34Z</time>
      </trkpt>
      <trkpt lat="40.0327140" lon="-0.0064780">
        <ele>49.7</ele>
        <time>2019-10-12T07:57:36Z</time>
      </trkpt>
      <trkpt lat="40.0328000" lon="-0.0064660">
        <ele>50.1</ele>
        <time>2019-10-12T07:57:38Z</time>
      </trkpt>
      <trkpt lat="40.0328380" lon="-0.0064600">
        <ele>50.2</ele>
        <time>2019-10-12T07:57:39Z</time>
      </trkpt>
      <trkpt lat="40.0329040" lon="-0.0064560">
        <ele>50.6</ele>
        <time>2019-10-12T07:57:41Z</time>
      </trkpt>
      <trkpt lat="40.0329410" lon="-0.0064620">
        <ele>50.7</ele>
        <time>2019-10-12T07:57:42Z</time>
      </trkpt>
      <trkpt lat="40.0329940" lon="-0.0064810">
        <ele>51.0</ele>
        <time>2019-10-12T07:57:44Z</time>
      </trkpt>
      <trkpt lat="40.0330660" lon="-0.0065190">
        <ele>51.6</ele>
        <time>2019-10-12T07:57:46Z</time>
      </trkpt>
      <trkpt lat="40.0331000" lon="-0.0065370">
        <ele>51.8</ele>
        <time>2019-10-12T07:57:47Z</time>
      </trkpt>
      <trkpt lat="40.0332270" lon="-0.0066260">
        <ele>52.4</ele>
        <time>2019-10-12T07:57:51Z</time>
      </trkpt>
      <trkpt lat="40.0333240" lon="-0.0067140">
        <ele>53.1</ele>
        <time>2019-10-12T07:57:54Z</time>
      </trkpt>
      <trkpt lat="40.0334500" lon="-0.0068170">
        <ele>54.0</ele>
        <time>2019-10-12T07:57:58Z</time>
      </trkpt>
      <trkpt lat="40.0336010" lon="-0.0069390">
        <ele>54.9</ele>
        <time>2019-10-12T07:58:03Z</time>
      </trkpt>
      <trkpt lat="40.0337040" lon="-0.0070340">
        <ele>55.4</ele>
        <time>2019-10-12T07:58:07Z</time>
      </trkpt>
      <trkpt lat="40.0337830" lon="-0.0070770">
        <ele>55.8</ele>
        <time>2019-10-12T07:58:10Z</time>
      </trkpt>
      <trkpt lat="40.0338090" lon="-0.0070920">
        <ele>55.9</ele>
        <time>2019-10-12T07:58:11Z</time>
      </trkpt>
      <trkpt lat="40.0338810" lon="-0.0071290">
        <ele>56.2</ele>
        <time>2019-10-12T07:58:14Z</time>
      </trkpt>
      <trkpt lat="40.0339420" lon="-0.0071430">
        <ele>56.5</ele>
        <time>2019-10-12T07:58:16Z</time>
      </trkpt>
      <trkpt lat="40.0340580" lon="-0.0071490">
        <ele>57.1</ele>
        <time>2019-10-12T07:58:20Z</time>
      </trkpt>
      <trkpt lat="40.0341140" lon="-0.0071350">
        <ele>57.4</ele>
        <time>2019-10-12T07:58:22Z</time>
      </trkpt>
      <trkpt lat="40.0341410" lon="-0.0071250">
        <ele>57.5</ele>
        <time>2019-10-12T07:58:23Z</time>
      </trkpt>
      <trkpt lat="40.0342470" lon="-0.0071030">
        <ele>58.0</ele>
        <time>2019-10-12T07:58:28Z</time>
      </trkpt>
      <trkpt lat="40.0342750" lon="-0.0071380">
        <ele>58.1</ele>
        <time>2019-10-12T07:58:31Z</time>
      </trkpt>
      <trkpt lat="40.0342540" lon="-0.0071570">
        <ele>58.3</ele>
        <time>2019-10-12T07:58:32Z</time>
      </trkpt>
      <trkpt lat="40.0342260" lon="-0.0071720">
        <ele>58.4</ele>
        <time>2019-10-12T07:58:33Z</time>
      </trkpt>
      <trkpt lat="40.0341380" lon="-0.0071860">
        <ele>57.9</ele>
        <time>2019-10-12T07:58:35Z</time>
      </trkpt>
      <trkpt lat="40.0340840" lon="-0.0071880">
        <ele>57.7</ele>
        <time>2019-10-12T07:58:36Z</time>
      </trkpt>
      <trkpt lat="40.0339040" lon="-0.0071650">
        <ele>56.6</ele>
        <time>2019-10-12T07:58:39Z</time>
      </trkpt>
      <trkpt lat="40.0337430" lon="-0.0070680">
        <ele>55.7</ele>
        <time>2019-10-12T07:58:42Z</time>
      </trkpt>
      <trkpt lat="40.0336920" lon="-0.0070150">
        <ele>55.4</ele>
        <time>2019-10-12T07:58:43Z</time>
      </trkpt>
      <trkpt lat="40.0335370" lon="-0.0069020">
        <ele>54.5</ele>
        <time>2019-10-12T07:58:46Z</time>
      </trkpt>
      <trkpt lat="40.0334800" lon="-0.0068640">
        <ele>54.2</ele>
        <time>2019-10-12T07:58:47Z</time>
      </trkpt>
      <trkpt lat="40.0334250" lon="-0.0068200">
        <ele>53.8</ele>
        <time>2019-10-12T07:58:48Z</time>
      </trkpt>
      <trkpt lat="40.0333700" lon="-0.0067740">
        <ele>53.4</ele>
        <time>2019-10-12T07:58:49Z</time>
      </trkpt>
      <trkpt lat="40.0332600" lon="-0.0066770">
        <ele>52.7</ele>
        <time>2019-10-12T07:58:51Z</time>
      </trkpt>
      <trkpt lat="40.0332040" lon="-0.0066310">
        <ele>52.4</ele>
        <time>2019-10-12T07:58:52Z</time>
      </trkpt>
      <trkpt lat="40.0331460" lon="-0.0065870">
        <ele>52.1</ele>
        <time>2019-10-12T07:58:53Z</time>
      </trkpt>
      <trkpt lat="40.0330270" lon="-0.0065190">
        <ele>51.5</ele>
        <time>2019-10-12T07:58:55Z</time>
      </trkpt>
      <trkpt lat="40.0329060" lon="-0.0065060">
        <ele>50.8</ele>
        <time>2019-10-12T07:58:57Z</time>
      </trkpt>
      <trkpt lat="40.0326190" lon="-0.0065770">
        <ele>49.5</ele>
        <time>2019-10-12T07:59:01Z</time>
      </trkpt>
      <trkpt lat="40.0324680" lon="-0.0066130">
        <ele>48.8</ele>
        <time>2019-10-12T07:59:03Z</time>
      </trkpt>
      <trkpt lat="40.0323170" lon="-0.0066450">
        <ele>48.0</ele>
        <time>2019-10-12T07:59:05Z</time>
      </trkpt>
      <trkpt lat="40.0320900" lon="-0.0067000">
        <ele>46.9</ele>
        <time>2019-10-12T07:59:08Z</time>
      </trkpt>
      <trkpt lat="40.0320130" lon="-0.0067170">
        <ele>46.7</ele>
        <time>2019-10-12T07:59:09Z</time>
      </trkpt>
      <trkpt lat="40.0314550" lon="-0.0068530">
        <ele>45.3</ele>
        <time>2019-10-12T07:59:17Z</time>
      </trkpt>
      <trkpt lat="40.0312390" lon="-0.0069120">
        <ele>44.8</ele>
        <time>2019-10-12T07:59:21Z</time>
      </trkpt>
      <trkpt lat="40.0311960" lon="-0.0069220">
        <ele>44.7</ele>
        <time>2019-10-12T07:59:22Z</time>
      </trkpt>
      <trkpt lat="40.0311140" lon="-0.0069420">
        <ele>44.6</ele>
        <time>2019-10-12T07:59:24Z</time>
      </trkpt>
      <trkpt lat="40.0309950" lon="-0.0069770">
        <ele>44.3</ele>
        <time>2019-10-12T07:59:27Z</time>
      </trkpt>
      <trkpt lat="40.0309530" lon="-0.0069900">
        <ele>44.3</ele>
        <time>2019-10-12T07:59:28Z</time>
      </trkpt>
      <trkpt lat="40.0308650" lon="-0.0070120">
        <ele>44.3</ele>
        <time>2019-10-12T07:59:30Z</time>
      </trkpt>
      <trkpt lat="40.0307760" lon="-0.0070330">
        <ele>44.2</ele>
        <time>2019-10-12T07:59:32Z</time>
      </trkpt>
      <trkpt lat="40.0306850" lon="-0.0070560">
        <ele>44.2</ele>
        <time>2019-10-12T07:59:34Z</time>
      </trkpt>
      <trkpt lat="40.0306400" lon="-0.0070660">
        <ele>44.2</ele>
        <time>2019-10-12T07:59:35Z</time>
      </trkpt>
      <trkpt lat="40.0305440" lon="-0.0070930">
        <ele>44.2</ele>
        <time>2019-10-12T07:59:37Z</time>
      </trkpt>
      <trkpt lat="40.0304460" lon="-0.0071200">
        <ele>44.2</ele>
        <time>2019-10-12T07:59:39Z</time>
      </trkpt>
      <trkpt lat="40.0302860" lon="-0.0071630">
        <ele>44.1</ele>
        <time>2019-10-12T07:59:42Z</time>
      </trkpt>
      <trkpt lat="40.0302280" lon="-0.0071810">
        <ele>44.0</ele>
        <time>2019-10-12T07:59:43Z</time>
      </trkpt>
      <trkpt lat="40.0300430" lon="-0.0072270">
        <ele>43.5</ele>
        <time>2019-10-12T07:59:46Z</time>
      </trkpt>
      <trkpt lat="40.0297720" lon="-0.0073050">
        <ele>42.3</ele>
        <time>2019-10-12T07:59:50Z</time>
      </trkpt>
      <trkpt lat="40.0293060" lon="-0.0074400">
        <ele>40.0</ele>
        <time>2019-10-12T07:59:56Z</time>
      </trkpt>
      <trkpt lat="40.0292240" lon="-0.0074610">
        <ele>39.6</ele>
        <time>2019-10-12T07:59:57Z</time>
      </trkpt>
      <trkpt lat="40.0289660" lon="-0.0075280">
        <ele>38.5</ele>
        <time>2019-10-12T08:00:00Z</time>
      </trkpt>
      <trkpt lat="40.0284260" lon="-0.0076640">
        <ele>36.0</ele>
        <time>2019-10-12T08:00:06Z</time>
      </trkpt>
      <trkpt lat="40.0282430" lon="-0.0077090">
        <ele>35.1</ele>
        <time>2019-10-12T08:00:08Z</time>
      </trkpt>
      <trkpt lat="40.0281520" lon="-0.0077320">
        <ele>34.7</ele>
        <time>2019-10-12T08:00:09Z</time>
      </trkpt>
      <trkpt lat="40.0279650" lon="-0.0077890">
        <ele>33.9</ele>
        <time>2019-10-12T08:00:11Z</time>
      </trkpt>
      <trkpt lat="40.0275780" lon="-0.0079000">
        <ele>33.0</ele>
        <time>2019-10-12T08:00:15Z</time>
      </trkpt>
      <trkpt lat="40.0274800" lon="-0.0079270">
        <ele>32.9</ele>
        <time>2019-10-12T08:00:16Z</time>
      </trkpt>
      <trkpt lat="40.0273810" lon="-0.0079520">
        <ele>32.9</ele>
        <time>2019-10-12T08:00:17Z</time>
      </trkpt>
      <trkpt lat="40.0272810" lon="-0.0079760">
        <ele>32.9</ele>
        <time>2019-10-12T08:00:18Z</time>
      </trkpt>
      <trkpt lat="40.0270800" lon="-0.0080210">
        <ele>32.9</ele>
        <time>2019-10-12T08:00:20Z</time>
      </trkpt>
      <trkpt lat="40.0269780" lon="-0.0080380">
        <ele>32.2</ele>
        <time>2019-10-12T08:00:21Z</time>
      </trkpt>
      <trkpt lat="40.0268770" lon="-0.0080530">
        <ele>31.5</ele>
        <time>2019-10-12T08:00:22Z</time>
      </trkpt>
      <trkpt lat="40.0267760" lon="-0.0080720">
        <ele>31.0</ele>
        <time>2019-10-12T08:00:23Z</time>
      </trkpt>
      <trkpt lat="40.0266750" lon="-0.0081010">
        <ele>30.6</ele>
        <time>2019-10-12T08:00:24Z</time>
      </trkpt>
      <trkpt lat="40.0264920" lon="-0.0082210">
        <ele>30.2</ele>
        <time>2019-10-12T08:00:26Z</time>
      </trkpt>
      <trkpt lat="40.0263620" lon="-0.0084140">
        <ele>29.7</ele>
        <time>2019-10-12T08:00:28Z</time>
      </trkpt>
      <trkpt lat="40.0262900" lon="-0.0084900">
        <ele>29.5</ele>
        <time>2019-10-12T08:00:29Z</time>
      </trkpt>
      <trkpt lat="40.0262060" lon="-0.0085460">
        <ele>29.3</ele>
        <time>2019-10-12T08:00:30Z</time>
      </trkpt>
      <trkpt lat="40.0261270" lon="-0.0086080">
        <ele>29.1</ele>
        <time>2019-10-12T08:00:31Z</time>
      </trkpt>
      <trkpt lat="40.0260110" lon="-0.0087710">
        <ele>28.9</ele>
        <time>2019-10-12T08:00:33Z</time>
      </trkpt>
      <trkpt lat="40.0259760" lon="-0.0088620">
        <ele>28.8</ele>
        <time>2019-10-12T08:00:34Z</time>
      </trkpt>
      <trkpt lat="40.0259500" lon="-0.0089520">
        <ele>28.8</ele>
        <time>2019-10-12T08:00:35Z</time>
      </trkpt>
      <trkpt lat="40.0259120" lon="-0.0091320">
        <ele>28.5</ele>
        <time>2019-10-12T08:00:37Z</time>
      </trkpt>
      <trkpt lat="40.0258750" lon="-0.0093130">
        <ele>28.3</ele>
        <time>2019-10-12T08:00:39Z</time>
      </trkpt>
      <trkpt lat="40.0258560" lon="-0.0094060">
        <ele>28.1</ele>
        <time>2019-10-12T08:00:40Z</time>
      </trkpt>
      <trkpt lat="40.0258340" lon="-0.0095000">
        <ele>27.9</ele>
        <time>2019-10-12T08:00:41Z</time>
      </trkpt>
      <trkpt lat="40.0258080" lon="-0.0095980">
        <ele>27.6</ele>
        <time>2019-10-12T08:00:42Z</time>
      </trkpt>
      <trkpt lat="40.0257840" lon="-0.0096930">
        <ele>27.6</ele>
        <time>2019-10-12T08:00:43Z</time>
      </trkpt>
      <trkpt lat="40.0257610" lon="-0.0097890">
        <ele>27.5</ele>
        <time>2019-10-12T08:00:44Z</time>
      </trkpt>
      <trkpt lat="40.0257370" lon="-0.0098860">
        <ele>27.4</ele>
        <time>2019-10-12T08:00:45Z</time>
      </trkpt>
      <trkpt lat="40.0256870" lon="-0.0100830">
        <ele>27.1</ele>
        <time>2019-10-12T08:00:47Z</time>
      </trkpt>
      <trkpt lat="40.0256380" lon="-0.0102880">
        <ele>26.8</ele>
        <time>2019-10-12T08:00:49Z</time>
      </trkpt>
      <trkpt lat="40.0255670" lon="-0.0106180">
        <ele>26.1</ele>
        <time>2019-10-12T08:00:52Z</time>
      </trkpt>
      <trkpt lat="40.0255350" lon="-0.0108470">
        <ele>25.7</ele>
        <time>2019-10-12T08:00:54Z</time>
      </trkpt>
      <trkpt lat="40.0254720" lon="-0.0114310">
        <ele>25.4</ele>
        <time>2019-10-12T08:00:59Z</time>
      </trkpt>
      <trkpt lat="40.0254050" lon="-0.0122140">
        <ele>24.3</ele>
        <time>2019-10-12T08:01:06Z</time>
      </trkpt>
      <trkpt lat="40.0253660" lon="-0.0126520">
        <ele>24.2</ele>
        <time>2019-10-12T08:01:10Z</time>
      </trkpt>
      <trkpt lat="40.0253000" lon="-0.0133990">
        <ele>25.0</ele>
        <time>2019-10-12T08:01:17Z</time>
      </trkpt>
      <trkpt lat="40.0252280" lon="-0.0141510">
        <ele>25.5</ele>
        <time>2019-10-12T08:01:24Z</time>
      </trkpt>
      <trkpt lat="40.0251850" lon="-0.0145840">
        <ele>25.0</ele>
        <time>2019-10-12T08:01:28Z</time>
      </trkpt>
      <trkpt lat="40.0251310" lon="-0.0152120">
        <ele>23.7</ele>
        <time>2019-10-12T08:01:34Z</time>
      </trkpt>
      <trkpt lat="40.0250750" lon="-0.0159290">
        <ele>23.3</ele>
        <time>2019-10-12T08:01:41Z</time>
      </trkpt>
      <trkpt lat="40.0250550" lon="-0.0161270">
        <ele>23.2</ele>
        <time>2019-10-12T08:01:43Z</time>
      </trkpt>
      <trkpt lat="40.0250220" lon="-0.0165250">
        <ele>23.1</ele>
        <time>2019-10-12T08:01:47Z</time>
      </trkpt>
      <trkpt lat="40.0250030" lon="-0.0170350">
        <ele>23.0</ele>
        <time>2019-10-12T08:01:52Z</time>
      </trkpt>
      <trkpt lat="40.0250190" lon="-0.0174110">
        <ele>22.9</ele>
        <time>2019-10-12T08:01:56Z</time>
      </trkpt>
      <trkpt lat="40.0250340" lon="-0.0175720">
        <ele>23.0</ele>
        <time>2019-10-12T08:01:58Z</time>
      </trkpt>
      <trkpt lat="40.0250780" lon="-0.0179820">
        <ele>23.9</ele>
        <time>2019-10-12T08:02:04Z</time>
      </trkpt>
      <trkpt lat="40.0251350" lon="-0.0183660">
        <ele>25.9</ele>
        <time>2019-10-12T08:02:11Z</time>
      </trkpt>
      <trkpt lat="40.0252100" lon="-0.0186830">
        <ele>27.8</ele>
        <time>2019-10-12T08:02:18Z</time>
      </trkpt>
      <trkpt lat="40.0253110" lon="-0.0190690">
        <ele>29.2</ele>
        <time>2019-10-12T08:02:26Z</time>
      </trkpt>
      <trkpt lat="40.0254010" lon="-0.0193510">
        <ele>29.4</ele>
        <time>2019-10-12T08:02:31Z</time>
      </trkpt>
      <trkpt lat="40.0254430" lon="-0.0194720">
        <ele>29.4</ele>
        <time>2019-10-12T08:02:33Z</time>
      </trkpt>
      <trkpt lat="40.0256640" lon="-0.0200310">
        <ele>31.0</ele>
        <time>2019-10-12T08:02:42Z</time>
      </trkpt>
      <trkpt lat="40.0259140" lon="-0.0206720">
        <ele>31.1</ele>
        <time>2019-10-12T08:02:52Z</time>
      </trkpt>
      <trkpt lat="40.0261420" lon="-0.0212380">
        <ele>31.6</ele>
        <time>2019-10-12T08:03:01Z</time>
      </trkpt>
      <trkpt lat="40.0263620" lon="-0.0217930">
        <ele>33.1</ele>
        <time>2019-10-12T08:03:10Z</time>
      </trkpt>
      <trkpt lat="40.0266270" lon="-0.0224830">
        <ele>35.5</ele>
        <time>2019-10-12T08:03:21Z</time>
      </trkpt>
      <trkpt lat="40.0268460" lon="-0.0230230">
        <ele>36.3</ele>
        <time>2019-10-12T08:03:30Z</time>
      </trkpt>
      <trkpt lat="40.0270390" lon="-0.0234930">
        <ele>38.0</ele>
        <time>2019-10-12T08:03:38Z</time>
      </trkpt>
      <trkpt lat="40.0272760" lon="-0.0240600">
        <ele>39.9</ele>
        <time>2019-10-12T08:03:48Z</time>
      </trkpt>
      <trkpt lat="40.0274630" lon="-0.0245230">
        <ele>41.1</ele>
        <time>2019-10-12T08:03:56Z</time>
      </trkpt>
      <trkpt lat="40.0276480" lon="-0.0249820">
        <ele>42.4</ele>
        <time>2019-10-12T08:04:04Z</time>
      </trkpt>
      <trkpt lat="40.0276950" lon="-0.0250950">
        <ele>42.9</ele>
        <time>2019-10-12T08:04:06Z</time>
      </trkpt>
      <trkpt lat="40.0278110" lon="-0.0253660">
        <ele>43.2</ele>
        <time>2019-10-12T08:04:11Z</time>
      </trkpt>
      <trkpt lat="40.0279790" lon="-0.0258230">
        <ele>43.5</ele>
        <time>2019-10-12T08:04:19Z</time>
      </trkpt>
      <trkpt lat="40.0281600" lon="-0.0264400">
        <ele>45.4</ele>
        <time>2019-10-12T08:04:29Z</time>
      </trkpt>
      <trkpt lat="40.0283020" lon="-0.0270470">
        <ele>46.9</ele>
        <time>2019-10-12T08:04:38Z</time>
      </trkpt>
      <trkpt lat="40.0284010" lon="-0.0277600">
        <ele>49.2</ele>
        <time>2019-10-12T08:04:48Z</time>
      </trkpt>
      <trkpt lat="40.0284460" lon="-0.0283500">
        <ele>51.3</ele>
        <time>2019-10-12T08:04:56Z</time>
      </trkpt>
      <trkpt lat="40.0284470" lon="-0.0291060">
        <ele>53.5</ele>
        <time>2019-10-12T08:05:06Z</time>
      </trkpt>
      <trkpt lat="40.0283920" lon="-0.0298100">
        <ele>54.6</ele>
        <time>2019-10-12T08:05:15Z</time>
      </trkpt>
      <trkpt lat="40.0283140" lon="-0.0303590">
        <ele>54.9</ele>
        <time>2019-10-12T08:05:22Z</time>
      </trkpt>
      <trkpt lat="40.0282270" lon="-0.0307680">
        <ele>55.3</ele>
        <time>2019-10-12T08:05:27Z</time>
      </trkpt>
      <trkpt lat="40.0281650" lon="-0.0310220">
        <ele>56.0</ele>
        <time>2019-10-12T08:05:30Z</time>
      </trkpt>
      <trkpt lat="40.0279430" lon="-0.0317130">
        <ele>57.4</ele>
        <time>2019-10-12T08:05:38Z</time>
      </trkpt>
      <trkpt lat="40.0277020" lon="-0.0323220">
        <ele>58.4</ele>
        <time>2019-10-12T08:05:45Z</time>
      </trkpt>
      <trkpt lat="40.0274510" lon="-0.0328190">
        <ele>58.8</ele>
        <time>2019-10-12T08:05:51Z</time>
      </trkpt>
      <trkpt lat="40.0271230" lon="-0.0333640">
        <ele>58.8</ele>
        <time>2019-10-12T08:05:58Z</time>
      </trkpt>
      <trkpt lat="40.0266910" lon="-0.0339270">
        <ele>58.8</ele>
        <time>2019-10-12T08:06:06Z</time>
      </trkpt>
      <trkpt lat="40.0262710" lon="-0.0344190">
        <ele>58.8</ele>
        <time>2019-10-12T08:06:13Z</time>
      </trkpt>
      <trkpt lat="40.0262120" lon="-0.0344880">
        <ele>58.8</ele>
        <time>2019-10-12T08:06:14Z</time>
      </trkpt>
      <trkpt lat="40.0257720" lon="-0.0349880">
        <ele>58.2</ele>
        <time>2019-10-12T08:06:21Z</time>
      </trkpt>
      <trkpt lat="40.0257030" lon="-0.0350610">
        <ele>58.1</ele>
        <time>2019-10-12T08:06:22Z</time>
      </trkpt>
      <trkpt lat="40.0252250" lon="-0.0355980">
        <ele>57.6</ele>
        <time>2019-10-12T08:06:29Z</time>
      </trkpt>
      <trkpt lat="40.0250860" lon="-0.0357580">
        <ele>57.3</ele>
        <time>2019-10-12T08:06:31Z</time>
      </trkpt>
      <trkpt lat="40.0246430" lon="-0.0362540">
        <ele>56.0</ele>
        <time>2019-10-12T08:06:37Z</time>
      </trkpt>
      <trkpt lat="40.0245660" lon="-0.0363360">
        <ele>55.8</ele>
        <time>2019-10-12T08:06:38Z</time>
      </trkpt>
      <trkpt lat="40.0241160" lon="-0.0368410">
        <ele>54.7</ele>
        <time>2019-10-12T08:06:44Z</time>
      </trkpt>
      <trkpt lat="40.0239620" lon="-0.0370110">
        <ele>54.2</ele>
        <time>2019-10-12T08:06:46Z</time>
      </trkpt>
      <trkpt lat="40.0235120" lon="-0.0375110">
        <ele>52.6</ele>
        <time>2019-10-12T08:06:52Z</time>
      </trkpt>
      <trkpt lat="40.0233660" lon="-0.0376760">
        <ele>52.2</ele>
        <time>2019-10-12T08:06:54Z</time>
      </trkpt>
      <trkpt lat="40.0230010" lon="-0.0380780">
        <ele>51.4</ele>
        <time>2019-10-12T08:06:59Z</time>
      </trkpt>
      <trkpt lat="40.0227900" lon="-0.0383210">
        <ele>50.6</ele>
        <time>2019-10-12T08:07:02Z</time>
      </trkpt>
      <trkpt lat="40.0223670" lon="-0.0387870">
        <ele>49.3</ele>
        <time>2019-10-12T08:07:08Z</time>
      </trkpt>
      <trkpt lat="40.0222330" lon="-0.0389460">
        <ele>49.0</ele>
        <time>2019-10-12T08:07:10Z</time>
      </trkpt>
      <trkpt lat="40.0217650" lon="-0.0394740">
        <ele>48.8</ele>
        <time>2019-10-12T08:07:17Z</time>
      </trkpt>
      <trkpt lat="40.0217000" lon="-0.0395520">
        <ele>48.8</ele>
        <time>2019-10-12T08:07:18Z</time>
      </trkpt>
      <trkpt lat="40.0214400" lon="-0.0398470">
        <ele>48.8</ele>
        <time>2019-10-12T08:07:22Z</time>
      </trkpt>
      <trkpt lat="40.0211830" lon="-0.0401290">
        <ele>49.3</ele>
        <time>2019-10-12T08:07:26Z</time>
      </trkpt>
      <trkpt lat="40.0207390" lon="-0.0406210">
        <ele>49.7</ele>
        <time>2019-10-12T08:07:33Z</time>
      </trkpt>
      <trkpt lat="40.0206120" lon="-0.0407660">
        <ele>49.7</ele>
        <time>2019-10-12T08:07:35Z</time>
      </trkpt>
      <trkpt lat="40.0201780" lon="-0.0412460">
        <ele>50.0</ele>
        <time>2019-10-12T08:07:42Z</time>
      </trkpt>
      <trkpt lat="40.0200550" lon="-0.0413800">
        <ele>50.4</ele>
        <time>2019-10-12T08:07:44Z</time>
      </trkpt>
      <trkpt lat="40.0196300" lon="-0.0418360">
        <ele>51.7</ele>
        <time>2019-10-12T08:07:51Z</time>
      </trkpt>
      <trkpt lat="40.0195680" lon="-0.0418980">
        <ele>51.9</ele>
        <time>2019-10-12T08:07:52Z</time>
      </trkpt>
      <trkpt lat="40.0191420" lon="-0.0423450">
        <ele>52.7</ele>
        <time>2019-10-12T08:07:59Z</time>
      </trkpt>
      <trkpt lat="40.0189560" lon="-0.0425250">
        <ele>52.7</ele>
        <time>2019-10-12T08:08:02Z</time>
      </trkpt>
      <trkpt lat="40.0184690" lon="-0.0430080">
        <ele>53.6</ele>
        <time>2019-10-12T08:08:10Z</time>
      </trkpt>
      <trkpt lat="40.0183490" lon="-0.0431240">
        <ele>53.7</ele>
        <time>2019-10-12T08:08:12Z</time>
      </trkpt>
      <trkpt lat="40.0178980" lon="-0.0435810">
        <ele>54.7</ele>
        <time>2019-10-12T08:08:20Z</time>
      </trkpt>
      <trkpt lat="40.0177860" lon="-0.0436900">
        <ele>55.0</ele>
        <time>2019-10-12T08:08:22Z</time>
      </trkpt>
      <trkpt lat="40.0173100" lon="-0.0441610">
        <ele>55.6</ele>
        <time>2019-10-12T08:08:31Z</time>
      </trkpt>
      <trkpt lat="40.0172580" lon="-0.0442110">
        <ele>55.7</ele>
        <time>2019-10-12T08:08:32Z</time>
      </trkpt>
      <trkpt lat="40.0168320" lon="-0.0446370">
        <ele>56.6</ele>
        <time>2019-10-12T08:08:40Z</time>
      </trkpt>
      <trkpt lat="40.0164110" lon="-0.0450740">
        <ele>57.6</ele>
        <time>2019-10-12T08:08:48Z</time>
      </trkpt>
      <trkpt lat="40.0163040" lon="-0.0451850">
        <ele>57.6</ele>
        <time>2019-10-12T08:08:50Z</time>
      </trkpt>
      <trkpt lat="40.0158890" lon="-0.0456300">
        <ele>57.6</ele>
        <time>2019-10-12T08:08:58Z</time>
      </trkpt>
      <trkpt lat="40.0157340" lon="-0.0458120">
        <ele>57.6</ele>
        <time>2019-10-12T08:09:01Z</time>
      </trkpt>
      <trkpt lat="40.0153080" lon="-0.0463250">
        <ele>57.6</ele>
        <time>2019-10-12T08:09:09Z</time>
      </trkpt>
      <trkpt lat="40.0149060" lon="-0.0468530">
        <ele>57.5</ele>
        <time>2019-10-12T08:09:16Z</time>
      </trkpt>
      <trkpt lat="40.0144870" lon="-0.0474200">
        <ele>56.7</ele>
        <time>2019-10-12T08:09:23Z</time>
      </trkpt>
      <trkpt lat="40.0142550" lon="-0.0477390">
        <ele>55.9</ele>
        <time>2019-10-12T08:09:27Z</time>
      </trkpt>
      <trkpt lat="40.0138340" lon="-0.0482970">
        <ele>55.2</ele>
        <time>2019-10-12T08:09:34Z</time>
      </trkpt>
      <trkpt lat="40.0137160" lon="-0.0484480">
        <ele>54.9</ele>
        <time>2019-10-12T08:09:36Z</time>
      </trkpt>
      <trkpt lat="40.0132910" lon="-0.0489650">
        <ele>54.0</ele>
        <time>2019-10-12T08:09:43Z</time>
      </trkpt>
      <trkpt lat="40.0131800" lon="-0.0491100">
        <ele>53.7</ele>
        <time>2019-10-12T08:09:45Z</time>
      </trkpt>
      <trkpt lat="40.0127660" lon="-0.0495680">
        <ele>54.0</ele>
        <time>2019-10-12T08:09:52Z</time>
      </trkpt>
      <trkpt lat="40.0125260" lon="-0.0498120">
        <ele>54.5</ele>
        <time>2019-10-12T08:09:56Z</time>
      </trkpt>
      <trkpt lat="40.0120760" lon="-0.0502890">
        <ele>54.6</ele>
        <time>2019-10-12T08:10:04Z</time>
      </trkpt>
      <trkpt lat="40.0119640" lon="-0.0504020">
        <ele>54.8</ele>
        <time>2019-10-12T08:10:06Z</time>
      </trkpt>
      <trkpt lat="40.0115260" lon="-0.0508550">
        <ele>55.6</ele>
        <time>2019-10-12T08:10:14Z</time>
      </trkpt>
      <trkpt lat="40.0114200" lon="-0.0509670">
        <ele>55.6</ele>
        <time>2019-10-12T08:10:16Z</time>
      </trkpt>
      <trkpt lat="40.0109410" lon="-0.0514470">
        <ele>56.4</ele>
        <time>2019-10-12T08:10:25Z</time>
      </trkpt>
      <trkpt lat="40.0108910" lon="-0.0515050">
        <ele>56.5</ele>
        <time>2019-10-12T08:10:26Z</time>
      </trkpt>
      <trkpt lat="40.0105330" lon="-0.0518890">
        <ele>56.6</ele>
        <time>2019-10-12T08:10:33Z</time>
      </trkpt>
      <trkpt lat="40.0101030" lon="-0.0523180">
        <ele>56.6</ele>
        <time>2019-10-12T08:10:41Z</time>
      </trkpt>
      <trkpt lat="40.0100490" lon="-0.0523730">
        <ele>56.6</ele>
        <time>2019-10-12T08:10:42Z</time>
      </trkpt>
      <trkpt lat="40.0096240" lon="-0.0528140">
        <ele>57.4</ele>
        <time>2019-10-12T08:10:50Z</time>
      </trkpt>
      <trkpt lat="40.0094230" lon="-0.0530390">
        <ele>58.1</ele>
        <time>2019-10-12T08:10:54Z</time>
      </trkpt>
      <trkpt lat="40.0090280" lon="-0.0535300">
        <ele>59.1</ele>
        <time>2019-10-12T08:11:02Z</time>
      </trkpt>
      <trkpt lat="40.0089810" lon="-0.0535960">
        <ele>59.2</ele>
        <time>2019-10-12T08:11:03Z</time>
      </trkpt>
      <trkpt lat="40.0086240" lon="-0.0541610">
        <ele>59.5</ele>
        <time>2019-10-12T08:11:11Z</time>
      </trkpt>
      <trkpt lat="40.0083120" lon="-0.0547710">
        <ele>59.7</ele>
        <time>2019-10-12T08:11:19Z</time>
      </trkpt>
      <trkpt lat="40.0080170" lon="-0.0554350">
        <ele>60.5</ele>
        <time>2019-10-12T08:11:27Z</time>
      </trkpt>
      <trkpt lat="40.0079790" lon="-0.0555210">
        <ele>60.5</ele>
        <time>2019-10-12T08:11:28Z</time>
      </trkpt>
      <trkpt lat="40.0076790" lon="-0.0562030">
        <ele>61.5</ele>
        <time>2019-10-12T08:11:36Z</time>
      </trkpt>
      <trkpt lat="40.0076040" lon="-0.0563720">
        <ele>61.5</ele>
        <time>2019-10-12T08:11:38Z</time>
      </trkpt>
      <trkpt lat="40.0074050" lon="-0.0568120">
        <ele>61.5</ele>
        <time>2019-10-12T08:11:43Z</time>
      </trkpt>
      <trkpt lat="40.0073270" lon="-0.0569790">
        <ele>61.6</ele>
        <time>2019-10-12T08:11:45Z</time>
      </trkpt>
      <trkpt lat="40.0071360" lon="-0.0574080">
        <ele>62.3</ele>
        <time>2019-10-12T08:11:50Z</time>
      </trkpt>
      <trkpt lat="40.0069820" lon="-0.0577520">
        <ele>62.5</ele>
        <time>2019-10-12T08:11:54Z</time>
      </trkpt>
      <trkpt lat="40.0067050" lon="-0.0583710">
        <ele>62.5</ele>
        <time>2019-10-12T08:12:01Z</time>
      </trkpt>
      <trkpt lat="40.0066660" lon="-0.0584600">
        <ele>62.5</ele>
        <time>2019-10-12T08:12:02Z</time>
      </trkpt>
      <trkpt lat="40.0063820" lon="-0.0590920">
        <ele>62.6</ele>
        <time>2019-10-12T08:12:09Z</time>
      </trkpt>
      <trkpt lat="40.0062580" lon="-0.0593620">
        <ele>63.0</ele>
        <time>2019-10-12T08:12:12Z</time>
      </trkpt>
      <trkpt lat="40.0059720" lon="-0.0600000">
        <ele>63.4</ele>
        <time>2019-10-12T08:12:19Z</time>
      </trkpt>
      <trkpt lat="40.0058490" lon="-0.0602790">
        <ele>63.4</ele>
        <time>2019-10-12T08:12:22Z</time>
      </trkpt>
      <trkpt lat="40.0055610" lon="-0.0609370">
        <ele>63.4</ele>
        <time>2019-10-12T08:12:29Z</time>
      </trkpt>
      <trkpt lat="40.0054890" lon="-0.0611210">
        <ele>63.4</ele>
        <time>2019-10-12T08:12:31Z</time>
      </trkpt>
      <trkpt lat="40.0053060" lon="-0.0616590">
        <ele>63.5</ele>
        <time>2019-10-12T08:12:37Z</time>
      </trkpt>
      <trkpt lat="40.0050990" lon="-0.0623450">
        <ele>64.3</ele>
        <time>2019-10-12T08:12:45Z</time>
      </trkpt>
      <trkpt lat="40.0049190" lon="-0.0630730">
        <ele>65.5</ele>
        <time>2019-10-12T08:12:54Z</time>
      </trkpt>
      <trkpt lat="40.0047600" lon="-0.0637660">
        <ele>66.9</ele>
        <time>2019-10-12T08:13:03Z</time>
      </trkpt>
      <trkpt lat="40.0046270" lon="-0.0643540">
        <ele>68.3</ele>
        <time>2019-10-12T08:13:11Z</time>
      </trkpt>
      <trkpt lat="40.0045160" lon="-0.0648470">
        <ele>70.0</ele>
        <time>2019-10-12T08:13:18Z</time>
      </trkpt>
      <trkpt lat="40.0045000" lon="-0.0649170">
        <ele>70.2</ele>
        <time>2019-10-12T08:13:19Z</time>
      </trkpt>
      <trkpt lat="40.0043850" lon="-0.0654040">
        <ele>71.4</ele>
        <time>2019-10-12T08:13:26Z</time>
      </trkpt>
      <trkpt lat="40.0043350" lon="-0.0656140">
        <ele>71.9</ele>
        <time>2019-10-12T08:13:29Z</time>
      </trkpt>
      <trkpt lat="40.0041750" lon="-0.0662330">
        <ele>73.4</ele>
        <time>2019-10-12T08:13:38Z</time>
      </trkpt>
      <trkpt lat="40.0040550" lon="-0.0666560">
        <ele>74.2</ele>
        <time>2019-10-12T08:13:44Z</time>
      </trkpt>
      <trkpt lat="40.0039120" lon="-0.0671530">
        <ele>75.1</ele>
        <time>2019-10-12T08:13:51Z</time>
      </trkpt>
      <trkpt lat="40.0037040" lon="-0.0678120">
        <ele>76.3</ele>
        <time>2019-10-12T08:14:00Z</time>
      </trkpt>
      <trkpt lat="40.0036800" lon="-0.0678880">
        <ele>76.3</ele>
        <time>2019-10-12T08:14:01Z</time>
      </trkpt>
      <trkpt lat="40.0034520" lon="-0.0685970">
        <ele>77.1</ele>
        <time>2019-10-12T08:14:10Z</time>
      </trkpt>
      <trkpt lat="40.0034270" lon="-0.0686750">
        <ele>77.2</ele>
        <time>2019-10-12T08:14:11Z</time>
      </trkpt>
      <trkpt lat="40.0032570" lon="-0.0692390">
        <ele>77.4</ele>
        <time>2019-10-12T08:14:18Z</time>
      </trkpt>
      <trkpt lat="40.0030810" lon="-0.0698720">
        <ele>77.7</ele>
        <time>2019-10-12T08:14:26Z</time>
      </trkpt>
      <trkpt lat="40.0029670" lon="-0.0704030">
        <ele>78.4</ele>
        <time>2019-10-12T08:14:33Z</time>
      </trkpt>
      <trkpt lat="40.0028690" lon="-0.0711030">
        <ele>78.6</ele>
        <time>2019-10-12T08:14:43Z</time>
      </trkpt>
      <trkpt lat="40.0028490" lon="-0.0712810">
        <ele>79.0</ele>
        <time>2019-10-12T08:14:46Z</time>
      </trkpt>
      <trkpt lat="40.0028330" lon="-0.0714480">
        <ele>79.4</ele>
        <time>2019-10-12T08:14:49Z</time>
      </trkpt>
      <trkpt lat="40.0028310" lon="-0.0715050">
        <ele>79.6</ele>
        <time>2019-10-12T08:14:50Z</time>
      </trkpt>
      <trkpt lat="40.0028320" lon="-0.0715640">
        <ele>79.8</ele>
        <time>2019-10-12T08:14:51Z</time>
      </trkpt>
      <trkpt lat="40.0028040" lon="-0.0721530">
        <ele>81.7</ele>
        <time>2019-10-12T08:15:01Z</time>
      </trkpt>
      <trkpt lat="40.0027920" lon="-0.0725610">
        <ele>83.2</ele>
        <time>2019-10-12T08:15:08Z</time>
      </trkpt>
      <trkpt lat="40.0027900" lon="-0.0726200">
        <ele>83.4</ele>
        <time>2019-10-12T08:15:09Z</time>
      </trkpt>
      <trkpt lat="40.0027850" lon="-0.0730980">
        <ele>84.9</ele>
        <time>2019-10-12T08:15:17Z</time>
      </trkpt>
      <trkpt lat="40.0027830" lon="-0.0735640">
        <ele>86.4</ele>
        <time>2019-10-12T08:15:25Z</time>
      </trkpt>
      <trkpt lat="40.0027770" lon="-0.0739910">
        <ele>87.5</ele>
        <time>2019-10-12T08:15:32Z</time>
      </trkpt>
      <trkpt lat="40.0027840" lon="-0.0745220">
        <ele>88.8</ele>
        <time>2019-10-12T08:15:41Z</time>
      </trkpt>
      <trkpt lat="40.0027850" lon="-0.0746420">
        <ele>89.1</ele>
        <time>2019-10-12T08:15:43Z</time>
      </trkpt>
      <trkpt lat="40.0027830" lon="-0.0747680">
        <ele>89.5</ele>
        <time>2019-10-12T08:15:45Z</time>
      </trkpt>
      <trkpt lat="40.0027860" lon="-0.0748270">
        <ele>89.6</ele>
        <time>2019-10-12T08:15:46Z</time>
      </trkpt>
      <trkpt lat="40.0027900" lon="-0.0750670">
        <ele>90.0</ele>
        <time>2019-10-12T08:15:50Z</time>
      </trkpt>
      <trkpt lat="40.0027720" lon="-0.0752560">
        <ele>90.3</ele>
        <time>2019-10-12T08:15:53Z</time>
      </trkpt>
      <trkpt lat="40.0027630" lon="-0.0756900">
        <ele>91.0</ele>
        <time>2019-10-12T08:16:00Z</time>
      </trkpt>
      <trkpt lat="40.0027520" lon="-0.0761220">
        <ele>91.9</ele>
        <time>2019-10-12T08:16:07Z</time>
      </trkpt>
      <trkpt lat="40.0027460" lon="-0.0765500">
        <ele>93.5</ele>
        <time>2019-10-12T08:16:14Z</time>
      </trkpt>
      <trkpt lat="40.0027460" lon="-0.0766710">
        <ele>94.0</ele>
        <time>2019-10-12T08:16:16Z</time>
      </trkpt>
      <trkpt lat="40.0027410" lon="-0.0771010">
        <ele>94.6</ele>
        <time>2019-10-12T08:16:23Z</time>
      </trkpt>
      <trkpt lat="40.0027390" lon="-0.0775940">
        <ele>96.1</ele>
        <time>2019-10-12T08:16:31Z</time>
      </trkpt>
      <trkpt lat="40.0027420" lon="-0.0778420">
        <ele>96.8</ele>
        <time>2019-10-12T08:16:35Z</time>
      </trkpt>
      <trkpt lat="40.0027430" lon="-0.0779660">
        <ele>97.1</ele>
        <time>2019-10-12T08:16:37Z</time>
      </trkpt>
      <trkpt lat="40.0027420" lon="-0.0780850">
        <ele>97.4</ele>
        <time>2019-10-12T08:16:39Z</time>
      </trkpt>
      <trkpt lat="40.0027410" lon="-0.0782070">
        <ele>97.8</ele>
        <time>2019-10-12T08:16:41Z</time>
      </trkpt>
      <trkpt lat="40.0027450" lon="-0.0783280">
        <ele>98.0</ele>
        <time>2019-10-12T08:16:43Z</time>
      </trkpt>
      <trkpt lat="40.0027270" lon="-0.0788380">
        <ele>99.0</ele>
        <time>2019-10-12T08:16:51Z</time>
      </trkpt>
      <trkpt lat="40.0027070" lon="-0.0791760">
        <ele>99.0</ele>
        <time>2019-10-12T08:16:56Z</time>
      </trkpt>
      <trkpt lat="40.0026910" lon="-0.0793830">
        <ele>98.8</ele>
        <time>2019-10-12T08:16:59Z</time>
      </trkpt>
      <trkpt lat="40.0026450" lon="-0.0798750">
        <ele>98.6</ele>
        <time>2019-10-12T08:17:06Z</time>
      </trkpt>
      <trkpt lat="40.0025770" lon="-0.0803310">
        <ele>98.9</ele>
        <time>2019-10-12T08:17:12Z</time>
      </trkpt>
      <trkpt lat="40.0025460" lon="-0.0804910">
        <ele>99.3</ele>
        <time>2019-10-12T08:17:14Z</time>
      </trkpt>
      <trkpt lat="40.0024250" lon="-0.0810640">
        <ele>98.8</ele>
        <time>2019-10-12T08:17:21Z</time>
      </trkpt>
      <trkpt lat="40.0024060" lon="-0.0811490">
        <ele>98.7</ele>
        <time>2019-10-12T08:17:22Z</time>
      </trkpt>
      <trkpt lat="40.0022750" lon="-0.0816570">
        <ele>97.7</ele>
        <time>2019-10-12T08:17:28Z</time>
      </trkpt>
      <trkpt lat="40.0022330" lon="-0.0818270">
        <ele>97.4</ele>
        <time>2019-10-12T08:17:30Z</time>
      </trkpt>
      <trkpt lat="40.0022110" lon="-0.0819130">
        <ele>97.2</ele>
        <time>2019-10-12T08:17:31Z</time>
      </trkpt>
      <trkpt lat="40.0019750" lon="-0.0826300">
        <ele>95.5</ele>
        <time>2019-10-12T08:17:39Z</time>
      </trkpt>
      <trkpt lat="40.0017040" lon="-0.0832870">
        <ele>93.2</ele>
        <time>2019-10-12T08:17:46Z</time>
      </trkpt>
      <trkpt lat="40.0013620" lon="-0.0839390">
        <ele>91.3</ele>
        <time>2019-10-12T08:17:53Z</time>
      </trkpt>
      <trkpt lat="40.0012520" lon="-0.0841260">
        <ele>90.7</ele>
        <time>2019-10-12T08:17:55Z</time>
      </trkpt>
      <trkpt lat="40.0008900" lon="-0.0846710">
        <ele>89.3</ele>
        <time>2019-10-12T08:18:01Z</time>
      </trkpt>
      <trkpt lat="40.0007590" lon="-0.0848480">
        <ele>88.8</ele>
        <time>2019-10-12T08:18:03Z</time>
      </trkpt>
      <trkpt lat="40.0003440" lon="-0.0853580">
        <ele>87.2</ele>
        <time>2019-10-12T08:18:09Z</time>
      </trkpt>
      <trkpt lat="40.0001940" lon="-0.0855150">
        <ele>86.6</ele>
        <time>2019-10-12T08:18:11Z</time>
      </trkpt>
      <trkpt lat="39.9998070" lon="-0.0858810">
        <ele>85.4</ele>
        <time>2019-10-12T08:18:16Z</time>
      </trkpt>
      <trkpt lat="39.9996520" lon="-0.0860200">
        <ele>84.9</ele>
        <time>2019-10-12T08:18:18Z</time>
      </trkpt>
      <trkpt lat="39.9991500" lon="-0.0863920">
        <ele>83.4</ele>
        <time>2019-10-12T08:18:24Z</time>
      </trkpt>
      <trkpt lat="39.9990630" lon="-0.0864490">
        <ele>83.1</ele>
        <time>2019-10-12T08:18:25Z</time>
      </trkpt>
      <trkpt lat="39.9987170" lon="-0.0866830">
        <ele>82.0</ele>
        <time>2019-10-12T08:18:29Z</time>
      </trkpt>
      <trkpt lat="39.9983750" lon="-0.0869130">
        <ele>81.2</ele>
        <time>2019-10-12T08:18:33Z</time>
      </trkpt>
      <trkpt lat="39.9978750" lon="-0.0872520">
        <ele>80.4</ele>
        <time>2019-10-12T08:18:39Z</time>
      </trkpt>
      <trkpt lat="39.9977950" lon="-0.0873070">
        <ele>80.7</ele>
        <time>2019-10-12T08:18:40Z</time>
      </trkpt>
      <trkpt lat="39.9972590" lon="-0.0876850">
        <ele>81.8</ele>
        <time>2019-10-12T08:18:47Z</time>
      </trkpt>
      <trkpt lat="39.9971840" lon="-0.0877310">
        <ele>81.9</ele>
        <time>2019-10-12T08:18:48Z</time>
      </trkpt>
      <trkpt lat="39.9966820" lon="-0.0880710">
        <ele>82.0</ele>
        <time>2019-10-12T08:18:55Z</time>
      </trkpt>
      <trkpt lat="39.9965430" lon="-0.0881690">
        <ele>82.0</ele>
        <time>2019-10-12T08:18:57Z</time>
      </trkpt>
      <trkpt lat="39.9960640" lon="-0.0885120">
        <ele>81.1</ele>
        <time>2019-10-12T08:19:04Z</time>
      </trkpt>
      <trkpt lat="39.9959290" lon="-0.0886080">
        <ele>80.4</ele>
        <time>2019-10-12T08:19:06Z</time>
      </trkpt>
      <trkpt lat="39.9953920" lon="-0.0889710">
        <ele>79.5</ele>
        <time>2019-10-12T08:19:14Z</time>
      </trkpt>
      <trkpt lat="39.9953230" lon="-0.0890150">
        <ele>79.6</ele>
        <time>2019-10-12T08:19:15Z</time>
      </trkpt>
      <trkpt lat="39.9947930" lon="-0.0893400">
        <ele>80.2</ele>
        <time>2019-10-12T08:19:23Z</time>
      </trkpt>
      <trkpt lat="39.9945910" lon="-0.0894390">
        <ele>80.0</ele>
        <time>2019-10-12T08:19:26Z</time>
      </trkpt>
      <trkpt lat="39.9940190" lon="-0.0896620">
        <ele>82.4</ele>
        <time>2019-10-12T08:19:34Z</time>
      </trkpt>
      <trkpt lat="39.9934200" lon="-0.0898160">
        <ele>84.9</ele>
        <time>2019-10-12T08:19:42Z</time>
      </trkpt>
      <trkpt lat="39.9928160" lon="-0.0898790">
        <ele>85.2</ele>
        <time>2019-10-12T08:19:50Z</time>
      </trkpt>
      <trkpt lat="39.9923340" lon="-0.0898200">
        <ele>85.4</ele>
        <time>2019-10-12T08:19:56Z</time>
      </trkpt>
      <trkpt lat="39.9917460" lon="-0.0897270">
        <ele>84.1</ele>
        <time>2019-10-12T08:20:03Z</time>
      </trkpt>
      <trkpt lat="39.9915790" lon="-0.0896910">
        <ele>83.6</ele>
        <time>2019-10-12T08:20:05Z</time>
      </trkpt>
      <trkpt lat="39.9909870" lon="-0.0895770">
        <ele>82.1</ele>
        <time>2019-10-12T08:20:12Z</time>
      </trkpt>
      <trkpt lat="39.9907320" lon="-0.0895300">
        <ele>82.0</ele>
        <time>2019-10-12T08:20:15Z</time>
      </trkpt>
      <trkpt lat="39.9901190" lon="-0.0894120">
        <ele>79.9</ele>
        <time>2019-10-12T08:20:22Z</time>
      </trkpt>
      <trkpt lat="39.9900270" lon="-0.0893970">
        <ele>79.5</ele>
        <time>2019-10-12T08:20:23Z</time>
      </trkpt>
      <trkpt lat="39.9894790" lon="-0.0892830">
        <ele>77.4</ele>
        <time>2019-10-12T08:20:29Z</time>
      </trkpt>
      <trkpt lat="39.9892150" lon="-0.0892280">
        <ele>77.1</ele>
        <time>2019-10-12T08:20:32Z</time>
      </trkpt>
      <trkpt lat="39.9886730" lon="-0.0891170">
        <ele>76.4</ele>
        <time>2019-10-12T08:20:38Z</time>
      </trkpt>
      <trkpt lat="39.9883060" lon="-0.0890480">
        <ele>75.6</ele>
        <time>2019-10-12T08:20:42Z</time>
      </trkpt>
      <trkpt lat="39.9877720" lon="-0.0889460">
        <ele>74.7</ele>
        <time>2019-10-12T08:20:48Z</time>
      </trkpt>
      <trkpt lat="39.9874110" lon="-0.0888770">
        <ele>74.0</ele>
        <time>2019-10-12T08:20:52Z</time>
      </trkpt>
      <trkpt lat="39.9868730" lon="-0.0887660">
        <ele>73.1</ele>
        <time>2019-10-12T08:20:58Z</time>
      </trkpt>
      <trkpt lat="39.9864150" lon="-0.0886800">
        <ele>72.0</ele>
        <time>2019-10-12T08:21:03Z</time>
      </trkpt>
      <trkpt lat="39.9858570" lon="-0.0885630">
        <ele>71.2</ele>
        <time>2019-10-12T08:21:09Z</time>
      </trkpt>
      <trkpt lat="39.9855670" lon="-0.0885080">
        <ele>70.9</ele>
        <time>2019-10-12T08:21:12Z</time>
      </trkpt>
      <trkpt lat="39.9850050" lon="-0.0883930">
        <ele>70.8</ele>
        <time>2019-10-12T08:21:18Z</time>
      </trkpt>
      <trkpt lat="39.9848190" lon="-0.0883550">
        <ele>70.5</ele>
        <time>2019-10-12T08:21:20Z</time>
      </trkpt>
      <trkpt lat="39.9842670" lon="-0.0882480">
        <ele>69.7</ele>
        <time>2019-10-12T08:21:26Z</time>
      </trkpt>
      <trkpt lat="39.9839940" lon="-0.0882020">
        <ele>69.5</ele>
        <time>2019-10-12T08:21:29Z</time>
      </trkpt>
      <trkpt lat="39.9834480" lon="-0.0880930">
        <ele>68.5</ele>
        <time>2019-10-12T08:21:35Z</time>
      </trkpt>
      <trkpt lat="39.9832660" lon="-0.0880540">
        <ele>68.0</ele>
        <time>2019-10-12T08:21:37Z</time>
      </trkpt>
      <trkpt lat="39.9827050" lon="-0.0879410">
        <ele>66.3</ele>
        <time>2019-10-12T08:21:43Z</time>
      </trkpt>
      <trkpt lat="39.9824210" lon="-0.0878840">
        <ele>66.0</ele>
        <time>2019-10-12T08:21:46Z</time>
      </trkpt>
      <trkpt lat="39.9818470" lon="-0.0877680">
        <ele>66.4</ele>
        <time>2019-10-12T08:21:52Z</time>
      </trkpt>
      <trkpt lat="39.9814560" lon="-0.0876930">
        <ele>67.0</ele>
        <time>2019-10-12T08:21:56Z</time>
      </trkpt>
      <trkpt lat="39.9808570" lon="-0.0875720">
        <ele>66.6</ele>
        <time>2019-10-12T08:22:02Z</time>
      </trkpt>
      <trkpt lat="39.9805550" lon="-0.0875260">
        <ele>66.0</ele>
        <time>2019-10-12T08:22:05Z</time>
      </trkpt>
      <trkpt lat="39.9802570" lon="-0.0874870">
        <ele>65.6</ele>
        <time>2019-10-12T08:22:08Z</time>
      </trkpt>
      <trkpt lat="39.9797650" lon="-0.0873830">
        <ele>64.5</ele>
        <time>2019-10-12T08:22:13Z</time>
      </trkpt>
      <trkpt lat="39.9791670" lon="-0.0872540">
        <ele>62.8</ele>
        <time>2019-10-12T08:22:19Z</time>
      </trkpt>
      <trkpt lat="39.9787680" lon="-0.0871590">
        <ele>62.3</ele>
        <time>2019-10-12T08:22:23Z</time>
      </trkpt>
      <trkpt lat="39.9781790" lon="-0.0870360">
        <ele>61.0</ele>
        <time>2019-10-12T08:22:29Z</time>
      </trkpt>
      <trkpt lat="39.9777860" lon="-0.0869610">
        <ele>60.7</ele>
        <time>2019-10-12T08:22:33Z</time>
      </trkpt>
      <trkpt lat="39.9772080" lon="-0.0868480">
        <ele>60.1</ele>
        <time>2019-10-12T08:22:39Z</time>
      </trkpt>
      <trkpt lat="39.9766410" lon="-0.0867390">
        <ele>59.6</ele>
        <time>2019-10-12T08:22:45Z</time>
      </trkpt>
      <trkpt lat="39.9760960" lon="-0.0866220">
        <ele>58.7</ele>
        <time>2019-10-12T08:22:51Z</time>
      </trkpt>
      <trkpt lat="39.9757360" lon="-0.0865510">
        <ele>58.5</ele>
        <time>2019-10-12T08:22:55Z</time>
      </trkpt>
      <trkpt lat="39.9751810" lon="-0.0864400">
        <ele>58.3</ele>
        <time>2019-10-12T08:23:01Z</time>
      </trkpt>
      <trkpt lat="39.9748040" lon="-0.0863620">
        <ele>57.2</ele>
        <time>2019-10-12T08:23:05Z</time>
      </trkpt>
      <trkpt lat="39.9742450" lon="-0.0862500">
        <ele>55.8</ele>
        <time>2019-10-12T08:23:11Z</time>
      </trkpt>
      <trkpt lat="39.9740580" lon="-0.0862150">
        <ele>55.6</ele>
        <time>2019-10-12T08:23:13Z</time>
      </trkpt>
      <trkpt lat="39.9734960" lon="-0.0861080">
        <ele>55.0</ele>
        <time>2019-10-12T08:23:19Z</time>
      </trkpt>
      <trkpt lat="39.9733110" lon="-0.0860690">
        <ele>54.8</ele>
        <time>2019-10-12T08:23:21Z</time>
      </trkpt>
      <trkpt lat="39.9727500" lon="-0.0859670">
        <ele>55.3</ele>
        <time>2019-10-12T08:23:27Z</time>
      </trkpt>
      <trkpt lat="39.9726540" lon="-0.0859530">
        <ele>55.6</ele>
        <time>2019-10-12T08:23:28Z</time>
      </trkpt>
      <trkpt lat="39.9720910" lon="-0.0858330">
        <ele>55.8</ele>
        <time>2019-10-12T08:23:34Z</time>
      </trkpt>
      <trkpt lat="39.9719080" lon="-0.0857950">
        <ele>55.7</ele>
        <time>2019-10-12T08:23:36Z</time>
      </trkpt>
      <trkpt lat="39.9713640" lon="-0.0856940">
        <ele>55.3</ele>
        <time>2019-10-12T08:23:42Z</time>
      </trkpt>
      <trkpt lat="39.9711830" lon="-0.0856640">
        <ele>54.9</ele>
        <time>2019-10-12T08:23:44Z</time>
      </trkpt>
      <trkpt lat="39.9705670" lon="-0.0855790">
        <ele>55.0</ele>
        <time>2019-10-12T08:23:51Z</time>
      </trkpt>
      <trkpt lat="39.9703060" lon="-0.0855480">
        <ele>56.0</ele>
        <time>2019-10-12T08:23:54Z</time>
      </trkpt>
      <trkpt lat="39.9697150" lon="-0.0854810">
        <ele>57.7</ele>
        <time>2019-10-12T08:24:01Z</time>
      </trkpt>
      <trkpt lat="39.9696300" lon="-0.0854730">
        <ele>57.6</ele>
        <time>2019-10-12T08:24:02Z</time>
      </trkpt>
      <trkpt lat="39.9690450" lon="-0.0854270">
        <ele>56.5</ele>
        <time>2019-10-12T08:24:09Z</time>
      </trkpt>
      <trkpt lat="39.9689620" lon="-0.0854270">
        <ele>56.3</ele>
        <time>2019-10-12T08:24:10Z</time>
      </trkpt>
      <trkpt lat="39.9683910" lon="-0.0853940">
        <ele>55.3</ele>
        <time>2019-10-12T08:24:17Z</time>
      </trkpt>
      <trkpt lat="39.9683080" lon="-0.0853860">
        <ele>55.2</ele>
        <time>2019-10-12T08:24:18Z</time>
      </trkpt>
      <trkpt lat="39.9677280" lon="-0.0853150">
        <ele>53.7</ele>
        <time>2019-10-12T08:24:25Z</time>
      </trkpt>
      <trkpt lat="39.9673310" lon="-0.0852620">
        <ele>53.0</ele>
        <time>2019-10-12T08:24:30Z</time>
      </trkpt>
      <trkpt lat="39.9667710" lon="-0.0851950">
        <ele>53.0</ele>
        <time>2019-10-12T08:24:37Z</time>
      </trkpt>
      <trkpt lat="39.9666930" lon="-0.0851910">
        <ele>53.0</ele>
        <time>2019-10-12T08:24:38Z</time>
      </trkpt>
      <trkpt lat="39.9661420" lon="-0.0851610">
        <ele>53.0</ele>
        <time>2019-10-12T08:24:45Z</time>
      </trkpt>
      <trkpt lat="39.9660610" lon="-0.0851610">
        <ele>53.0</ele>
        <time>2019-10-12T08:24:46Z</time>
      </trkpt>
      <trkpt lat="39.9655160" lon="-0.0851600">
        <ele>53.0</ele>
        <time>2019-10-12T08:24:53Z</time>
      </trkpt>
      <trkpt lat="39.9653570" lon="-0.0851650">
        <ele>53.0</ele>
        <time>2019-10-12T08:24:55Z</time>
      </trkpt>
      <trkpt lat="39.9648040" lon="-0.0851990">
        <ele>53.0</ele>
        <time>2019-10-12T08:25:02Z</time>
      </trkpt>
      <trkpt lat="39.9646400" lon="-0.0852130">
        <ele>53.0</ele>
        <time>2019-10-12T08:25:04Z</time>
      </trkpt>
      <trkpt lat="39.9640600" lon="-0.0852890">
        <ele>53.0</ele>
        <time>2019-10-12T08:25:11Z</time>
      </trkpt>
      <trkpt lat="39.9639760" lon="-0.0853010">
        <ele>53.0</ele>
        <time>2019-10-12T08:25:12Z</time>
      </trkpt>
      <trkpt lat="39.9633750" lon="-0.0854040">
        <ele>52.1</ele>
        <time>2019-10-12T08:25:19Z</time>
      </trkpt>
      <trkpt lat="39.9627630" lon="-0.0855450">
        <ele>49.4</ele>
        <time>2019-10-12T08:25:26Z</time>
      </trkpt>
      <trkpt lat="39.9622260" lon="-0.0856620">
        <ele>46.8</ele>
        <time>2019-10-12T08:25:32Z</time>
      </trkpt>
      <trkpt lat="39.9620430" lon="-0.0857050">
        <ele>46.3</ele>
        <time>2019-10-12T08:25:34Z</time>
      </trkpt>
      <trkpt lat="39.9614900" lon="-0.0858160">
        <ele>45.6</ele>
        <time>2019-10-12T08:25:40Z</time>
      </trkpt>
      <trkpt lat="39.9613060" lon="-0.0858470">
        <ele>45.2</ele>
        <time>2019-10-12T08:25:42Z</time>
      </trkpt>
      <trkpt lat="39.9607500" lon="-0.0859180">
        <ele>44.8</ele>
        <time>2019-10-12T08:25:48Z</time>
      </trkpt>
      <trkpt lat="39.9604810" lon="-0.0859420">
        <ele>44.3</ele>
        <time>2019-10-12T08:25:51Z</time>
      </trkpt>
      <trkpt lat="39.9599070" lon="-0.0859580">
        <ele>43.8</ele>
        <time>2019-10-12T08:25:57Z</time>
      </trkpt>
      <trkpt lat="39.9598100" lon="-0.0859580">
        <ele>43.7</ele>
        <time>2019-10-12T08:25:58Z</time>
      </trkpt>
      <trkpt lat="39.9592310" lon="-0.0859550">
        <ele>43.0</ele>
        <time>2019-10-12T08:26:04Z</time>
      </trkpt>
      <trkpt lat="39.9589550" lon="-0.0859350">
        <ele>42.6</ele>
        <time>2019-10-12T08:26:07Z</time>
      </trkpt>
      <trkpt lat="39.9583990" lon="-0.0858780">
        <ele>42.0</ele>
        <time>2019-10-12T08:26:13Z</time>
      </trkpt>
      <trkpt lat="39.9581180" lon="-0.0858530">
        <ele>41.6</ele>
        <time>2019-10-12T08:26:16Z</time>
      </trkpt>
      <trkpt lat="39.9576400" lon="-0.0858140">
        <ele>41.1</ele>
        <time>2019-10-12T08:26:21Z</time>
      </trkpt>
      <trkpt lat="39.9570890" lon="-0.0857540">
        <ele>40.6</ele>
        <time>2019-10-12T08:26:27Z</time>
      </trkpt>
      <trkpt lat="39.9568160" lon="-0.0857240">
        <ele>40.2</ele>
        <time>2019-10-12T08:26:30Z</time>
      </trkpt>
      <trkpt lat="39.9562710" lon="-0.0856630">
        <ele>39.8</ele>
        <time>2019-10-12T08:26:36Z</time>
      </trkpt>
      <trkpt lat="39.9561830" lon="-0.0856540">
        <ele>39.7</ele>
        <time>2019-10-12T08:26:37Z</time>
      </trkpt>
      <trkpt lat="39.9556450" lon="-0.0856050">
        <ele>39.1</ele>
        <time>2019-10-12T08:26:43Z</time>
      </trkpt>
      <trkpt lat="39.9554680" lon="-0.0855870">
        <ele>39.1</ele>
        <time>2019-10-12T08:26:45Z</time>
      </trkpt>
      <trkpt lat="39.9548720" lon="-0.0855270">
        <ele>39.1</ele>
        <time>2019-10-12T08:26:52Z</time>
      </trkpt>
      <trkpt lat="39.9546230" lon="-0.0855080">
        <ele>39.1</ele>
        <time>2019-10-12T08:26:55Z</time>
      </trkpt>
      <trkpt lat="39.9540450" lon="-0.0854580">
        <ele>39.0</ele>
        <time>2019-10-12T08:27:02Z</time>
      </trkpt>
      <trkpt lat="39.9538810" lon="-0.0854440">
        <ele>38.8</ele>
        <time>2019-10-12T08:27:04Z</time>
      </trkpt>
      <trkpt lat="39.9533210" lon="-0.0853750">
        <ele>38.3</ele>
        <time>2019-10-12T08:27:11Z</time>
      </trkpt>
      <trkpt lat="39.9531570" lon="-0.0853600">
        <ele>38.3</ele>
        <time>2019-10-12T08:27:13Z</time>
      </trkpt>
      <trkpt lat="39.9525800" lon="-0.0852980">
        <ele>37.8</ele>
        <time>2019-10-12T08:27:20Z</time>
      </trkpt>
      <trkpt lat="39.9524940" lon="-0.0852910">
        <ele>37.5</ele>
        <time>2019-10-12T08:27:21Z</time>
      </trkpt>
      <trkpt lat="39.9518720" lon="-0.0852880">
        <ele>40.7</ele>
        <time>2019-10-12T08:27:28Z</time>
      </trkpt>
      <trkpt lat="39.9516860" lon="-0.0852970">
        <ele>41.2</ele>
        <time>2019-10-12T08:27:30Z</time>
      </trkpt>
      <trkpt lat="39.9511390" lon="-0.0853730">
        <ele>42.3</ele>
        <time>2019-10-12T08:27:36Z</time>
      </trkpt>
      <trkpt lat="39.9510520" lon="-0.0853990">
        <ele>42.4</ele>
        <time>2019-10-12T08:27:37Z</time>
      </trkpt>
      <trkpt lat="39.9507060" lon="-0.0855410">
        <ele>43.3</ele>
        <time>2019-10-12T08:27:41Z</time>
      </trkpt>
      <trkpt lat="39.9506250" lon="-0.0855720">
        <ele>43.5</ele>
        <time>2019-10-12T08:27:42Z</time>
      </trkpt>
      <trkpt lat="39.9502550" lon="-0.0856830">
        <ele>44.5</ele>
        <time>2019-10-12T08:27:47Z</time>
      </trkpt>
      <trkpt lat="39.9499970" lon="-0.0857540">
        <ele>45.2</ele>
        <time>2019-10-12T08:27:51Z</time>
      </trkpt>
      <trkpt lat="39.9498730" lon="-0.0857990">
        <ele>45.7</ele>
        <time>2019-10-12T08:27:53Z</time>
      </trkpt>
      <trkpt lat="39.9498200" lon="-0.0858290">
        <ele>45.9</ele>
        <time>2019-10-12T08:27:54Z</time>
      </trkpt>
      <trkpt lat="39.9497490" lon="-0.0858940">
        <ele>46.1</ele>
        <time>2019-10-12T08:27:56Z</time>
      </trkpt>
      <trkpt lat="39.9496790" lon="-0.0860040">
        <ele>46.5</ele>
        <time>2019-10-12T08:27:58Z</time>
      </trkpt>
      <trkpt lat="39.9496540" lon="-0.0860800">
        <ele>46.5</ele>
        <time>2019-10-12T08:27:59Z</time>
      </trkpt>
      <trkpt lat="39.9496240" lon="-0.0861530">
        <ele>46.6</ele>
        <time>2019-10-12T08:28:00Z</time>
      </trkpt>
      <trkpt lat="39.9495370" lon="-0.0862600">
        <ele>46.6</ele>
        <time>2019-10-12T08:28:02Z</time>
      </trkpt>
      <trkpt lat="39.9494450" lon="-0.0863100">
        <ele>46.7</ele>
        <time>2019-10-12T08:28:04Z</time>
      </trkpt>
      <trkpt lat="39.9493490" lon="-0.0863350">
        <ele>46.8</ele>
        <time>2019-10-12T08:28:06Z</time>
      </trkpt>
      <trkpt lat="39.9493000" lon="-0.0863410">
        <ele>46.8</ele>
        <time>2019-10-12T08:28:07Z</time>
      </trkpt>
      <trkpt lat="39.9492060" lon="-0.0863490">
        <ele>46.9</ele>
        <time>2019-10-12T08:28:09Z</time>
      </trkpt>
      <trkpt lat="39.9491210" lon="-0.0863910">
        <ele>46.9</ele>
        <time>2019-10-12T08:28:11Z</time>
      </trkpt>
      <trkpt lat="39.9490460" lon="-0.0864450">
        <ele>46.9</ele>
        <time>2019-10-12T08:28:13Z</time>
      </trkpt>
      <trkpt lat="39.9489490" lon="-0.0865480">
        <ele>46.9</ele>
        <time>2019-10-12T08:28:16Z</time>
      </trkpt>
      <trkpt lat="39.9489240" lon="-0.0865910">
        <ele>47.0</ele>
        <time>2019-10-12T08:28:17Z</time>
      </trkpt>
      <trkpt lat="39.9488690" lon="-0.0866720">
        <ele>47.1</ele>
        <time>2019-10-12T08:28:19Z</time>
      </trkpt>
      <trkpt lat="39.9487710" lon="-0.0868580">
        <ele>47.6</ele>
        <time>2019-10-12T08:28:23Z</time>
      </trkpt>
      <trkpt lat="39.9486620" lon="-0.0871430">
        <ele>48.8</ele>
        <time>2019-10-12T08:28:28Z</time>
      </trkpt>
      <trkpt lat="39.9486450" lon="-0.0872010">
        <ele>49.1</ele>
        <time>2019-10-12T08:28:29Z</time>
      </trkpt>
      <trkpt lat="39.9486260" lon="-0.0873200">
        <ele>49.6</ele>
        <time>2019-10-12T08:28:31Z</time>
      </trkpt>
      <trkpt lat="39.9486010" lon="-0.0874160">
        <ele>49.7</ele>
        <time>2019-10-12T08:28:33Z</time>
      </trkpt>
      <trkpt lat="39.9485240" lon="-0.0874870">
        <ele>49.4</ele>
        <time>2019-10-12T08:28:35Z</time>
      </trkpt>
      <trkpt lat="39.9484360" lon="-0.0875520">
        <ele>49.1</ele>
        <time>2019-10-12T08:28:37Z</time>
      </trkpt>
      <trkpt lat="39.9483640" lon="-0.0876570">
        <ele>48.9</ele>
        <time>2019-10-12T08:28:39Z</time>
      </trkpt>
      <trkpt lat="39.9483100" lon="-0.0877860">
        <ele>49.3</ele>
        <time>2019-10-12T08:28:41Z</time>
      </trkpt>
      <trkpt lat="39.9480910" lon="-0.0883360">
        <ele>49.5</ele>
        <time>2019-10-12T08:28:49Z</time>
      </trkpt>
      <trkpt lat="39.9478740" lon="-0.0888570">
        <ele>48.7</ele>
        <time>2019-10-12T08:28:56Z</time>
      </trkpt>
      <trkpt lat="39.9477140" lon="-0.0892770">
        <ele>48.6</ele>
        <time>2019-10-12T08:29:02Z</time>
      </trkpt>
      <trkpt lat="39.9475690" lon="-0.0896300">
        <ele>48.6</ele>
        <time>2019-10-12T08:29:07Z</time>
      </trkpt>
      <trkpt lat="39.9474480" lon="-0.0899300">
        <ele>48.5</ele>
        <time>2019-10-12T08:29:11Z</time>
      </trkpt>
      <trkpt lat="39.9473000" lon="-0.0902950">
        <ele>48.2</ele>
        <time>2019-10-12T08:29:16Z</time>
      </trkpt>
      <trkpt lat="39.9470870" lon="-0.0908050">
        <ele>47.3</ele>
        <time>2019-10-12T08:29:23Z</time>
      </trkpt>
      <trkpt lat="39.9470330" lon="-0.0909560">
        <ele>47.0</ele>
        <time>2019-10-12T08:29:25Z</time>
      </trkpt>
      <trkpt lat="39.9469790" lon="-0.0911900">
        <ele>46.5</ele>
        <time>2019-10-12T08:29:28Z</time>
      </trkpt>
      <trkpt lat="39.9469580" lon="-0.0912610">
        <ele>46.4</ele>
        <time>2019-10-12T08:29:29Z</time>
      </trkpt>
      <trkpt lat="39.9467950" lon="-0.0917170">
        <ele>47.1</ele>
        <time>2019-10-12T08:29:36Z</time>
      </trkpt>
      <trkpt lat="39.9466610" lon="-0.0920670">
        <ele>47.7</ele>
        <time>2019-10-12T08:29:41Z</time>
      </trkpt>
      <trkpt lat="39.9466410" lon="-0.0921390">
        <ele>47.8</ele>
        <time>2019-10-12T08:29:42Z</time>
      </trkpt>
      <trkpt lat="39.9466110" lon="-0.0922020">
        <ele>47.9</ele>
        <time>2019-10-12T08:29:43Z</time>
      </trkpt>
      <trkpt lat="39.9465150" lon="-0.0922580">
        <ele>48.0</ele>
        <time>2019-10-12T08:29:45Z</time>
      </trkpt>
      <trkpt lat="39.9464220" lon="-0.0921850">
        <ele>47.7</ele>
        <time>2019-10-12T08:29:47Z</time>
      </trkpt>
      <trkpt lat="39.9462690" lon="-0.0919100">
        <ele>46.2</ele>
        <time>2019-10-12T08:29:51Z</time>
      </trkpt>
      <trkpt lat="39.9461130" lon="-0.0917200">
        <ele>45.3</ele>
        <time>2019-10-12T08:29:54Z</time>
      </trkpt>
      <trkpt lat="39.9459450" lon="-0.0915220">
        <ele>44.6</ele>
        <time>2019-10-12T08:29:57Z</time>
      </trkpt>
      <trkpt lat="39.9456240" lon="-0.0911020">
        <ele>43.2</ele>
        <time>2019-10-12T08:30:03Z</time>
      </trkpt>
      <trkpt lat="39.9453990" lon="-0.0908130">
        <ele>43.7</ele>
        <time>2019-10-12T08:30:07Z</time>
      </trkpt>
      <trkpt lat="39.9453420" lon="-0.0907420">
        <ele>43.8</ele>
        <time>2019-10-12T08:30:08Z</time>
      </trkpt>
      <trkpt lat="39.9451940" lon="-0.0905360">
        <ele>44.2</ele>
        <time>2019-10-12T08:30:11Z</time>
      </trkpt>
      <trkpt lat="39.9450950" lon="-0.0904280">
        <ele>44.4</ele>
        <time>2019-10-12T08:30:13Z</time>
      </trkpt>
      <trkpt lat="39.9449220" lon="-0.0903210">
        <ele>44.5</ele>
        <time>2019-10-12T08:30:16Z</time>
      </trkpt>
      <trkpt lat="39.9448720" lon="-0.0902550">
        <ele>44.4</ele>
        <time>2019-10-12T08:30:17Z</time>
      </trkpt>
      <trkpt lat="39.9447200" lon="-0.0900410">
        <ele>43.7</ele>
        <time>2019-10-12T08:30:20Z</time>
      </trkpt>
      <trkpt lat="39.9445570" lon="-0.0898450">
        <ele>43.0</ele>
        <time>2019-10-12T08:30:23Z</time>
      </trkpt>
      <trkpt lat="39.9443570" lon="-0.0895730">
        <ele>42.1</ele>
        <time>2019-10-12T08:30:27Z</time>
      </trkpt>
      <trkpt lat="39.9442540" lon="-0.0894620">
        <ele>41.8</ele>
        <time>2019-10-12T08:30:29Z</time>
      </trkpt>
      <trkpt lat="39.9441340" lon="-0.0894270">
        <ele>41.8</ele>
        <time>2019-10-12T08:30:31Z</time>
      </trkpt>
      <trkpt lat="39.9440720" lon="-0.0894350">
        <ele>41.8</ele>
        <time>2019-10-12T08:30:32Z</time>
      </trkpt>
      <trkpt lat="39.9440130" lon="-0.0894610">
        <ele>41.7</ele>
        <time>2019-10-12T08:30:33Z</time>
      </trkpt>
      <trkpt lat="39.9439110" lon="-0.0895660">
        <ele>41.9</ele>
        <time>2019-10-12T08:30:35Z</time>
      </trkpt>
      <trkpt lat="39.9435950" lon="-0.0900170">
        <ele>42.4</ele>
        <time>2019-10-12T08:30:42Z</time>
      </trkpt>
      <trkpt lat="39.9433050" lon="-0.0904380">
        <ele>43.4</ele>
        <time>2019-10-12T08:30:48Z</time>
      </trkpt>
      <trkpt lat="39.9432560" lon="-0.0905070">
        <ele>43.6</ele>
        <time>2019-10-12T08:30:49Z</time>
      </trkpt>
      <trkpt lat="39.9431210" lon="-0.0906860">
        <ele>44.3</ele>
        <time>2019-10-12T08:30:52Z</time>
      </trkpt>
      <trkpt lat="39.9430330" lon="-0.0907950">
        <ele>44.8</ele>
        <time>2019-10-12T08:30:54Z</time>
      </trkpt>
      <trkpt lat="39.9427780" lon="-0.0911510">
        <ele>46.4</ele>
        <time>2019-10-12T08:31:00Z</time>
      </trkpt>
      <trkpt lat="39.9424980" lon="-0.0915650">
        <ele>48.7</ele>
        <time>2019-10-12T08:31:06Z</time>
      </trkpt>
      <trkpt lat="39.9423440" lon="-0.0917820">
        <ele>48.9</ele>
        <time>2019-10-12T08:31:09Z</time>
      </trkpt>
      <trkpt lat="39.9422400" lon="-0.0919180">
        <ele>49.0</ele>
        <time>2019-10-12T08:31:11Z</time>
      </trkpt>
      <trkpt lat="39.9421330" lon="-0.0920500">
        <ele>49.3</ele>
        <time>2019-10-12T08:31:13Z</time>
      </trkpt>
      <trkpt lat="39.9419350" lon="-0.0923130">
        <ele>49.8</ele>
        <time>2019-10-12T08:31:17Z</time>
      </trkpt>
      <trkpt lat="39.9418540" lon="-0.0924380">
        <ele>49.7</ele>
        <time>2019-10-12T08:31:19Z</time>
      </trkpt>
      <trkpt lat="39.9418180" lon="-0.0925020">
        <ele>49.6</ele>
        <time>2019-10-12T08:31:20Z</time>
      </trkpt>
      <trkpt lat="39.9417890" lon="-0.0925720">
        <ele>49.4</ele>
        <time>2019-10-12T08:31:21Z</time>
      </trkpt>
      <trkpt lat="39.9417590" lon="-0.0927200">
        <ele>49.3</ele>
        <time>2019-10-12T08:31:23Z</time>
      </trkpt>
      <trkpt lat="39.9417320" lon="-0.0928610">
        <ele>49.5</ele>
        <time>2019-10-12T08:31:25Z</time>
      </trkpt>
      <trkpt lat="39.9417040" lon="-0.0929250">
        <ele>49.2</ele>
        <time>2019-10-12T08:31:26Z</time>
      </trkpt>
      <trkpt lat="39.9416730" lon="-0.0929900">
        <ele>49.0</ele>
        <time>2019-10-12T08:31:27Z</time>
      </trkpt>
      <trkpt lat="39.9415630" lon="-0.0930610">
        <ele>48.1</ele>
        <time>2019-10-12T08:31:29Z</time>
      </trkpt>
      <trkpt lat="39.9414600" lon="-0.0931850">
        <ele>47.7</ele>
        <time>2019-10-12T08:31:31Z</time>
      </trkpt>
      <trkpt lat="39.9414100" lon="-0.0932530">
        <ele>47.6</ele>
        <time>2019-10-12T08:31:32Z</time>
      </trkpt>
      <trkpt lat="39.9413040" lon="-0.0934090">
        <ele>47.4</ele>
        <time>2019-10-12T08:31:34Z</time>
      </trkpt>
      <trkpt lat="39.9411900" lon="-0.0935700">
        <ele>47.1</ele>
        <time>2019-10-12T08:31:36Z</time>
      </trkpt>
      <trkpt lat="39.9411280" lon="-0.0936440">
        <ele>47.0</ele>
        <time>2019-10-12T08:31:37Z</time>
      </trkpt>
      <trkpt lat="39.9410050" lon="-0.0937900">
        <ele>46.9</ele>
        <time>2019-10-12T08:31:39Z</time>
      </trkpt>
      <trkpt lat="39.9408880" lon="-0.0939520">
        <ele>46.4</ele>
        <time>2019-10-12T08:31:41Z</time>
      </trkpt>
      <trkpt lat="39.9408330" lon="-0.0940310">
        <ele>46.1</ele>
        <time>2019-10-12T08:31:42Z</time>
      </trkpt>
      <trkpt lat="39.9406460" lon="-0.0942200">
        <ele>45.7</ele>
        <time>2019-10-12T08:31:45Z</time>
      </trkpt>
      <trkpt lat="39.9405180" lon="-0.0943460">
        <ele>45.9</ele>
        <time>2019-10-12T08:31:47Z</time>
      </trkpt>
      <trkpt lat="39.9403410" lon="-0.0945650">
        <ele>48.1</ele>
        <time>2019-10-12T08:31:50Z</time>
      </trkpt>
      <trkpt lat="39.9402770" lon="-0.0946570">
        <ele>49.4</ele>
        <time>2019-10-12T08:31:51Z</time>
      </trkpt>
      <trkpt lat="39.9400360" lon="-0.0950360">
        <ele>49.7</ele>
        <time>2019-10-12T08:31:55Z</time>
      </trkpt>
      <trkpt lat="39.9398160" lon="-0.0953550">
        <ele>48.5</ele>
        <time>2019-10-12T08:31:59Z</time>
      </trkpt>
      <trkpt lat="39.9396630" lon="-0.0955510">
        <ele>48.7</ele>
        <time>2019-10-12T08:32:02Z</time>
      </trkpt>
      <trkpt lat="39.9395700" lon="-0.0956740">
        <ele>48.8</ele>
        <time>2019-10-12T08:32:04Z</time>
      </trkpt>
      <trkpt lat="39.9394370" lon="-0.0958560">
        <ele>49.0</ele>
        <time>2019-10-12T08:32:07Z</time>
      </trkpt>
      <trkpt lat="39.9393540" lon="-0.0959750">
        <ele>49.1</ele>
        <time>2019-10-12T08:32:09Z</time>
      </trkpt>
      <trkpt lat="39.9392740" lon="-0.0960860">
        <ele>49.3</ele>
        <time>2019-10-12T08:32:11Z</time>
      </trkpt>
      <trkpt lat="39.9391960" lon="-0.0961840">
        <ele>49.5</ele>
        <time>2019-10-12T08:32:13Z</time>
      </trkpt>
      <trkpt lat="39.9391590" lon="-0.0962350">
        <ele>49.5</ele>
        <time>2019-10-12T08:32:14Z</time>
      </trkpt>
      <trkpt lat="39.9390800" lon="-0.0963450">
        <ele>49.6</ele>
        <time>2019-10-12T08:32:16Z</time>
      </trkpt>
      <trkpt lat="39.9390010" lon="-0.0964490">
        <ele>49.5</ele>
        <time>2019-10-12T08:32:18Z</time>
      </trkpt>
      <trkpt lat="39.9389620" lon="-0.0964970">
        <ele>49.5</ele>
        <time>2019-10-12T08:32:19Z</time>
      </trkpt>
      <trkpt lat="39.9388060" lon="-0.0966970">
        <ele>49.3</ele>
        <time>2019-10-12T08:32:23Z</time>
      </trkpt>
      <trkpt lat="39.9387730" lon="-0.0967570">
        <ele>49.2</ele>
        <time>2019-10-12T08:32:24Z</time>
      </trkpt>
      <trkpt lat="39.9387020" lon="-0.0968620">
        <ele>49.1</ele>
        <time>2019-10-12T08:32:26Z</time>
      </trkpt>
      <trkpt lat="39.9385980" lon="-0.0970320">
        <ele>48.8</ele>
        <time>2019-10-12T08:32:29Z</time>
      </trkpt>
      <trkpt lat="39.9384910" lon="-0.0972020">
        <ele>48.6</ele>
        <time>2019-10-12T08:32:32Z</time>
      </trkpt>
      <trkpt lat="39.9384160" lon="-0.0973100">
        <ele>48.3</ele>
        <time>2019-10-12T08:32:34Z</time>
      </trkpt>
      <trkpt lat="39.9383410" lon="-0.0974190">
        <ele>48.1</ele>
        <time>2019-10-12T08:32:36Z</time>
      </trkpt>
      <trkpt lat="39.9382110" lon="-0.0975700">
        <ele>47.9</ele>
        <time>2019-10-12T08:32:39Z</time>
      </trkpt>
      <trkpt lat="39.9381650" lon="-0.0976190">
        <ele>47.9</ele>
        <time>2019-10-12T08:32:40Z</time>
      </trkpt>
      <trkpt lat="39.9381220" lon="-0.0976660">
        <ele>47.8</ele>
        <time>2019-10-12T08:32:41Z</time>
      </trkpt>
      <trkpt lat="39.9380170" lon="-0.0978210">
        <ele>47.7</ele>
        <time>2019-10-12T08:32:44Z</time>
      </trkpt>
      <trkpt lat="39.9378980" lon="-0.0980580">
        <ele>47.8</ele>
        <time>2019-10-12T08:32:49Z</time>
      </trkpt>
      <trkpt lat="39.9379780" lon="-0.0990360">
        <ele>49.7</ele>
        <time>2019-10-12T10:05:11Z</time>
      </trkpt>
      <trkpt lat="39.9379600" lon="-0.0990830">
        <ele>49.7</ele>
        <time>2019-10-12T10:05:13Z</time>
      </trkpt>
      <trkpt lat="39.9379350" lon="-0.0991230">
        <ele>49.7</ele>
        <time>2019-10-12T10:05:15Z</time>
      </trkpt>
      <trkpt lat="39.9378470" lon="-0.0992780">
        <ele>49.6</ele>
        <time>2019-10-12T10:05:21Z</time>
      </trkpt>
      <trkpt lat="39.9377730" lon="-0.0993810">
        <ele>49.5</ele>
        <time>2019-10-12T10:05:25Z</time>
      </trkpt>
      <trkpt lat="39.9377570" lon="-0.0994050">
        <ele>49.5</ele>
        <time>2019-10-12T10:05:26Z</time>
      </trkpt>
      <trkpt lat="39.9376310" lon="-0.0995570">
        <ele>49.5</ele>
        <time>2019-10-12T10:05:32Z</time>
      </trkpt>
      <trkpt lat="39.9375690" lon="-0.0996110">
        <ele>49.4</ele>
        <time>2019-10-12T10:05:34Z</time>
      </trkpt>
      <trkpt lat="39.9375510" lon="-0.0996580">
        <ele>49.4</ele>
        <time>2019-10-12T10:05:35Z</time>
      </trkpt>
      <trkpt lat="39.9374710" lon="-0.0998180">
        <ele>49.5</ele>
        <time>2019-10-12T10:05:39Z</time>
      </trkpt>
      <trkpt lat="39.9373780" lon="-0.0999680">
        <ele>49.6</ele>
        <time>2019-10-12T10:05:44Z</time>
      </trkpt>
      <trkpt lat="39.9372600" lon="-0.1001170">
        <ele>49.7</ele>
        <time>2019-10-12T10:05:49Z</time>
      </trkpt>
      <trkpt lat="39.9371600" lon="-0.1002320">
        <ele>49.8</ele>
        <time>2019-10-12T10:05:53Z</time>
      </trkpt>
      <trkpt lat="39.9370130" lon="-0.1003790">
        <ele>50.1</ele>
        <time>2019-10-12T10:05:58Z</time>
      </trkpt>
      <trkpt lat="39.9369250" lon="-0.1005070">
        <ele>50.2</ele>
        <time>2019-10-12T10:06:03Z</time>
      </trkpt>
      <trkpt lat="39.9368030" lon="-0.1006120">
        <ele>50.2</ele>
        <time>2019-10-12T10:06:08Z</time>
      </trkpt>
      <trkpt lat="39.9367190" lon="-0.1007330">
        <ele>50.0</ele>
        <time>2019-10-12T10:06:12Z</time>
      </trkpt>
      <trkpt lat="39.9366440" lon="-0.1008950">
        <ele>49.7</ele>
        <time>2019-10-12T10:06:17Z</time>
      </trkpt>
      <trkpt lat="39.9365830" lon="-0.1010290">
        <ele>49.6</ele>
        <time>2019-10-12T10:06:21Z</time>
      </trkpt>
      <trkpt lat="39.9365300" lon="-0.1011380">
        <ele>49.4</ele>
        <time>2019-10-12T10:06:25Z</time>
      </trkpt>
      <trkpt lat="39.9364100" lon="-0.1013050">
        <ele>49.0</ele>
        <time>2019-10-12T10:06:32Z</time>
      </trkpt>
      <trkpt lat="39.9363990" lon="-0.1013320">
        <ele>49.0</ele>
        <time>2019-10-12T10:06:33Z</time>
      </trkpt>
      <trkpt lat="39.9363760" lon="-0.1013760">
        <ele>48.9</ele>
        <time>2019-10-12T10:06:35Z</time>
      </trkpt>
      <trkpt lat="39.9363010" lon="-0.1014930">
        <ele>48.8</ele>
        <time>2019-10-12T10:06:40Z</time>
      </trkpt>
      <trkpt lat="39.9362090" lon="-0.1016190">
        <ele>48.7</ele>
        <time>2019-10-12T10:06:45Z</time>
      </trkpt>
      <trkpt lat="39.9361020" lon="-0.1017130">
        <ele>48.6</ele>
        <time>2019-10-12T10:06:50Z</time>
      </trkpt>
      <trkpt lat="39.9359760" lon="-0.1018850">
        <ele>48.6</ele>
        <time>2019-10-12T10:06:56Z</time>
      </trkpt>
      <trkpt lat="39.9358630" lon="-0.1020240">
        <ele>48.6</ele>
        <time>2019-10-12T10:07:02Z</time>
      </trkpt>
      <trkpt lat="39.9358370" lon="-0.1020290">
        <ele>48.6</ele>
        <time>2019-10-12T10:07:04Z</time>
      </trkpt>
      <trkpt lat="39.9358230" lon="-0.1020290">
        <ele>48.6</ele>
        <time>2019-10-12T10:07:06Z</time>
      </trkpt>
      <trkpt lat="39.9358150" lon="-0.1020190">
        <ele>48.6</ele>
        <time>2019-10-12T10:07:07Z</time>
      </trkpt>
      <trkpt lat="39.9357000" lon="-0.1019280">
        <ele>48.7</ele>
        <time>2019-10-12T10:07:12Z</time>
      </trkpt>
      <trkpt lat="39.9355710" lon="-0.1017830">
        <ele>48.8</ele>
        <time>2019-10-12T10:07:19Z</time>
      </trkpt>
      <trkpt lat="39.9354650" lon="-0.1017010">
        <ele>48.9</ele>
        <time>2019-10-12T10:07:25Z</time>
      </trkpt>
      <trkpt lat="39.9354080" lon="-0.1017010">
        <ele>48.9</ele>
        <time>2019-10-12T10:07:29Z</time>
      </trkpt>
      <trkpt lat="39.9353970" lon="-0.1017230">
        <ele>49.0</ele>
        <time>2019-10-12T10:07:30Z</time>
      </trkpt>
      <trkpt lat="39.9353020" lon="-0.1019100">
        <ele>49.0</ele>
        <time>2019-10-12T10:07:36Z</time>
      </trkpt>
      <trkpt lat="39.9351590" lon="-0.1021300">
        <ele>48.8</ele>
        <time>2019-10-12T10:07:42Z</time>
      </trkpt>
      <trkpt lat="39.9351310" lon="-0.1021690">
        <ele>48.8</ele>
        <time>2019-10-12T10:07:43Z</time>
      </trkpt>
      <trkpt lat="39.9349570" lon="-0.1023310">
        <ele>48.6</ele>
        <time>2019-10-12T10:07:48Z</time>
      </trkpt>
      <trkpt lat="39.9348510" lon="-0.1024890">
        <ele>48.2</ele>
        <time>2019-10-12T10:07:52Z</time>
      </trkpt>
      <trkpt lat="39.9348280" lon="-0.1025350">
        <ele>48.1</ele>
        <time>2019-10-12T10:07:53Z</time>
      </trkpt>
      <trkpt lat="39.9346510" lon="-0.1027170">
        <ele>47.5</ele>
        <time>2019-10-12T10:07:58Z</time>
      </trkpt>
      <trkpt lat="39.9344830" lon="-0.1029930">
        <ele>47.0</ele>
        <time>2019-10-12T10:08:04Z</time>
      </trkpt>
      <trkpt lat="39.9343320" lon="-0.1032510">
        <ele>47.0</ele>
        <time>2019-10-12T10:08:11Z</time>
      </trkpt>
      <trkpt lat="39.9343110" lon="-0.1032970">
        <ele>47.0</ele>
        <time>2019-10-12T10:08:14Z</time>
      </trkpt>
      <trkpt lat="39.9343110" lon="-0.1032970">
        <ele>47.0</ele>
        <time>2019-10-12T10:08:50Z</time>
      </trkpt>
      <trkpt lat="39.9343110" lon="-0.1032970">
        <ele>47.0</ele>
        <time>2019-10-12T10:08:51Z</time>
      </trkpt>
      <trkpt lat="39.9342340" lon="-0.1033370">
        <ele>47.1</ele>
        <time>2019-10-12T10:08:55Z</time>
      </trkpt>
      <trkpt lat="39.9340530" lon="-0.1034820">
        <ele>46.8</ele>
        <time>2019-10-12T10:09:00Z</time>
      </trkpt>
      <trkpt lat="39.9338290" lon="-0.1037580">
        <ele>46.1</ele>
        <time>2019-10-12T10:09:06Z</time>
      </trkpt>
      <trkpt lat="39.9335560" lon="-0.1041240">
        <ele>46.1</ele>
        <time>2019-10-12T10:09:13Z</time>
      </trkpt>
      <trkpt lat="39.9332660" lon="-0.1045420">
        <ele>46.9</ele>
        <time>2019-10-12T10:09:21Z</time>
      </trkpt>
      <trkpt lat="39.9331170" lon="-0.1047990">
        <ele>46.5</ele>
        <time>2019-10-12T10:09:26Z</time>
      </trkpt>
      <trkpt lat="39.9330470" lon="-0.1049040">
        <ele>46.4</ele>
        <time>2019-10-12T10:09:28Z</time>
      </trkpt>
      <trkpt lat="39.9329720" lon="-0.1050100">
        <ele>46.3</ele>
        <time>2019-10-12T10:09:30Z</time>
      </trkpt>
      <trkpt lat="39.9329340" lon="-0.1050670">
        <ele>46.3</ele>
        <time>2019-10-12T10:09:31Z</time>
      </trkpt>
      <trkpt lat="39.9327920" lon="-0.1052280">
        <ele>46.2</ele>
        <time>2019-10-12T10:09:34Z</time>
      </trkpt>
      <trkpt lat="39.9327060" lon="-0.1053490">
        <ele>46.1</ele>
        <time>2019-10-12T10:09:36Z</time>
      </trkpt>
      <trkpt lat="39.9326650" lon="-0.1054080">
        <ele>46.0</ele>
        <time>2019-10-12T10:09:37Z</time>
      </trkpt>
      <trkpt lat="39.9325800" lon="-0.1055290">
        <ele>45.9</ele>
        <time>2019-10-12T10:09:39Z</time>
      </trkpt>
      <trkpt lat="39.9325380" lon="-0.1055880">
        <ele>45.8</ele>
        <time>2019-10-12T10:09:40Z</time>
      </trkpt>
      <trkpt lat="39.9322290" lon="-0.1060270">
        <ele>46.7</ele>
        <time>2019-10-12T10:09:47Z</time>
      </trkpt>
      <trkpt lat="39.9321890" lon="-0.1060960">
        <ele>46.9</ele>
        <time>2019-10-12T10:09:48Z</time>
      </trkpt>
      <trkpt lat="39.9319380" lon="-0.1064840">
        <ele>48.1</ele>
        <time>2019-10-12T10:09:54Z</time>
      </trkpt>
      <trkpt lat="39.9317410" lon="-0.1068130">
        <ele>48.1</ele>
        <time>2019-10-12T10:09:59Z</time>
      </trkpt>
      <trkpt lat="39.9316540" lon="-0.1069370">
        <ele>47.9</ele>
        <time>2019-10-12T10:10:01Z</time>
      </trkpt>
      <trkpt lat="39.9315730" lon="-0.1070640">
        <ele>47.5</ele>
        <time>2019-10-12T10:10:03Z</time>
      </trkpt>
      <trkpt lat="39.9314620" lon="-0.1072530">
        <ele>47.0</ele>
        <time>2019-10-12T10:10:06Z</time>
      </trkpt>
      <trkpt lat="39.9314300" lon="-0.1073160">
        <ele>46.9</ele>
        <time>2019-10-12T10:10:07Z</time>
      </trkpt>
      <trkpt lat="39.9313660" lon="-0.1074410">
        <ele>46.7</ele>
        <time>2019-10-12T10:10:09Z</time>
      </trkpt>
      <trkpt lat="39.9312820" lon="-0.1075410">
        <ele>46.6</ele>
        <time>2019-10-12T10:10:11Z</time>
      </trkpt>
      <trkpt lat="39.9312170" lon="-0.1076460">
        <ele>46.5</ele>
        <time>2019-10-12T10:10:13Z</time>
      </trkpt>
      <trkpt lat="39.9312070" lon="-0.1077130">
        <ele>46.0</ele>
        <time>2019-10-12T10:10:14Z</time>
      </trkpt>
      <trkpt lat="39.9312060" lon="-0.1077670">
        <ele>46.0</ele>
        <time>2019-10-12T10:10:15Z</time>
      </trkpt>
      <trkpt lat="39.9312260" lon="-0.1078030">
        <ele>45.9</ele>
        <time>2019-10-12T10:10:16Z</time>
      </trkpt>
      <trkpt lat="39.9314100" lon="-0.1080490">
        <ele>45.1</ele>
        <time>2019-10-12T10:10:21Z</time>
      </trkpt>
      <trkpt lat="39.9317400" lon="-0.1084870">
        <ele>43.8</ele>
        <time>2019-10-12T10:10:29Z</time>
      </trkpt>
      <trkpt lat="39.9318240" lon="-0.1085860">
        <ele>43.8</ele>
        <time>2019-10-12T10:10:31Z</time>
      </trkpt>
      <trkpt lat="39.9319750" lon="-0.1086910">
        <ele>44.1</ele>
        <time>2019-10-12T10:10:34Z</time>
      </trkpt>
      <trkpt lat="39.9320760" lon="-0.1087500">
        <ele>44.3</ele>
        <time>2019-10-12T10:10:36Z</time>
      </trkpt>
      <trkpt lat="39.9321780" lon="-0.1088010">
        <ele>44.7</ele>
        <time>2019-10-12T10:10:38Z</time>
      </trkpt>
      <trkpt lat="39.9322330" lon="-0.1088130">
        <ele>44.8</ele>
        <time>2019-10-12T10:10:39Z</time>
      </trkpt>
      <trkpt lat="39.9325140" lon="-0.1088530">
        <ele>45.3</ele>
        <time>2019-10-12T10:10:44Z</time>
      </trkpt>
      <trkpt lat="39.9325690" lon="-0.1088690">
        <ele>45.3</ele>
        <time>2019-10-12T10:10:45Z</time>
      </trkpt>
      <trkpt lat="39.9330520" lon="-0.1089460">
        <ele>45.6</ele>
        <time>2019-10-12T10:10:54Z</time>
      </trkpt>
      <trkpt lat="39.9334260" lon="-0.1090280">
        <ele>46.0</ele>
        <time>2019-10-12T10:11:01Z</time>
      </trkpt>
      <trkpt lat="39.9338060" lon="-0.1090730">
        <ele>46.6</ele>
        <time>2019-10-12T10:11:08Z</time>
      </trkpt>
      <trkpt lat="39.9341990" lon="-0.1091310">
        <ele>46.9</ele>
        <time>2019-10-12T10:11:15Z</time>
      </trkpt>
      <trkpt lat="39.9345800" lon="-0.1092170">
        <ele>47.0</ele>
        <time>2019-10-12T10:11:22Z</time>
      </trkpt>
      <trkpt lat="39.9349890" lon="-0.1092840">
        <ele>46.8</ele>
        <time>2019-10-12T10:11:29Z</time>
      </trkpt>
      <trkpt lat="39.9354490" lon="-0.1093570">
        <ele>46.3</ele>
        <time>2019-10-12T10:11:37Z</time>
      </trkpt>
      <trkpt lat="39.9357880" lon="-0.1093900">
        <ele>46.0</ele>
        <time>2019-10-12T10:11:43Z</time>
      </trkpt>
      <trkpt lat="39.9358460" lon="-0.1093940">
        <ele>46.0</ele>
        <time>2019-10-12T10:11:44Z</time>
      </trkpt>
      <trkpt lat="39.9360140" lon="-0.1093990">
        <ele>45.8</ele>
        <time>2019-10-12T10:11:47Z</time>
      </trkpt>
      <trkpt lat="39.9361110" lon="-0.1094500">
        <ele>45.8</ele>
        <time>2019-10-12T10:11:49Z</time>
      </trkpt>
      <trkpt lat="39.9361300" lon="-0.1095770">
        <ele>45.6</ele>
        <time>2019-10-12T10:11:51Z</time>
      </trkpt>
      <trkpt lat="39.9360610" lon="-0.1096680">
        <ele>45.6</ele>
        <time>2019-10-12T10:11:53Z</time>
      </trkpt>
      <trkpt lat="39.9358880" lon="-0.1097000">
        <ele>45.6</ele>
        <time>2019-10-12T10:11:56Z</time>
      </trkpt>
      <trkpt lat="39.9357870" lon="-0.1097740">
        <ele>45.3</ele>
        <time>2019-10-12T10:11:58Z</time>
      </trkpt>
      <trkpt lat="39.9357460" lon="-0.1098280">
        <ele>45.2</ele>
        <time>2019-10-12T10:11:59Z</time>
      </trkpt>
      <trkpt lat="39.9357070" lon="-0.1098810">
        <ele>45.1</ele>
        <time>2019-10-12T10:12:00Z</time>
      </trkpt>
      <trkpt lat="39.9355500" lon="-0.1101140">
        <ele>44.8</ele>
        <time>2019-10-12T10:12:04Z</time>
      </trkpt>
      <trkpt lat="39.9352430" lon="-0.1105520">
        <ele>44.5</ele>
        <time>2019-10-12T10:12:12Z</time>
      </trkpt>
      <trkpt lat="39.9351440" lon="-0.1107000">
        <ele>44.4</ele>
        <time>2019-10-12T10:12:15Z</time>
      </trkpt>
      <trkpt lat="39.9351100" lon="-0.1108220">
        <ele>44.5</ele>
        <time>2019-10-12T10:12:17Z</time>
      </trkpt>
      <trkpt lat="39.9351420" lon="-0.1111080">
        <ele>44.4</ele>
        <time>2019-10-12T10:12:21Z</time>
      </trkpt>
      <trkpt lat="39.9351860" lon="-0.1116110">
        <ele>45.6</ele>
        <time>2019-10-12T10:12:28Z</time>
      </trkpt>
      <trkpt lat="39.9352540" lon="-0.1121320">
        <ele>48.2</ele>
        <time>2019-10-12T10:12:35Z</time>
      </trkpt>
      <trkpt lat="39.9353410" lon="-0.1128150">
        <ele>51.3</ele>
        <time>2019-10-12T10:12:44Z</time>
      </trkpt>
      <trkpt lat="39.9354170" lon="-0.1133440">
        <ele>51.7</ele>
        <time>2019-10-12T10:12:51Z</time>
      </trkpt>
      <trkpt lat="39.9355180" lon="-0.1139480">
        <ele>52.4</ele>
        <time>2019-10-12T10:12:59Z</time>
      </trkpt>
      <trkpt lat="39.9356000" lon="-0.1143810">
        <ele>52.1</ele>
        <time>2019-10-12T10:13:05Z</time>
      </trkpt>
      <trkpt lat="39.9356200" lon="-0.1145300">
        <ele>51.7</ele>
        <time>2019-10-12T10:13:07Z</time>
      </trkpt>
      <trkpt lat="39.9356380" lon="-0.1148290">
        <ele>50.3</ele>
        <time>2019-10-12T10:13:11Z</time>
      </trkpt>
      <trkpt lat="39.9356620" lon="-0.1154530">
        <ele>49.0</ele>
        <time>2019-10-12T10:13:19Z</time>
      </trkpt>
      <trkpt lat="39.9356790" lon="-0.1160220">
        <ele>50.3</ele>
        <time>2019-10-12T10:13:26Z</time>
      </trkpt>
      <trkpt lat="39.9357060" lon="-0.1166550">
        <ele>49.9</ele>
        <time>2019-10-12T10:13:34Z</time>
      </trkpt>
      <trkpt lat="39.9357590" lon="-0.1171250">
        <ele>50.0</ele>
        <time>2019-10-12T10:13:40Z</time>
      </trkpt>
      <trkpt lat="39.9358910" lon="-0.1177150">
        <ele>49.3</ele>
        <time>2019-10-12T10:13:47Z</time>
      </trkpt>
      <trkpt lat="39.9359940" lon="-0.1182200">
        <ele>48.5</ele>
        <time>2019-10-12T10:13:53Z</time>
      </trkpt>
      <trkpt lat="39.9360120" lon="-0.1183030">
        <ele>48.5</ele>
        <time>2019-10-12T10:13:54Z</time>
      </trkpt>
      <trkpt lat="39.9361260" lon="-0.1189380">
        <ele>48.5</ele>
        <time>2019-10-12T10:14:01Z</time>
      </trkpt>
      <trkpt lat="39.9362120" lon="-0.1197020">
        <ele>48.5</ele>
        <time>2019-10-12T10:14:09Z</time>
      </trkpt>
      <trkpt lat="39.9361940" lon="-0.1203060">
        <ele>48.5</ele>
        <time>2019-10-12T10:14:15Z</time>
      </trkpt>
      <trkpt lat="39.9361420" lon="-0.1210000">
        <ele>48.4</ele>
        <time>2019-10-12T10:14:22Z</time>
      </trkpt>
      <trkpt lat="39.9360800" lon="-0.1216850">
        <ele>48.3</ele>
        <time>2019-10-12T10:14:29Z</time>
      </trkpt>
      <trkpt lat="39.9360710" lon="-0.1217820">
        <ele>48.3</ele>
        <time>2019-10-12T10:14:30Z</time>
      </trkpt>
      <trkpt lat="39.9359930" lon="-0.1224460">
        <ele>49.2</ele>
        <time>2019-10-12T10:14:37Z</time>
      </trkpt>
      <trkpt lat="39.9359130" lon="-0.1230460">
        <ele>49.2</ele>
        <time>2019-10-12T10:14:44Z</time>
      </trkpt>
      <trkpt lat="39.9358830" lon="-0.1234650">
        <ele>49.7</ele>
        <time>2019-10-12T10:14:49Z</time>
      </trkpt>
      <trkpt lat="39.9358220" lon="-0.1241540">
        <ele>51.0</ele>
        <time>2019-10-12T10:14:57Z</time>
      </trkpt>
      <trkpt lat="39.9357650" lon="-0.1246700">
        <ele>51.3</ele>
        <time>2019-10-12T10:15:03Z</time>
      </trkpt>
      <trkpt lat="39.9357170" lon="-0.1253850">
        <ele>51.6</ele>
        <time>2019-10-12T10:15:11Z</time>
      </trkpt>
      <trkpt lat="39.9356840" lon="-0.1260310">
        <ele>51.7</ele>
        <time>2019-10-12T10:15:18Z</time>
      </trkpt>
      <trkpt lat="39.9356590" lon="-0.1267820">
        <ele>51.6</ele>
        <time>2019-10-12T10:15:26Z</time>
      </trkpt>
      <trkpt lat="39.9356460" lon="-0.1275500">
        <ele>52.1</ele>
        <time>2019-10-12T10:15:34Z</time>
      </trkpt>
      <trkpt lat="39.9356450" lon="-0.1276470">
        <ele>52.2</ele>
        <time>2019-10-12T10:15:35Z</time>
      </trkpt>
      <trkpt lat="39.9356670" lon="-0.1283910">
        <ele>52.5</ele>
        <time>2019-10-12T10:15:43Z</time>
      </trkpt>
      <trkpt lat="39.9356970" lon="-0.1291790">
        <ele>52.9</ele>
        <time>2019-10-12T10:15:52Z</time>
      </trkpt>
      <trkpt lat="39.9357020" lon="-0.1292630">
        <ele>52.9</ele>
        <time>2019-10-12T10:15:53Z</time>
      </trkpt>
      <trkpt lat="39.9357330" lon="-0.1298340">
        <ele>53.3</ele>
        <time>2019-10-12T10:16:00Z</time>
      </trkpt>
      <trkpt lat="39.9357730" lon="-0.1304790">
        <ele>53.7</ele>
        <time>2019-10-12T10:16:08Z</time>
      </trkpt>
      <trkpt lat="39.9357900" lon="-0.1309460">
        <ele>53.2</ele>
        <time>2019-10-12T10:16:14Z</time>
      </trkpt>
      <trkpt lat="39.9357930" lon="-0.1311840">
        <ele>52.9</ele>
        <time>2019-10-12T10:16:17Z</time>
      </trkpt>
      <trkpt lat="39.9358020" lon="-0.1313450">
        <ele>52.8</ele>
        <time>2019-10-12T10:16:19Z</time>
      </trkpt>
      <trkpt lat="39.9358010" lon="-0.1319240">
        <ele>52.7</ele>
        <time>2019-10-12T10:16:26Z</time>
      </trkpt>
      <trkpt lat="39.9357790" lon="-0.1320960">
        <ele>53.0</ele>
        <time>2019-10-12T10:16:28Z</time>
      </trkpt>
      <trkpt lat="39.9357290" lon="-0.1322620">
        <ele>53.3</ele>
        <time>2019-10-12T10:16:30Z</time>
      </trkpt>
      <trkpt lat="39.9355450" lon="-0.1326020">
        <ele>53.4</ele>
        <time>2019-10-12T10:16:35Z</time>
      </trkpt>
      <trkpt lat="39.9354310" lon="-0.1327820">
        <ele>53.6</ele>
        <time>2019-10-12T10:16:38Z</time>
      </trkpt>
      <trkpt lat="39.9353540" lon="-0.1329050">
        <ele>53.7</ele>
        <time>2019-10-12T10:16:40Z</time>
      </trkpt>
      <trkpt lat="39.9352870" lon="-0.1330490">
        <ele>54.1</ele>
        <time>2019-10-12T10:16:42Z</time>
      </trkpt>
      <trkpt lat="39.9352410" lon="-0.1332080">
        <ele>54.7</ele>
        <time>2019-10-12T10:16:44Z</time>
      </trkpt>
      <trkpt lat="39.9352140" lon="-0.1333690">
        <ele>55.3</ele>
        <time>2019-10-12T10:16:46Z</time>
      </trkpt>
      <trkpt lat="39.9352050" lon="-0.1335340">
        <ele>56.1</ele>
        <time>2019-10-12T10:16:48Z</time>
      </trkpt>
      <trkpt lat="39.9352100" lon="-0.1336140">
        <ele>56.6</ele>
        <time>2019-10-12T10:16:49Z</time>
      </trkpt>
      <trkpt lat="39.9352270" lon="-0.1337800">
        <ele>56.5</ele>
        <time>2019-10-12T10:16:51Z</time>
      </trkpt>
      <trkpt lat="39.9352600" lon="-0.1340320">
        <ele>56.0</ele>
        <time>2019-10-12T10:16:54Z</time>
      </trkpt>
      <trkpt lat="39.9353320" lon="-0.1346290">
        <ele>54.2</ele>
        <time>2019-10-12T10:17:01Z</time>
      </trkpt>
      <trkpt lat="39.9354050" lon="-0.1352970">
        <ele>54.2</ele>
        <time>2019-10-12T10:17:07Z</time>
      </trkpt>
      <trkpt lat="39.9354260" lon="-0.1360340">
        <ele>55.9</ele>
        <time>2019-10-12T10:17:13Z</time>
      </trkpt>
      <trkpt lat="39.9353560" lon="-0.1367240">
        <ele>55.7</ele>
        <time>2019-10-12T10:17:19Z</time>
      </trkpt>
      <trkpt lat="39.9352320" lon="-0.1375240">
        <ele>55.5</ele>
        <time>2019-10-12T10:17:26Z</time>
      </trkpt>
      <trkpt lat="39.9352070" lon="-0.1382020">
        <ele>55.4</ele>
        <time>2019-10-12T10:17:32Z</time>
      </trkpt>
      <trkpt lat="39.9351780" lon="-0.1388340">
        <ele>55.4</ele>
        <time>2019-10-12T10:17:38Z</time>
      </trkpt>
      <trkpt lat="39.9351210" lon="-0.1395220">
        <ele>55.2</ele>
        <time>2019-10-12T10:17:45Z</time>
      </trkpt>
      <trkpt lat="39.9351120" lon="-0.1396240">
        <ele>55.2</ele>
        <time>2019-10-12T10:17:46Z</time>
      </trkpt>
      <trkpt lat="39.9350530" lon="-0.1403600">
        <ele>55.2</ele>
        <time>2019-10-12T10:17:53Z</time>
      </trkpt>
      <trkpt lat="39.9350380" lon="-0.1404660">
        <ele>55.2</ele>
        <time>2019-10-12T10:17:54Z</time>
      </trkpt>
      <trkpt lat="39.9348950" lon="-0.1411910">
        <ele>55.3</ele>
        <time>2019-10-12T10:18:01Z</time>
      </trkpt>
      <trkpt lat="39.9347510" lon="-0.1418620">
        <ele>55.2</ele>
        <time>2019-10-12T10:18:08Z</time>
      </trkpt>
      <trkpt lat="39.9346730" lon="-0.1422330">
        <ele>54.5</ele>
        <time>2019-10-12T10:18:12Z</time>
      </trkpt>
      <trkpt lat="39.9346380" lon="-0.1423210">
        <ele>54.1</ele>
        <time>2019-10-12T10:18:13Z</time>
      </trkpt>
      <trkpt lat="39.9345890" lon="-0.1424040">
        <ele>53.7</ele>
        <time>2019-10-12T10:18:14Z</time>
      </trkpt>
      <trkpt lat="39.9344590" lon="-0.1425530">
        <ele>52.9</ele>
        <time>2019-10-12T10:18:16Z</time>
      </trkpt>
      <trkpt lat="39.9343000" lon="-0.1427760">
        <ele>52.7</ele>
        <time>2019-10-12T10:18:19Z</time>
      </trkpt>
      <trkpt lat="39.9342750" lon="-0.1428590">
        <ele>52.8</ele>
        <time>2019-10-12T10:18:20Z</time>
      </trkpt>
      <trkpt lat="39.9342690" lon="-0.1429440">
        <ele>53.1</ele>
        <time>2019-10-12T10:18:21Z</time>
      </trkpt>
      <trkpt lat="39.9343080" lon="-0.1430960">
        <ele>53.5</ele>
        <time>2019-10-12T10:18:23Z</time>
      </trkpt>
      <trkpt lat="39.9343740" lon="-0.1433130">
        <ele>53.9</ele>
        <time>2019-10-12T10:18:26Z</time>
      </trkpt>
      <trkpt lat="39.9344200" lon="-0.1436140">
        <ele>54.6</ele>
        <time>2019-10-12T10:18:30Z</time>
      </trkpt>
      <trkpt lat="39.9344530" lon="-0.1441030">
        <ele>55.3</ele>
        <time>2019-10-12T10:18:37Z</time>
      </trkpt>
      <trkpt lat="39.9344830" lon="-0.1447450">
        <ele>55.9</ele>
        <time>2019-10-12T10:18:46Z</time>
      </trkpt>
      <trkpt lat="39.9344880" lon="-0.1453460">
        <ele>56.2</ele>
        <time>2019-10-12T10:18:54Z</time>
      </trkpt>
      <trkpt lat="39.9345100" lon="-0.1458130">
        <ele>56.8</ele>
        <time>2019-10-12T10:19:00Z</time>
      </trkpt>
      <trkpt lat="39.9345340" lon="-0.1462860">
        <ele>57.0</ele>
        <time>2019-10-12T10:19:06Z</time>
      </trkpt>
      <trkpt lat="39.9345480" lon="-0.1469850">
        <ele>58.1</ele>
        <time>2019-10-12T10:19:15Z</time>
      </trkpt>
      <trkpt lat="39.9345010" lon="-0.1475280">
        <ele>59.0</ele>
        <time>2019-10-12T10:19:22Z</time>
      </trkpt>
      <trkpt lat="39.9344020" lon="-0.1483020">
        <ele>59.3</ele>
        <time>2019-10-12T10:19:32Z</time>
      </trkpt>
      <trkpt lat="39.9343140" lon="-0.1487810">
        <ele>59.9</ele>
        <time>2019-10-12T10:19:38Z</time>
      </trkpt>
      <trkpt lat="39.9341950" lon="-0.1494140">
        <ele>60.7</ele>
        <time>2019-10-12T10:19:46Z</time>
      </trkpt>
      <trkpt lat="39.9340810" lon="-0.1500210">
        <ele>60.7</ele>
        <time>2019-10-12T10:19:54Z</time>
      </trkpt>
      <trkpt lat="39.9339350" lon="-0.1506090">
        <ele>61.2</ele>
        <time>2019-10-12T10:20:02Z</time>
      </trkpt>
      <trkpt lat="39.9337390" lon="-0.1512920">
        <ele>61.1</ele>
        <time>2019-10-12T10:20:11Z</time>
      </trkpt>
      <trkpt lat="39.9335600" lon="-0.1518190">
        <ele>60.7</ele>
        <time>2019-10-12T10:20:18Z</time>
      </trkpt>
      <trkpt lat="39.9333280" lon="-0.1525040">
        <ele>60.7</ele>
        <time>2019-10-12T10:20:27Z</time>
      </trkpt>
      <trkpt lat="39.9331790" lon="-0.1529330">
        <ele>61.6</ele>
        <time>2019-10-12T10:20:33Z</time>
      </trkpt>
      <trkpt lat="39.9329200" lon="-0.1535940">
        <ele>61.4</ele>
        <time>2019-10-12T10:20:42Z</time>
      </trkpt>
      <trkpt lat="39.9326750" lon="-0.1541940">
        <ele>61.7</ele>
        <time>2019-10-12T10:20:50Z</time>
      </trkpt>
      <trkpt lat="39.9323990" lon="-0.1548850">
        <ele>62.4</ele>
        <time>2019-10-12T10:20:59Z</time>
      </trkpt>
      <trkpt lat="39.9321610" lon="-0.1554380">
        <ele>61.9</ele>
        <time>2019-10-12T10:21:06Z</time>
      </trkpt>
      <trkpt lat="39.9320900" lon="-0.1556090">
        <ele>60.7</ele>
        <time>2019-10-12T10:21:08Z</time>
      </trkpt>
      <trkpt lat="39.9320420" lon="-0.1558060">
        <ele>59.5</ele>
        <time>2019-10-12T10:21:10Z</time>
      </trkpt>
      <trkpt lat="39.9319860" lon="-0.1562990">
        <ele>58.8</ele>
        <time>2019-10-12T10:21:15Z</time>
      </trkpt>
      <trkpt lat="39.9318910" lon="-0.1569970">
        <ele>59.2</ele>
        <time>2019-10-12T10:21:23Z</time>
      </trkpt>
      <trkpt lat="39.9318310" lon="-0.1573900">
        <ele>59.9</ele>
        <time>2019-10-12T10:21:29Z</time>
      </trkpt>
      <trkpt lat="39.9318090" lon="-0.1575040">
        <ele>60.0</ele>
        <time>2019-10-12T10:21:31Z</time>
      </trkpt>
      <trkpt lat="39.9317740" lon="-0.1577500">
        <ele>60.5</ele>
        <time>2019-10-12T10:21:35Z</time>
      </trkpt>
      <trkpt lat="39.9317310" lon="-0.1581730">
        <ele>61.1</ele>
        <time>2019-10-12T10:21:41Z</time>
      </trkpt>
      <trkpt lat="39.9316850" lon="-0.1587590">
        <ele>61.6</ele>
        <time>2019-10-12T10:21:48Z</time>
      </trkpt>
      <trkpt lat="39.9315910" lon="-0.1595200">
        <ele>62.1</ele>
        <time>2019-10-12T10:21:57Z</time>
      </trkpt>
      <trkpt lat="39.9314920" lon="-0.1602100">
        <ele>62.6</ele>
        <time>2019-10-12T10:22:05Z</time>
      </trkpt>
      <trkpt lat="39.9314210" lon="-0.1607800">
        <ele>63.1</ele>
        <time>2019-10-12T10:22:11Z</time>
      </trkpt>
      <trkpt lat="39.9313200" lon="-0.1615490">
        <ele>63.8</ele>
        <time>2019-10-12T10:22:19Z</time>
      </trkpt>
      <trkpt lat="39.9312930" lon="-0.1617360">
        <ele>63.9</ele>
        <time>2019-10-12T10:22:21Z</time>
      </trkpt>
      <trkpt lat="39.9311600" lon="-0.1623750">
        <ele>63.9</ele>
        <time>2019-10-12T10:22:28Z</time>
      </trkpt>
      <trkpt lat="39.9310090" lon="-0.1630730">
        <ele>63.9</ele>
        <time>2019-10-12T10:22:36Z</time>
      </trkpt>
      <trkpt lat="39.9309900" lon="-0.1631610">
        <ele>63.9</ele>
        <time>2019-10-12T10:22:37Z</time>
      </trkpt>
      <trkpt lat="39.9308670" lon="-0.1637850">
        <ele>63.9</ele>
        <time>2019-10-12T10:22:44Z</time>
      </trkpt>
      <trkpt lat="39.9307000" lon="-0.1644880">
        <ele>63.8</ele>
        <time>2019-10-12T10:22:52Z</time>
      </trkpt>
      <trkpt lat="39.9306750" lon="-0.1645750">
        <ele>63.8</ele>
        <time>2019-10-12T10:22:53Z</time>
      </trkpt>
      <trkpt lat="39.9304710" lon="-0.1652820">
        <ele>63.9</ele>
        <time>2019-10-12T10:23:01Z</time>
      </trkpt>
      <trkpt lat="39.9304150" lon="-0.1656640">
        <ele>65.1</ele>
        <time>2019-10-12T10:23:05Z</time>
      </trkpt>
      <trkpt lat="39.9304150" lon="-0.1658620">
        <ele>66.0</ele>
        <time>2019-10-12T10:23:07Z</time>
      </trkpt>
      <trkpt lat="39.9304900" lon="-0.1666330">
        <ele>66.9</ele>
        <time>2019-10-12T10:23:15Z</time>
      </trkpt>
      <trkpt lat="39.9304960" lon="-0.1668280">
        <ele>66.9</ele>
        <time>2019-10-12T10:23:17Z</time>
      </trkpt>
      <trkpt lat="39.9304670" lon="-0.1670160">
        <ele>66.9</ele>
        <time>2019-10-12T10:23:19Z</time>
      </trkpt>
      <trkpt lat="39.9304170" lon="-0.1671940">
        <ele>67.1</ele>
        <time>2019-10-12T10:23:21Z</time>
      </trkpt>
      <trkpt lat="39.9302170" lon="-0.1678580">
        <ele>68.9</ele>
        <time>2019-10-12T10:23:29Z</time>
      </trkpt>
      <trkpt lat="39.9301070" lon="-0.1684470">
        <ele>68.9</ele>
        <time>2019-10-12T10:23:36Z</time>
      </trkpt>
      <trkpt lat="39.9299640" lon="-0.1691610">
        <ele>68.9</ele>
        <time>2019-10-12T10:23:45Z</time>
      </trkpt>
      <trkpt lat="39.9298230" lon="-0.1698680">
        <ele>69.0</ele>
        <time>2019-10-12T10:23:54Z</time>
      </trkpt>
      <trkpt lat="39.9297960" lon="-0.1700250">
        <ele>69.0</ele>
        <time>2019-10-12T10:23:56Z</time>
      </trkpt>
      <trkpt lat="39.9297870" lon="-0.1702660">
        <ele>69.3</ele>
        <time>2019-10-12T10:23:59Z</time>
      </trkpt>
      <trkpt lat="39.9297540" lon="-0.1709380">
        <ele>71.0</ele>
        <time>2019-10-12T10:24:07Z</time>
      </trkpt>
      <trkpt lat="39.9296840" lon="-0.1716210">
        <ele>71.0</ele>
        <time>2019-10-12T10:24:15Z</time>
      </trkpt>
      <trkpt lat="39.9296120" lon="-0.1722870">
        <ele>71.0</ele>
        <time>2019-10-12T10:24:23Z</time>
      </trkpt>
      <trkpt lat="39.9295090" lon="-0.1729200">
        <ele>72.0</ele>
        <time>2019-10-12T10:24:31Z</time>
      </trkpt>
      <trkpt lat="39.9293910" lon="-0.1735390">
        <ele>73.2</ele>
        <time>2019-10-12T10:24:39Z</time>
      </trkpt>
      <trkpt lat="39.9293000" lon="-0.1742410">
        <ele>74.0</ele>
        <time>2019-10-12T10:24:48Z</time>
      </trkpt>
      <trkpt lat="39.9292920" lon="-0.1743170">
        <ele>74.0</ele>
        <time>2019-10-12T10:24:49Z</time>
      </trkpt>
      <trkpt lat="39.9292050" lon="-0.1750130">
        <ele>74.0</ele>
        <time>2019-10-12T10:24:58Z</time>
      </trkpt>
      <trkpt lat="39.9291170" lon="-0.1757560">
        <ele>74.9</ele>
        <time>2019-10-12T10:25:07Z</time>
      </trkpt>
      <trkpt lat="39.9290730" lon="-0.1763790">
        <ele>75.7</ele>
        <time>2019-10-12T10:25:15Z</time>
      </trkpt>
      <trkpt lat="39.9290490" lon="-0.1769320">
        <ele>76.0</ele>
        <time>2019-10-12T10:25:22Z</time>
      </trkpt>
      <trkpt lat="39.9290900" lon="-0.1775490">
        <ele>76.1</ele>
        <time>2019-10-12T10:25:30Z</time>
      </trkpt>
      <trkpt lat="39.9291560" lon="-0.1780980">
        <ele>76.9</ele>
        <time>2019-10-12T10:25:37Z</time>
      </trkpt>
      <trkpt lat="39.9292420" lon="-0.1786390">
        <ele>77.6</ele>
        <time>2019-10-12T10:25:44Z</time>
      </trkpt>
      <trkpt lat="39.9293440" lon="-0.1793110">
        <ele>79.3</ele>
        <time>2019-10-12T10:25:53Z</time>
      </trkpt>
      <trkpt lat="39.9293800" lon="-0.1798680">
        <ele>80.0</ele>
        <time>2019-10-12T10:26:00Z</time>
      </trkpt>
      <trkpt lat="39.9293960" lon="-0.1804350">
        <ele>80.0</ele>
        <time>2019-10-12T10:26:07Z</time>
      </trkpt>
      <trkpt lat="39.9293310" lon="-0.1811730">
        <ele>80.4</ele>
        <time>2019-10-12T10:26:16Z</time>
      </trkpt>
      <trkpt lat="39.9292290" lon="-0.1818440">
        <ele>81.0</ele>
        <time>2019-10-12T10:26:24Z</time>
      </trkpt>
      <trkpt lat="39.9290680" lon="-0.1824100">
        <ele>81.9</ele>
        <time>2019-10-12T10:26:31Z</time>
      </trkpt>
      <trkpt lat="39.9289960" lon="-0.1826600">
        <ele>82.0</ele>
        <time>2019-10-12T10:26:34Z</time>
      </trkpt>
      <trkpt lat="39.9289820" lon="-0.1828360">
        <ele>82.0</ele>
        <time>2019-10-12T10:26:36Z</time>
      </trkpt>
      <trkpt lat="39.9289090" lon="-0.1836140">
        <ele>82.0</ele>
        <time>2019-10-12T10:26:45Z</time>
      </trkpt>
      <trkpt lat="39.9287870" lon="-0.1842750">
        <ele>82.1</ele>
        <time>2019-10-12T10:26:53Z</time>
      </trkpt>
      <trkpt lat="39.9287340" lon="-0.1848610">
        <ele>82.3</ele>
        <time>2019-10-12T10:27:00Z</time>
      </trkpt>
      <trkpt lat="39.9287790" lon="-0.1850210">
        <ele>82.8</ele>
        <time>2019-10-12T10:27:02Z</time>
      </trkpt>
      <trkpt lat="39.9288140" lon="-0.1850920">
        <ele>83.1</ele>
        <time>2019-10-12T10:27:03Z</time>
      </trkpt>
      <trkpt lat="39.9290750" lon="-0.1856450">
        <ele>82.6</ele>
        <time>2019-10-12T10:27:11Z</time>
      </trkpt>
      <trkpt lat="39.9292800" lon="-0.1862820">
        <ele>82.8</ele>
        <time>2019-10-12T10:27:19Z</time>
      </trkpt>
      <trkpt lat="39.9294630" lon="-0.1868470">
        <ele>82.3</ele>
        <time>2019-10-12T10:27:26Z</time>
      </trkpt>
      <trkpt lat="39.9295720" lon="-0.1873600">
        <ele>82.3</ele>
        <time>2019-10-12T10:27:32Z</time>
      </trkpt>
      <trkpt lat="39.9295960" lon="-0.1879660">
        <ele>83.1</ele>
        <time>2019-10-12T10:27:39Z</time>
      </trkpt>
      <trkpt lat="39.9296180" lon="-0.1884150">
        <ele>83.6</ele>
        <time>2019-10-12T10:27:44Z</time>
      </trkpt>
      <trkpt lat="39.9296360" lon="-0.1887650">
        <ele>84.1</ele>
        <time>2019-10-12T10:27:48Z</time>
      </trkpt>
      <trkpt lat="39.9296300" lon="-0.1889410">
        <ele>84.5</ele>
        <time>2019-10-12T10:27:50Z</time>
      </trkpt>
      <trkpt lat="39.9296510" lon="-0.1894120">
        <ele>85.5</ele>
        <time>2019-10-12T10:27:55Z</time>
      </trkpt>
      <trkpt lat="39.9296550" lon="-0.1896040">
        <ele>85.7</ele>
        <time>2019-10-12T10:27:57Z</time>
      </trkpt>
      <trkpt lat="39.9296480" lon="-0.1896970">
        <ele>85.8</ele>
        <time>2019-10-12T10:27:58Z</time>
      </trkpt>
      <trkpt lat="39.9296780" lon="-0.1898960">
        <ele>85.9</ele>
        <time>2019-10-12T10:28:00Z</time>
      </trkpt>
      <trkpt lat="39.9297220" lon="-0.1900730">
        <ele>86.4</ele>
        <time>2019-10-12T10:28:02Z</time>
      </trkpt>
      <trkpt lat="39.9297720" lon="-0.1902480">
        <ele>86.7</ele>
        <time>2019-10-12T10:28:04Z</time>
      </trkpt>
      <trkpt lat="39.9298600" lon="-0.1905050">
        <ele>86.8</ele>
        <time>2019-10-12T10:28:07Z</time>
      </trkpt>
      <trkpt lat="39.9298960" lon="-0.1905880">
        <ele>86.8</ele>
        <time>2019-10-12T10:28:08Z</time>
      </trkpt>
      <trkpt lat="39.9299840" lon="-0.1907450">
        <ele>86.8</ele>
        <time>2019-10-12T10:28:10Z</time>
      </trkpt>
      <trkpt lat="39.9300330" lon="-0.1908190">
        <ele>86.8</ele>
        <time>2019-10-12T10:28:11Z</time>
      </trkpt>
      <trkpt lat="39.9301190" lon="-0.1909770">
        <ele>86.7</ele>
        <time>2019-10-12T10:28:13Z</time>
      </trkpt>
      <trkpt lat="39.9301800" lon="-0.1911530">
        <ele>86.7</ele>
        <time>2019-10-12T10:28:15Z</time>
      </trkpt>
      <trkpt lat="39.9303590" lon="-0.1918210">
        <ele>87.4</ele>
        <time>2019-10-12T10:28:22Z</time>
      </trkpt>
      <trkpt lat="39.9303830" lon="-0.1919180">
        <ele>87.5</ele>
        <time>2019-10-12T10:28:23Z</time>
      </trkpt>
      <trkpt lat="39.9305500" lon="-0.1926120">
        <ele>88.3</ele>
        <time>2019-10-12T10:28:30Z</time>
      </trkpt>
      <trkpt lat="39.9306130" lon="-0.1928020">
        <ele>88.6</ele>
        <time>2019-10-12T10:28:32Z</time>
      </trkpt>
      <trkpt lat="39.9306910" lon="-0.1929840">
        <ele>88.8</ele>
        <time>2019-10-12T10:28:34Z</time>
      </trkpt>
      <trkpt lat="39.9309380" lon="-0.1935690">
        <ele>88.9</ele>
        <time>2019-10-12T10:28:41Z</time>
      </trkpt>
      <trkpt lat="39.9309940" lon="-0.1937350">
        <ele>88.9</ele>
        <time>2019-10-12T10:28:43Z</time>
      </trkpt>
      <trkpt lat="39.9311040" lon="-0.1939590">
        <ele>88.9</ele>
        <time>2019-10-12T10:28:46Z</time>
      </trkpt>
      <trkpt lat="39.9312050" lon="-0.1940850">
        <ele>89.0</ele>
        <time>2019-10-12T10:28:48Z</time>
      </trkpt>
      <trkpt lat="39.9313270" lon="-0.1941820">
        <ele>89.4</ele>
        <time>2019-10-12T10:28:50Z</time>
      </trkpt>
      <trkpt lat="39.9317110" lon="-0.1944670">
        <ele>90.4</ele>
        <time>2019-10-12T10:28:56Z</time>
      </trkpt>
      <trkpt lat="39.9317680" lon="-0.1945250">
        <ele>90.6</ele>
        <time>2019-10-12T10:28:57Z</time>
      </trkpt>
      <trkpt lat="39.9318260" lon="-0.1945800">
        <ele>90.8</ele>
        <time>2019-10-12T10:28:58Z</time>
      </trkpt>
      <trkpt lat="39.9319610" lon="-0.1946580">
        <ele>90.9</ele>
        <time>2019-10-12T10:29:00Z</time>
      </trkpt>
      <trkpt lat="39.9320210" lon="-0.1947100">
        <ele>91.0</ele>
        <time>2019-10-12T10:29:01Z</time>
      </trkpt>
      <trkpt lat="39.9320590" lon="-0.1947880">
        <ele>91.1</ele>
        <time>2019-10-12T10:29:02Z</time>
      </trkpt>
      <trkpt lat="39.9320650" lon="-0.1948800">
        <ele>91.1</ele>
        <time>2019-10-12T10:29:03Z</time>
      </trkpt>
      <trkpt lat="39.9320340" lon="-0.1949620">
        <ele>91.1</ele>
        <time>2019-10-12T10:29:04Z</time>
      </trkpt>
      <trkpt lat="39.9319800" lon="-0.1950260">
        <ele>91.1</ele>
        <time>2019-10-12T10:29:05Z</time>
      </trkpt>
      <trkpt lat="39.9318770" lon="-0.1951650">
        <ele>90.9</ele>
        <time>2019-10-12T10:29:07Z</time>
      </trkpt>
      <trkpt lat="39.9316900" lon="-0.1955920">
        <ele>90.7</ele>
        <time>2019-10-12T10:29:12Z</time>
      </trkpt>
      <trkpt lat="39.9313780" lon="-0.1962550">
        <ele>91.7</ele>
        <time>2019-10-12T10:29:20Z</time>
      </trkpt>
      <trkpt lat="39.9310610" lon="-0.1968140">
        <ele>93.0</ele>
        <time>2019-10-12T10:29:27Z</time>
      </trkpt>
      <trkpt lat="39.9309370" lon="-0.1969040">
        <ele>93.6</ele>
        <time>2019-10-12T10:29:29Z</time>
      </trkpt>
      <trkpt lat="39.9308680" lon="-0.1969250">
        <ele>93.9</ele>
        <time>2019-10-12T10:29:30Z</time>
      </trkpt>
      <trkpt lat="39.9307960" lon="-0.1969330">
        <ele>94.2</ele>
        <time>2019-10-12T10:29:31Z</time>
      </trkpt>
      <trkpt lat="39.9305750" lon="-0.1969180">
        <ele>94.8</ele>
        <time>2019-10-12T10:29:34Z</time>
      </trkpt>
      <trkpt lat="39.9301250" lon="-0.1968110">
        <ele>96.6</ele>
        <time>2019-10-12T10:29:40Z</time>
      </trkpt>
      <trkpt lat="39.9295890" lon="-0.1966410">
        <ele>97.5</ele>
        <time>2019-10-12T10:29:47Z</time>
      </trkpt>
      <trkpt lat="39.9291460" lon="-0.1965030">
        <ele>97.7</ele>
        <time>2019-10-12T10:29:53Z</time>
      </trkpt>
      <trkpt lat="39.9288130" lon="-0.1964150">
        <ele>97.8</ele>
        <time>2019-10-12T10:29:58Z</time>
      </trkpt>
      <trkpt lat="39.9286720" lon="-0.1964080">
        <ele>97.9</ele>
        <time>2019-10-12T10:30:00Z</time>
      </trkpt>
      <trkpt lat="39.9286030" lon="-0.1964060">
        <ele>98.0</ele>
        <time>2019-10-12T10:30:01Z</time>
      </trkpt>
      <trkpt lat="39.9285410" lon="-0.1963730">
        <ele>98.2</ele>
        <time>2019-10-12T10:30:02Z</time>
      </trkpt>
      <trkpt lat="39.9285020" lon="-0.1963130">
        <ele>97.8</ele>
        <time>2019-10-12T10:30:03Z</time>
      </trkpt>
      <trkpt lat="39.9284980" lon="-0.1962370">
        <ele>97.7</ele>
        <time>2019-10-12T10:30:04Z</time>
      </trkpt>
      <trkpt lat="39.9285220" lon="-0.1961590">
        <ele>97.4</ele>
        <time>2019-10-12T10:30:05Z</time>
      </trkpt>
      <trkpt lat="39.9285500" lon="-0.1960830">
        <ele>97.3</ele>
        <time>2019-10-12T10:30:06Z</time>
      </trkpt>
      <trkpt lat="39.9285620" lon="-0.1959130">
        <ele>96.9</ele>
        <time>2019-10-12T10:30:08Z</time>
      </trkpt>
      <trkpt lat="39.9285200" lon="-0.1954830">
        <ele>96.1</ele>
        <time>2019-10-12T10:30:13Z</time>
      </trkpt>
      <trkpt lat="39.9285050" lon="-0.1953980">
        <ele>95.9</ele>
        <time>2019-10-12T10:30:14Z</time>
      </trkpt>
      <trkpt lat="39.9284490" lon="-0.1952530">
        <ele>95.8</ele>
        <time>2019-10-12T10:30:16Z</time>
      </trkpt>
      <trkpt lat="39.9283930" lon="-0.1949700">
        <ele>95.4</ele>
        <time>2019-10-12T10:30:20Z</time>
      </trkpt>
      <trkpt lat="39.9283550" lon="-0.1948730">
        <ele>95.3</ele>
        <time>2019-10-12T10:30:22Z</time>
      </trkpt>
    </trkseg>
  </trk>
</gpx>
